<?xml version='1.0' encoding='UTF-8'?><gpx version="1.1" creator="JPX - https://github.com/jenetics/jpx" xmlns="http://www.topografix.com/GPX/1/1"><trk><trkseg><trkpt lat="44.44449544687547" lon="11.472263092746818"><ele>62.0</ele><time>2026-04-10T15:37:59.959Z</time></trkpt><trkpt lat="44.44442872090253" lon="11.47229955705316"><ele>62.0</ele><time>2026-04-10T15:39:54.96Z</time></trkpt><trkpt lat="44.444389476505826" lon="11.47221109173618"><ele>62.0</ele><time>2026-04-10T15:39:57.96Z</time></trkpt><trkpt lat="44.444299950034434" lon="11.47213808365296"><ele>62.0</ele><time>2026-04-10T15:40:00.96Z</time></trkpt><trkpt lat="44.444136186052695" lon="11.471997719898026"><ele>62.0</ele><time>2026-04-10T15:40:08.96Z</time></trkpt><trkpt lat="44.444071804661476" lon="11.471958207179322"><ele>61.8</ele><time>2026-04-10T15:40:10.96Z</time></trkpt><trkpt lat="44.443935059605195" lon="11.471887010955681"><ele>61.6</ele><time>2026-04-10T15:40:11.96Z</time></trkpt><trkpt lat="44.443876342299305" lon="11.471828016561535"><ele>61.39999999999999</ele><time>2026-04-10T15:40:13.96Z</time></trkpt><trkpt lat="44.44382254623875" lon="11.471767814170764"><ele>61.199999999999996</ele><time>2026-04-10T15:40:15.96Z</time></trkpt><trkpt lat="44.44374556712725" lon="11.471709193469612"><ele>61.0</ele><time>2026-04-10T15:40:17.96Z</time></trkpt><trkpt lat="44.44365879081094" lon="11.471662106104596"><ele>61.33333333333333</ele><time>2026-04-10T15:40:19.96Z</time></trkpt><trkpt lat="44.44359382948072" lon="11.471576498406778"><ele>61.666666666666664</ele><time>2026-04-10T15:40:21.96Z</time></trkpt><trkpt lat="44.443548921527004" lon="11.47151151633316"><ele>62.0</ele><time>2026-04-10T15:40:23.96Z</time></trkpt><trkpt lat="44.44348535287316" lon="11.471444018340692"><ele>62.33333333333333</ele><time>2026-04-10T15:40:25.96Z</time></trkpt><trkpt lat="44.443428587679016" lon="11.471363601222288"><ele>62.666666666666664</ele><time>2026-04-10T15:40:27.96Z</time></trkpt><trkpt lat="44.443363866956034" lon="11.471295531821513"><ele>63.0</ele><time>2026-04-10T15:40:29.96Z</time></trkpt><trkpt lat="44.443293688026856" lon="11.471218695007124"><ele>63.0</ele><time>2026-04-10T15:40:31.96Z</time></trkpt><trkpt lat="44.443232729151575" lon="11.471151400470937"><ele>63.0</ele><time>2026-04-10T15:40:33.96Z</time></trkpt><trkpt lat="44.443174501141954" lon="11.471090656895187"><ele>63.0</ele><time>2026-04-10T15:40:35.96Z</time></trkpt><trkpt lat="44.44311955878786" lon="11.471039699886237"><ele>63.0</ele><time>2026-04-10T15:40:37.96Z</time></trkpt><trkpt lat="44.44309208887564" lon="11.470923382178432"><ele>63.0</ele><time>2026-04-10T15:40:40.96Z</time></trkpt><trkpt lat="44.443061212273626" lon="11.470817120205272"><ele>63.0</ele><time>2026-04-10T15:40:42.96Z</time></trkpt><trkpt lat="44.443060040204045" lon="11.470712880894387"><ele>63.0</ele><time>2026-04-10T15:40:44.96Z</time></trkpt><trkpt lat="44.443094947018956" lon="11.470589018331264"><ele>63.0</ele><time>2026-04-10T15:40:46.96Z</time></trkpt><trkpt lat="44.44313228270355" lon="11.470463861516274"><ele>63.0</ele><time>2026-04-10T15:40:48.96Z</time></trkpt><trkpt lat="44.443165996695264" lon="11.47033742976576"><ele>63.0</ele><time>2026-04-10T15:40:50.96Z</time></trkpt><trkpt lat="44.4432240967774" lon="11.47022608449454"><ele>63.0</ele><time>2026-04-10T15:40:52.96Z</time></trkpt><trkpt lat="44.44327985229811" lon="11.47011768279766"><ele>63.2</ele><time>2026-04-10T15:40:54.96Z</time></trkpt><trkpt lat="44.4433321653941" lon="11.46999273010708"><ele>63.4</ele><time>2026-04-10T15:40:56.96Z</time></trkpt><trkpt lat="44.44337188952" lon="11.46987799833681"><ele>63.60000000000001</ele><time>2026-04-10T15:40:58.96Z</time></trkpt><trkpt lat="44.44341873632758" lon="11.46977397061289"><ele>63.800000000000004</ele><time>2026-04-10T15:41:00.96Z</time></trkpt><trkpt lat="44.44344415883978" lon="11.469636447908483"><ele>64.0</ele><time>2026-04-10T15:41:02.96Z</time></trkpt><trkpt lat="44.44347652869724" lon="11.46950223536523"><ele>63.6</ele><time>2026-04-10T15:41:04.96Z</time></trkpt><trkpt lat="44.4435102548131" lon="11.469373203945237"><ele>63.2</ele><time>2026-04-10T15:41:06.96Z</time></trkpt><trkpt lat="44.44355783207569" lon="11.469236029737244"><ele>62.800000000000004</ele><time>2026-04-10T15:41:08.96Z</time></trkpt><trkpt lat="44.443607261155435" lon="11.469122836362768"><ele>62.400000000000006</ele><time>2026-04-10T15:41:10.96Z</time></trkpt><trkpt lat="44.44367710912848" lon="11.469011869179536"><ele>62.0</ele><time>2026-04-10T15:41:12.96Z</time></trkpt><trkpt lat="44.44375871461329" lon="11.468928188393024"><ele>62.400000000000006</ele><time>2026-04-10T15:41:14.96Z</time></trkpt><trkpt lat="44.44382840571707" lon="11.468836008409122"><ele>62.800000000000004</ele><time>2026-04-10T15:41:16.96Z</time></trkpt><trkpt lat="44.44388295567551" lon="11.46873407519289"><ele>63.2</ele><time>2026-04-10T15:41:18.96Z</time></trkpt><trkpt lat="44.443942536231596" lon="11.468637428164145"><ele>63.6</ele><time>2026-04-10T15:41:20.96Z</time></trkpt><trkpt lat="44.44398770912105" lon="11.468529035849455"><ele>64.0</ele><time>2026-04-10T15:41:22.96Z</time></trkpt><trkpt lat="44.44402495782193" lon="11.468407654948265"><ele>63.99999999999999</ele><time>2026-04-10T15:41:24.96Z</time></trkpt><trkpt lat="44.44405968486863" lon="11.468296097393928"><ele>64.0</ele><time>2026-04-10T15:41:26.96Z</time></trkpt><trkpt lat="44.44409805255911" lon="11.468189163389184"><ele>64.0</ele><time>2026-04-10T15:41:28.96Z</time></trkpt><trkpt lat="44.44413799925385" lon="11.468091975096813"><ele>64.0</ele><time>2026-04-10T15:41:30.961Z</time></trkpt><trkpt lat="44.44418597366464" lon="11.467990407816378"><ele>63.99999999999999</ele><time>2026-04-10T15:41:32.961Z</time></trkpt><trkpt lat="44.44424123236008" lon="11.467905089226866"><ele>64.0</ele><time>2026-04-10T15:41:34.961Z</time></trkpt><trkpt lat="44.44428035800365" lon="11.467788690994235"><ele>63.666666666666664</ele><time>2026-04-10T15:41:36.961Z</time></trkpt><trkpt lat="44.44432092032064" lon="11.467674985792014"><ele>63.33333333333333</ele><time>2026-04-10T15:41:38.961Z</time></trkpt><trkpt lat="44.44435361029923" lon="11.467577539722804"><ele>63.0</ele><time>2026-04-10T15:41:40.961Z</time></trkpt><trkpt lat="44.44439420740705" lon="11.467477039471923"><ele>62.66666666666667</ele><time>2026-04-10T15:41:42.961Z</time></trkpt><trkpt lat="44.444435888324264" lon="11.467375811745384"><ele>62.333333333333336</ele><time>2026-04-10T15:41:44.961Z</time></trkpt><trkpt lat="44.444481744019285" lon="11.467281539362409"><ele>62.0</ele><time>2026-04-10T15:41:46.96Z</time></trkpt><trkpt lat="44.44452154906653" lon="11.467169068266848"><ele>62.00000000000001</ele><time>2026-04-10T15:41:48.961Z</time></trkpt><trkpt lat="44.44455279241442" lon="11.46705048885903"><ele>62.0</ele><time>2026-04-10T15:41:50.961Z</time></trkpt><trkpt lat="44.44459508539784" lon="11.466942514075171"><ele>62.0</ele><time>2026-04-10T15:41:52.961Z</time></trkpt><trkpt lat="44.444637859159734" lon="11.466834931168176"><ele>62.0</ele><time>2026-04-10T15:41:54.961Z</time></trkpt><trkpt lat="44.44467324711023" lon="11.46672112093198"><ele>62.00000000000001</ele><time>2026-04-10T15:41:56.961Z</time></trkpt><trkpt lat="44.44471602111883" lon="11.466612683811922"><ele>62.0</ele><time>2026-04-10T15:41:58.961Z</time></trkpt><trkpt lat="44.44475421877853" lon="11.466504755002513"><ele>62.00000000000001</ele><time>2026-04-10T15:42:00.961Z</time></trkpt><trkpt lat="44.444791030363575" lon="11.466400404028875"><ele>62.0</ele><time>2026-04-10T15:42:02.961Z</time></trkpt><trkpt lat="44.44483498496148" lon="11.466299807216563"><ele>62.0</ele><time>2026-04-10T15:42:04.961Z</time></trkpt><trkpt lat="44.44487392087227" lon="11.466192897324389"><ele>62.0</ele><time>2026-04-10T15:42:06.961Z</time></trkpt><trkpt lat="44.444908185011556" lon="11.466079558489051"><ele>62.00000000000001</ele><time>2026-04-10T15:42:08.961Z</time></trkpt><trkpt lat="44.444951178353975" lon="11.465978154824372"><ele>62.0</ele><time>2026-04-10T15:42:10.961Z</time></trkpt><trkpt lat="44.444979498413005" lon="11.465878389937904"><ele>62.00000000000001</ele><time>2026-04-10T15:42:12.961Z</time></trkpt><trkpt lat="44.4449574181537" lon="11.465779687201422"><ele>62.0</ele><time>2026-04-10T15:42:18.961Z</time></trkpt><trkpt lat="44.444984743255894" lon="11.465663390577891"><ele>62.0</ele><time>2026-04-10T15:42:22.961Z</time></trkpt><trkpt lat="44.44494037983954" lon="11.465572141131847"><ele>62.0</ele><time>2026-04-10T15:42:24.961Z</time></trkpt><trkpt lat="44.44486715235129" lon="11.465515231751363"><ele>62.00000000000001</ele><time>2026-04-10T15:42:26.961Z</time></trkpt><trkpt lat="44.444797577591245" lon="11.46545968390043"><ele>62.0</ele><time>2026-04-10T15:42:28.961Z</time></trkpt><trkpt lat="44.44473768568576" lon="11.46539167413348"><ele>62.00000000000001</ele><time>2026-04-10T15:42:30.961Z</time></trkpt><trkpt lat="44.44467117078744" lon="11.46532946513717"><ele>62.0</ele><time>2026-04-10T15:42:32.961Z</time></trkpt><trkpt lat="44.44460295968586" lon="11.465269349363885"><ele>62.0</ele><time>2026-04-10T15:42:34.961Z</time></trkpt><trkpt lat="44.444543521311864" lon="11.465202601937824"><ele>62.0</ele><time>2026-04-10T15:42:36.961Z</time></trkpt><trkpt lat="44.44447346240591" lon="11.465141207756249"><ele>62.00000000000001</ele><time>2026-04-10T15:42:38.961Z</time></trkpt><trkpt lat="44.444407780543116" lon="11.465057878140517"><ele>62.0</ele><time>2026-04-10T15:42:40.961Z</time></trkpt><trkpt lat="44.44434653747013" lon="11.4649785296329"><ele>62.16666666666667</ele><time>2026-04-10T15:42:42.961Z</time></trkpt><trkpt lat="44.4442917159601" lon="11.464893779446067"><ele>62.333333333333336</ele><time>2026-04-10T15:42:44.961Z</time></trkpt><trkpt lat="44.44423044727156" lon="11.464816894025489"><ele>62.5</ele><time>2026-04-10T15:42:46.961Z</time></trkpt><trkpt lat="44.44417656468809" lon="11.464736821802212"><ele>62.66666666666667</ele><time>2026-04-10T15:42:48.961Z</time></trkpt><trkpt lat="44.44412164763845" lon="11.464657376974845"><ele>62.833333333333336</ele><time>2026-04-10T15:42:50.961Z</time></trkpt><trkpt lat="44.444071869272356" lon="11.464578410816415"><ele>63.0</ele><time>2026-04-10T15:42:52.961Z</time></trkpt><trkpt lat="44.444027746045066" lon="11.464501189152546"><ele>63.166666666666664</ele><time>2026-04-10T15:42:54.961Z</time></trkpt><trkpt lat="44.44396621807427" lon="11.464414881828546"><ele>63.33333333333333</ele><time>2026-04-10T15:42:56.961Z</time></trkpt><trkpt lat="44.44391028821994" lon="11.464320330370676"><ele>63.5</ele><time>2026-04-10T15:42:58.961Z</time></trkpt><trkpt lat="44.443850736886986" lon="11.464232501602993"><ele>63.666666666666664</ele><time>2026-04-10T15:43:00.961Z</time></trkpt><trkpt lat="44.44378667500042" lon="11.464152006347474"><ele>63.83333333333333</ele><time>2026-04-10T15:43:02.961Z</time></trkpt><trkpt lat="44.4437260806292" lon="11.46406644718683"><ele>64.0</ele><time>2026-04-10T15:43:04.961Z</time></trkpt><trkpt lat="44.44367297815889" lon="11.46398240912646"><ele>64.60000000000001</ele><time>2026-04-10T15:43:06.961Z</time></trkpt><trkpt lat="44.44361619855711" lon="11.463864428986485"><ele>65.2</ele><time>2026-04-10T15:43:08.961Z</time></trkpt><trkpt lat="44.44356318847041" lon="11.463762604678177"><ele>65.80000000000001</ele><time>2026-04-10T15:43:10.961Z</time></trkpt><trkpt lat="44.443503564095835" lon="11.46366322043109"><ele>66.4</ele><time>2026-04-10T15:43:12.961Z</time></trkpt><trkpt lat="44.443441996033215" lon="11.46357368201878"><ele>67.0</ele><time>2026-04-10T15:43:14.961Z</time></trkpt><trkpt lat="44.4433800294361" lon="11.463480011794113"><ele>67.4</ele><time>2026-04-10T15:43:16.961Z</time></trkpt><trkpt lat="44.44331501458669" lon="11.463388332510926"><ele>67.80000000000001</ele><time>2026-04-10T15:43:18.961Z</time></trkpt><trkpt lat="44.44325183861633" lon="11.463299724514107"><ele>68.2</ele><time>2026-04-10T15:43:20.961Z</time></trkpt><trkpt lat="44.443182167385544" lon="11.463215197483933"><ele>68.60000000000001</ele><time>2026-04-10T15:43:22.961Z</time></trkpt><trkpt lat="44.44311488740326" lon="11.463123893990248"><ele>69.0</ele><time>2026-04-10T15:43:24.961Z</time></trkpt><trkpt lat="44.44305155678428" lon="11.463040086954287"><ele>69.0</ele><time>2026-04-10T15:43:26.961Z</time></trkpt><trkpt lat="44.44298763767713" lon="11.462963599070136"><ele>69.0</ele><time>2026-04-10T15:43:28.961Z</time></trkpt><trkpt lat="44.442910491242834" lon="11.462884721099412"><ele>69.0</ele><time>2026-04-10T15:43:30.961Z</time></trkpt><trkpt lat="44.4428278039303" lon="11.462805580160843"><ele>69.0</ele><time>2026-04-10T15:43:32.961Z</time></trkpt><trkpt lat="44.442751294767376" lon="11.462723454526905"><ele>69.0</ele><time>2026-04-10T15:43:34.961Z</time></trkpt><trkpt lat="44.4426689095271" lon="11.462640777801969"><ele>69.60000000000001</ele><time>2026-04-10T15:43:36.961Z</time></trkpt><trkpt lat="44.44258496329194" lon="11.462574303804367"><ele>70.2</ele><time>2026-04-10T15:43:38.961Z</time></trkpt><trkpt lat="44.442506075243315" lon="11.46248444211831"><ele>70.80000000000001</ele><time>2026-04-10T15:43:40.961Z</time></trkpt><trkpt lat="44.442431955314674" lon="11.462401279412866"><ele>71.4</ele><time>2026-04-10T15:43:42.961Z</time></trkpt><trkpt lat="44.442353629056896" lon="11.462324049842662"><ele>72.0</ele><time>2026-04-10T15:43:44.961Z</time></trkpt><trkpt lat="44.44227347832882" lon="11.462234797737102"><ele>72.0</ele><time>2026-04-10T15:43:46.961Z</time></trkpt><trkpt lat="44.44219637215699" lon="11.46215697525465"><ele>72.0</ele><time>2026-04-10T15:43:48.961Z</time></trkpt><trkpt lat="44.44211638897582" lon="11.462080266326193"><ele>72.0</ele><time>2026-04-10T15:43:50.961Z</time></trkpt><trkpt lat="44.44203480288043" lon="11.46199990094835"><ele>72.0</ele><time>2026-04-10T15:43:52.961Z</time></trkpt><trkpt lat="44.441953592446296" lon="11.461914514799615"><ele>72.0</ele><time>2026-04-10T15:43:54.961Z</time></trkpt><trkpt lat="44.4418747667981" lon="11.461832822567324"><ele>71.4</ele><time>2026-04-10T15:43:56.96Z</time></trkpt><trkpt lat="44.44178763606342" lon="11.46175128623011"><ele>70.80000000000001</ele><time>2026-04-10T15:43:58.961Z</time></trkpt><trkpt lat="44.44170928693117" lon="11.461671141262787"><ele>70.2</ele><time>2026-04-10T15:44:00.961Z</time></trkpt><trkpt lat="44.4416272493051" lon="11.461596641554916"><ele>69.60000000000001</ele><time>2026-04-10T15:44:02.961Z</time></trkpt><trkpt lat="44.441542088295506" lon="11.46151858205712"><ele>69.0</ele><time>2026-04-10T15:44:04.961Z</time></trkpt><trkpt lat="44.44145949912266" lon="11.46143235131677"><ele>69.0</ele><time>2026-04-10T15:44:06.961Z</time></trkpt><trkpt lat="44.44137378864812" lon="11.461341265003009"><ele>69.0</ele><time>2026-04-10T15:44:08.961Z</time></trkpt><trkpt lat="44.441290131031906" lon="11.46125726474397"><ele>69.0</ele><time>2026-04-10T15:44:10.961Z</time></trkpt><trkpt lat="44.44120361734922" lon="11.46117576805951"><ele>69.0</ele><time>2026-04-10T15:44:12.961Z</time></trkpt><trkpt lat="44.44111605430841" lon="11.461098456407687"><ele>69.0</ele><time>2026-04-10T15:44:14.961Z</time></trkpt><trkpt lat="44.441027414019686" lon="11.461025201973591"><ele>70.0</ele><time>2026-04-10T15:44:16.961Z</time></trkpt><trkpt lat="44.440935494830406" lon="11.460968431003229"><ele>71.0</ele><time>2026-04-10T15:44:18.961Z</time></trkpt><trkpt lat="44.44084087825089" lon="11.460905994473178"><ele>72.0</ele><time>2026-04-10T15:44:20.961Z</time></trkpt><trkpt lat="44.440748216556635" lon="11.460849161316684"><ele>73.0</ele><time>2026-04-10T15:44:22.961Z</time></trkpt><trkpt lat="44.44065411809005" lon="11.460790057471886"><ele>74.0</ele><time>2026-04-10T15:44:24.961Z</time></trkpt><trkpt lat="44.44055960660503" lon="11.460726131821765"><ele>74.8</ele><time>2026-04-10T15:44:26.961Z</time></trkpt><trkpt lat="44.440461132402014" lon="11.460663590402138"><ele>75.60000000000001</ele><time>2026-04-10T15:44:28.961Z</time></trkpt><trkpt lat="44.44036584803286" lon="11.460591059935952"><ele>76.4</ele><time>2026-04-10T15:44:30.961Z</time></trkpt><trkpt lat="44.440279230564876" lon="11.460524592268744"><ele>77.2</ele><time>2026-04-10T15:44:32.961Z</time></trkpt><trkpt lat="44.44019807319869" lon="11.460446683937391"><ele>78.0</ele><time>2026-04-10T15:44:34.961Z</time></trkpt><trkpt lat="44.440108900320176" lon="11.46035631597961"><ele>78.6</ele><time>2026-04-10T15:44:36.961Z</time></trkpt><trkpt lat="44.44001871072423" lon="11.460271771139668"><ele>79.19999999999999</ele><time>2026-04-10T15:44:38.961Z</time></trkpt><trkpt lat="44.439929973263006" lon="11.460188455052844"><ele>79.8</ele><time>2026-04-10T15:44:40.961Z</time></trkpt><trkpt lat="44.439838353860374" lon="11.460098294742616"><ele>80.39999999999999</ele><time>2026-04-10T15:44:42.961Z</time></trkpt><trkpt lat="44.43975445412246" lon="11.460016063625675"><ele>81.0</ele><time>2026-04-10T15:44:44.961Z</time></trkpt><trkpt lat="44.43967115595158" lon="11.459939273242492"><ele>81.19999999999999</ele><time>2026-04-10T15:44:46.961Z</time></trkpt><trkpt lat="44.43958358589957" lon="11.459855209129818"><ele>81.39999999999999</ele><time>2026-04-10T15:44:48.961Z</time></trkpt><trkpt lat="44.43949806725024" lon="11.459784393904203"><ele>81.6</ele><time>2026-04-10T15:44:50.961Z</time></trkpt><trkpt lat="44.439414640413816" lon="11.45971315749771"><ele>81.8</ele><time>2026-04-10T15:44:52.961Z</time></trkpt><trkpt lat="44.43932830856135" lon="11.459631036249917"><ele>82.0</ele><time>2026-04-10T15:44:54.961Z</time></trkpt><trkpt lat="44.439245669411974" lon="11.459551624815695"><ele>82.8</ele><time>2026-04-10T15:44:56.961Z</time></trkpt><trkpt lat="44.43917839677904" lon="11.459449279095764"><ele>83.6</ele><time>2026-04-10T15:44:58.961Z</time></trkpt><trkpt lat="44.43914959593531" lon="11.459313921693305"><ele>84.39999999999999</ele><time>2026-04-10T15:45:00.961Z</time></trkpt><trkpt lat="44.43915381857594" lon="11.459225132349937"><ele>85.19999999999999</ele><time>2026-04-10T15:45:01.961Z</time></trkpt><trkpt lat="44.43919302790259" lon="11.459070870439007"><ele>86.0</ele><time>2026-04-10T15:45:03.961Z</time></trkpt><trkpt lat="44.439234879521294" lon="11.45892401756864"><ele>86.0</ele><time>2026-04-10T15:45:05.961Z</time></trkpt><trkpt lat="44.439268270304886" lon="11.458777348029558"><ele>86.0</ele><time>2026-04-10T15:45:07.961Z</time></trkpt><trkpt lat="44.43930542756392" lon="11.458627936038155"><ele>86.0</ele><time>2026-04-10T15:45:09.961Z</time></trkpt><trkpt lat="44.43934273550236" lon="11.458480346780641"><ele>86.0</ele><time>2026-04-10T15:45:11.961Z</time></trkpt><trkpt lat="44.43938161256907" lon="11.458328951487035"><ele>86.0</ele><time>2026-04-10T15:45:13.961Z</time></trkpt><trkpt lat="44.43941645845674" lon="11.458168091738166"><ele>86.0</ele><time>2026-04-10T15:45:15.961Z</time></trkpt><trkpt lat="44.4394587637375" lon="11.458013629331754"><ele>86.0</ele><time>2026-04-10T15:45:17.961Z</time></trkpt><trkpt lat="44.43949588665975" lon="11.457849650107535"><ele>86.0</ele><time>2026-04-10T15:45:19.961Z</time></trkpt><trkpt lat="44.43951537435827" lon="11.457764336862219"><ele>86.0</ele><time>2026-04-10T15:45:20.961Z</time></trkpt><trkpt lat="44.43956127024679" lon="11.457598504803256"><ele>85.57142857142858</ele><time>2026-04-10T15:45:22.961Z</time></trkpt><trkpt lat="44.439581225791" lon="11.457508929095185"><ele>85.14285714285714</ele><time>2026-04-10T15:45:23.961Z</time></trkpt><trkpt lat="44.43960028103953" lon="11.457422893428609"><ele>84.71428571428572</ele><time>2026-04-10T15:45:24.961Z</time></trkpt><trkpt lat="44.4396172287235" lon="11.457336608770026"><ele>84.28571428571429</ele><time>2026-04-10T15:45:25.961Z</time></trkpt><trkpt lat="44.43963661112191" lon="11.457247395659971"><ele>83.85714285714286</ele><time>2026-04-10T15:45:26.961Z</time></trkpt><trkpt lat="44.4396569558991" lon="11.457159242067549"><ele>83.42857142857143</ele><time>2026-04-10T15:45:27.961Z</time></trkpt><trkpt lat="44.43967670752424" lon="11.457069060857215"><ele>83.0</ele><time>2026-04-10T15:45:28.961Z</time></trkpt><trkpt lat="44.439699532386385" lon="11.456979854863697"><ele>82.85714285714285</ele><time>2026-04-10T15:45:29.961Z</time></trkpt><trkpt lat="44.43971928883324" lon="11.456893951019069"><ele>82.71428571428572</ele><time>2026-04-10T15:45:30.961Z</time></trkpt><trkpt lat="44.43973933953134" lon="11.45680274661537"><ele>82.57142857142857</ele><time>2026-04-10T15:45:31.961Z</time></trkpt><trkpt lat="44.439758902435905" lon="11.456714232348556"><ele>82.42857142857142</ele><time>2026-04-10T15:45:32.961Z</time></trkpt><trkpt lat="44.439779285806715" lon="11.456625677299288"><ele>82.28571428571428</ele><time>2026-04-10T15:45:33.961Z</time></trkpt><trkpt lat="44.43980162183374" lon="11.456537628269198"><ele>82.14285714285714</ele><time>2026-04-10T15:45:34.961Z</time></trkpt><trkpt lat="44.43982257191502" lon="11.456448115234695"><ele>82.0</ele><time>2026-04-10T15:45:35.961Z</time></trkpt><trkpt lat="44.4398425954391" lon="11.456357482473125"><ele>81.85714285714285</ele><time>2026-04-10T15:45:36.961Z</time></trkpt><trkpt lat="44.43986374836977" lon="11.456266134016929"><ele>81.71428571428571</ele><time>2026-04-10T15:45:37.961Z</time></trkpt><trkpt lat="44.43988510593532" lon="11.456174547294156"><ele>81.57142857142857</ele><time>2026-04-10T15:45:38.961Z</time></trkpt><trkpt lat="44.43990746726092" lon="11.456082251787226"><ele>81.42857142857142</ele><time>2026-04-10T15:45:39.961Z</time></trkpt><trkpt lat="44.43992967945313" lon="11.455989989398402"><ele>81.28571428571428</ele><time>2026-04-10T15:45:40.961Z</time></trkpt><trkpt lat="44.439952284683734" lon="11.455900860963014"><ele>81.14285714285714</ele><time>2026-04-10T15:45:41.962Z</time></trkpt><trkpt lat="44.4399717775299" lon="11.455809064935398"><ele>81.0</ele><time>2026-04-10T15:45:42.962Z</time></trkpt><trkpt lat="44.43999222750876" lon="11.45572191478363"><ele>81.0</ele><time>2026-04-10T15:45:43.962Z</time></trkpt><trkpt lat="44.440014249141306" lon="11.455627920329434"><ele>81.0</ele><time>2026-04-10T15:45:44.962Z</time></trkpt><trkpt lat="44.440037600150774" lon="11.455535401950918"><ele>81.0</ele><time>2026-04-10T15:45:45.962Z</time></trkpt><trkpt lat="44.44006250423174" lon="11.455445834724081"><ele>81.0</ele><time>2026-04-10T15:45:46.962Z</time></trkpt><trkpt lat="44.44008345410041" lon="11.45535905654654"><ele>81.0</ele><time>2026-04-10T15:45:47.962Z</time></trkpt><trkpt lat="44.44010000106028" lon="11.455267304634512"><ele>81.0</ele><time>2026-04-10T15:45:48.962Z</time></trkpt><trkpt lat="44.4401201867407" lon="11.455176741695801"><ele>81.0</ele><time>2026-04-10T15:45:49.962Z</time></trkpt><trkpt lat="44.440142974766026" lon="11.455086737772104"><ele>80.83333333333333</ele><time>2026-04-10T15:45:50.962Z</time></trkpt><trkpt lat="44.44016302080986" lon="11.454997707700894"><ele>80.66666666666667</ele><time>2026-04-10T15:45:51.962Z</time></trkpt><trkpt lat="44.4401850433464" lon="11.45491323562307"><ele>80.5</ele><time>2026-04-10T15:45:52.962Z</time></trkpt><trkpt lat="44.44020754192779" lon="11.45482633129214"><ele>80.33333333333334</ele><time>2026-04-10T15:45:53.962Z</time></trkpt><trkpt lat="44.44024733800322" lon="11.45465905906202"><ele>80.16666666666667</ele><time>2026-04-10T15:45:55.962Z</time></trkpt><trkpt lat="44.44028530718328" lon="11.454504431104603"><ele>80.0</ele><time>2026-04-10T15:45:57.961Z</time></trkpt><trkpt lat="44.44032382685252" lon="11.454349767550035"><ele>79.75</ele><time>2026-04-10T15:45:59.962Z</time></trkpt><trkpt lat="44.440361691107626" lon="11.454194985433405"><ele>79.5</ele><time>2026-04-10T15:46:01.963Z</time></trkpt><trkpt lat="44.440402520470876" lon="11.454040164996645"><ele>79.25</ele><time>2026-04-10T15:46:03.962Z</time></trkpt><trkpt lat="44.44045754496704" lon="11.45389162259189"><ele>79.0</ele><time>2026-04-10T15:46:05.962Z</time></trkpt><trkpt lat="44.440507050599976" lon="11.453731827231888"><ele>79.0</ele><time>2026-04-10T15:46:07.962Z</time></trkpt><trkpt lat="44.44056168931655" lon="11.45357063075512"><ele>79.0</ele><time>2026-04-10T15:46:09.962Z</time></trkpt><trkpt lat="44.440587545281495" lon="11.453488841532977"><ele>79.0</ele><time>2026-04-10T15:46:10.962Z</time></trkpt><trkpt lat="44.440640778273334" lon="11.45333546180096"><ele>79.0</ele><time>2026-04-10T15:46:12.962Z</time></trkpt><trkpt lat="44.44069047756341" lon="11.453175747066076"><ele>79.0</ele><time>2026-04-10T15:46:14.962Z</time></trkpt><trkpt lat="44.440713885721536" lon="11.453093450416183"><ele>79.00000000000001</ele><time>2026-04-10T15:46:15.962Z</time></trkpt><trkpt lat="44.440738692553715" lon="11.45301088320053"><ele>79.0</ele><time>2026-04-10T15:46:16.962Z</time></trkpt><trkpt lat="44.44076331758665" lon="11.45292808480746"><ele>79.0</ele><time>2026-04-10T15:46:17.962Z</time></trkpt><trkpt lat="44.44079200577692" lon="11.452842556453449"><ele>79.0</ele><time>2026-04-10T15:46:18.962Z</time></trkpt><trkpt lat="44.44082151333026" lon="11.452757763989343"><ele>79.0</ele><time>2026-04-10T15:46:19.961Z</time></trkpt><trkpt lat="44.440850529810135" lon="11.452676530317301"><ele>79.00000000000001</ele><time>2026-04-10T15:46:20.961Z</time></trkpt><trkpt lat="44.44087793012229" lon="11.452588550031535"><ele>79.0</ele><time>2026-04-10T15:46:21.961Z</time></trkpt><trkpt lat="44.440906676812055" lon="11.452502994763886"><ele>78.71428571428572</ele><time>2026-04-10T15:46:22.961Z</time></trkpt><trkpt lat="44.440935945101494" lon="11.45241860723536"><ele>78.42857142857143</ele><time>2026-04-10T15:46:23.961Z</time></trkpt><trkpt lat="44.4409642389044" lon="11.452331545831951"><ele>78.14285714285714</ele><time>2026-04-10T15:46:24.961Z</time></trkpt><trkpt lat="44.440992594768595" lon="11.45224564138211"><ele>77.85714285714286</ele><time>2026-04-10T15:46:25.961Z</time></trkpt><trkpt lat="44.441021535177974" lon="11.452163271258932"><ele>77.57142857142857</ele><time>2026-04-10T15:46:26.961Z</time></trkpt><trkpt lat="44.4410496412988" lon="11.45207693876628"><ele>77.28571428571429</ele><time>2026-04-10T15:46:27.961Z</time></trkpt><trkpt lat="44.44107749164635" lon="11.451990689819555"><ele>77.0</ele><time>2026-04-10T15:46:28.961Z</time></trkpt><trkpt lat="44.44110637244648" lon="11.45190505354719"><ele>77.0</ele><time>2026-04-10T15:46:29.961Z</time></trkpt><trkpt lat="44.44112780486257" lon="11.45182111684568"><ele>77.0</ele><time>2026-04-10T15:46:30.961Z</time></trkpt><trkpt lat="44.44115911576863" lon="11.451743495542257"><ele>77.0</ele><time>2026-04-10T15:46:31.961Z</time></trkpt><trkpt lat="44.44122882197879" lon="11.451595986181829"><ele>77.0</ele><time>2026-04-10T15:46:33.961Z</time></trkpt><trkpt lat="44.4412961479028" lon="11.451584475413124"><ele>77.0</ele><time>2026-04-10T15:46:34.961Z</time></trkpt><trkpt lat="44.441359541676235" lon="11.45157139131043"><ele>77.0</ele><time>2026-04-10T15:46:35.961Z</time></trkpt><trkpt lat="44.4414232452341" lon="11.45160298030264"><ele>77.14285714285714</ele><time>2026-04-10T15:46:36.961Z</time></trkpt><trkpt lat="44.44148113273415" lon="11.451663439337294"><ele>77.28571428571428</ele><time>2026-04-10T15:46:37.961Z</time></trkpt><trkpt lat="44.44154115249191" lon="11.451719181902241"><ele>77.42857142857143</ele><time>2026-04-10T15:46:38.961Z</time></trkpt><trkpt lat="44.441599779440004" lon="11.451770574032412"><ele>77.57142857142857</ele><time>2026-04-10T15:46:39.961Z</time></trkpt><trkpt lat="44.44165848778977" lon="11.45182294806863"><ele>77.71428571428571</ele><time>2026-04-10T15:46:40.961Z</time></trkpt><trkpt lat="44.44171476167041" lon="11.451875104070847"><ele>77.85714285714286</ele><time>2026-04-10T15:46:41.961Z</time></trkpt><trkpt lat="44.441774435827824" lon="11.45192680333632"><ele>78.0</ele><time>2026-04-10T15:46:42.961Z</time></trkpt><trkpt lat="44.44183349973132" lon="11.451979050766267"><ele>78.0</ele><time>2026-04-10T15:46:43.961Z</time></trkpt><trkpt lat="44.44189115864791" lon="11.45203072591295"><ele>78.0</ele><time>2026-04-10T15:46:44.961Z</time></trkpt><trkpt lat="44.44194716440869" lon="11.452075797413666"><ele>78.0</ele><time>2026-04-10T15:46:45.961Z</time></trkpt><trkpt lat="44.44200827304183" lon="11.452119062705687"><ele>78.0</ele><time>2026-04-10T15:46:46.961Z</time></trkpt><trkpt lat="44.44206649158566" lon="11.45216560297706"><ele>78.0</ele><time>2026-04-10T15:46:47.961Z</time></trkpt><trkpt lat="44.44212512496799" lon="11.452216815662585"><ele>78.0</ele><time>2026-04-10T15:46:48.961Z</time></trkpt><trkpt lat="44.442182762023045" lon="11.452265387041827"><ele>78.0</ele><time>2026-04-10T15:46:49.961Z</time></trkpt><trkpt lat="44.44223700615291" lon="11.452314117231948"><ele>77.71428571428572</ele><time>2026-04-10T15:46:50.961Z</time></trkpt><trkpt lat="44.44229260524634" lon="11.45236339712416"><ele>77.42857142857142</ele><time>2026-04-10T15:46:51.961Z</time></trkpt><trkpt lat="44.442349554495756" lon="11.45240853017692"><ele>77.14285714285714</ele><time>2026-04-10T15:46:52.961Z</time></trkpt><trkpt lat="44.442403353744155" lon="11.452461859532828"><ele>76.85714285714286</ele><time>2026-04-10T15:46:53.961Z</time></trkpt><trkpt lat="44.44246288791236" lon="11.452511648928938"><ele>76.57142857142858</ele><time>2026-04-10T15:46:54.961Z</time></trkpt><trkpt lat="44.442563740844065" lon="11.452587560596978"><ele>76.28571428571428</ele><time>2026-04-10T15:46:56.961Z</time></trkpt><trkpt lat="44.442608548839694" lon="11.452650205383897"><ele>76.0</ele><time>2026-04-10T15:47:00.961Z</time></trkpt><trkpt lat="44.442750616034374" lon="11.45259994902028"><ele>76.0</ele><time>2026-04-10T15:47:02.961Z</time></trkpt><trkpt lat="44.442838189186155" lon="11.452661201240252"><ele>76.0</ele><time>2026-04-10T15:47:04.961Z</time></trkpt><trkpt lat="44.44291756240151" lon="11.452546906633925"><ele>76.0</ele><time>2026-04-10T15:47:06.961Z</time></trkpt><trkpt lat="44.442962511078385" lon="11.452385175460527"><ele>76.0</ele><time>2026-04-10T15:47:08.961Z</time></trkpt><trkpt lat="44.44305552998111" lon="11.45235714380367"><ele>76.0</ele><time>2026-04-10T15:47:09.961Z</time></trkpt><trkpt lat="44.44308485536867" lon="11.452276634625786"><ele>76.0</ele><time>2026-04-10T15:47:10.961Z</time></trkpt><trkpt lat="44.44311411163692" lon="11.45219631522541"><ele>76.0</ele><time>2026-04-10T15:47:11.961Z</time></trkpt><trkpt lat="44.44314411223122" lon="11.452113952398715"><ele>76.0</ele><time>2026-04-10T15:47:12.961Z</time></trkpt><trkpt lat="44.44317544479656" lon="11.452027932692259"><ele>76.0</ele><time>2026-04-10T15:47:13.961Z</time></trkpt><trkpt lat="44.443205378755906" lon="11.451945752747289"><ele>76.0</ele><time>2026-04-10T15:47:14.961Z</time></trkpt><trkpt lat="44.44323477529169" lon="11.451865048281848"><ele>76.0</ele><time>2026-04-10T15:47:15.961Z</time></trkpt><trkpt lat="44.443263964674124" lon="11.451784912355567"><ele>76.0</ele><time>2026-04-10T15:47:16.961Z</time></trkpt><trkpt lat="44.44329380031238" lon="11.451703002398718"><ele>76.0</ele><time>2026-04-10T15:47:17.962Z</time></trkpt><trkpt lat="44.44335008978188" lon="11.451548466724951"><ele>76.0</ele><time>2026-04-10T15:47:19.962Z</time></trkpt><trkpt lat="44.44340586371401" lon="11.4513950888923"><ele>76.0</ele><time>2026-04-10T15:47:21.962Z</time></trkpt><trkpt lat="44.44345977831654" lon="11.451246574039308"><ele>76.0</ele><time>2026-04-10T15:47:23.962Z</time></trkpt><trkpt lat="44.443512382171576" lon="11.451101669844233"><ele>75.5</ele><time>2026-04-10T15:47:25.962Z</time></trkpt><trkpt lat="44.443563582186236" lon="11.450960632717422"><ele>75.0</ele><time>2026-04-10T15:47:27.962Z</time></trkpt><trkpt lat="44.44361846685678" lon="11.450809445695235"><ele>74.5</ele><time>2026-04-10T15:47:29.962Z</time></trkpt><trkpt lat="44.44367048708148" lon="11.45066614916947"><ele>74.0</ele><time>2026-04-10T15:47:31.962Z</time></trkpt><trkpt lat="44.44372428976058" lon="11.450517942721786"><ele>73.75</ele><time>2026-04-10T15:47:33.962Z</time></trkpt><trkpt lat="44.44377745072703" lon="11.450371503830503"><ele>73.5</ele><time>2026-04-10T15:47:35.962Z</time></trkpt><trkpt lat="44.443830543258315" lon="11.450225253486483"><ele>73.25</ele><time>2026-04-10T15:47:37.962Z</time></trkpt><trkpt lat="44.443882852869464" lon="11.450081159824132"><ele>73.0</ele><time>2026-04-10T15:47:39.962Z</time></trkpt><trkpt lat="44.44393449702734" lon="11.449938899227693"><ele>72.75</ele><time>2026-04-10T15:47:41.962Z</time></trkpt><trkpt lat="44.443987435207966" lon="11.449793074068186"><ele>72.5</ele><time>2026-04-10T15:47:43.962Z</time></trkpt><trkpt lat="44.444041432913" lon="11.449644330288583"><ele>72.25</ele><time>2026-04-10T15:47:45.962Z</time></trkpt><trkpt lat="44.444096732890834" lon="11.449491999253992"><ele>72.0</ele><time>2026-04-10T15:47:47.962Z</time></trkpt><trkpt lat="44.44415272980561" lon="11.449341251199256"><ele>72.0</ele><time>2026-04-10T15:47:49.962Z</time></trkpt><trkpt lat="44.44420984970289" lon="11.449190633121056"><ele>72.0</ele><time>2026-04-10T15:47:51.962Z</time></trkpt><trkpt lat="44.44426307369517" lon="11.449035005209124"><ele>72.0</ele><time>2026-04-10T15:47:53.962Z</time></trkpt><trkpt lat="44.44429476658886" lon="11.448864003702612"><ele>72.0</ele><time>2026-04-10T15:47:55.962Z</time></trkpt><trkpt lat="44.444288289638344" lon="11.448760981608002"><ele>72.0</ele><time>2026-04-10T15:47:56.962Z</time></trkpt><trkpt lat="44.44426360811578" lon="11.448585056560825"><ele>72.6</ele><time>2026-04-10T15:47:58.962Z</time></trkpt><trkpt lat="44.444242360882114" lon="11.448496426614776"><ele>73.2</ele><time>2026-04-10T15:47:59.962Z</time></trkpt><trkpt lat="44.44420257919805" lon="11.448338476901949"><ele>73.8</ele><time>2026-04-10T15:48:01.963Z</time></trkpt><trkpt lat="44.44416215648632" lon="11.44818072556224"><ele>74.4</ele><time>2026-04-10T15:48:03.962Z</time></trkpt><trkpt lat="44.444121922200516" lon="11.448022616316708"><ele>75.0</ele><time>2026-04-10T15:48:05.963Z</time></trkpt><trkpt lat="44.44408856701622" lon="11.447874607060582"><ele>75.0</ele><time>2026-04-10T15:48:07.963Z</time></trkpt><trkpt lat="44.44407351619688" lon="11.447725145962416"><ele>75.0</ele><time>2026-04-10T15:48:09.963Z</time></trkpt><trkpt lat="44.44407504833795" lon="11.447593365429467"><ele>75.0</ele><time>2026-04-10T15:48:11.963Z</time></trkpt><trkpt lat="44.444090185004214" lon="11.447476773583842"><ele>75.0</ele><time>2026-04-10T15:48:13.963Z</time></trkpt><trkpt lat="44.44411644529731" lon="11.447371348603808"><ele>75.0</ele><time>2026-04-10T15:48:15.962Z</time></trkpt><trkpt lat="44.44415523202358" lon="11.447298044647077"><ele>75.0</ele><time>2026-04-10T15:48:17.962Z</time></trkpt><trkpt lat="44.444112960091275" lon="11.447197645513612"><ele>75.0</ele><time>2026-04-10T15:48:20.962Z</time></trkpt><trkpt lat="44.44374932156691" lon="11.446718138895145"><ele>74.99999999999999</ele><time>2026-04-10T15:48:34.962Z</time></trkpt><trkpt lat="44.44368127626913" lon="11.44671974096941"><ele>75.0</ele><time>2026-04-10T15:48:37.962Z</time></trkpt><trkpt lat="44.44361409411998" lon="11.446777479557868"><ele>75.0</ele><time>2026-04-10T15:48:40.962Z</time></trkpt><trkpt lat="44.44354795338261" lon="11.446798598779282"><ele>75.0</ele><time>2026-04-10T15:48:42.962Z</time></trkpt><trkpt lat="44.443472478428326" lon="11.44682090865769"><ele>75.0</ele><time>2026-04-10T15:48:44.962Z</time></trkpt><trkpt lat="44.44340412698226" lon="11.446825806426048"><ele>74.99999999999999</ele><time>2026-04-10T15:48:46.962Z</time></trkpt><trkpt lat="44.44338129444764" lon="11.446739576340665"><ele>75.0</ele><time>2026-04-10T15:48:51.962Z</time></trkpt><trkpt lat="44.443446482936245" lon="11.446805144595476"><ele>75.0</ele><time>2026-04-10T15:48:55.962Z</time></trkpt><trkpt lat="44.4435242162918" lon="11.446796861088382"><ele>75.0</ele><time>2026-04-10T15:48:57.962Z</time></trkpt><trkpt lat="44.443610404908554" lon="11.446760745548074"><ele>75.0</ele><time>2026-04-10T15:48:59.962Z</time></trkpt><trkpt lat="44.443699049602905" lon="11.446717655400844"><ele>75.0</ele><time>2026-04-10T15:49:01.962Z</time></trkpt><trkpt lat="44.443756224008865" lon="11.446630121947132"><ele>75.0</ele><time>2026-04-10T15:49:03.962Z</time></trkpt><trkpt lat="44.443788561282254" lon="11.446508404978248"><ele>75.0</ele><time>2026-04-10T15:49:05.962Z</time></trkpt><trkpt lat="44.44381029401855" lon="11.446388715450402"><ele>74.85714285714285</ele><time>2026-04-10T15:49:07.962Z</time></trkpt><trkpt lat="44.443808595056886" lon="11.446299989574403"><ele>74.71428571428571</ele><time>2026-04-10T15:49:10.962Z</time></trkpt><trkpt lat="44.44379072126045" lon="11.446195020717267"><ele>74.57142857142857</ele><time>2026-04-10T15:49:14.962Z</time></trkpt><trkpt lat="44.443735565638626" lon="11.446128644457495"><ele>74.42857142857142</ele><time>2026-04-10T15:49:17.963Z</time></trkpt><trkpt lat="44.44367193985695" lon="11.446094779097182"><ele>74.28571428571428</ele><time>2026-04-10T15:49:19.963Z</time></trkpt><trkpt lat="44.44361189958522" lon="11.446048396429097"><ele>74.14285714285714</ele><time>2026-04-10T15:49:21.963Z</time></trkpt><trkpt lat="44.4435490887934" lon="11.44599889097222"><ele>74.0</ele><time>2026-04-10T15:49:23.963Z</time></trkpt><trkpt lat="44.44348359997969" lon="11.445955164210062"><ele>74.0</ele><time>2026-04-10T15:49:25.963Z</time></trkpt><trkpt lat="44.44343962907972" lon="11.4458537108579"><ele>74.0</ele><time>2026-04-10T15:49:28.963Z</time></trkpt><trkpt lat="44.443488153370275" lon="11.4457463232532"><ele>74.0</ele><time>2026-04-10T15:49:30.963Z</time></trkpt><trkpt lat="44.443484606874925" lon="11.445607229736552"><ele>74.0</ele><time>2026-04-10T15:49:32.963Z</time></trkpt><trkpt lat="44.44347790081731" lon="11.445481952602703"><ele>74.0</ele><time>2026-04-10T15:49:34.963Z</time></trkpt><trkpt lat="44.44348054001773" lon="11.44534880818005"><ele>73.83333333333334</ele><time>2026-04-10T15:49:36.963Z</time></trkpt><trkpt lat="44.443534723082756" lon="11.4452271154094"><ele>73.66666666666667</ele><time>2026-04-10T15:49:38.963Z</time></trkpt><trkpt lat="44.44360045640788" lon="11.445121583428522"><ele>73.5</ele><time>2026-04-10T15:49:40.963Z</time></trkpt><trkpt lat="44.44364856009266" lon="11.445014716078404"><ele>73.33333333333333</ele><time>2026-04-10T15:49:42.963Z</time></trkpt><trkpt lat="44.443654929379754" lon="11.44491048362282"><ele>73.16666666666666</ele><time>2026-04-10T15:49:44.963Z</time></trkpt><trkpt lat="44.443611294742404" lon="11.444818519560062"><ele>73.0</ele><time>2026-04-10T15:49:46.963Z</time></trkpt><trkpt lat="44.44366365796469" lon="11.44471671451769"><ele>73.0</ele><time>2026-04-10T15:49:48.963Z</time></trkpt><trkpt lat="44.44374095336863" lon="11.444658246810048"><ele>73.0</ele><time>2026-04-10T15:49:50.963Z</time></trkpt><trkpt lat="44.44381916131851" lon="11.444590133225503"><ele>73.0</ele><time>2026-04-10T15:49:52.963Z</time></trkpt><trkpt lat="44.443892129009406" lon="11.44448537826666"><ele>73.0</ele><time>2026-04-10T15:49:54.963Z</time></trkpt><trkpt lat="44.443959161374735" lon="11.444349335888782"><ele>73.0</ele><time>2026-04-10T15:49:56.963Z</time></trkpt><trkpt lat="44.44400509678447" lon="11.444224815846725"><ele>73.0</ele><time>2026-04-10T15:49:58.963Z</time></trkpt><trkpt lat="44.44394651724647" lon="11.44414656929434"><ele>73.0</ele><time>2026-04-10T15:50:00.963Z</time></trkpt><trkpt lat="44.443876971109354" lon="11.444065537127114"><ele>73.0</ele><time>2026-04-10T15:50:02.963Z</time></trkpt><trkpt lat="44.44381582771866" lon="11.443991655876847"><ele>73.0</ele><time>2026-04-10T15:50:04.963Z</time></trkpt><trkpt lat="44.44375563046129" lon="11.443901697180705"><ele>73.0</ele><time>2026-04-10T15:50:06.963Z</time></trkpt><trkpt lat="44.44368252246434" lon="11.443835453780219"><ele>73.0</ele><time>2026-04-10T15:50:08.963Z</time></trkpt><trkpt lat="44.44360796367223" lon="11.443757649977302"><ele>73.0</ele><time>2026-04-10T15:50:10.963Z</time></trkpt><trkpt lat="44.443540546048204" lon="11.443676267729883"><ele>73.0</ele><time>2026-04-10T15:50:12.964Z</time></trkpt><trkpt lat="44.44344461371951" lon="11.443592984953879"><ele>73.0</ele><time>2026-04-10T15:50:14.964Z</time></trkpt><trkpt lat="44.44339282438274" lon="11.44352001785333"><ele>73.0</ele><time>2026-04-10T15:50:16.964Z</time></trkpt><trkpt lat="44.44338354304905" lon="11.443396362663057"><ele>73.0</ele><time>2026-04-10T15:50:18.964Z</time></trkpt><trkpt lat="44.44341661525049" lon="11.443234994729403"><ele>73.0</ele><time>2026-04-10T15:50:20.963Z</time></trkpt><trkpt lat="44.443458974062175" lon="11.4430915123147"><ele>73.0</ele><time>2026-04-10T15:50:22.963Z</time></trkpt><trkpt lat="44.44351850711513" lon="11.442940130420837"><ele>73.0</ele><time>2026-04-10T15:50:24.963Z</time></trkpt><trkpt lat="44.44357585739226" lon="11.442791834357113"><ele>73.0</ele><time>2026-04-10T15:50:26.963Z</time></trkpt><trkpt lat="44.44369935224058" lon="11.4427938489891"><ele>72.4</ele><time>2026-04-10T15:50:27.964Z</time></trkpt><trkpt lat="44.44375718129223" lon="11.442661922509728"><ele>71.8</ele><time>2026-04-10T15:50:29.964Z</time></trkpt><trkpt lat="44.4438131993331" lon="11.44253412756381"><ele>71.2</ele><time>2026-04-10T15:50:31.964Z</time></trkpt><trkpt lat="44.44388194118576" lon="11.442377305527785"><ele>70.6</ele><time>2026-04-10T15:50:33.964Z</time></trkpt><trkpt lat="44.44391858972099" lon="11.442293698547706"><ele>70.0</ele><time>2026-04-10T15:50:34.965Z</time></trkpt><trkpt lat="44.443952842435024" lon="11.442215658050511"><ele>70.71428571428571</ele><time>2026-04-10T15:50:35.965Z</time></trkpt><trkpt lat="44.443989446101604" lon="11.442132302070457"><ele>71.42857142857143</ele><time>2026-04-10T15:50:36.965Z</time></trkpt><trkpt lat="44.444026428883106" lon="11.442037741739215"><ele>72.14285714285714</ele><time>2026-04-10T15:50:37.965Z</time></trkpt><trkpt lat="44.44405705411843" lon="11.441958685315988"><ele>72.85714285714286</ele><time>2026-04-10T15:50:38.965Z</time></trkpt><trkpt lat="44.4440909639903" lon="11.441871149875896"><ele>73.57142857142857</ele><time>2026-04-10T15:50:39.965Z</time></trkpt><trkpt lat="44.4441253787164" lon="11.441784337939133"><ele>74.28571428571428</ele><time>2026-04-10T15:50:40.965Z</time></trkpt><trkpt lat="44.44415973685821" lon="11.441702298314889"><ele>75.0</ele><time>2026-04-10T15:50:41.965Z</time></trkpt><trkpt lat="44.444237491113775" lon="11.441559931886317"><ele>75.0</ele><time>2026-04-10T15:50:43.965Z</time></trkpt><trkpt lat="44.44428990072208" lon="11.441323534689603"><ele>75.0</ele><time>2026-04-10T15:50:45.965Z</time></trkpt><trkpt lat="44.44431958264688" lon="11.441239189755777"><ele>75.0</ele><time>2026-04-10T15:50:46.966Z</time></trkpt><trkpt lat="44.44435348097921" lon="11.44115046566554"><ele>75.0</ele><time>2026-04-10T15:50:47.966Z</time></trkpt><trkpt lat="44.44439164179934" lon="11.441053134572531"><ele>75.0</ele><time>2026-04-10T15:50:48.966Z</time></trkpt><trkpt lat="44.444451597255366" lon="11.440893061001896"><ele>74.0</ele><time>2026-04-10T15:50:50.966Z</time></trkpt><trkpt lat="44.444481004382894" lon="11.440810906007078"><ele>73.0</ele><time>2026-04-10T15:50:51.966Z</time></trkpt><trkpt lat="44.44450659290784" lon="11.440728995304893"><ele>72.0</ele><time>2026-04-10T15:50:52.966Z</time></trkpt><trkpt lat="44.444437812292726" lon="11.440558156391258"><ele>71.0</ele><time>2026-04-10T15:50:54.966Z</time></trkpt><trkpt lat="44.44442828684727" lon="11.440460907524905"><ele>70.0</ele><time>2026-04-10T15:50:57.966Z</time></trkpt><trkpt lat="44.44437239722479" lon="11.440410448589708"><ele>69.0</ele><time>2026-04-10T15:51:00.966Z</time></trkpt><trkpt lat="44.444306213984" lon="11.440415658951862"><ele>69.0</ele><time>2026-04-10T15:51:06.966Z</time></trkpt><trkpt lat="44.444237970427096" lon="11.4404169574346"><ele>69.0</ele><time>2026-04-10T15:51:09.966Z</time></trkpt><trkpt lat="44.444151534453376" lon="11.440426000035595"><ele>69.0</ele><time>2026-04-10T15:51:12.966Z</time></trkpt><trkpt lat="44.44407715738816" lon="11.440457840696338"><ele>69.0</ele><time>2026-04-10T15:51:15.966Z</time></trkpt><trkpt lat="44.444012657878915" lon="11.440485478753533"><ele>69.0</ele><time>2026-04-10T15:51:18.966Z</time></trkpt><trkpt lat="44.44392751977516" lon="11.440510652731854"><ele>69.0</ele><time>2026-04-10T15:51:21.966Z</time></trkpt><trkpt lat="44.44385176583959" lon="11.440534066425405"><ele>68.66666666666667</ele><time>2026-04-10T15:51:23.966Z</time></trkpt><trkpt lat="44.44378608498912" lon="11.44057065890074"><ele>68.33333333333333</ele><time>2026-04-10T15:51:25.966Z</time></trkpt><trkpt lat="44.44370107758463" lon="11.440604329347881"><ele>68.0</ele><time>2026-04-10T15:51:27.966Z</time></trkpt><trkpt lat="44.44363251760049" lon="11.440633982555715"><ele>67.66666666666666</ele><time>2026-04-10T15:51:29.966Z</time></trkpt><trkpt lat="44.4435413387886" lon="11.44067668488864"><ele>67.33333333333333</ele><time>2026-04-10T15:51:31.966Z</time></trkpt><trkpt lat="44.44344818382921" lon="11.440705337865758"><ele>67.0</ele><time>2026-04-10T15:51:33.967Z</time></trkpt><trkpt lat="44.44332728174744" lon="11.44075975364234"><ele>67.0</ele><time>2026-04-10T15:51:35.967Z</time></trkpt><trkpt lat="44.443260253984405" lon="11.440790945812969"><ele>67.0</ele><time>2026-04-10T15:51:36.967Z</time></trkpt><trkpt lat="44.44315966347793" lon="11.440820165359568"><ele>67.0</ele><time>2026-04-10T15:51:38.967Z</time></trkpt><trkpt lat="44.44305628429406" lon="11.440864053409003"><ele>67.0</ele><time>2026-04-10T15:51:40.967Z</time></trkpt><trkpt lat="44.44294093751076" lon="11.440919352371202"><ele>67.0</ele><time>2026-04-10T15:51:42.967Z</time></trkpt><trkpt lat="44.44283010822784" lon="11.440966271602287"><ele>68.0</ele><time>2026-04-10T15:51:44.967Z</time></trkpt><trkpt lat="44.442728771895375" lon="11.441013931506625"><ele>69.0</ele><time>2026-04-10T15:51:46.967Z</time></trkpt><trkpt lat="44.442610428800705" lon="11.44105016508607"><ele>70.0</ele><time>2026-04-10T15:51:48.967Z</time></trkpt><trkpt lat="44.44249260243704" lon="11.441097702512884"><ele>71.0</ele><time>2026-04-10T15:51:50.967Z</time></trkpt><trkpt lat="44.4423966141242" lon="11.441134333886804"><ele>71.0</ele><time>2026-04-10T15:51:52.967Z</time></trkpt><trkpt lat="44.44229897080752" lon="11.441173216684122"><ele>71.0</ele><time>2026-04-10T15:51:54.967Z</time></trkpt><trkpt lat="44.44218405993885" lon="11.441217082684506"><ele>71.0</ele><time>2026-04-10T15:51:56.967Z</time></trkpt><trkpt lat="44.442080369195885" lon="11.44125714183939"><ele>71.0</ele><time>2026-04-10T15:51:58.967Z</time></trkpt><trkpt lat="44.44201552011398" lon="11.441267859528356"><ele>71.0</ele><time>2026-04-10T15:51:59.967Z</time></trkpt><trkpt lat="44.44194910926915" lon="11.441283605937242"><ele>70.0</ele><time>2026-04-10T15:52:00.967Z</time></trkpt><trkpt lat="44.44187362800312" lon="11.441304094061797"><ele>69.0</ele><time>2026-04-10T15:52:01.967Z</time></trkpt><trkpt lat="44.44180987324028" lon="11.441332484017975"><ele>68.0</ele><time>2026-04-10T15:52:02.967Z</time></trkpt><trkpt lat="44.4416968907786" lon="11.441382564563295"><ele>67.0</ele><time>2026-04-10T15:52:04.967Z</time></trkpt><trkpt lat="44.44158638589822" lon="11.441436068523162"><ele>66.0</ele><time>2026-04-10T15:52:06.967Z</time></trkpt><trkpt lat="44.4414677542076" lon="11.44144159935352"><ele>66.0</ele><time>2026-04-10T15:52:08.967Z</time></trkpt><trkpt lat="44.44138771996397" lon="11.441494875175609"><ele>66.0</ele><time>2026-04-10T15:52:10.967Z</time></trkpt><trkpt lat="44.441326526585414" lon="11.44162445447951"><ele>66.0</ele><time>2026-04-10T15:52:12.968Z</time></trkpt><trkpt lat="44.44124555787267" lon="11.441723472102508"><ele>66.0</ele><time>2026-04-10T15:52:14.968Z</time></trkpt><trkpt lat="44.441172013367286" lon="11.441808103972983"><ele>66.0</ele><time>2026-04-10T15:52:16.968Z</time></trkpt><trkpt lat="44.44111976738275" lon="11.441896698754334"><ele>66.2</ele><time>2026-04-10T15:52:19.968Z</time></trkpt><trkpt lat="44.44104434614052" lon="11.441920224830707"><ele>66.39999999999999</ele><time>2026-04-10T15:52:21.968Z</time></trkpt><trkpt lat="44.44092716089168" lon="11.441912285789394"><ele>66.6</ele><time>2026-04-10T15:52:23.968Z</time></trkpt><trkpt lat="44.440865436173645" lon="11.441892694597177"><ele>66.8</ele><time>2026-04-10T15:52:24.968Z</time></trkpt><trkpt lat="44.440763592621984" lon="11.44183468339679"><ele>67.0</ele><time>2026-04-10T15:52:26.968Z</time></trkpt><trkpt lat="44.440672307599684" lon="11.441818151326467"><ele>67.0</ele><time>2026-04-10T15:52:28.968Z</time></trkpt><trkpt lat="44.440562234785084" lon="11.441810258752357"><ele>67.0</ele><time>2026-04-10T15:52:30.968Z</time></trkpt><trkpt lat="44.44044925277922" lon="11.441803183467645"><ele>67.0</ele><time>2026-04-10T15:52:32.968Z</time></trkpt><trkpt lat="44.44033666766413" lon="11.44180691212692"><ele>67.0</ele><time>2026-04-10T15:52:34.968Z</time></trkpt><trkpt lat="44.4402349592407" lon="11.441833616546466"><ele>67.0</ele><time>2026-04-10T15:52:36.968Z</time></trkpt><trkpt lat="44.440167816017144" lon="11.441819768646369"><ele>67.14285714285714</ele><time>2026-04-10T15:52:38.968Z</time></trkpt><trkpt lat="44.440101389444244" lon="11.441804526421732"><ele>67.28571428571428</ele><time>2026-04-10T15:52:40.968Z</time></trkpt><trkpt lat="44.44002886968352" lon="11.441821261212397"><ele>67.42857142857142</ele><time>2026-04-10T15:52:42.968Z</time></trkpt><trkpt lat="44.43996345987114" lon="11.44184661383693"><ele>67.57142857142857</ele><time>2026-04-10T15:52:44.968Z</time></trkpt><trkpt lat="44.43990978401223" lon="11.441905589099973"><ele>67.71428571428571</ele><time>2026-04-10T15:52:47.968Z</time></trkpt><trkpt lat="44.439863370591624" lon="11.441981496777116"><ele>67.85714285714285</ele><time>2026-04-10T15:52:50.968Z</time></trkpt><trkpt lat="44.43980023658906" lon="11.442074483996953"><ele>68.0</ele><time>2026-04-10T15:52:53.968Z</time></trkpt><trkpt lat="44.43975059312568" lon="11.442189458980705"><ele>68.0</ele><time>2026-04-10T15:52:56.968Z</time></trkpt><trkpt lat="44.439726750375456" lon="11.442288437780238"><ele>68.0</ele><time>2026-04-10T15:52:58.968Z</time></trkpt><trkpt lat="44.43968600942225" lon="11.442388163319578"><ele>68.0</ele><time>2026-04-10T15:53:00.968Z</time></trkpt><trkpt lat="44.439600528996166" lon="11.44240614839439"><ele>68.0</ele><time>2026-04-10T15:53:02.968Z</time></trkpt><trkpt lat="44.43951450783954" lon="11.442443224239126"><ele>68.0</ele><time>2026-04-10T15:53:04.968Z</time></trkpt><trkpt lat="44.43942084344374" lon="11.442462434457964"><ele>68.0</ele><time>2026-04-10T15:53:06.968Z</time></trkpt><trkpt lat="44.439324575466074" lon="11.442420896469319"><ele>68.2</ele><time>2026-04-10T15:53:08.968Z</time></trkpt><trkpt lat="44.43924179865528" lon="11.442387808193278"><ele>68.4</ele><time>2026-04-10T15:53:10.968Z</time></trkpt><trkpt lat="44.439137835988355" lon="11.442327955062696"><ele>68.60000000000001</ele><time>2026-04-10T15:53:12.968Z</time></trkpt><trkpt lat="44.43904380815904" lon="11.4422706356585"><ele>68.8</ele><time>2026-04-10T15:53:14.968Z</time></trkpt><trkpt lat="44.438965075865234" lon="11.442206301829694"><ele>69.0</ele><time>2026-04-10T15:53:16.968Z</time></trkpt><trkpt lat="44.43887283166072" lon="11.442194209608259"><ele>69.16666666666667</ele><time>2026-04-10T15:53:18.968Z</time></trkpt><trkpt lat="44.4387597977686" lon="11.442198580759552"><ele>69.33333333333333</ele><time>2026-04-10T15:53:20.968Z</time></trkpt><trkpt lat="44.43868377227748" lon="11.442211026731274"><ele>69.5</ele><time>2026-04-10T15:53:22.968Z</time></trkpt><trkpt lat="44.43862897218445" lon="11.442142994102026"><ele>69.66666666666666</ele><time>2026-04-10T15:53:26.968Z</time></trkpt><trkpt lat="44.43864699047919" lon="11.442051416051559"><ele>69.83333333333333</ele><time>2026-04-10T15:53:28.968Z</time></trkpt><trkpt lat="44.43864841394483" lon="11.441918860969489"><ele>70.0</ele><time>2026-04-10T15:53:31.968Z</time></trkpt><trkpt lat="44.4385999368156" lon="11.441815313885565"><ele>70.0</ele><time>2026-04-10T15:53:33.968Z</time></trkpt><trkpt lat="44.43853154236103" lon="11.441803412283356"><ele>70.0</ele><time>2026-04-10T15:53:36.968Z</time></trkpt><trkpt lat="44.43844460908952" lon="11.441844049397343"><ele>70.0</ele><time>2026-04-10T15:53:39.968Z</time></trkpt><trkpt lat="44.43837487112913" lon="11.441842420900384"><ele>70.0</ele><time>2026-04-10T15:53:41.968Z</time></trkpt><trkpt lat="44.438312031900516" lon="11.441858957491403"><ele>70.0</ele><time>2026-04-10T15:53:43.968Z</time></trkpt><trkpt lat="44.43824517288351" lon="11.441841834061574"><ele>70.0</ele><time>2026-04-10T15:53:45.968Z</time></trkpt><trkpt lat="44.438172462610204" lon="11.441778544558627"><ele>70.0</ele><time>2026-04-10T15:53:47.968Z</time></trkpt><trkpt lat="44.43811540391659" lon="11.441714298605117"><ele>70.0</ele><time>2026-04-10T15:53:49.968Z</time></trkpt><trkpt lat="44.438063240427695" lon="11.441622049534283"><ele>70.0</ele><time>2026-04-10T15:53:52.968Z</time></trkpt><trkpt lat="44.43800904168492" lon="11.441509258646922"><ele>70.0</ele><time>2026-04-10T15:53:55.968Z</time></trkpt><trkpt lat="44.437986706346756" lon="11.441405718138423"><ele>70.0</ele><time>2026-04-10T15:53:57.968Z</time></trkpt><trkpt lat="44.43795725918846" lon="11.441303853167195"><ele>70.0</ele><time>2026-04-10T15:53:59.968Z</time></trkpt><trkpt lat="44.43793256903027" lon="11.441195240093341"><ele>70.0</ele><time>2026-04-10T15:54:01.968Z</time></trkpt><trkpt lat="44.43790314284146" lon="11.44107950954404"><ele>70.33333333333333</ele><time>2026-04-10T15:54:03.968Z</time></trkpt><trkpt lat="44.437877845918635" lon="11.44096908433644"><ele>70.66666666666666</ele><time>2026-04-10T15:54:05.968Z</time></trkpt><trkpt lat="44.4378635104983" lon="11.440844783507327"><ele>71.0</ele><time>2026-04-10T15:54:07.968Z</time></trkpt><trkpt lat="44.437842322694394" lon="11.440715830959038"><ele>71.33333333333333</ele><time>2026-04-10T15:54:09.968Z</time></trkpt><trkpt lat="44.43783341432608" lon="11.440589521766416"><ele>71.66666666666667</ele><time>2026-04-10T15:54:11.968Z</time></trkpt><trkpt lat="44.43781793375332" lon="11.440464546899157"><ele>72.0</ele><time>2026-04-10T15:54:13.968Z</time></trkpt><trkpt lat="44.43781257996899" lon="11.440321958089385"><ele>72.0</ele><time>2026-04-10T15:54:15.968Z</time></trkpt><trkpt lat="44.437806710332325" lon="11.440192370511344"><ele>72.0</ele><time>2026-04-10T15:54:17.968Z</time></trkpt><trkpt lat="44.43782002280157" lon="11.440074802694289"><ele>72.0</ele><time>2026-04-10T15:54:19.97Z</time></trkpt><trkpt lat="44.437788745640454" lon="11.43994718349006"><ele>72.0</ele><time>2026-04-10T15:54:21.97Z</time></trkpt><trkpt lat="44.43775460654371" lon="11.43982221725086"><ele>72.0</ele><time>2026-04-10T15:54:23.969Z</time></trkpt><trkpt lat="44.43771006609583" lon="11.439707692122841"><ele>72.66666666666667</ele><time>2026-04-10T15:54:25.97Z</time></trkpt><trkpt lat="44.437649582969335" lon="11.439610113270058"><ele>73.33333333333333</ele><time>2026-04-10T15:54:27.969Z</time></trkpt><trkpt lat="44.43758870165504" lon="11.439526981877785"><ele>74.0</ele><time>2026-04-10T15:54:29.969Z</time></trkpt><trkpt lat="44.43751563394329" lon="11.439458131500404"><ele>74.66666666666666</ele><time>2026-04-10T15:54:31.969Z</time></trkpt><trkpt lat="44.43746156189167" lon="11.43937723485619"><ele>75.33333333333333</ele><time>2026-04-10T15:54:33.969Z</time></trkpt><trkpt lat="44.43747408776876" lon="11.439262269196625"><ele>76.0</ele><time>2026-04-10T15:54:36.969Z</time></trkpt><trkpt lat="44.43748630720696" lon="11.439169237654887"><ele>76.0</ele><time>2026-04-10T15:54:38.969Z</time></trkpt><trkpt lat="44.43751559671746" lon="11.439055767313015"><ele>76.0</ele><time>2026-04-10T15:54:40.969Z</time></trkpt><trkpt lat="44.4375043559745" lon="11.438927536028034"><ele>76.0</ele><time>2026-04-10T15:54:42.969Z</time></trkpt><trkpt lat="44.4374916581023" lon="11.438782641930672"><ele>76.0</ele><time>2026-04-10T15:54:44.969Z</time></trkpt><trkpt lat="44.43749638554547" lon="11.438618489610551"><ele>76.0</ele><time>2026-04-10T15:54:46.969Z</time></trkpt><trkpt lat="44.437480421089084" lon="11.438472008279408"><ele>75.6</ele><time>2026-04-10T15:54:48.969Z</time></trkpt><trkpt lat="44.437436309418906" lon="11.43834359065607"><ele>75.19999999999999</ele><time>2026-04-10T15:54:50.969Z</time></trkpt><trkpt lat="44.43737195418881" lon="11.438247763336268"><ele>74.80000000000001</ele><time>2026-04-10T15:54:52.969Z</time></trkpt><trkpt lat="44.43727613064245" lon="11.43818022534778"><ele>74.4</ele><time>2026-04-10T15:54:54.969Z</time></trkpt><trkpt lat="44.43718552497531" lon="11.438108447745394"><ele>74.0</ele><time>2026-04-10T15:54:56.969Z</time></trkpt><trkpt lat="44.43708571406452" lon="11.438061523516419"><ele>73.4</ele><time>2026-04-10T15:54:58.969Z</time></trkpt><trkpt lat="44.43698945371233" lon="11.43798984428601"><ele>72.80000000000001</ele><time>2026-04-10T15:55:00.969Z</time></trkpt><trkpt lat="44.43689709040352" lon="11.437927390521928"><ele>72.19999999999999</ele><time>2026-04-10T15:55:02.969Z</time></trkpt><trkpt lat="44.436813370375724" lon="11.437870008160031"><ele>71.6</ele><time>2026-04-10T15:55:04.969Z</time></trkpt><trkpt lat="44.436730521275436" lon="11.437815966651069"><ele>71.0</ele><time>2026-04-10T15:55:06.969Z</time></trkpt><trkpt lat="44.436646245894174" lon="11.437807172764408"><ele>71.0</ele><time>2026-04-10T15:55:08.969Z</time></trkpt><trkpt lat="44.43664553632721" lon="11.437691585442394"><ele>71.0</ele><time>2026-04-10T15:55:12.969Z</time></trkpt><trkpt lat="44.43670784041871" lon="11.437604698197976"><ele>71.0</ele><time>2026-04-10T15:55:14.969Z</time></trkpt><trkpt lat="44.43677308150266" lon="11.437510445852048"><ele>71.0</ele><time>2026-04-10T15:55:16.969Z</time></trkpt><trkpt lat="44.436835605284934" lon="11.437401075168921"><ele>71.0</ele><time>2026-04-10T15:55:18.969Z</time></trkpt><trkpt lat="44.43689239794717" lon="11.437295393740444"><ele>71.0</ele><time>2026-04-10T15:55:20.969Z</time></trkpt><trkpt lat="44.43687877539657" lon="11.437185274135981"><ele>71.0</ele><time>2026-04-10T15:55:22.969Z</time></trkpt><trkpt lat="44.436818277653664" lon="11.437079190302544"><ele>71.0</ele><time>2026-04-10T15:55:24.969Z</time></trkpt><trkpt lat="44.43671992174068" lon="11.436979982614435"><ele>71.0</ele><time>2026-04-10T15:55:26.969Z</time></trkpt><trkpt lat="44.436614768904064" lon="11.436907203424047"><ele>71.0</ele><time>2026-04-10T15:55:28.969Z</time></trkpt><trkpt lat="44.43651837347408" lon="11.436831288773602"><ele>71.0</ele><time>2026-04-10T15:55:30.969Z</time></trkpt><trkpt lat="44.43644164958806" lon="11.43674282994349"><ele>71.0</ele><time>2026-04-10T15:55:32.969Z</time></trkpt><trkpt lat="44.4363641749563" lon="11.436639781463146"><ele>71.0</ele><time>2026-04-10T15:55:34.969Z</time></trkpt><trkpt lat="44.4362813626902" lon="11.43657803254512"><ele>71.0</ele><time>2026-04-10T15:55:36.969Z</time></trkpt><trkpt lat="44.43621932489302" lon="11.436492218068098"><ele>71.0</ele><time>2026-04-10T15:55:38.969Z</time></trkpt><trkpt lat="44.436130870142414" lon="11.43640335787838"><ele>71.0</ele><time>2026-04-10T15:55:40.969Z</time></trkpt><trkpt lat="44.43601899687414" lon="11.436312884461977"><ele>71.0</ele><time>2026-04-10T15:55:42.969Z</time></trkpt><trkpt lat="44.435906707633904" lon="11.43626251867721"><ele>71.0</ele><time>2026-04-10T15:55:44.969Z</time></trkpt><trkpt lat="44.43584249942501" lon="11.436260974066474"><ele>71.0</ele><time>2026-04-10T15:55:45.969Z</time></trkpt><trkpt lat="44.4357163891181" lon="11.436241653013033"><ele>71.0</ele><time>2026-04-10T15:55:47.969Z</time></trkpt><trkpt lat="44.43559997454994" lon="11.43623201850753"><ele>71.0</ele><time>2026-04-10T15:55:49.969Z</time></trkpt><trkpt lat="44.43549017174296" lon="11.43622172911208"><ele>71.0</ele><time>2026-04-10T15:55:51.969Z</time></trkpt><trkpt lat="44.43540056128289" lon="11.436175452270543"><ele>71.0</ele><time>2026-04-10T15:55:53.969Z</time></trkpt><trkpt lat="44.43529190573464" lon="11.436156595042817"><ele>71.0</ele><time>2026-04-10T15:55:55.969Z</time></trkpt><trkpt lat="44.43521926454046" lon="11.436182326506636"><ele>71.0</ele><time>2026-04-10T15:55:57.969Z</time></trkpt><trkpt lat="44.435150256755925" lon="11.436185218787172"><ele>71.66666666666667</ele><time>2026-04-10T15:55:59.969Z</time></trkpt><trkpt lat="44.435085715924764" lon="11.436202179288985"><ele>72.33333333333334</ele><time>2026-04-10T15:56:02.969Z</time></trkpt><trkpt lat="44.4350154037983" lon="11.436205842635356"><ele>73.0</ele><time>2026-04-10T15:56:04.969Z</time></trkpt><trkpt lat="44.43492963911173" lon="11.436207524891673"><ele>73.66666666666667</ele><time>2026-04-10T15:56:07.969Z</time></trkpt><trkpt lat="44.434844758234306" lon="11.43618596676013"><ele>74.33333333333333</ele><time>2026-04-10T15:56:10.969Z</time></trkpt><trkpt lat="44.43475426059121" lon="11.436202162501926"><ele>75.0</ele><time>2026-04-10T15:56:13.969Z</time></trkpt><trkpt lat="44.4346659196603" lon="11.436207309718727"><ele>74.5</ele><time>2026-04-10T15:56:15.969Z</time></trkpt><trkpt lat="44.43457098015597" lon="11.436177252651124"><ele>74.0</ele><time>2026-04-10T15:56:17.969Z</time></trkpt><trkpt lat="44.43449806345361" lon="11.436180853929509"><ele>73.5</ele><time>2026-04-10T15:56:19.969Z</time></trkpt><trkpt lat="44.43443618798525" lon="11.436208709739573"><ele>73.0</ele><time>2026-04-10T15:56:21.969Z</time></trkpt><trkpt lat="44.43435226550342" lon="11.436221244019647"><ele>72.5</ele><time>2026-04-10T15:56:23.97Z</time></trkpt><trkpt lat="44.43425574425019" lon="11.436216167715518"><ele>72.0</ele><time>2026-04-10T15:56:25.971Z</time></trkpt><trkpt lat="44.4341807897182" lon="11.436221845391158"><ele>72.0</ele><time>2026-04-10T15:56:27.971Z</time></trkpt><trkpt lat="44.43409924967368" lon="11.436216012172723"><ele>72.0</ele><time>2026-04-10T15:56:30.971Z</time></trkpt><trkpt lat="44.43401640855592" lon="11.436218422817221"><ele>72.0</ele><time>2026-04-10T15:56:33.971Z</time></trkpt><trkpt lat="44.433928152449944" lon="11.436216546094366"><ele>72.0</ele><time>2026-04-10T15:56:35.971Z</time></trkpt><trkpt lat="44.433842757769796" lon="11.436204160038086"><ele>72.0</ele><time>2026-04-10T15:56:37.97Z</time></trkpt><trkpt lat="44.433748296108305" lon="11.436207352777744"><ele>72.0</ele><time>2026-04-10T15:56:39.97Z</time></trkpt><trkpt lat="44.43366042812056" lon="11.436183794527787"><ele>72.0</ele><time>2026-04-10T15:56:41.971Z</time></trkpt><trkpt lat="44.43357528772772" lon="11.436156320774758"><ele>72.0</ele><time>2026-04-10T15:56:43.971Z</time></trkpt><trkpt lat="44.43348890146417" lon="11.436138729187784"><ele>72.0</ele><time>2026-04-10T15:56:45.971Z</time></trkpt><trkpt lat="44.43339691164799" lon="11.436121573863536"><ele>72.0</ele><time>2026-04-10T15:56:47.971Z</time></trkpt><trkpt lat="44.43333341959625" lon="11.43610700636173"><ele>72.0</ele><time>2026-04-10T15:56:50.971Z</time></trkpt><trkpt lat="44.433263838935616" lon="11.436129528151584"><ele>72.0</ele><time>2026-04-10T15:56:54.971Z</time></trkpt><trkpt lat="44.43318055994537" lon="11.436101975077657"><ele>72.0</ele><time>2026-04-10T15:56:57.971Z</time></trkpt><trkpt lat="44.433078985681334" lon="11.436127106900432"><ele>72.0</ele><time>2026-04-10T15:57:00.971Z</time></trkpt><trkpt lat="44.43299654426543" lon="11.43614214105488"><ele>72.0</ele><time>2026-04-10T15:57:02.971Z</time></trkpt><trkpt lat="44.432909831580055" lon="11.436141099442542"><ele>72.0</ele><time>2026-04-10T15:57:04.971Z</time></trkpt><trkpt lat="44.43281605963999" lon="11.436136222615472"><ele>72.0</ele><time>2026-04-10T15:57:06.971Z</time></trkpt><trkpt lat="44.43274029557648" lon="11.436148339727891"><ele>72.0</ele><time>2026-04-10T15:57:08.971Z</time></trkpt><trkpt lat="44.43266794458241" lon="11.436125421475328"><ele>72.28571428571429</ele><time>2026-04-10T15:57:11.971Z</time></trkpt><trkpt lat="44.43259170942174" lon="11.436063410576823"><ele>72.57142857142857</ele><time>2026-04-10T15:57:14.971Z</time></trkpt><trkpt lat="44.43256461632385" lon="11.435978561689197"><ele>72.85714285714286</ele><time>2026-04-10T15:57:16.971Z</time></trkpt><trkpt lat="44.43254204414018" lon="11.435896258907382"><ele>73.14285714285714</ele><time>2026-04-10T15:57:18.971Z</time></trkpt><trkpt lat="44.43249501684139" lon="11.435796894333969"><ele>73.42857142857143</ele><time>2026-04-10T15:57:20.971Z</time></trkpt><trkpt lat="44.43245916972378" lon="11.435720603731921"><ele>73.71428571428572</ele><time>2026-04-10T15:57:22.971Z</time></trkpt><trkpt lat="44.43241278718463" lon="11.435648447095675"><ele>74.0</ele><time>2026-04-10T15:57:24.971Z</time></trkpt><trkpt lat="44.43235628473473" lon="11.435591113851975"><ele>74.0</ele><time>2026-04-10T15:57:26.971Z</time></trkpt><trkpt lat="44.43228597343213" lon="11.435513457756663"><ele>74.0</ele><time>2026-04-10T15:57:28.971Z</time></trkpt><trkpt lat="44.43222643861241" lon="11.435463277024901"><ele>74.0</ele><time>2026-04-10T15:57:30.971Z</time></trkpt><trkpt lat="44.432163719877565" lon="11.435389110058116"><ele>74.0</ele><time>2026-04-10T15:57:32.971Z</time></trkpt><trkpt lat="44.43207751269911" lon="11.43533816903887"><ele>74.0</ele><time>2026-04-10T15:57:34.971Z</time></trkpt><trkpt lat="44.43201173710182" lon="11.435327228405452"><ele>74.0</ele><time>2026-04-10T15:57:36.971Z</time></trkpt><trkpt lat="44.43192503352333" lon="11.435310557643021"><ele>73.83333333333334</ele><time>2026-04-10T15:57:38.971Z</time></trkpt><trkpt lat="44.43185146930193" lon="11.435339985903328"><ele>73.66666666666667</ele><time>2026-04-10T15:57:40.971Z</time></trkpt><trkpt lat="44.43178946974358" lon="11.43531489128564"><ele>73.5</ele><time>2026-04-10T15:57:41.971Z</time></trkpt><trkpt lat="44.43169922084985" lon="11.435280940016696"><ele>73.33333333333333</ele><time>2026-04-10T15:57:43.971Z</time></trkpt><trkpt lat="44.431613493800214" lon="11.435285486346325"><ele>73.16666666666666</ele><time>2026-04-10T15:57:45.971Z</time></trkpt><trkpt lat="44.431516612211404" lon="11.435256179438882"><ele>73.0</ele><time>2026-04-10T15:57:47.971Z</time></trkpt><trkpt lat="44.431424635822005" lon="11.435184737719045"><ele>73.0</ele><time>2026-04-10T15:57:49.971Z</time></trkpt><trkpt lat="44.43134529645764" lon="11.435138177510549"><ele>73.0</ele><time>2026-04-10T15:57:51.971Z</time></trkpt><trkpt lat="44.43128636612339" lon="11.435086445954932"><ele>73.0</ele><time>2026-04-10T15:57:53.971Z</time></trkpt><trkpt lat="44.4312031080324" lon="11.435030044848089"><ele>73.0</ele><time>2026-04-10T15:57:55.971Z</time></trkpt><trkpt lat="44.43114791899422" lon="11.434965694698002"><ele>73.0</ele><time>2026-04-10T15:57:57.971Z</time></trkpt><trkpt lat="44.43109185064507" lon="11.434888313984912"><ele>73.0</ele><time>2026-04-10T15:57:59.971Z</time></trkpt><trkpt lat="44.431022263455944" lon="11.434845779702712"><ele>73.5</ele><time>2026-04-10T15:58:01.971Z</time></trkpt><trkpt lat="44.43095499235976" lon="11.43481548167878"><ele>74.0</ele><time>2026-04-10T15:58:03.971Z</time></trkpt><trkpt lat="44.43088505731379" lon="11.434823597394605"><ele>74.5</ele><time>2026-04-10T15:58:05.971Z</time></trkpt><trkpt lat="44.43080894942865" lon="11.434794514267722"><ele>75.0</ele><time>2026-04-10T15:58:08.971Z</time></trkpt><trkpt lat="44.43071729258556" lon="11.434799744986185"><ele>75.5</ele><time>2026-04-10T15:58:11.971Z</time></trkpt><trkpt lat="44.43063132315577" lon="11.434756835253298"><ele>76.0</ele><time>2026-04-10T15:58:13.971Z</time></trkpt><trkpt lat="44.43054662497458" lon="11.434757572876753"><ele>76.0</ele><time>2026-04-10T15:58:15.971Z</time></trkpt><trkpt lat="44.430494108169945" lon="11.434691684575366"><ele>76.0</ele><time>2026-04-10T15:58:17.971Z</time></trkpt><trkpt lat="44.430487214817084" lon="11.434589680453087"><ele>76.0</ele><time>2026-04-10T15:58:19.971Z</time></trkpt><trkpt lat="44.43046701551618" lon="11.43450145856107"><ele>76.0</ele><time>2026-04-10T15:58:21.971Z</time></trkpt><trkpt lat="44.43039103635525" lon="11.43446822920944"><ele>76.0</ele><time>2026-04-10T15:58:23.971Z</time></trkpt><trkpt lat="44.43030097144116" lon="11.434407553680314"><ele>76.0</ele><time>2026-04-10T15:58:25.971Z</time></trkpt><trkpt lat="44.43023412753683" lon="11.434334063005512"><ele>76.0</ele><time>2026-04-10T15:58:27.971Z</time></trkpt><trkpt lat="44.430198056974476" lon="11.434234242351224"><ele>76.0</ele><time>2026-04-10T15:58:29.971Z</time></trkpt><trkpt lat="44.4301360351484" lon="11.434142516998786"><ele>76.0</ele><time>2026-04-10T15:58:32.973Z</time></trkpt><trkpt lat="44.43010687457242" lon="11.434037072179697"><ele>76.0</ele><time>2026-04-10T15:58:35.972Z</time></trkpt><trkpt lat="44.43010842703602" lon="11.43388912870898"><ele>76.0</ele><time>2026-04-10T15:58:37.972Z</time></trkpt><trkpt lat="44.430106288247295" lon="11.43377760230871"><ele>76.0</ele><time>2026-04-10T15:58:39.973Z</time></trkpt><trkpt lat="44.43005202871742" lon="11.4337079931977"><ele>76.0</ele><time>2026-04-10T15:58:41.973Z</time></trkpt><trkpt lat="44.42999922820852" lon="11.433614418359566"><ele>76.0</ele><time>2026-04-10T15:58:43.972Z</time></trkpt><trkpt lat="44.42994393690974" lon="11.433506995360014"><ele>76.0</ele><time>2026-04-10T15:58:46.972Z</time></trkpt><trkpt lat="44.42990308042439" lon="11.43341948360173"><ele>76.0</ele><time>2026-04-10T15:58:49.972Z</time></trkpt><trkpt lat="44.42985947883493" lon="11.433329252235456"><ele>76.0</ele><time>2026-04-10T15:58:51.972Z</time></trkpt><trkpt lat="44.42981138758483" lon="11.43322649650751"><ele>76.0</ele><time>2026-04-10T15:58:53.972Z</time></trkpt><trkpt lat="44.42976696851376" lon="11.433108397549658"><ele>76.0</ele><time>2026-04-10T15:58:55.972Z</time></trkpt><trkpt lat="44.429732493821895" lon="11.43301782658095"><ele>76.0</ele><time>2026-04-10T15:58:58.972Z</time></trkpt><trkpt lat="44.429661731007975" lon="11.432973643290104"><ele>76.0</ele><time>2026-04-10T15:59:02.972Z</time></trkpt><trkpt lat="44.429596887308314" lon="11.432923348567295"><ele>76.0</ele><time>2026-04-10T15:59:13.972Z</time></trkpt><trkpt lat="44.429567701237346" lon="11.432838489333838"><ele>76.0</ele><time>2026-04-10T15:59:17.972Z</time></trkpt><trkpt lat="44.429548841721086" lon="11.432742727562985"><ele>76.0</ele><time>2026-04-10T15:59:21.972Z</time></trkpt><trkpt lat="44.42952051323257" lon="11.432661749205778"><ele>76.0</ele><time>2026-04-10T15:59:24.972Z</time></trkpt><trkpt lat="44.4295246614047" lon="11.432534475370677"><ele>76.14285714285714</ele><time>2026-04-10T15:59:26.972Z</time></trkpt><trkpt lat="44.42954437694555" lon="11.432440144571766"><ele>76.28571428571429</ele><time>2026-04-10T15:59:28.972Z</time></trkpt><trkpt lat="44.429533577700056" lon="11.43234488963506"><ele>76.42857142857143</ele><time>2026-04-10T15:59:31.972Z</time></trkpt><trkpt lat="44.42951090060205" lon="11.43223429747345"><ele>76.57142857142857</ele><time>2026-04-10T15:59:33.972Z</time></trkpt><trkpt lat="44.42945862937679" lon="11.432177305361257"><ele>76.71428571428572</ele><time>2026-04-10T15:59:35.972Z</time></trkpt><trkpt lat="44.429406374796926" lon="11.432095642904903"><ele>76.85714285714286</ele><time>2026-04-10T15:59:38.972Z</time></trkpt><trkpt lat="44.42935748988476" lon="11.432022289083866"><ele>77.0</ele><time>2026-04-10T15:59:40.972Z</time></trkpt><trkpt lat="44.42935429551649" lon="11.431903734007552"><ele>77.16666666666667</ele><time>2026-04-10T15:59:42.972Z</time></trkpt><trkpt lat="44.42935115665838" lon="11.431804790155562"><ele>77.33333333333334</ele><time>2026-04-10T15:59:44.972Z</time></trkpt><trkpt lat="44.429304872107124" lon="11.431728141675094"><ele>77.5</ele><time>2026-04-10T15:59:47.972Z</time></trkpt><trkpt lat="44.42925109734055" lon="11.431635794095701"><ele>77.66666666666667</ele><time>2026-04-10T15:59:50.972Z</time></trkpt><trkpt lat="44.429216542506445" lon="11.431521218412493"><ele>77.83333333333333</ele><time>2026-04-10T15:59:53.972Z</time></trkpt><trkpt lat="44.42919057748929" lon="11.431440703870226"><ele>78.0</ele><time>2026-04-10T15:59:56.972Z</time></trkpt><trkpt lat="44.42920853362826" lon="11.431342835463978"><ele>77.83333333333333</ele><time>2026-04-10T15:59:59.972Z</time></trkpt><trkpt lat="44.42927465333403" lon="11.431292690919749"><ele>77.66666666666667</ele><time>2026-04-10T16:00:02.972Z</time></trkpt><trkpt lat="44.42925783134579" lon="11.431161057876809"><ele>77.5</ele><time>2026-04-10T16:00:05.972Z</time></trkpt><trkpt lat="44.42922878448968" lon="11.431058655852308"><ele>77.33333333333334</ele><time>2026-04-10T16:00:07.972Z</time></trkpt><trkpt lat="44.429200965802785" lon="11.430962028736767"><ele>77.16666666666667</ele><time>2026-04-10T16:00:09.972Z</time></trkpt><trkpt lat="44.42919035514503" lon="11.430852930756272"><ele>77.0</ele><time>2026-04-10T16:00:11.972Z</time></trkpt><trkpt lat="44.429161508500925" lon="11.430759743913642"><ele>77.0</ele><time>2026-04-10T16:00:13.972Z</time></trkpt><trkpt lat="44.42911453486787" lon="11.430678917535847"><ele>77.0</ele><time>2026-04-10T16:00:15.972Z</time></trkpt><trkpt lat="44.429068874274975" lon="11.430581649463956"><ele>77.0</ele><time>2026-04-10T16:00:17.972Z</time></trkpt><trkpt lat="44.42904174923511" lon="11.430478716556209"><ele>77.0</ele><time>2026-04-10T16:00:19.972Z</time></trkpt><trkpt lat="44.42899256004588" lon="11.43036932115464"><ele>77.0</ele><time>2026-04-10T16:00:21.972Z</time></trkpt><trkpt lat="44.42894251055705" lon="11.430276794622637"><ele>77.0</ele><time>2026-04-10T16:00:23.972Z</time></trkpt><trkpt lat="44.428901469674805" lon="11.430177300688369"><ele>77.16666666666667</ele><time>2026-04-10T16:00:25.972Z</time></trkpt><trkpt lat="44.42884191946406" lon="11.430077315404331"><ele>77.33333333333334</ele><time>2026-04-10T16:00:27.972Z</time></trkpt><trkpt lat="44.42877858348444" lon="11.429947456039521"><ele>77.5</ele><time>2026-04-10T16:00:30.972Z</time></trkpt><trkpt lat="44.42874647100904" lon="11.429864666139409"><ele>77.66666666666667</ele><time>2026-04-10T16:00:32.972Z</time></trkpt><trkpt lat="44.42869524430292" lon="11.429776916869443"><ele>77.83333333333333</ele><time>2026-04-10T16:00:34.972Z</time></trkpt><trkpt lat="44.42864984061082" lon="11.42970088311043"><ele>78.0</ele><time>2026-04-10T16:00:36.974Z</time></trkpt><trkpt lat="44.428577040772716" lon="11.429618316060836"><ele>78.0</ele><time>2026-04-10T16:00:38.974Z</time></trkpt><trkpt lat="44.42851733098205" lon="11.429522140243732"><ele>78.0</ele><time>2026-04-10T16:00:40.974Z</time></trkpt><trkpt lat="44.42846354845602" lon="11.429447257371049"><ele>78.0</ele><time>2026-04-10T16:00:42.974Z</time></trkpt><trkpt lat="44.42840734214045" lon="11.429367971629096"><ele>78.0</ele><time>2026-04-10T16:00:44.974Z</time></trkpt><trkpt lat="44.42835066534777" lon="11.429272685650663"><ele>78.0</ele><time>2026-04-10T16:00:46.974Z</time></trkpt><trkpt lat="44.42830294782804" lon="11.429168014157693"><ele>78.0</ele><time>2026-04-10T16:00:48.975Z</time></trkpt><trkpt lat="44.428261996203695" lon="11.429052388601995"><ele>78.0</ele><time>2026-04-10T16:00:50.974Z</time></trkpt><trkpt lat="44.42821214005212" lon="11.428960199460418"><ele>78.0</ele><time>2026-04-10T16:00:52.974Z</time></trkpt><trkpt lat="44.428142948628036" lon="11.428860747149933"><ele>78.0</ele><time>2026-04-10T16:00:54.974Z</time></trkpt><trkpt lat="44.42806094147508" lon="11.428788761304798"><ele>78.0</ele><time>2026-04-10T16:00:56.974Z</time></trkpt><trkpt lat="44.42798643146075" lon="11.42872014169856"><ele>78.0</ele><time>2026-04-10T16:00:58.974Z</time></trkpt><trkpt lat="44.42791898913" lon="11.428669055117856"><ele>78.0</ele><time>2026-04-10T16:01:00.974Z</time></trkpt><trkpt lat="44.42785786192641" lon="11.428608397196026"><ele>78.66666666666667</ele><time>2026-04-10T16:01:02.974Z</time></trkpt><trkpt lat="44.42778733716481" lon="11.428571073123322"><ele>79.33333333333333</ele><time>2026-04-10T16:01:04.974Z</time></trkpt><trkpt lat="44.42773124696476" lon="11.428519842158018"><ele>80.0</ele><time>2026-04-10T16:01:06.974Z</time></trkpt><trkpt lat="44.427638083298966" lon="11.42844062779579"><ele>80.66666666666666</ele><time>2026-04-10T16:01:08.974Z</time></trkpt><trkpt lat="44.427567651933344" lon="11.428382117766464"><ele>81.33333333333333</ele><time>2026-04-10T16:01:10.974Z</time></trkpt><trkpt lat="44.42748370693014" lon="11.42835769402134"><ele>82.0</ele><time>2026-04-10T16:01:12.974Z</time></trkpt><trkpt lat="44.427411197716566" lon="11.428375589427024"><ele>81.99999999999999</ele><time>2026-04-10T16:01:14.974Z</time></trkpt><trkpt lat="44.42733079727162" lon="11.42837721779278"><ele>82.0</ele><time>2026-04-10T16:01:16.974Z</time></trkpt><trkpt lat="44.42726186030421" lon="11.428343608748552"><ele>82.0</ele><time>2026-04-10T16:01:18.974Z</time></trkpt><trkpt lat="44.42720478342308" lon="11.428306203477499"><ele>82.0</ele><time>2026-04-10T16:01:20.974Z</time></trkpt><trkpt lat="44.42713512663937" lon="11.428262423761304"><ele>82.0</ele><time>2026-04-10T16:01:22.974Z</time></trkpt><trkpt lat="44.427061284634135" lon="11.428224037919854"><ele>81.99999999999999</ele><time>2026-04-10T16:01:24.974Z</time></trkpt><trkpt lat="44.4269902859392" lon="11.428193033037994"><ele>82.0</ele><time>2026-04-10T16:01:26.974Z</time></trkpt><trkpt lat="44.42693991627447" lon="11.428139230903597"><ele>82.0</ele><time>2026-04-10T16:01:28.974Z</time></trkpt><trkpt lat="44.42687491439444" lon="11.428090744914956"><ele>82.0</ele><time>2026-04-10T16:01:30.974Z</time></trkpt><trkpt lat="44.42680653641225" lon="11.428033941025856"><ele>82.0</ele><time>2026-04-10T16:01:32.974Z</time></trkpt><trkpt lat="44.426725445858345" lon="11.427988198062266"><ele>82.0</ele><time>2026-04-10T16:01:34.974Z</time></trkpt><trkpt lat="44.426644819842394" lon="11.427926717676927"><ele>82.0</ele><time>2026-04-10T16:01:36.974Z</time></trkpt><trkpt lat="44.426561878186604" lon="11.42787916122203"><ele>82.0</ele><time>2026-04-10T16:01:38.974Z</time></trkpt><trkpt lat="44.42648088418816" lon="11.427835271806607"><ele>82.19999999999999</ele><time>2026-04-10T16:01:40.974Z</time></trkpt><trkpt lat="44.426401942092674" lon="11.427789870084185"><ele>82.4</ele><time>2026-04-10T16:01:42.974Z</time></trkpt><trkpt lat="44.42631170224353" lon="11.427728612799271"><ele>82.6</ele><time>2026-04-10T16:01:44.974Z</time></trkpt><trkpt lat="44.42622047956314" lon="11.427674945350176"><ele>82.80000000000001</ele><time>2026-04-10T16:01:46.974Z</time></trkpt><trkpt lat="44.426132875310195" lon="11.427621210570043"><ele>83.0</ele><time>2026-04-10T16:01:48.974Z</time></trkpt><trkpt lat="44.42603810632555" lon="11.427580745519409"><ele>82.25</ele><time>2026-04-10T16:01:50.974Z</time></trkpt><trkpt lat="44.425940663668925" lon="11.427522539463034"><ele>81.5</ele><time>2026-04-10T16:01:52.974Z</time></trkpt><trkpt lat="44.42583804864455" lon="11.427454327468807"><ele>80.75</ele><time>2026-04-10T16:01:54.974Z</time></trkpt><trkpt lat="44.425735956593144" lon="11.427384240957117"><ele>80.0</ele><time>2026-04-10T16:01:56.974Z</time></trkpt><trkpt lat="44.42562924103123" lon="11.427307346605978"><ele>80.0</ele><time>2026-04-10T16:01:58.974Z</time></trkpt><trkpt lat="44.425527274671786" lon="11.42723854669574"><ele>80.0</ele><time>2026-04-10T16:02:00.974Z</time></trkpt><trkpt lat="44.42541587750183" lon="11.42717785524675"><ele>80.0</ele><time>2026-04-10T16:02:02.974Z</time></trkpt><trkpt lat="44.42530558094169" lon="11.427115478941777"><ele>80.0</ele><time>2026-04-10T16:02:04.974Z</time></trkpt><trkpt lat="44.425206078976366" lon="11.427048724160027"><ele>80.4</ele><time>2026-04-10T16:02:06.974Z</time></trkpt><trkpt lat="44.42511102281927" lon="11.42698833655347"><ele>80.8</ele><time>2026-04-10T16:02:08.974Z</time></trkpt><trkpt lat="44.42500610111043" lon="11.426923686740311"><ele>81.19999999999999</ele><time>2026-04-10T16:02:10.974Z</time></trkpt><trkpt lat="44.42490559001065" lon="11.426850793017694"><ele>81.6</ele><time>2026-04-10T16:02:12.974Z</time></trkpt><trkpt lat="44.42480778681171" lon="11.42678316012889"><ele>82.0</ele><time>2026-04-10T16:02:14.974Z</time></trkpt><trkpt lat="44.42470286831672" lon="11.426720420457208"><ele>82.19999999999999</ele><time>2026-04-10T16:02:16.974Z</time></trkpt><trkpt lat="44.42460118712043" lon="11.426656095668903"><ele>82.4</ele><time>2026-04-10T16:02:18.974Z</time></trkpt><trkpt lat="44.42450619506261" lon="11.426589238436872"><ele>82.6</ele><time>2026-04-10T16:02:20.974Z</time></trkpt><trkpt lat="44.424407144626116" lon="11.426525845762985"><ele>82.80000000000001</ele><time>2026-04-10T16:02:22.974Z</time></trkpt><trkpt lat="44.42430599961398" lon="11.426466186378951"><ele>83.0</ele><time>2026-04-10T16:02:24.974Z</time></trkpt><trkpt lat="44.42420279567298" lon="11.426410233095512"><ele>83.0</ele><time>2026-04-10T16:02:26.974Z</time></trkpt><trkpt lat="44.42410288305609" lon="11.426355054181542"><ele>83.0</ele><time>2026-04-10T16:02:28.974Z</time></trkpt><trkpt lat="44.4240081949032" lon="11.426289359866278"><ele>83.0</ele><time>2026-04-10T16:02:30.974Z</time></trkpt><trkpt lat="44.42390476073313" lon="11.426235761653073"><ele>83.0</ele><time>2026-04-10T16:02:32.974Z</time></trkpt><trkpt lat="44.423811613692266" lon="11.426178861022322"><ele>83.0</ele><time>2026-04-10T16:02:34.974Z</time></trkpt><trkpt lat="44.42371517189554" lon="11.426120925941614"><ele>83.2</ele><time>2026-04-10T16:02:36.974Z</time></trkpt><trkpt lat="44.42362059937581" lon="11.42606218097505"><ele>83.4</ele><time>2026-04-10T16:02:38.974Z</time></trkpt><trkpt lat="44.42352697445783" lon="11.425996179913687"><ele>83.60000000000001</ele><time>2026-04-10T16:02:40.974Z</time></trkpt><trkpt lat="44.423436370923845" lon="11.425942309566375"><ele>83.80000000000001</ele><time>2026-04-10T16:02:42.975Z</time></trkpt><trkpt lat="44.423348482039756" lon="11.42589098810423"><ele>84.0</ele><time>2026-04-10T16:02:44.976Z</time></trkpt><trkpt lat="44.42326330233608" lon="11.42583826867842"><ele>84.0</ele><time>2026-04-10T16:02:46.976Z</time></trkpt><trkpt lat="44.42319108688222" lon="11.425789456324114"><ele>84.0</ele><time>2026-04-10T16:02:48.976Z</time></trkpt><trkpt lat="44.42309770971307" lon="11.42573465689152"><ele>84.0</ele><time>2026-04-10T16:02:50.976Z</time></trkpt><trkpt lat="44.42298393382062" lon="11.425692689030909"><ele>84.0</ele><time>2026-04-10T16:02:52.976Z</time></trkpt><trkpt lat="44.42291949171792" lon="11.425667119604366"><ele>84.0</ele><time>2026-04-10T16:02:53.976Z</time></trkpt><trkpt lat="44.42285474049113" lon="11.425649352539068"><ele>84.0</ele><time>2026-04-10T16:02:54.976Z</time></trkpt><trkpt lat="44.422793077517085" lon="11.425618689139503"><ele>84.0</ele><time>2026-04-10T16:02:55.976Z</time></trkpt><trkpt lat="44.42269152962487" lon="11.425548056984825"><ele>84.0</ele><time>2026-04-10T16:02:57.976Z</time></trkpt><trkpt lat="44.422588148702495" lon="11.425490541409056"><ele>84.0</ele><time>2026-04-10T16:02:59.976Z</time></trkpt><trkpt lat="44.422496398637534" lon="11.425428528154471"><ele>84.0</ele><time>2026-04-10T16:03:01.976Z</time></trkpt><trkpt lat="44.42239682466107" lon="11.425385858444074"><ele>84.0</ele><time>2026-04-10T16:03:03.976Z</time></trkpt><trkpt lat="44.422293586974796" lon="11.42534755110249"><ele>83.80000000000001</ele><time>2026-04-10T16:03:05.976Z</time></trkpt><trkpt lat="44.422191222725" lon="11.425327615800542"><ele>83.60000000000001</ele><time>2026-04-10T16:03:07.976Z</time></trkpt><trkpt lat="44.42209399807379" lon="11.425336561549875"><ele>83.4</ele><time>2026-04-10T16:03:09.976Z</time></trkpt><trkpt lat="44.4220040126687" lon="11.42526452000605"><ele>83.2</ele><time>2026-04-10T16:03:11.976Z</time></trkpt><trkpt lat="44.42191361451966" lon="11.42519070182646"><ele>83.0</ele><time>2026-04-10T16:03:13.976Z</time></trkpt><trkpt lat="44.42182021974188" lon="11.42514680654244"><ele>83.0</ele><time>2026-04-10T16:03:15.976Z</time></trkpt><trkpt lat="44.42172710919945" lon="11.425118374808616"><ele>83.0</ele><time>2026-04-10T16:03:17.976Z</time></trkpt><trkpt lat="44.421645590467755" lon="11.42508206069965"><ele>83.0</ele><time>2026-04-10T16:03:19.976Z</time></trkpt><trkpt lat="44.42158238790308" lon="11.425031763702227"><ele>83.0</ele><time>2026-04-10T16:03:21.976Z</time></trkpt><trkpt lat="44.42161330535762" lon="11.4249077844033"><ele>83.0</ele><time>2026-04-10T16:03:35.976Z</time></trkpt><trkpt lat="44.421612894905145" lon="11.424814666726968"><ele>83.0</ele><time>2026-04-10T16:03:38.976Z</time></trkpt><trkpt lat="44.421648707896765" lon="11.4247290447167"><ele>83.28571428571428</ele><time>2026-04-10T16:03:40.976Z</time></trkpt><trkpt lat="44.421673829429345" lon="11.424642543836496"><ele>83.57142857142858</ele><time>2026-04-10T16:03:42.976Z</time></trkpt><trkpt lat="44.421702838212596" lon="11.42456031706881"><ele>83.85714285714286</ele><time>2026-04-10T16:03:44.976Z</time></trkpt><trkpt lat="44.42172859440125" lon="11.424457399892313"><ele>84.14285714285714</ele><time>2026-04-10T16:03:47.976Z</time></trkpt><trkpt lat="44.4217485399775" lon="11.424359268913575"><ele>84.42857142857142</ele><time>2026-04-10T16:03:50.976Z</time></trkpt><trkpt lat="44.4217557278131" lon="11.42426444565164"><ele>84.71428571428572</ele><time>2026-04-10T16:03:52.976Z</time></trkpt><trkpt lat="44.42169056946362" lon="11.424199155825812"><ele>85.0</ele><time>2026-04-10T16:03:54.976Z</time></trkpt><trkpt lat="44.42161875240609" lon="11.424167669929409"><ele>85.0</ele><time>2026-04-10T16:03:56.976Z</time></trkpt><trkpt lat="44.421543254002444" lon="11.42412863322808"><ele>85.0</ele><time>2026-04-10T16:03:58.976Z</time></trkpt><trkpt lat="44.421460209717324" lon="11.424077203392157"><ele>85.0</ele><time>2026-04-10T16:04:00.976Z</time></trkpt><trkpt lat="44.421373562674006" lon="11.424038389794955"><ele>85.0</ele><time>2026-04-10T16:04:02.976Z</time></trkpt><trkpt lat="44.42128659359089" lon="11.423994606627998"><ele>85.0</ele><time>2026-04-10T16:04:04.976Z</time></trkpt><trkpt lat="44.42120646989886" lon="11.423959876165421"><ele>85.0</ele><time>2026-04-10T16:04:06.976Z</time></trkpt><trkpt lat="44.421124318364015" lon="11.42393295690106"><ele>85.33333333333333</ele><time>2026-04-10T16:04:08.976Z</time></trkpt><trkpt lat="44.42104682463538" lon="11.423880755150515"><ele>85.66666666666666</ele><time>2026-04-10T16:04:10.976Z</time></trkpt><trkpt lat="44.42096082117206" lon="11.42385092487647"><ele>86.0</ele><time>2026-04-10T16:04:12.976Z</time></trkpt><trkpt lat="44.42088311148957" lon="11.423799325338464"><ele>86.33333333333333</ele><time>2026-04-10T16:04:14.976Z</time></trkpt><trkpt lat="44.4207932443886" lon="11.42375968772775"><ele>86.66666666666667</ele><time>2026-04-10T16:04:16.976Z</time></trkpt><trkpt lat="44.420705709633886" lon="11.423722904722004"><ele>87.0</ele><time>2026-04-10T16:04:18.976Z</time></trkpt><trkpt lat="44.420608160353545" lon="11.423675340327343"><ele>88.6</ele><time>2026-04-10T16:04:20.976Z</time></trkpt><trkpt lat="44.42051877801112" lon="11.423619634938984"><ele>90.19999999999999</ele><time>2026-04-10T16:04:22.976Z</time></trkpt><trkpt lat="44.42042578861017" lon="11.42356425234945"><ele>91.8</ele><time>2026-04-10T16:04:24.976Z</time></trkpt><trkpt lat="44.420336205750914" lon="11.423497162433014"><ele>93.4</ele><time>2026-04-10T16:04:26.976Z</time></trkpt><trkpt lat="44.420243054640736" lon="11.42345756123099"><ele>95.0</ele><time>2026-04-10T16:04:28.976Z</time></trkpt><trkpt lat="44.42014662837613" lon="11.423410134543952"><ele>95.0</ele><time>2026-04-10T16:04:30.976Z</time></trkpt><trkpt lat="44.420037777639514" lon="11.423376257151933"><ele>95.0</ele><time>2026-04-10T16:04:32.976Z</time></trkpt><trkpt lat="44.41993665463848" lon="11.423346329000557"><ele>95.0</ele><time>2026-04-10T16:04:34.976Z</time></trkpt><trkpt lat="44.41982967910852" lon="11.423304682450743"><ele>95.0</ele><time>2026-04-10T16:04:36.976Z</time></trkpt><trkpt lat="44.41973109527929" lon="11.423273073006836"><ele>95.0</ele><time>2026-04-10T16:04:38.976Z</time></trkpt><trkpt lat="44.41963308422599" lon="11.42324949188431"><ele>94.33333333333334</ele><time>2026-04-10T16:04:40.976Z</time></trkpt><trkpt lat="44.41954546835119" lon="11.423253518475624"><ele>93.66666666666667</ele><time>2026-04-10T16:04:42.976Z</time></trkpt><trkpt lat="44.41946177873202" lon="11.42323077863949"><ele>93.0</ele><time>2026-04-10T16:04:44.976Z</time></trkpt><trkpt lat="44.419370948143275" lon="11.423215722654785"><ele>92.33333333333333</ele><time>2026-04-10T16:04:46.976Z</time></trkpt><trkpt lat="44.41928749440594" lon="11.423177362082502"><ele>91.66666666666666</ele><time>2026-04-10T16:04:48.977Z</time></trkpt><trkpt lat="44.41921904755876" lon="11.423164647136009"><ele>91.0</ele><time>2026-04-10T16:04:49.977Z</time></trkpt><trkpt lat="44.41915589043079" lon="11.423159453244093"><ele>91.0</ele><time>2026-04-10T16:04:50.977Z</time></trkpt><trkpt lat="44.419048743512754" lon="11.42310624469454"><ele>91.0</ele><time>2026-04-10T16:04:52.977Z</time></trkpt><trkpt lat="44.41893366300553" lon="11.423064164368606"><ele>91.0</ele><time>2026-04-10T16:04:54.978Z</time></trkpt><trkpt lat="44.41883138531259" lon="11.423049495230227"><ele>91.0</ele><time>2026-04-10T16:04:56.978Z</time></trkpt><trkpt lat="44.41875914826349" lon="11.423042365247221"><ele>91.0</ele><time>2026-04-10T16:04:57.978Z</time></trkpt><trkpt lat="44.41868156707273" lon="11.423037718857717"><ele>90.83333333333333</ele><time>2026-04-10T16:04:58.978Z</time></trkpt><trkpt lat="44.41861345295789" lon="11.423041527615702"><ele>90.66666666666666</ele><time>2026-04-10T16:04:59.978Z</time></trkpt><trkpt lat="44.41854293473093" lon="11.42303992485134"><ele>90.5</ele><time>2026-04-10T16:05:00.978Z</time></trkpt><trkpt lat="44.41847821875391" lon="11.423033791565539"><ele>90.33333333333333</ele><time>2026-04-10T16:05:01.978Z</time></trkpt><trkpt lat="44.41841256555167" lon="11.42303076101808"><ele>90.16666666666667</ele><time>2026-04-10T16:05:02.978Z</time></trkpt><trkpt lat="44.418293692027795" lon="11.423032756682609"><ele>90.0</ele><time>2026-04-10T16:05:04.978Z</time></trkpt><trkpt lat="44.418181969926096" lon="11.42302489525063"><ele>90.0</ele><time>2026-04-10T16:05:06.978Z</time></trkpt><trkpt lat="44.4180709484624" lon="11.423034020790727"><ele>90.0</ele><time>2026-04-10T16:05:08.978Z</time></trkpt><trkpt lat="44.4179672870051" lon="11.42304404652711"><ele>90.0</ele><time>2026-04-10T16:05:10.978Z</time></trkpt><trkpt lat="44.417860532000574" lon="11.423062821113337"><ele>90.0</ele><time>2026-04-10T16:05:12.978Z</time></trkpt><trkpt lat="44.417765013132914" lon="11.423074095157892"><ele>90.0</ele><time>2026-04-10T16:05:14.978Z</time></trkpt><trkpt lat="44.41764573618627" lon="11.423090728212786"><ele>90.75</ele><time>2026-04-10T16:05:16.978Z</time></trkpt><trkpt lat="44.41752419734362" lon="11.423117144664957"><ele>91.5</ele><time>2026-04-10T16:05:18.978Z</time></trkpt><trkpt lat="44.4174027463107" lon="11.423136838024176"><ele>92.25</ele><time>2026-04-10T16:05:20.978Z</time></trkpt><trkpt lat="44.417297736363565" lon="11.423152128876284"><ele>93.0</ele><time>2026-04-10T16:05:22.978Z</time></trkpt><trkpt lat="44.41718426158401" lon="11.423153605359115"><ele>92.80000000000001</ele><time>2026-04-10T16:05:24.978Z</time></trkpt><trkpt lat="44.41706161322822" lon="11.423175686174055"><ele>92.6</ele><time>2026-04-10T16:05:26.978Z</time></trkpt><trkpt lat="44.41699767030493" lon="11.423189754248414"><ele>92.4</ele><time>2026-04-10T16:05:27.978Z</time></trkpt><trkpt lat="44.41693516571599" lon="11.423203507910936"><ele>92.19999999999999</ele><time>2026-04-10T16:05:28.978Z</time></trkpt><trkpt lat="44.41681848324206" lon="11.423240042105608"><ele>92.0</ele><time>2026-04-10T16:05:30.978Z</time></trkpt><trkpt lat="44.416715372566586" lon="11.423259931821761"><ele>92.0</ele><time>2026-04-10T16:05:32.978Z</time></trkpt><trkpt lat="44.4166077567916" lon="11.42329775272941"><ele>92.0</ele><time>2026-04-10T16:05:34.978Z</time></trkpt><trkpt lat="44.41649412764555" lon="11.423328342098845"><ele>92.0</ele><time>2026-04-10T16:05:36.978Z</time></trkpt><trkpt lat="44.41638406835974" lon="11.423358781391139"><ele>92.0</ele><time>2026-04-10T16:05:38.978Z</time></trkpt><trkpt lat="44.41627098489075" lon="11.423393450602934"><ele>91.8</ele><time>2026-04-10T16:05:40.978Z</time></trkpt><trkpt lat="44.41616465353227" lon="11.423422886673016"><ele>91.6</ele><time>2026-04-10T16:05:42.978Z</time></trkpt><trkpt lat="44.41604936244164" lon="11.423452991803174"><ele>91.39999999999999</ele><time>2026-04-10T16:05:44.978Z</time></trkpt><trkpt lat="44.41594209402206" lon="11.42347788408786"><ele>91.19999999999999</ele><time>2026-04-10T16:05:46.978Z</time></trkpt><trkpt lat="44.41583472890008" lon="11.423514413671173"><ele>91.0</ele><time>2026-04-10T16:05:48.978Z</time></trkpt><trkpt lat="44.4157254005427" lon="11.42355132501892"><ele>91.0</ele><time>2026-04-10T16:05:50.978Z</time></trkpt><trkpt lat="44.415617650217435" lon="11.423593910833459"><ele>91.0</ele><time>2026-04-10T16:05:52.978Z</time></trkpt><trkpt lat="44.41550562694213" lon="11.423620546603107"><ele>91.0</ele><time>2026-04-10T16:05:54.978Z</time></trkpt><trkpt lat="44.41539519334388" lon="11.423633695117879"><ele>91.0</ele><time>2026-04-10T16:05:56.978Z</time></trkpt><trkpt lat="44.415301531748305" lon="11.423666692327345"><ele>91.0</ele><time>2026-04-10T16:05:58.978Z</time></trkpt><trkpt lat="44.41520370697858" lon="11.423696594267103"><ele>91.0</ele><time>2026-04-10T16:06:00.978Z</time></trkpt><trkpt lat="44.41509767796974" lon="11.423731476889653"><ele>91.0</ele><time>2026-04-10T16:06:02.978Z</time></trkpt><trkpt lat="44.41499601750814" lon="11.42375793998261"><ele>91.0</ele><time>2026-04-10T16:06:04.978Z</time></trkpt><trkpt lat="44.414896849457364" lon="11.423790346498183"><ele>91.0</ele><time>2026-04-10T16:06:06.978Z</time></trkpt><trkpt lat="44.41478845186501" lon="11.423798689067924"><ele>91.0</ele><time>2026-04-10T16:06:08.978Z</time></trkpt><trkpt lat="44.4146852808633" lon="11.423827233025763"><ele>91.6</ele><time>2026-04-10T16:06:10.978Z</time></trkpt><trkpt lat="44.41458031993772" lon="11.423856272223118"><ele>92.19999999999999</ele><time>2026-04-10T16:06:12.978Z</time></trkpt><trkpt lat="44.414489315641354" lon="11.423881450072047"><ele>92.80000000000001</ele><time>2026-04-10T16:06:14.978Z</time></trkpt><trkpt lat="44.41438573795206" lon="11.423910182751383"><ele>93.4</ele><time>2026-04-10T16:06:16.978Z</time></trkpt><trkpt lat="44.4142802456987" lon="11.423963324433803"><ele>94.0</ele><time>2026-04-10T16:06:18.978Z</time></trkpt><trkpt lat="44.41416756934102" lon="11.423981848101759"><ele>94.0</ele><time>2026-04-10T16:06:20.978Z</time></trkpt><trkpt lat="44.41405841556595" lon="11.424020535741073"><ele>94.0</ele><time>2026-04-10T16:06:22.978Z</time></trkpt><trkpt lat="44.4139555879953" lon="11.42405043509353"><ele>94.0</ele><time>2026-04-10T16:06:24.978Z</time></trkpt><trkpt lat="44.41384506610654" lon="11.424083378596398"><ele>94.0</ele><time>2026-04-10T16:06:26.978Z</time></trkpt><trkpt lat="44.41374268549697" lon="11.42411381126277"><ele>94.0</ele><time>2026-04-10T16:06:28.978Z</time></trkpt><trkpt lat="44.41364035855707" lon="11.42414014526445"><ele>94.2</ele><time>2026-04-10T16:06:30.978Z</time></trkpt><trkpt lat="44.413545772030126" lon="11.424174383696263"><ele>94.4</ele><time>2026-04-10T16:06:32.978Z</time></trkpt><trkpt lat="44.41343909918293" lon="11.42421481598947"><ele>94.6</ele><time>2026-04-10T16:06:34.978Z</time></trkpt><trkpt lat="44.413332391168225" lon="11.42425043525859"><ele>94.8</ele><time>2026-04-10T16:06:36.978Z</time></trkpt><trkpt lat="44.4132233708199" lon="11.424273187997214"><ele>95.0</ele><time>2026-04-10T16:06:38.978Z</time></trkpt><trkpt lat="44.41311191414747" lon="11.424299705266156"><ele>95.0</ele><time>2026-04-10T16:06:40.978Z</time></trkpt><trkpt lat="44.413016355707846" lon="11.42433052479992"><ele>95.0</ele><time>2026-04-10T16:06:42.978Z</time></trkpt><trkpt lat="44.41291033808981" lon="11.424350108119231"><ele>95.0</ele><time>2026-04-10T16:06:44.978Z</time></trkpt><trkpt lat="44.41279886858647" lon="11.424392254655704"><ele>95.0</ele><time>2026-04-10T16:06:46.978Z</time></trkpt><trkpt lat="44.412685711109724" lon="11.424400457614446"><ele>95.0</ele><time>2026-04-10T16:06:48.978Z</time></trkpt><trkpt lat="44.412579466936734" lon="11.424435441734028"><ele>94.75</ele><time>2026-04-10T16:06:50.978Z</time></trkpt><trkpt lat="44.41246442641597" lon="11.424450602384816"><ele>94.5</ele><time>2026-04-10T16:06:52.978Z</time></trkpt><trkpt lat="44.41234927452602" lon="11.424493697493608"><ele>94.25</ele><time>2026-04-10T16:06:54.978Z</time></trkpt><trkpt lat="44.4122393171857" lon="11.424517170167471"><ele>94.0</ele><time>2026-04-10T16:06:56.978Z</time></trkpt><trkpt lat="44.412131748885685" lon="11.424559134945298"><ele>94.0</ele><time>2026-04-10T16:06:58.979Z</time></trkpt><trkpt lat="44.412018264924896" lon="11.424589522309592"><ele>94.0</ele><time>2026-04-10T16:07:00.979Z</time></trkpt><trkpt lat="44.41190905156986" lon="11.424620675495854"><ele>94.0</ele><time>2026-04-10T16:07:02.979Z</time></trkpt><trkpt lat="44.41179385091667" lon="11.424649153049643"><ele>94.0</ele><time>2026-04-10T16:07:04.978Z</time></trkpt><trkpt lat="44.41168258519838" lon="11.424691549813586"><ele>94.0</ele><time>2026-04-10T16:07:06.979Z</time></trkpt><trkpt lat="44.41157581644257" lon="11.424712008887582"><ele>94.0</ele><time>2026-04-10T16:07:08.979Z</time></trkpt><trkpt lat="44.411465073737986" lon="11.424752828763014"><ele>94.0</ele><time>2026-04-10T16:07:10.979Z</time></trkpt><trkpt lat="44.411362974034866" lon="11.424769529791435"><ele>94.0</ele><time>2026-04-10T16:07:12.979Z</time></trkpt><trkpt lat="44.41126107970215" lon="11.424795738774607"><ele>94.0</ele><time>2026-04-10T16:07:14.979Z</time></trkpt><trkpt lat="44.4111609699284" lon="11.424829195614022"><ele>94.2</ele><time>2026-04-10T16:07:16.979Z</time></trkpt><trkpt lat="44.41104792379507" lon="11.42486201777913"><ele>94.4</ele><time>2026-04-10T16:07:18.979Z</time></trkpt><trkpt lat="44.410942090671035" lon="11.42488976627556"><ele>94.6</ele><time>2026-04-10T16:07:20.979Z</time></trkpt><trkpt lat="44.410835631388686" lon="11.424925067846006"><ele>94.8</ele><time>2026-04-10T16:07:22.979Z</time></trkpt><trkpt lat="44.410731879916376" lon="11.42495087233392"><ele>95.0</ele><time>2026-04-10T16:07:24.979Z</time></trkpt><trkpt lat="44.41062058692926" lon="11.424969116023602"><ele>95.0</ele><time>2026-04-10T16:07:26.979Z</time></trkpt><trkpt lat="44.41050955667384" lon="11.424986026100276"><ele>95.0</ele><time>2026-04-10T16:07:28.979Z</time></trkpt><trkpt lat="44.410405855536126" lon="11.424990595507515"><ele>95.0</ele><time>2026-04-10T16:07:30.979Z</time></trkpt><trkpt lat="44.410292532546045" lon="11.424971365136003"><ele>95.0</ele><time>2026-04-10T16:07:32.979Z</time></trkpt><trkpt lat="44.410177291272554" lon="11.424970504973292"><ele>95.0</ele><time>2026-04-10T16:07:34.979Z</time></trkpt><trkpt lat="44.41006640766022" lon="11.424962293328809"><ele>95.25</ele><time>2026-04-10T16:07:36.979Z</time></trkpt><trkpt lat="44.40995422702553" lon="11.424944204372734"><ele>95.5</ele><time>2026-04-10T16:07:38.979Z</time></trkpt><trkpt lat="44.40984520437609" lon="11.424940040303996"><ele>95.75</ele><time>2026-04-10T16:07:40.979Z</time></trkpt><trkpt lat="44.40972379486934" lon="11.424926928468325"><ele>96.0</ele><time>2026-04-10T16:07:42.979Z</time></trkpt><trkpt lat="44.409604698211716" lon="11.424907892573556"><ele>96.25</ele><time>2026-04-10T16:07:44.979Z</time></trkpt><trkpt lat="44.40949202036412" lon="11.424905876404626"><ele>96.5</ele><time>2026-04-10T16:07:46.979Z</time></trkpt><trkpt lat="44.40937682375851" lon="11.424883710275896"><ele>96.75</ele><time>2026-04-10T16:07:48.979Z</time></trkpt><trkpt lat="44.40925622108763" lon="11.424883371041098"><ele>97.0</ele><time>2026-04-10T16:07:50.979Z</time></trkpt><trkpt lat="44.409142432071825" lon="11.424879803513216"><ele>97.0</ele><time>2026-04-10T16:07:52.979Z</time></trkpt><trkpt lat="44.40903026795624" lon="11.424862973758545"><ele>97.0</ele><time>2026-04-10T16:07:54.979Z</time></trkpt><trkpt lat="44.408912873471714" lon="11.424841234579"><ele>97.0</ele><time>2026-04-10T16:07:56.979Z</time></trkpt><trkpt lat="44.408798396065926" lon="11.424829838777233"><ele>97.0</ele><time>2026-04-10T16:07:58.979Z</time></trkpt><trkpt lat="44.40868861367042" lon="11.424828992293302"><ele>96.5</ele><time>2026-04-10T16:08:00.979Z</time></trkpt><trkpt lat="44.40857471726526" lon="11.424824719451832"><ele>96.0</ele><time>2026-04-10T16:08:02.979Z</time></trkpt><trkpt lat="44.408464915518586" lon="11.42480943825848"><ele>95.5</ele><time>2026-04-10T16:08:04.979Z</time></trkpt><trkpt lat="44.408353743527115" lon="11.42479362007385"><ele>95.0</ele><time>2026-04-10T16:08:06.979Z</time></trkpt><trkpt lat="44.40823594930836" lon="11.424787488456815"><ele>95.0</ele><time>2026-04-10T16:08:08.979Z</time></trkpt><trkpt lat="44.40812813991828" lon="11.424785776641764"><ele>95.0</ele><time>2026-04-10T16:08:10.979Z</time></trkpt><trkpt lat="44.40802037650485" lon="11.424757587178101"><ele>95.0</ele><time>2026-04-10T16:08:12.979Z</time></trkpt><trkpt lat="44.40790992237232" lon="11.424749214722546"><ele>95.0</ele><time>2026-04-10T16:08:14.979Z</time></trkpt><trkpt lat="44.40779772638738" lon="11.424740710219744"><ele>95.0</ele><time>2026-04-10T16:08:16.979Z</time></trkpt><trkpt lat="44.40768819452723" lon="11.424732407658908"><ele>95.0</ele><time>2026-04-10T16:08:18.979Z</time></trkpt><trkpt lat="44.40757586027481" lon="11.424723892688078"><ele>95.0</ele><time>2026-04-10T16:08:20.979Z</time></trkpt><trkpt lat="44.407462881396306" lon="11.424737740978596"><ele>95.0</ele><time>2026-04-10T16:08:22.979Z</time></trkpt><trkpt lat="44.40735298918836" lon="11.42470624169916"><ele>95.0</ele><time>2026-04-10T16:08:24.979Z</time></trkpt><trkpt lat="44.40723699004893" lon="11.424696377260902"><ele>95.4</ele><time>2026-04-10T16:08:26.979Z</time></trkpt><trkpt lat="44.40712541186753" lon="11.424698626666261"><ele>95.8</ele><time>2026-04-10T16:08:28.979Z</time></trkpt><trkpt lat="44.40701653416557" lon="11.42469384676577"><ele>96.19999999999999</ele><time>2026-04-10T16:08:30.979Z</time></trkpt><trkpt lat="44.40691790670104" lon="11.42467564194595"><ele>96.6</ele><time>2026-04-10T16:08:32.979Z</time></trkpt><trkpt lat="44.40681101779391" lon="11.424661527764194"><ele>97.0</ele><time>2026-04-10T16:08:34.979Z</time></trkpt><trkpt lat="44.40670169988324" lon="11.424641006225096"><ele>97.19999999999999</ele><time>2026-04-10T16:08:36.979Z</time></trkpt><trkpt lat="44.406586934665974" lon="11.424621335241252"><ele>97.4</ele><time>2026-04-10T16:08:38.979Z</time></trkpt><trkpt lat="44.406482537106655" lon="11.424580218659274"><ele>97.6</ele><time>2026-04-10T16:08:40.979Z</time></trkpt><trkpt lat="44.40638560670886" lon="11.424541831465428"><ele>97.80000000000001</ele><time>2026-04-10T16:08:42.979Z</time></trkpt><trkpt lat="44.40629531185922" lon="11.424494155861058"><ele>98.0</ele><time>2026-04-10T16:08:44.979Z</time></trkpt><trkpt lat="44.40621012512421" lon="11.424438957152718"><ele>98.49999999999999</ele><time>2026-04-10T16:08:46.979Z</time></trkpt><trkpt lat="44.40613563388844" lon="11.4243871170115"><ele>99.0</ele><time>2026-04-10T16:08:48.979Z</time></trkpt><trkpt lat="44.406045015792834" lon="11.424364352067155"><ele>99.5</ele><time>2026-04-10T16:08:50.979Z</time></trkpt><trkpt lat="44.405967467892665" lon="11.424294600631988"><ele>100.0</ele><time>2026-04-10T16:08:52.979Z</time></trkpt><trkpt lat="44.405894844391575" lon="11.424231752631737"><ele>100.49999999999999</ele><time>2026-04-10T16:08:54.979Z</time></trkpt><trkpt lat="44.40582626521104" lon="11.424159562570727"><ele>101.0</ele><time>2026-04-10T16:08:56.979Z</time></trkpt><trkpt lat="44.40576054520939" lon="11.424086552916583"><ele>101.0</ele><time>2026-04-10T16:08:58.98Z</time></trkpt><trkpt lat="44.405695498293916" lon="11.423999772884669"><ele>101.0</ele><time>2026-04-10T16:09:00.98Z</time></trkpt><trkpt lat="44.40562909277573" lon="11.423904856969239"><ele>101.0</ele><time>2026-04-10T16:09:02.98Z</time></trkpt><trkpt lat="44.40556449724956" lon="11.423805722191759"><ele>101.0</ele><time>2026-04-10T16:09:04.981Z</time></trkpt><trkpt lat="44.40550974634238" lon="11.423703615713409"><ele>101.0</ele><time>2026-04-10T16:09:06.98Z</time></trkpt><trkpt lat="44.40544677202161" lon="11.423603633817379"><ele>102.49999999999999</ele><time>2026-04-10T16:09:08.98Z</time></trkpt><trkpt lat="44.40537566658472" lon="11.423518746125806"><ele>104.0</ele><time>2026-04-10T16:09:10.98Z</time></trkpt><trkpt lat="44.4053027796293" lon="11.423421592229705"><ele>105.5</ele><time>2026-04-10T16:09:12.981Z</time></trkpt><trkpt lat="44.4052347237222" lon="11.423367205375765"><ele>107.0</ele><time>2026-04-10T16:09:14.981Z</time></trkpt><trkpt lat="44.40517602067365" lon="11.423289102096943"><ele>108.49999999999999</ele><time>2026-04-10T16:09:16.981Z</time></trkpt><trkpt lat="44.40510342776756" lon="11.423201893575394"><ele>110.0</ele><time>2026-04-10T16:09:18.981Z</time></trkpt><trkpt lat="44.405028476652916" lon="11.423124934751455"><ele>110.0</ele><time>2026-04-10T16:09:20.981Z</time></trkpt><trkpt lat="44.40494057995824" lon="11.423062080077216"><ele>110.0</ele><time>2026-04-10T16:09:22.981Z</time></trkpt><trkpt lat="44.40484740535171" lon="11.4229856428986"><ele>110.0</ele><time>2026-04-10T16:09:24.981Z</time></trkpt><trkpt lat="44.40474823445573" lon="11.422904199696553"><ele>110.0</ele><time>2026-04-10T16:09:26.981Z</time></trkpt><trkpt lat="44.40465188446522" lon="11.422844033618485"><ele>110.0</ele><time>2026-04-10T16:09:28.981Z</time></trkpt><trkpt lat="44.40454927311987" lon="11.422789596795006"><ele>112.0</ele><time>2026-04-10T16:09:30.981Z</time></trkpt><trkpt lat="44.40443868002031" lon="11.422760573654548"><ele>114.0</ele><time>2026-04-10T16:09:32.981Z</time></trkpt><trkpt lat="44.40431475091993" lon="11.422733520934917"><ele>116.0</ele><time>2026-04-10T16:09:34.981Z</time></trkpt><trkpt lat="44.40424707279057" lon="11.422720634494018"><ele>118.0</ele><time>2026-04-10T16:09:35.981Z</time></trkpt><trkpt lat="44.404123050470844" lon="11.422680632839771"><ele>120.0</ele><time>2026-04-10T16:09:37.981Z</time></trkpt><trkpt lat="44.404057370916846" lon="11.422683292544443"><ele>120.0</ele><time>2026-04-10T16:09:38.981Z</time></trkpt><trkpt lat="44.40398869728116" lon="11.422681754537162"><ele>120.0</ele><time>2026-04-10T16:09:39.981Z</time></trkpt><trkpt lat="44.403923431365136" lon="11.422663666717831"><ele>120.0</ele><time>2026-04-10T16:09:40.981Z</time></trkpt><trkpt lat="44.40385929070763" lon="11.422667727202345"><ele>120.0</ele><time>2026-04-10T16:09:41.981Z</time></trkpt><trkpt lat="44.40379602508103" lon="11.422672984778682"><ele>120.0</ele><time>2026-04-10T16:09:42.981Z</time></trkpt><trkpt lat="44.40373040698371" lon="11.422678464372304"><ele>120.0</ele><time>2026-04-10T16:09:43.981Z</time></trkpt><trkpt lat="44.40365828502962" lon="11.42268922662512"><ele>120.0</ele><time>2026-04-10T16:09:44.981Z</time></trkpt><trkpt lat="44.40359411488228" lon="11.422703335844977"><ele>120.2</ele><time>2026-04-10T16:09:45.981Z</time></trkpt><trkpt lat="44.40352953303601" lon="11.42272837094498"><ele>120.4</ele><time>2026-04-10T16:09:46.981Z</time></trkpt><trkpt lat="44.40341810758347" lon="11.422790095234127"><ele>120.6</ele><time>2026-04-10T16:09:48.981Z</time></trkpt><trkpt lat="44.403356551698565" lon="11.422831290241632"><ele>120.8</ele><time>2026-04-10T16:09:49.981Z</time></trkpt><trkpt lat="44.40324224667875" lon="11.422909035944055"><ele>121.0</ele><time>2026-04-10T16:09:51.981Z</time></trkpt><trkpt lat="44.40313690341898" lon="11.422984990557563"><ele>117.4</ele><time>2026-04-10T16:09:53.981Z</time></trkpt><trkpt lat="44.403066829674856" lon="11.423028944388415"><ele>113.8</ele><time>2026-04-10T16:09:54.981Z</time></trkpt><trkpt lat="44.40300838920975" lon="11.423077306853646"><ele>110.2</ele><time>2026-04-10T16:09:55.981Z</time></trkpt><trkpt lat="44.402944895671716" lon="11.423093719816535"><ele>106.60000000000001</ele><time>2026-04-10T16:09:56.981Z</time></trkpt><trkpt lat="44.402836118939646" lon="11.423156361004901"><ele>103.0</ele><time>2026-04-10T16:09:58.981Z</time></trkpt><trkpt lat="44.40272121612718" lon="11.42322186664354"><ele>103.00000000000001</ele><time>2026-04-10T16:10:00.981Z</time></trkpt><trkpt lat="44.402655065339125" lon="11.423259578788976"><ele>103.0</ele><time>2026-04-10T16:10:01.981Z</time></trkpt><trkpt lat="44.40253864840446" lon="11.423325947162857"><ele>103.0</ele><time>2026-04-10T16:10:03.981Z</time></trkpt><trkpt lat="44.40247266623759" lon="11.423363563249477"><ele>103.0</ele><time>2026-04-10T16:10:04.981Z</time></trkpt><trkpt lat="44.40241091819224" lon="11.423399166714473"><ele>103.00000000000001</ele><time>2026-04-10T16:10:05.981Z</time></trkpt><trkpt lat="44.40234497736031" lon="11.423437113370026"><ele>103.0</ele><time>2026-04-10T16:10:06.981Z</time></trkpt><trkpt lat="44.4022824825874" lon="11.423472909428988"><ele>103.0</ele><time>2026-04-10T16:10:07.981Z</time></trkpt><trkpt lat="44.40222419798608" lon="11.42351680460487"><ele>103.0</ele><time>2026-04-10T16:10:08.981Z</time></trkpt><trkpt lat="44.402128845052765" lon="11.423577260752083"><ele>103.0</ele><time>2026-04-10T16:10:10.981Z</time></trkpt><trkpt lat="44.40201112925239" lon="11.423633655334605"><ele>103.0</ele><time>2026-04-10T16:10:12.981Z</time></trkpt><trkpt lat="44.4019034713178" lon="11.423707658752333"><ele>103.0</ele><time>2026-04-10T16:10:14.981Z</time></trkpt><trkpt lat="44.40179317346731" lon="11.423769896699545"><ele>102.75</ele><time>2026-04-10T16:10:16.981Z</time></trkpt><trkpt lat="44.401676941768635" lon="11.423819753739226"><ele>102.5</ele><time>2026-04-10T16:10:18.981Z</time></trkpt><trkpt lat="44.40156916317308" lon="11.42388148735204"><ele>102.25</ele><time>2026-04-10T16:10:20.981Z</time></trkpt><trkpt lat="44.401460572861296" lon="11.423943685869615"><ele>102.0</ele><time>2026-04-10T16:10:22.981Z</time></trkpt><trkpt lat="44.401348583669105" lon="11.424007831288176"><ele>102.75</ele><time>2026-04-10T16:10:24.981Z</time></trkpt><trkpt lat="44.401240623714465" lon="11.424069668718014"><ele>103.5</ele><time>2026-04-10T16:10:26.981Z</time></trkpt><trkpt lat="44.40113019531227" lon="11.42413334622816"><ele>104.25</ele><time>2026-04-10T16:10:28.981Z</time></trkpt><trkpt lat="44.40102431252345" lon="11.424194867643141"><ele>105.0</ele><time>2026-04-10T16:10:30.981Z</time></trkpt><trkpt lat="44.40092277907253" lon="11.424253861920114"><ele>105.0</ele><time>2026-04-10T16:10:32.981Z</time></trkpt><trkpt lat="44.40082268161068" lon="11.424312022014524"><ele>105.0</ele><time>2026-04-10T16:10:34.981Z</time></trkpt><trkpt lat="44.400729376812144" lon="11.42437790159569"><ele>105.0</ele><time>2026-04-10T16:10:36.981Z</time></trkpt><trkpt lat="44.400630096121056" lon="11.424442597669241"><ele>105.0</ele><time>2026-04-10T16:10:38.981Z</time></trkpt><trkpt lat="44.400540147862856" lon="11.42449699579666"><ele>105.0</ele><time>2026-04-10T16:10:40.981Z</time></trkpt><trkpt lat="44.400453175890625" lon="11.424527050093959"><ele>105.2</ele><time>2026-04-10T16:10:42.981Z</time></trkpt><trkpt lat="44.40037495060585" lon="11.424596709684572"><ele>105.4</ele><time>2026-04-10T16:10:44.981Z</time></trkpt><trkpt lat="44.400280673017406" lon="11.424652000197943"><ele>105.6</ele><time>2026-04-10T16:10:46.981Z</time></trkpt><trkpt lat="44.400185462840696" lon="11.4246928864388"><ele>105.8</ele><time>2026-04-10T16:10:48.981Z</time></trkpt><trkpt lat="44.400098731789306" lon="11.424750710438744"><ele>106.0</ele><time>2026-04-10T16:10:50.981Z</time></trkpt><trkpt lat="44.400004562406295" lon="11.424803585777267"><ele>106.0</ele><time>2026-04-10T16:10:52.981Z</time></trkpt><trkpt lat="44.399910409523564" lon="11.42486053410384"><ele>106.0</ele><time>2026-04-10T16:10:54.981Z</time></trkpt><trkpt lat="44.399812386063765" lon="11.424914391798707"><ele>106.0</ele><time>2026-04-10T16:10:56.981Z</time></trkpt><trkpt lat="44.39970852164694" lon="11.424974665502262"><ele>106.0</ele><time>2026-04-10T16:10:58.981Z</time></trkpt><trkpt lat="44.39960520191286" lon="11.425038929544913"><ele>106.0</ele><time>2026-04-10T16:11:00.981Z</time></trkpt><trkpt lat="44.39949468025491" lon="11.42508287684902"><ele>106.6</ele><time>2026-04-10T16:11:02.981Z</time></trkpt><trkpt lat="44.39938958427402" lon="11.425143405315323"><ele>107.19999999999999</ele><time>2026-04-10T16:11:04.982Z</time></trkpt><trkpt lat="44.39929013766437" lon="11.42520068013554"><ele>107.80000000000001</ele><time>2026-04-10T16:11:06.982Z</time></trkpt><trkpt lat="44.399188609782975" lon="11.425259153595134"><ele>108.4</ele><time>2026-04-10T16:11:08.983Z</time></trkpt><trkpt lat="44.39908818655796" lon="11.42531699083945"><ele>109.0</ele><time>2026-04-10T16:11:10.983Z</time></trkpt><trkpt lat="44.39898853258566" lon="11.425374385090558"><ele>109.0</ele><time>2026-04-10T16:11:12.983Z</time></trkpt><trkpt lat="44.39888444894498" lon="11.425434330518765"><ele>109.0</ele><time>2026-04-10T16:11:14.982Z</time></trkpt><trkpt lat="44.39878094201275" lon="11.425493943793033"><ele>109.0</ele><time>2026-04-10T16:11:16.982Z</time></trkpt><trkpt lat="44.3986797979376" lon="11.425552196198575"><ele>109.0</ele><time>2026-04-10T16:11:18.982Z</time></trkpt><trkpt lat="44.3985752726724" lon="11.425612396006173"><ele>109.0</ele><time>2026-04-10T16:11:20.982Z</time></trkpt><trkpt lat="44.39847332101645" lon="11.425671113538979"><ele>109.2</ele><time>2026-04-10T16:11:22.982Z</time></trkpt><trkpt lat="44.398367790583244" lon="11.425731892243496"><ele>109.4</ele><time>2026-04-10T16:11:24.982Z</time></trkpt><trkpt lat="44.398269975887985" lon="11.425796494001252"><ele>109.6</ele><time>2026-04-10T16:11:26.982Z</time></trkpt><trkpt lat="44.39816560414197" lon="11.425864394130185"><ele>109.8</ele><time>2026-04-10T16:11:28.982Z</time></trkpt><trkpt lat="44.39806573596176" lon="11.42592461917579"><ele>110.0</ele><time>2026-04-10T16:11:30.982Z</time></trkpt><trkpt lat="44.397958056863246" lon="11.425967255076598"><ele>110.0</ele><time>2026-04-10T16:11:32.982Z</time></trkpt><trkpt lat="44.39785703817785" lon="11.426024257641332"><ele>110.0</ele><time>2026-04-10T16:11:34.982Z</time></trkpt><trkpt lat="44.397761671667816" lon="11.426078070792874"><ele>110.0</ele><time>2026-04-10T16:11:36.982Z</time></trkpt><trkpt lat="44.397657389943" lon="11.426147680052447"><ele>110.0</ele><time>2026-04-10T16:11:38.982Z</time></trkpt><trkpt lat="44.39755366935624" lon="11.426210006898195"><ele>110.0</ele><time>2026-04-10T16:11:40.982Z</time></trkpt><trkpt lat="44.39745284661182" lon="11.426271140484866"><ele>110.0</ele><time>2026-04-10T16:11:42.982Z</time></trkpt><trkpt lat="44.39735105264868" lon="11.426312672535087"><ele>110.0</ele><time>2026-04-10T16:11:44.982Z</time></trkpt><trkpt lat="44.3972482605759" lon="11.426366829530956"><ele>110.0</ele><time>2026-04-10T16:11:46.982Z</time></trkpt><trkpt lat="44.39715439962514" lon="11.426414963455684"><ele>110.0</ele><time>2026-04-10T16:11:48.982Z</time></trkpt><trkpt lat="44.39704795433106" lon="11.426461532617576"><ele>110.0</ele><time>2026-04-10T16:11:50.982Z</time></trkpt><trkpt lat="44.39694475793322" lon="11.426496065695973"><ele>109.6</ele><time>2026-04-10T16:11:52.982Z</time></trkpt><trkpt lat="44.39684340492933" lon="11.426533054571316"><ele>109.2</ele><time>2026-04-10T16:11:54.983Z</time></trkpt><trkpt lat="44.39673413070248" lon="11.426563433621341"><ele>108.80000000000001</ele><time>2026-04-10T16:11:56.983Z</time></trkpt><trkpt lat="44.39661835837488" lon="11.426593046230279"><ele>108.4</ele><time>2026-04-10T16:11:58.983Z</time></trkpt><trkpt lat="44.39655361641697" lon="11.426602329344238"><ele>108.0</ele><time>2026-04-10T16:11:59.983Z</time></trkpt><trkpt lat="44.39649056004982" lon="11.426611683537217"><ele>108.0</ele><time>2026-04-10T16:12:00.983Z</time></trkpt><trkpt lat="44.396427634368926" lon="11.426630306774907"><ele>108.00000000000001</ele><time>2026-04-10T16:12:01.983Z</time></trkpt><trkpt lat="44.39630731783058" lon="11.426640948860113"><ele>108.00000000000001</ele><time>2026-04-10T16:12:03.983Z</time></trkpt><trkpt lat="44.39619524638849" lon="11.426671648618349"><ele>108.0</ele><time>2026-04-10T16:12:05.983Z</time></trkpt><trkpt lat="44.39608021451749" lon="11.426685810535437"><ele>108.0</ele><time>2026-04-10T16:12:07.983Z</time></trkpt><trkpt lat="44.39596675752368" lon="11.426713490113817"><ele>108.60000000000001</ele><time>2026-04-10T16:12:09.983Z</time></trkpt><trkpt lat="44.395856447670035" lon="11.426742743238718"><ele>109.20000000000002</ele><time>2026-04-10T16:12:11.983Z</time></trkpt><trkpt lat="44.39574406648592" lon="11.426749985197338"><ele>109.8</ele><time>2026-04-10T16:12:13.983Z</time></trkpt><trkpt lat="44.395631032598544" lon="11.426777062988014"><ele>110.4</ele><time>2026-04-10T16:12:15.983Z</time></trkpt><trkpt lat="44.395523479789524" lon="11.426802775891032"><ele>111.0</ele><time>2026-04-10T16:12:17.918Z</time></trkpt><trkpt lat="44.39542184028538" lon="11.426825312279528"><ele>111.0</ele><time>2026-04-10T16:12:19.918Z</time></trkpt><trkpt lat="44.395312568659946" lon="11.42684853946508"><ele>111.0</ele><time>2026-04-10T16:12:21.918Z</time></trkpt><trkpt lat="44.39520641184085" lon="11.426871104564873"><ele>111.0</ele><time>2026-04-10T16:12:23.918Z</time></trkpt><trkpt lat="44.39510815333466" lon="11.426891990752884"><ele>111.0</ele><time>2026-04-10T16:12:25.918Z</time></trkpt><trkpt lat="44.39500500553081" lon="11.42692243493493"><ele>111.0</ele><time>2026-04-10T16:12:27.918Z</time></trkpt><trkpt lat="44.394892388798205" lon="11.426945906905107"><ele>111.0</ele><time>2026-04-10T16:12:29.918Z</time></trkpt><trkpt lat="44.39477930391798" lon="11.4269799863572"><ele>111.0</ele><time>2026-04-10T16:12:31.918Z</time></trkpt><trkpt lat="44.394659153953086" lon="11.427015022368963"><ele>111.0</ele><time>2026-04-10T16:12:33.918Z</time></trkpt><trkpt lat="44.39459479563622" lon="11.427032962818862"><ele>111.0</ele><time>2026-04-10T16:12:34.918Z</time></trkpt><trkpt lat="44.39447711926812" lon="11.427061090948252"><ele>111.0</ele><time>2026-04-10T16:12:36.918Z</time></trkpt><trkpt lat="44.394357975072076" lon="11.427064227045706"><ele>111.25</ele><time>2026-04-10T16:12:38.918Z</time></trkpt><trkpt lat="44.39424450001399" lon="11.427086922033274"><ele>111.5</ele><time>2026-04-10T16:12:40.918Z</time></trkpt><trkpt lat="44.394125444390056" lon="11.42710926663291"><ele>111.75</ele><time>2026-04-10T16:12:42.918Z</time></trkpt><trkpt lat="44.39400895424416" lon="11.42713032286847"><ele>112.0</ele><time>2026-04-10T16:12:44.918Z</time></trkpt><trkpt lat="44.393892163126324" lon="11.427152406208007"><ele>111.75</ele><time>2026-04-10T16:12:46.918Z</time></trkpt><trkpt lat="44.39377789694739" lon="11.427176144402985"><ele>111.5</ele><time>2026-04-10T16:12:48.918Z</time></trkpt><trkpt lat="44.3936682622031" lon="11.427222695914754"><ele>111.25</ele><time>2026-04-10T16:12:50.918Z</time></trkpt><trkpt lat="44.393556742124865" lon="11.427233946285144"><ele>111.0</ele><time>2026-04-10T16:12:52.918Z</time></trkpt><trkpt lat="44.393449450353984" lon="11.427261045912259"><ele>111.0</ele><time>2026-04-10T16:12:54.918Z</time></trkpt><trkpt lat="44.39334108061827" lon="11.42728925676317"><ele>111.0</ele><time>2026-04-10T16:12:56.918Z</time></trkpt><trkpt lat="44.393234737586106" lon="11.427306101932059"><ele>111.0</ele><time>2026-04-10T16:12:58.918Z</time></trkpt><trkpt lat="44.3931237286613" lon="11.427316046858579"><ele>111.0</ele><time>2026-04-10T16:13:00.918Z</time></trkpt><trkpt lat="44.39301215271336" lon="11.427339750465276"><ele>111.0</ele><time>2026-04-10T16:13:02.918Z</time></trkpt><trkpt lat="44.39290267663066" lon="11.427362295197996"><ele>110.6</ele><time>2026-04-10T16:13:04.918Z</time></trkpt><trkpt lat="44.39279156229748" lon="11.427385177321158"><ele>110.19999999999999</ele><time>2026-04-10T16:13:06.918Z</time></trkpt><trkpt lat="44.3926853247629" lon="11.427418999264134"><ele>109.80000000000001</ele><time>2026-04-10T16:13:08.918Z</time></trkpt><trkpt lat="44.39257529636844" lon="11.4274430780197"><ele>109.4</ele><time>2026-04-10T16:13:10.92Z</time></trkpt><trkpt lat="44.392465678457526" lon="11.42745228758053"><ele>109.0</ele><time>2026-04-10T16:13:12.92Z</time></trkpt><trkpt lat="44.392359296690785" lon="11.427486128111598"><ele>109.0</ele><time>2026-04-10T16:13:14.92Z</time></trkpt><trkpt lat="44.3922479568944" lon="11.427516329780358"><ele>109.0</ele><time>2026-04-10T16:13:16.92Z</time></trkpt><trkpt lat="44.39213459538183" lon="11.427538441956443"><ele>109.0</ele><time>2026-04-10T16:13:18.92Z</time></trkpt><trkpt lat="44.39202817759475" lon="11.427569800369252"><ele>109.0</ele><time>2026-04-10T16:13:20.92Z</time></trkpt><trkpt lat="44.39192114846687" lon="11.427595864542377"><ele>109.0</ele><time>2026-04-10T16:13:22.92Z</time></trkpt><trkpt lat="44.39181662531731" lon="11.427607749071674"><ele>109.4</ele><time>2026-04-10T16:13:24.92Z</time></trkpt><trkpt lat="44.39171275378358" lon="11.427638202047739"><ele>109.80000000000001</ele><time>2026-04-10T16:13:26.92Z</time></trkpt><trkpt lat="44.391609465381876" lon="11.427667578001769"><ele>110.19999999999999</ele><time>2026-04-10T16:13:28.92Z</time></trkpt><trkpt lat="44.39149578073529" lon="11.427684949385132"><ele>110.6</ele><time>2026-04-10T16:13:30.92Z</time></trkpt><trkpt lat="44.39138282356812" lon="11.427721099144755"><ele>111.0</ele><time>2026-04-10T16:13:32.92Z</time></trkpt><trkpt lat="44.39127425148327" lon="11.427743957034268"><ele>111.4</ele><time>2026-04-10T16:13:34.92Z</time></trkpt><trkpt lat="44.39116002590345" lon="11.427757355517402"><ele>111.8</ele><time>2026-04-10T16:13:36.92Z</time></trkpt><trkpt lat="44.39104924305692" lon="11.427783921735932"><ele>112.20000000000002</ele><time>2026-04-10T16:13:38.92Z</time></trkpt><trkpt lat="44.390947577685985" lon="11.427818504721976"><ele>112.60000000000001</ele><time>2026-04-10T16:13:40.92Z</time></trkpt><trkpt lat="44.390836821696944" lon="11.427844896305864"><ele>113.0</ele><time>2026-04-10T16:13:42.92Z</time></trkpt><trkpt lat="44.39072847654963" lon="11.42786106506338"><ele>113.0</ele><time>2026-04-10T16:13:44.92Z</time></trkpt><trkpt lat="44.39061474112748" lon="11.427887471170553"><ele>113.0</ele><time>2026-04-10T16:13:46.92Z</time></trkpt><trkpt lat="44.39050919886281" lon="11.427916374847896"><ele>113.0</ele><time>2026-04-10T16:13:48.92Z</time></trkpt><trkpt lat="44.39039508742671" lon="11.427918772360874"><ele>113.0</ele><time>2026-04-10T16:13:50.92Z</time></trkpt><trkpt lat="44.390281500311666" lon="11.42794080646833"><ele>114.2</ele><time>2026-04-10T16:13:52.92Z</time></trkpt><trkpt lat="44.39017919256491" lon="11.427986967328414"><ele>115.4</ele><time>2026-04-10T16:13:54.92Z</time></trkpt><trkpt lat="44.390075941414516" lon="11.428013864604369"><ele>116.60000000000001</ele><time>2026-04-10T16:13:56.92Z</time></trkpt><trkpt lat="44.38997902706264" lon="11.428058150727155"><ele>117.80000000000001</ele><time>2026-04-10T16:13:58.92Z</time></trkpt><trkpt lat="44.389881300547714" lon="11.428100536912924"><ele>119.0</ele><time>2026-04-10T16:14:00.92Z</time></trkpt><trkpt lat="44.389791295719355" lon="11.42816047341852"><ele>119.0</ele><time>2026-04-10T16:14:02.92Z</time></trkpt><trkpt lat="44.3897148959033" lon="11.428282067364988"><ele>119.0</ele><time>2026-04-10T16:14:04.92Z</time></trkpt><trkpt lat="44.38963200482699" lon="11.428369983207999"><ele>119.0</ele><time>2026-04-10T16:14:06.92Z</time></trkpt><trkpt lat="44.38956190939476" lon="11.428480037434039"><ele>119.0</ele><time>2026-04-10T16:14:08.92Z</time></trkpt><trkpt lat="44.38949063248824" lon="11.428591032415971"><ele>119.0</ele><time>2026-04-10T16:14:10.92Z</time></trkpt><trkpt lat="44.38942270627122" lon="11.428701284624184"><ele>118.25</ele><time>2026-04-10T16:14:12.92Z</time></trkpt><trkpt lat="44.38934402619408" lon="11.428820663361646"><ele>117.5</ele><time>2026-04-10T16:14:14.92Z</time></trkpt><trkpt lat="44.38924754976534" lon="11.428902340926635"><ele>116.75</ele><time>2026-04-10T16:14:16.92Z</time></trkpt><trkpt lat="44.38918123312235" lon="11.42901686171698"><ele>116.0</ele><time>2026-04-10T16:14:18.92Z</time></trkpt><trkpt lat="44.38911171367797" lon="11.429205063935507"><ele>116.0</ele><time>2026-04-10T16:14:21.92Z</time></trkpt><trkpt lat="44.3890283799404" lon="11.429290068479222"><ele>116.0</ele><time>2026-04-10T16:14:23.92Z</time></trkpt><trkpt lat="44.38894414601337" lon="11.429355903396683"><ele>116.0</ele><time>2026-04-10T16:14:25.92Z</time></trkpt><trkpt lat="44.38886423627994" lon="11.429468472379025"><ele>116.0</ele><time>2026-04-10T16:14:27.92Z</time></trkpt><trkpt lat="44.38876997968184" lon="11.429564980133092"><ele>116.0</ele><time>2026-04-10T16:14:29.92Z</time></trkpt><trkpt lat="44.38869417266882" lon="11.429690148238576"><ele>116.25</ele><time>2026-04-10T16:14:31.92Z</time></trkpt><trkpt lat="44.38860504720408" lon="11.429785433604719"><ele>116.5</ele><time>2026-04-10T16:14:33.92Z</time></trkpt><trkpt lat="44.38849633038542" lon="11.429829788394823"><ele>116.75</ele><time>2026-04-10T16:14:35.92Z</time></trkpt><trkpt lat="44.38838194488333" lon="11.429838017273775"><ele>117.0</ele><time>2026-04-10T16:14:37.92Z</time></trkpt><trkpt lat="44.38826599749895" lon="11.429828081954126"><ele>117.0</ele><time>2026-04-10T16:14:39.92Z</time></trkpt><trkpt lat="44.38815412874173" lon="11.429779949475822"><ele>117.0</ele><time>2026-04-10T16:14:41.92Z</time></trkpt><trkpt lat="44.388048505817196" lon="11.429715932593473"><ele>117.0</ele><time>2026-04-10T16:14:43.92Z</time></trkpt><trkpt lat="44.38793903155153" lon="11.42967020644958"><ele>117.0</ele><time>2026-04-10T16:14:45.92Z</time></trkpt><trkpt lat="44.38782584803718" lon="11.429624156473865"><ele>116.75</ele><time>2026-04-10T16:14:47.92Z</time></trkpt><trkpt lat="44.38772430067109" lon="11.429584003256712"><ele>116.5</ele><time>2026-04-10T16:14:49.92Z</time></trkpt><trkpt lat="44.387614639862434" lon="11.429540643825964"><ele>116.25</ele><time>2026-04-10T16:14:51.92Z</time></trkpt><trkpt lat="44.38750509190248" lon="11.429497327120009"><ele>116.0</ele><time>2026-04-10T16:14:53.92Z</time></trkpt><trkpt lat="44.38738973183223" lon="11.429451712270449"><ele>116.0</ele><time>2026-04-10T16:14:55.92Z</time></trkpt><trkpt lat="44.38727879816331" lon="11.42940784785887"><ele>116.0</ele><time>2026-04-10T16:14:57.92Z</time></trkpt><trkpt lat="44.387168517696274" lon="11.429385446395521"><ele>116.0</ele><time>2026-04-10T16:14:59.92Z</time></trkpt><trkpt lat="44.38705932612304" lon="11.429339964153234"><ele>116.0</ele><time>2026-04-10T16:15:01.92Z</time></trkpt><trkpt lat="44.38694919921094" lon="11.42927539512001"><ele>116.5</ele><time>2026-04-10T16:15:03.92Z</time></trkpt><trkpt lat="44.38684008220854" lon="11.429234074307205"><ele>117.0</ele><time>2026-04-10T16:15:05.919Z</time></trkpt><trkpt lat="44.38673001887346" lon="11.429197811057076"><ele>117.5</ele><time>2026-04-10T16:15:07.919Z</time></trkpt><trkpt lat="44.38662093065224" lon="11.429157865881233"><ele>118.0</ele><time>2026-04-10T16:15:09.919Z</time></trkpt><trkpt lat="44.386513436992104" lon="11.429118423266662"><ele>118.0</ele><time>2026-04-10T16:15:11.919Z</time></trkpt><trkpt lat="44.386404378263535" lon="11.429078204947137"><ele>118.00000000000001</ele><time>2026-04-10T16:15:13.919Z</time></trkpt><trkpt lat="44.38629874172825" lon="11.429040013079254"><ele>118.00000000000001</ele><time>2026-04-10T16:15:15.919Z</time></trkpt><trkpt lat="44.38619308082942" lon="11.428998423564641"><ele>118.0</ele><time>2026-04-10T16:15:17.921Z</time></trkpt><trkpt lat="44.38609628196074" lon="11.428945751122757"><ele>118.0</ele><time>2026-04-10T16:15:19.921Z</time></trkpt><trkpt lat="44.385990896430286" lon="11.428907989148948"><ele>118.0</ele><time>2026-04-10T16:15:21.92Z</time></trkpt><trkpt lat="44.385890899797225" lon="11.42887606566893"><ele>118.00000000000001</ele><time>2026-04-10T16:15:23.921Z</time></trkpt><trkpt lat="44.38578633815317" lon="11.428843204799582"><ele>118.00000000000001</ele><time>2026-04-10T16:15:25.921Z</time></trkpt><trkpt lat="44.38568017884039" lon="11.428814840298761"><ele>118.0</ele><time>2026-04-10T16:15:27.921Z</time></trkpt><trkpt lat="44.38558262359101" lon="11.428744068354742"><ele>118.0</ele><time>2026-04-10T16:15:29.921Z</time></trkpt><trkpt lat="44.385481308257404" lon="11.428706459440791"><ele>118.4</ele><time>2026-04-10T16:15:31.921Z</time></trkpt><trkpt lat="44.38537579945401" lon="11.428668854683535"><ele>118.80000000000001</ele><time>2026-04-10T16:15:33.921Z</time></trkpt><trkpt lat="44.385273942939136" lon="11.428626773430855"><ele>119.2</ele><time>2026-04-10T16:15:35.921Z</time></trkpt><trkpt lat="44.38517072766913" lon="11.428584697474474"><ele>119.6</ele><time>2026-04-10T16:15:37.921Z</time></trkpt><trkpt lat="44.38506826608746" lon="11.428549384870875"><ele>120.0</ele><time>2026-04-10T16:15:39.921Z</time></trkpt><trkpt lat="44.384985205487126" lon="11.428499218386591"><ele>120.0</ele><time>2026-04-10T16:15:41.921Z</time></trkpt><trkpt lat="44.38489161567475" lon="11.428477702659734"><ele>120.0</ele><time>2026-04-10T16:15:43.921Z</time></trkpt><trkpt lat="44.38480620246673" lon="11.428448863207121"><ele>120.0</ele><time>2026-04-10T16:15:45.921Z</time></trkpt><trkpt lat="44.38472270678227" lon="11.428426210047203"><ele>120.0</ele><time>2026-04-10T16:15:47.921Z</time></trkpt><trkpt lat="44.38463490635392" lon="11.428401389757116"><ele>120.0</ele><time>2026-04-10T16:15:49.921Z</time></trkpt><trkpt lat="44.38454478736535" lon="11.428373396808803"><ele>121.4</ele><time>2026-04-10T16:15:51.921Z</time></trkpt><trkpt lat="44.38445489959781" lon="11.428345599686963"><ele>122.8</ele><time>2026-04-10T16:15:53.921Z</time></trkpt><trkpt lat="44.3843633009661" lon="11.428320277764353"><ele>124.19999999999999</ele><time>2026-04-10T16:15:55.921Z</time></trkpt><trkpt lat="44.38427338375885" lon="11.42830286129181"><ele>125.6</ele><time>2026-04-10T16:15:57.921Z</time></trkpt><trkpt lat="44.38418414505034" lon="11.42827953835385"><ele>127.0</ele><time>2026-04-10T16:15:59.921Z</time></trkpt><trkpt lat="44.38409492404395" lon="11.428251390681282"><ele>127.00000000000001</ele><time>2026-04-10T16:16:01.921Z</time></trkpt><trkpt lat="44.38400598131752" lon="11.428231515956716"><ele>127.0</ele><time>2026-04-10T16:16:03.921Z</time></trkpt><trkpt lat="44.38391965450842" lon="11.42820471991001"><ele>127.0</ele><time>2026-04-10T16:16:05.921Z</time></trkpt><trkpt lat="44.383840280343385" lon="11.42817886888035"><ele>127.0</ele><time>2026-04-10T16:16:07.921Z</time></trkpt><trkpt lat="44.38376840002004" lon="11.428163819443878"><ele>127.00000000000001</ele><time>2026-04-10T16:16:09.921Z</time></trkpt><trkpt lat="44.38370057956253" lon="11.428142199184828"><ele>127.0</ele><time>2026-04-10T16:16:11.921Z</time></trkpt><trkpt lat="44.383601517775084" lon="11.428101964666224"><ele>126.50000000000001</ele><time>2026-04-10T16:16:13.921Z</time></trkpt><trkpt lat="44.383487697797364" lon="11.428014892480716"><ele>126.0</ele><time>2026-04-10T16:16:15.921Z</time></trkpt><trkpt lat="44.383406074562" lon="11.427938661799264"><ele>125.5</ele><time>2026-04-10T16:16:17.921Z</time></trkpt><trkpt lat="44.38334144268046" lon="11.427913558282583"><ele>125.0</ele><time>2026-04-10T16:16:20.921Z</time></trkpt><trkpt lat="44.38339341076818" lon="11.427853259591307"><ele>124.50000000000001</ele><time>2026-04-10T16:16:24.921Z</time></trkpt><trkpt lat="44.38344448429561" lon="11.42792498181587"><ele>124.0</ele><time>2026-04-10T16:16:27.921Z</time></trkpt><trkpt lat="44.383497005783305" lon="11.427983732048013"><ele>123.83333333333334</ele><time>2026-04-10T16:16:29.921Z</time></trkpt><trkpt lat="44.3835472883375" lon="11.428046810739508"><ele>123.66666666666667</ele><time>2026-04-10T16:16:32.921Z</time></trkpt><trkpt lat="44.383630198177734" lon="11.428096839206544"><ele>123.5</ele><time>2026-04-10T16:16:36.921Z</time></trkpt><trkpt lat="44.38371450945834" lon="11.428129482371446"><ele>123.33333333333334</ele><time>2026-04-10T16:16:39.921Z</time></trkpt><trkpt lat="44.38374723858586" lon="11.428210022430473"><ele>123.16666666666667</ele><time>2026-04-10T16:16:43.921Z</time></trkpt><trkpt lat="44.3836820993904" lon="11.42824056450024"><ele>123.0</ele><time>2026-04-10T16:16:47.921Z</time></trkpt><trkpt lat="44.383618481549966" lon="11.428197176748816"><ele>123.0</ele><time>2026-04-10T16:16:49.921Z</time></trkpt><trkpt lat="44.383543985815834" lon="11.428144034179002"><ele>123.00000000000001</ele><time>2026-04-10T16:16:51.921Z</time></trkpt><trkpt lat="44.38345155344256" lon="11.428060169047642"><ele>123.00000000000001</ele><time>2026-04-10T16:16:53.921Z</time></trkpt><trkpt lat="44.38337401691959" lon="11.427998641599608"><ele>123.0</ele><time>2026-04-10T16:16:55.921Z</time></trkpt><trkpt lat="44.383283599794446" lon="11.428034098919666"><ele>123.0</ele><time>2026-04-10T16:16:57.921Z</time></trkpt><trkpt lat="44.383198803024314" lon="11.428069238960761"><ele>123.0</ele><time>2026-04-10T16:16:59.921Z</time></trkpt><trkpt lat="44.383134502454716" lon="11.428094446745177"><ele>123.0</ele><time>2026-04-10T16:17:01.921Z</time></trkpt><trkpt lat="44.383042163410224" lon="11.428118696639569"><ele>123.0</ele><time>2026-04-10T16:17:04.921Z</time></trkpt><trkpt lat="44.38297097243764" lon="11.428149548439666"><ele>123.0</ele><time>2026-04-10T16:17:06.921Z</time></trkpt><trkpt lat="44.38289586603923" lon="11.428181810158"><ele>123.0</ele><time>2026-04-10T16:17:08.921Z</time></trkpt><trkpt lat="44.3828172602029" lon="11.428190165075243"><ele>123.0</ele><time>2026-04-10T16:17:10.921Z</time></trkpt><trkpt lat="44.382772382323914" lon="11.428072344601848"><ele>123.0</ele><time>2026-04-10T16:17:12.921Z</time></trkpt><trkpt lat="44.38273324212091" lon="11.42792409797234"><ele>123.00000000000001</ele><time>2026-04-10T16:17:14.921Z</time></trkpt><trkpt lat="44.38269520531567" lon="11.427750107777412"><ele>123.00000000000001</ele><time>2026-04-10T16:17:16.921Z</time></trkpt><trkpt lat="44.38267276981564" lon="11.427664729754367"><ele>123.0</ele><time>2026-04-10T16:17:17.921Z</time></trkpt><trkpt lat="44.38261202832099" lon="11.427520919365016"><ele>123.0</ele><time>2026-04-10T16:17:19.921Z</time></trkpt><trkpt lat="44.38255297980802" lon="11.42738378839969"><ele>123.0</ele><time>2026-04-10T16:17:21.921Z</time></trkpt><trkpt lat="44.38248601728521" lon="11.427261239151495"><ele>123.00000000000001</ele><time>2026-04-10T16:17:23.921Z</time></trkpt><trkpt lat="44.38242226151044" lon="11.427138539302451"><ele>123.00000000000001</ele><time>2026-04-10T16:17:25.921Z</time></trkpt><trkpt lat="44.38235490976118" lon="11.427017123916333"><ele>123.0</ele><time>2026-04-10T16:17:27.922Z</time></trkpt><trkpt lat="44.38226657520626" lon="11.42691767511884"><ele>123.0</ele><time>2026-04-10T16:17:29.922Z</time></trkpt><trkpt lat="44.38216169924609" lon="11.426834311532371"><ele>123.5</ele><time>2026-04-10T16:17:31.922Z</time></trkpt><trkpt lat="44.382055069913896" lon="11.426751356433684"><ele>124.0</ele><time>2026-04-10T16:17:33.922Z</time></trkpt><trkpt lat="44.38195292766768" lon="11.426664846269738"><ele>124.5</ele><time>2026-04-10T16:17:35.921Z</time></trkpt><trkpt lat="44.381842722765946" lon="11.426592980553538"><ele>125.0</ele><time>2026-04-10T16:17:37.921Z</time></trkpt><trkpt lat="44.38174061685742" lon="11.426515510156676"><ele>125.0</ele><time>2026-04-10T16:17:39.921Z</time></trkpt><trkpt lat="44.381626388462124" lon="11.4264492914046"><ele>125.0</ele><time>2026-04-10T16:17:41.921Z</time></trkpt><trkpt lat="44.38152249317603" lon="11.426414253552373"><ele>125.0</ele><time>2026-04-10T16:17:43.921Z</time></trkpt><trkpt lat="44.381411493977765" lon="11.42638630283098"><ele>125.0</ele><time>2026-04-10T16:17:45.921Z</time></trkpt><trkpt lat="44.38130716107719" lon="11.426361029898613"><ele>125.0</ele><time>2026-04-10T16:17:47.921Z</time></trkpt><trkpt lat="44.381210751703044" lon="11.426371794275065"><ele>125.6</ele><time>2026-04-10T16:17:49.921Z</time></trkpt><trkpt lat="44.381112442802426" lon="11.426334753384877"><ele>126.2</ele><time>2026-04-10T16:17:51.921Z</time></trkpt><trkpt lat="44.381010412789884" lon="11.426370340868717"><ele>126.80000000000001</ele><time>2026-04-10T16:17:53.921Z</time></trkpt><trkpt lat="44.38090617010597" lon="11.426369134346718"><ele>127.4</ele><time>2026-04-10T16:17:55.921Z</time></trkpt><trkpt lat="44.3808119276354" lon="11.426372917880155"><ele>128.0</ele><time>2026-04-10T16:17:57.921Z</time></trkpt><trkpt lat="44.38072607248126" lon="11.42637033828288"><ele>127.99999999999999</ele><time>2026-04-10T16:17:59.921Z</time></trkpt><trkpt lat="44.38064537084661" lon="11.426371477151008"><ele>128.0</ele><time>2026-04-10T16:18:01.921Z</time></trkpt><trkpt lat="44.38057177452394" lon="11.426374775024128"><ele>128.0</ele><time>2026-04-10T16:18:03.921Z</time></trkpt><trkpt lat="44.38048955732084" lon="11.426361947148276"><ele>128.0</ele><time>2026-04-10T16:18:05.921Z</time></trkpt><trkpt lat="44.380406402894046" lon="11.426347144242973"><ele>127.99999999999999</ele><time>2026-04-10T16:18:07.921Z</time></trkpt><trkpt lat="44.380310657152336" lon="11.42630963668665"><ele>128.0</ele><time>2026-04-10T16:18:09.921Z</time></trkpt><trkpt lat="44.38020185639952" lon="11.426274566761114"><ele>127.75</ele><time>2026-04-10T16:18:11.921Z</time></trkpt><trkpt lat="44.380085845846914" lon="11.426244983065747"><ele>127.5</ele><time>2026-04-10T16:18:13.921Z</time></trkpt><trkpt lat="44.37997584703031" lon="11.42622136275036"><ele>127.25</ele><time>2026-04-10T16:18:15.921Z</time></trkpt><trkpt lat="44.37986586230356" lon="11.426221314679557"><ele>127.0</ele><time>2026-04-10T16:18:17.921Z</time></trkpt><trkpt lat="44.37975310328625" lon="11.42621043375092"><ele>127.25</ele><time>2026-04-10T16:18:19.921Z</time></trkpt><trkpt lat="44.37963722237795" lon="11.426201066113086"><ele>127.5</ele><time>2026-04-10T16:18:21.921Z</time></trkpt><trkpt lat="44.37952300758885" lon="11.426177127528018"><ele>127.75</ele><time>2026-04-10T16:18:23.921Z</time></trkpt><trkpt lat="44.37941819491307" lon="11.426161052523893"><ele>128.0</ele><time>2026-04-10T16:18:25.921Z</time></trkpt><trkpt lat="44.37930248882589" lon="11.426163098661922"><ele>128.0</ele><time>2026-04-10T16:18:27.921Z</time></trkpt><trkpt lat="44.379196200718894" lon="11.426148236828766"><ele>128.0</ele><time>2026-04-10T16:18:29.921Z</time></trkpt><trkpt lat="44.37908727050101" lon="11.426118237913823"><ele>128.0</ele><time>2026-04-10T16:18:31.921Z</time></trkpt><trkpt lat="44.378983194541846" lon="11.426083513651784"><ele>128.0</ele><time>2026-04-10T16:18:33.921Z</time></trkpt><trkpt lat="44.37887185081117" lon="11.426037553642573"><ele>128.0</ele><time>2026-04-10T16:18:35.921Z</time></trkpt><trkpt lat="44.37875863511056" lon="11.425993242717018"><ele>127.66666666666666</ele><time>2026-04-10T16:18:37.921Z</time></trkpt><trkpt lat="44.37869733792272" lon="11.425972213102357"><ele>127.33333333333333</ele><time>2026-04-10T16:18:38.921Z</time></trkpt><trkpt lat="44.378587145121266" lon="11.4259339902516"><ele>127.0</ele><time>2026-04-10T16:18:40.921Z</time></trkpt><trkpt lat="44.37849228584651" lon="11.425897705175279"><ele>126.66666666666666</ele><time>2026-04-10T16:18:42.921Z</time></trkpt><trkpt lat="44.37841967636081" lon="11.425843889045957"><ele>126.33333333333333</ele><time>2026-04-10T16:18:44.921Z</time></trkpt><trkpt lat="44.37836377962559" lon="11.425885264041632"><ele>126.0</ele><time>2026-04-10T16:18:48.921Z</time></trkpt><trkpt lat="44.37836478137835" lon="11.425981822730986"><ele>126.0</ele><time>2026-04-10T16:18:51.921Z</time></trkpt><trkpt lat="44.37835971499857" lon="11.426096081452856"><ele>126.0</ele><time>2026-04-10T16:18:55.921Z</time></trkpt><trkpt lat="44.37835616871106" lon="11.426184190390696"><ele>126.0</ele><time>2026-04-10T16:18:57.921Z</time></trkpt><trkpt lat="44.37834125852517" lon="11.42630413243733"><ele>126.0</ele><time>2026-04-10T16:18:59.921Z</time></trkpt><trkpt lat="44.37832482004433" lon="11.426409330944626"><ele>126.0</ele><time>2026-04-10T16:19:01.921Z</time></trkpt><trkpt lat="44.37831094408978" lon="11.426503150630696"><ele>126.0</ele><time>2026-04-10T16:19:03.921Z</time></trkpt><trkpt lat="44.3782769685973" lon="11.42658731260915"><ele>126.0</ele><time>2026-04-10T16:19:05.921Z</time></trkpt><trkpt lat="44.37817183457622" lon="11.42660215059281"><ele>126.8</ele><time>2026-04-10T16:19:08.921Z</time></trkpt><trkpt lat="44.37806368081263" lon="11.426585810855824"><ele>127.6</ele><time>2026-04-10T16:19:10.921Z</time></trkpt><trkpt lat="44.377951080149074" lon="11.426573328791198"><ele>128.4</ele><time>2026-04-10T16:19:12.921Z</time></trkpt><trkpt lat="44.377847426815514" lon="11.426546826477992"><ele>129.2</ele><time>2026-04-10T16:19:14.921Z</time></trkpt><trkpt lat="44.37775665699642" lon="11.426463814582151"><ele>130.0</ele><time>2026-04-10T16:19:16.921Z</time></trkpt><trkpt lat="44.37764771605315" lon="11.42642909907897"><ele>129.8</ele><time>2026-04-10T16:19:18.921Z</time></trkpt><trkpt lat="44.3775339293461" lon="11.42650042186262"><ele>129.6</ele><time>2026-04-10T16:19:20.921Z</time></trkpt><trkpt lat="44.37744711162113" lon="11.426447137137892"><ele>129.4</ele><time>2026-04-10T16:19:22.921Z</time></trkpt><trkpt lat="44.377361794148676" lon="11.426413799123146"><ele>129.2</ele><time>2026-04-10T16:19:24.921Z</time></trkpt><trkpt lat="44.37727501914972" lon="11.426369513460436"><ele>129.0</ele><time>2026-04-10T16:19:26.921Z</time></trkpt><trkpt lat="44.37719175405619" lon="11.426305351526114"><ele>130.25</ele><time>2026-04-10T16:19:28.922Z</time></trkpt><trkpt lat="44.37708991955555" lon="11.426324966642603"><ele>131.5</ele><time>2026-04-10T16:19:30.922Z</time></trkpt><trkpt lat="44.376979575270695" lon="11.426336279130366"><ele>132.75</ele><time>2026-04-10T16:19:32.921Z</time></trkpt><trkpt lat="44.37685833949691" lon="11.42635103105712"><ele>134.0</ele><time>2026-04-10T16:19:34.922Z</time></trkpt><trkpt lat="44.376736904782064" lon="11.426368344322732"><ele>134.0</ele><time>2026-04-10T16:19:36.922Z</time></trkpt><trkpt lat="44.37662143811487" lon="11.426393583678765"><ele>134.0</ele><time>2026-04-10T16:19:38.922Z</time></trkpt><trkpt lat="44.3765114204396" lon="11.426395239916776"><ele>134.0</ele><time>2026-04-10T16:19:40.921Z</time></trkpt><trkpt lat="44.37640284801777" lon="11.426411496365471"><ele>134.0</ele><time>2026-04-10T16:19:42.922Z</time></trkpt><trkpt lat="44.37629601859602" lon="11.42643109697251"><ele>134.0</ele><time>2026-04-10T16:19:44.922Z</time></trkpt><trkpt lat="44.37617930753647" lon="11.426433184089156"><ele>134.0</ele><time>2026-04-10T16:19:46.922Z</time></trkpt><trkpt lat="44.376065145682794" lon="11.426455690503289"><ele>134.0</ele><time>2026-04-10T16:19:48.922Z</time></trkpt><trkpt lat="44.37595953374572" lon="11.426483511123731"><ele>134.0</ele><time>2026-04-10T16:19:50.922Z</time></trkpt><trkpt lat="44.37584273365812" lon="11.42650148464481"><ele>134.0</ele><time>2026-04-10T16:19:52.922Z</time></trkpt><trkpt lat="44.37573284618014" lon="11.426523633143214"><ele>134.0</ele><time>2026-04-10T16:19:54.922Z</time></trkpt><trkpt lat="44.375617671102646" lon="11.426550379060801"><ele>134.0</ele><time>2026-04-10T16:19:56.922Z</time></trkpt><trkpt lat="44.375504107605494" lon="11.426588726625074"><ele>134.0</ele><time>2026-04-10T16:19:58.922Z</time></trkpt><trkpt lat="44.37539198438827" lon="11.426613308990966"><ele>134.0</ele><time>2026-04-10T16:20:00.922Z</time></trkpt><trkpt lat="44.37528535563945" lon="11.426640342730266"><ele>134.4</ele><time>2026-04-10T16:20:02.922Z</time></trkpt><trkpt lat="44.375178991852096" lon="11.426669120405666"><ele>134.8</ele><time>2026-04-10T16:20:04.922Z</time></trkpt><trkpt lat="44.37506609175" lon="11.4267055768112"><ele>135.2</ele><time>2026-04-10T16:20:06.922Z</time></trkpt><trkpt lat="44.37495238355139" lon="11.426738539161459"><ele>135.6</ele><time>2026-04-10T16:20:08.922Z</time></trkpt><trkpt lat="44.37484567457237" lon="11.42676748239971"><ele>136.0</ele><time>2026-04-10T16:20:10.922Z</time></trkpt><trkpt lat="44.37474429270621" lon="11.426797940378762"><ele>135.5</ele><time>2026-04-10T16:20:12.922Z</time></trkpt><trkpt lat="44.37463585010949" lon="11.426828007308668"><ele>135.0</ele><time>2026-04-10T16:20:14.922Z</time></trkpt><trkpt lat="44.37452323128661" lon="11.426861564157344"><ele>134.5</ele><time>2026-04-10T16:20:16.922Z</time></trkpt><trkpt lat="44.3744121572103" lon="11.426907104153543"><ele>134.0</ele><time>2026-04-10T16:20:18.922Z</time></trkpt><trkpt lat="44.37430646811282" lon="11.426957569087536"><ele>134.0</ele><time>2026-04-10T16:20:20.922Z</time></trkpt><trkpt lat="44.37419534120152" lon="11.4270070017138"><ele>134.0</ele><time>2026-04-10T16:20:22.922Z</time></trkpt><trkpt lat="44.374086828382346" lon="11.42706694559342"><ele>134.0</ele><time>2026-04-10T16:20:24.922Z</time></trkpt><trkpt lat="44.37398178887702" lon="11.427116967104569"><ele>134.0</ele><time>2026-04-10T16:20:26.921Z</time></trkpt><trkpt lat="44.3738743185536" lon="11.427173883030568"><ele>135.0</ele><time>2026-04-10T16:20:28.921Z</time></trkpt><trkpt lat="44.373771949170276" lon="11.427229043326278"><ele>136.0</ele><time>2026-04-10T16:20:30.921Z</time></trkpt><trkpt lat="44.373670047714114" lon="11.427284015648638"><ele>137.0</ele><time>2026-04-10T16:20:32.921Z</time></trkpt><trkpt lat="44.37356357686402" lon="11.427339264919302"><ele>138.0</ele><time>2026-04-10T16:20:34.921Z</time></trkpt><trkpt lat="44.37346128064301" lon="11.42738774135647"><ele>139.0</ele><time>2026-04-10T16:20:36.921Z</time></trkpt><trkpt lat="44.37335651241412" lon="11.427448855083968"><ele>139.0</ele><time>2026-04-10T16:20:38.921Z</time></trkpt><trkpt lat="44.37325154203194" lon="11.427494904911278"><ele>139.0</ele><time>2026-04-10T16:20:40.921Z</time></trkpt><trkpt lat="44.37314370139931" lon="11.427532531826063"><ele>139.0</ele><time>2026-04-10T16:20:42.921Z</time></trkpt><trkpt lat="44.373032305176324" lon="11.427564994531926"><ele>139.0</ele><time>2026-04-10T16:20:44.921Z</time></trkpt><trkpt lat="44.372917116200924" lon="11.427582961597327"><ele>139.6</ele><time>2026-04-10T16:20:46.921Z</time></trkpt><trkpt lat="44.372807558564766" lon="11.427574066117986"><ele>140.2</ele><time>2026-04-10T16:20:48.921Z</time></trkpt><trkpt lat="44.37269935972745" lon="11.427552424721746"><ele>140.79999999999998</ele><time>2026-04-10T16:20:50.921Z</time></trkpt><trkpt lat="44.37259588208244" lon="11.427532520724986"><ele>141.4</ele><time>2026-04-10T16:20:52.921Z</time></trkpt><trkpt lat="44.37249469185951" lon="11.427497221377523"><ele>142.0</ele><time>2026-04-10T16:20:54.921Z</time></trkpt><trkpt lat="44.37240077049915" lon="11.427464614846038"><ele>142.0</ele><time>2026-04-10T16:20:56.921Z</time></trkpt><trkpt lat="44.372299829638955" lon="11.427427531953303"><ele>142.0</ele><time>2026-04-10T16:20:58.921Z</time></trkpt><trkpt lat="44.372204804769254" lon="11.427384653364781"><ele>142.0</ele><time>2026-04-10T16:21:00.921Z</time></trkpt><trkpt lat="44.37211363567057" lon="11.427339345508273"><ele>142.0</ele><time>2026-04-10T16:21:02.921Z</time></trkpt><trkpt lat="44.37202495611544" lon="11.427291351956272"><ele>142.0</ele><time>2026-04-10T16:21:04.921Z</time></trkpt><trkpt lat="44.37193278032672" lon="11.427254232228192"><ele>142.0</ele><time>2026-04-10T16:21:06.921Z</time></trkpt><trkpt lat="44.37184357181835" lon="11.427214988585792"><ele>142.0</ele><time>2026-04-10T16:21:08.921Z</time></trkpt><trkpt lat="44.37175332191633" lon="11.427172619256853"><ele>142.0</ele><time>2026-04-10T16:21:10.921Z</time></trkpt><trkpt lat="44.371659898265925" lon="11.427137621345917"><ele>142.0</ele><time>2026-04-10T16:21:12.921Z</time></trkpt><trkpt lat="44.37156727777616" lon="11.427099526906911"><ele>142.0</ele><time>2026-04-10T16:21:14.921Z</time></trkpt><trkpt lat="44.37148541652515" lon="11.427059689856277"><ele>142.0</ele><time>2026-04-10T16:21:16.921Z</time></trkpt><trkpt lat="44.37140071127027" lon="11.427023657623957"><ele>142.0</ele><time>2026-04-10T16:21:18.921Z</time></trkpt><trkpt lat="44.37131504232309" lon="11.426979397243615"><ele>142.0</ele><time>2026-04-10T16:21:20.921Z</time></trkpt><trkpt lat="44.37122819540475" lon="11.426943919394198"><ele>142.0</ele><time>2026-04-10T16:21:22.921Z</time></trkpt><trkpt lat="44.37115099902903" lon="11.42690368982357"><ele>142.0</ele><time>2026-04-10T16:21:24.921Z</time></trkpt><trkpt lat="44.37107341244018" lon="11.426868099991545"><ele>142.0</ele><time>2026-04-10T16:21:26.921Z</time></trkpt><trkpt lat="44.37100204144113" lon="11.426840444723751"><ele>143.66666666666669</ele><time>2026-04-10T16:21:28.921Z</time></trkpt><trkpt lat="44.37094058298275" lon="11.4268062823911"><ele>145.33333333333334</ele><time>2026-04-10T16:21:30.921Z</time></trkpt><trkpt lat="44.37086017924454" lon="11.426776590873299"><ele>147.0</ele><time>2026-04-10T16:21:32.921Z</time></trkpt><trkpt lat="44.37076124953242" lon="11.42675232362232"><ele>148.66666666666666</ele><time>2026-04-10T16:21:34.922Z</time></trkpt><trkpt lat="44.3706858156444" lon="11.426690922920741"><ele>150.33333333333331</ele><time>2026-04-10T16:21:36.922Z</time></trkpt><trkpt lat="44.370592227400095" lon="11.426665367867747"><ele>152.0</ele><time>2026-04-10T16:21:38.922Z</time></trkpt><trkpt lat="44.370523858696316" lon="11.42665583566386"><ele>152.5</ele><time>2026-04-10T16:21:40.922Z</time></trkpt><trkpt lat="44.370438781514274" lon="11.4266252632857"><ele>153.0</ele><time>2026-04-10T16:21:43.922Z</time></trkpt><trkpt lat="44.37037115141076" lon="11.426602255869799"><ele>153.5</ele><time>2026-04-10T16:21:45.921Z</time></trkpt><trkpt lat="44.37030121828887" lon="11.426586752955233"><ele>154.0</ele><time>2026-04-10T16:21:47.922Z</time></trkpt><trkpt lat="44.37022941746469" lon="11.426590332837032"><ele>154.5</ele><time>2026-04-10T16:21:49.922Z</time></trkpt><trkpt lat="44.37018195509385" lon="11.426679797466381"><ele>155.0</ele><time>2026-04-10T16:21:52.922Z</time></trkpt><trkpt lat="44.37020701901933" lon="11.42677723220169"><ele>155.0</ele><time>2026-04-10T16:21:54.922Z</time></trkpt><trkpt lat="44.370242460680906" lon="11.426851618868389"><ele>155.0</ele><time>2026-04-10T16:21:56.922Z</time></trkpt><trkpt lat="44.37024740085047" lon="11.426968086656075"><ele>155.0</ele><time>2026-04-10T16:21:59.922Z</time></trkpt><trkpt lat="44.370183325482735" lon="11.427036213209831"><ele>155.0</ele><time>2026-04-10T16:22:02.922Z</time></trkpt><trkpt lat="44.370120361103574" lon="11.426987685404994"><ele>155.0</ele><time>2026-04-10T16:22:04.922Z</time></trkpt><trkpt lat="44.37003412288951" lon="11.426977891416442"><ele>155.0</ele><time>2026-04-10T16:22:06.922Z</time></trkpt><trkpt lat="44.3699760475333" lon="11.426942500994324"><ele>155.0</ele><time>2026-04-10T16:22:08.922Z</time></trkpt><trkpt lat="44.36989943862164" lon="11.426902688808322"><ele>155.0</ele><time>2026-04-10T16:22:10.922Z</time></trkpt><trkpt lat="44.36983051778796" lon="11.426898602460307"><ele>155.0</ele><time>2026-04-10T16:22:12.921Z</time></trkpt><trkpt lat="44.36976456313385" lon="11.42686064320819"><ele>155.0</ele><time>2026-04-10T16:22:14.921Z</time></trkpt><trkpt lat="44.36969182714187" lon="11.426853388354077"><ele>155.0</ele><time>2026-04-10T16:22:16.921Z</time></trkpt><trkpt lat="44.36962414873969" lon="11.426869162067609"><ele>155.0</ele><time>2026-04-10T16:22:18.921Z</time></trkpt><trkpt lat="44.36954908857225" lon="11.426877250250202"><ele>155.0</ele><time>2026-04-10T16:22:20.921Z</time></trkpt><trkpt lat="44.36948736752367" lon="11.426898885302663"><ele>156.14285714285714</ele><time>2026-04-10T16:22:22.921Z</time></trkpt><trkpt lat="44.36942534282876" lon="11.426916611869448"><ele>157.28571428571428</ele><time>2026-04-10T16:22:24.921Z</time></trkpt><trkpt lat="44.36936219501556" lon="11.42696930487026"><ele>158.42857142857144</ele><time>2026-04-10T16:22:26.921Z</time></trkpt><trkpt lat="44.36929634711322" lon="11.427023136538683"><ele>159.57142857142856</ele><time>2026-04-10T16:22:28.921Z</time></trkpt><trkpt lat="44.369246643865175" lon="11.427084215979525"><ele>160.7142857142857</ele><time>2026-04-10T16:22:30.921Z</time></trkpt><trkpt lat="44.36918721161755" lon="11.42713713511522"><ele>161.85714285714286</ele><time>2026-04-10T16:22:32.921Z</time></trkpt><trkpt lat="44.3691228695561" lon="11.427193611350333"><ele>163.0</ele><time>2026-04-10T16:22:34.921Z</time></trkpt><trkpt lat="44.36907099805771" lon="11.427250648662149"><ele>164.33333333333334</ele><time>2026-04-10T16:22:36.921Z</time></trkpt><trkpt lat="44.36901723957007" lon="11.42731374306898"><ele>165.66666666666669</ele><time>2026-04-10T16:22:38.921Z</time></trkpt><trkpt lat="44.36895588981624" lon="11.42738645756106"><ele>167.0</ele><time>2026-04-10T16:22:40.921Z</time></trkpt><trkpt lat="44.368903189378294" lon="11.427440909815395"><ele>168.33333333333334</ele><time>2026-04-10T16:22:42.921Z</time></trkpt><trkpt lat="44.36884926896453" lon="11.427504985228977"><ele>169.66666666666666</ele><time>2026-04-10T16:22:44.921Z</time></trkpt><trkpt lat="44.3687778612402" lon="11.427585583820216"><ele>171.0</ele><time>2026-04-10T16:22:47.921Z</time></trkpt><trkpt lat="44.368718908689694" lon="11.427658875898343"><ele>172.42857142857142</ele><time>2026-04-10T16:22:49.921Z</time></trkpt><trkpt lat="44.36866559536217" lon="11.427728093210222"><ele>173.85714285714286</ele><time>2026-04-10T16:22:51.921Z</time></trkpt><trkpt lat="44.36860086241488" lon="11.427790186129956"><ele>175.28571428571428</ele><time>2026-04-10T16:22:53.921Z</time></trkpt><trkpt lat="44.36854304428517" lon="11.427851203361655"><ele>176.71428571428572</ele><time>2026-04-10T16:22:55.921Z</time></trkpt><trkpt lat="44.36849045756095" lon="11.427923595010947"><ele>178.14285714285714</ele><time>2026-04-10T16:22:57.921Z</time></trkpt><trkpt lat="44.36845466622838" lon="11.42801369091952"><ele>179.57142857142856</ele><time>2026-04-10T16:22:59.921Z</time></trkpt><trkpt lat="44.36842930511416" lon="11.428108420915493"><ele>181.0</ele><time>2026-04-10T16:23:01.921Z</time></trkpt><trkpt lat="44.368426655466706" lon="11.428207036256719"><ele>181.0</ele><time>2026-04-10T16:23:03.921Z</time></trkpt><trkpt lat="44.36840860911814" lon="11.428292097404274"><ele>181.0</ele><time>2026-04-10T16:23:05.921Z</time></trkpt><trkpt lat="44.368348175354384" lon="11.42838185589084"><ele>181.0</ele><time>2026-04-10T16:23:08.921Z</time></trkpt><trkpt lat="44.368272674208576" lon="11.428450816586297"><ele>181.0</ele><time>2026-04-10T16:23:11.921Z</time></trkpt><trkpt lat="44.368211333565284" lon="11.428490660928222"><ele>181.0</ele><time>2026-04-10T16:23:13.921Z</time></trkpt><trkpt lat="44.36814289267343" lon="11.428582821149753"><ele>181.0</ele><time>2026-04-10T16:23:16.921Z</time></trkpt><trkpt lat="44.36808428395149" lon="11.428646589167274"><ele>183.0</ele><time>2026-04-10T16:23:18.921Z</time></trkpt><trkpt lat="44.36802612352787" lon="11.428721404294324"><ele>185.0</ele><time>2026-04-10T16:23:20.921Z</time></trkpt><trkpt lat="44.367971503901686" lon="11.428775755633191"><ele>187.0</ele><time>2026-04-10T16:23:22.921Z</time></trkpt><trkpt lat="44.367913975395744" lon="11.428836611959921"><ele>189.0</ele><time>2026-04-10T16:23:24.921Z</time></trkpt><trkpt lat="44.367863858344805" lon="11.42889430907035"><ele>191.0</ele><time>2026-04-10T16:23:26.921Z</time></trkpt><trkpt lat="44.3678069748938" lon="11.42897010954559"><ele>193.0</ele><time>2026-04-10T16:23:28.921Z</time></trkpt><trkpt lat="44.36775917250731" lon="11.429036070372943"><ele>195.0</ele><time>2026-04-10T16:23:30.921Z</time></trkpt><trkpt lat="44.36770624506157" lon="11.429123978959415"><ele>195.0</ele><time>2026-04-10T16:23:32.921Z</time></trkpt><trkpt lat="44.367665513446255" lon="11.429205410935529"><ele>195.0</ele><time>2026-04-10T16:23:34.921Z</time></trkpt><trkpt lat="44.3676305442448" lon="11.429285468315832"><ele>195.0</ele><time>2026-04-10T16:23:36.921Z</time></trkpt><trkpt lat="44.36759427905798" lon="11.429411336711025"><ele>195.0</ele><time>2026-04-10T16:23:39.921Z</time></trkpt><trkpt lat="44.36758187736995" lon="11.429508110567603"><ele>195.0</ele><time>2026-04-10T16:23:41.921Z</time></trkpt><trkpt lat="44.36757568747217" lon="11.42961054514019"><ele>195.0</ele><time>2026-04-10T16:23:43.922Z</time></trkpt><trkpt lat="44.36756456086306" lon="11.429710039518271"><ele>195.85714285714286</ele><time>2026-04-10T16:23:46.922Z</time></trkpt><trkpt lat="44.36755992822903" lon="11.429798272625765"><ele>196.71428571428572</ele><time>2026-04-10T16:23:48.922Z</time></trkpt><trkpt lat="44.367557304278186" lon="11.42991808862396"><ele>197.57142857142856</ele><time>2026-04-10T16:23:51.921Z</time></trkpt><trkpt lat="44.367536808971124" lon="11.430031199242748"><ele>198.42857142857144</ele><time>2026-04-10T16:23:54.922Z</time></trkpt><trkpt lat="44.36753432751406" lon="11.430143324326865"><ele>199.2857142857143</ele><time>2026-04-10T16:23:57.922Z</time></trkpt><trkpt lat="44.36754266962606" lon="11.430234367340493"><ele>200.14285714285714</ele><time>2026-04-10T16:23:59.922Z</time></trkpt><trkpt lat="44.36754913744975" lon="11.430325714698794"><ele>201.0</ele><time>2026-04-10T16:24:01.922Z</time></trkpt><trkpt lat="44.367566382080255" lon="11.4304178431504"><ele>202.66666666666666</ele><time>2026-04-10T16:24:03.922Z</time></trkpt><trkpt lat="44.367575166550075" lon="11.430550160331311"><ele>204.33333333333331</ele><time>2026-04-10T16:24:06.922Z</time></trkpt><trkpt lat="44.36758559012926" lon="11.430657819898437"><ele>206.0</ele><time>2026-04-10T16:24:09.922Z</time></trkpt><trkpt lat="44.367624667052745" lon="11.430727994254443"><ele>207.66666666666666</ele><time>2026-04-10T16:24:11.922Z</time></trkpt><trkpt lat="44.36769964683281" lon="11.43075009991537"><ele>209.33333333333331</ele><time>2026-04-10T16:24:14.922Z</time></trkpt><trkpt lat="44.367782783944065" lon="11.430752353591734"><ele>211.0</ele><time>2026-04-10T16:24:17.922Z</time></trkpt><trkpt lat="44.3678421435211" lon="11.43071204795789"><ele>210.99999999999997</ele><time>2026-04-10T16:24:19.922Z</time></trkpt><trkpt lat="44.367883683096785" lon="11.430631953689296"><ele>211.0</ele><time>2026-04-10T16:24:21.921Z</time></trkpt><trkpt lat="44.36795141007608" lon="11.430535035891848"><ele>211.0</ele><time>2026-04-10T16:24:24.921Z</time></trkpt><trkpt lat="44.36800790027973" lon="11.43049527126045"><ele>211.0</ele><time>2026-04-10T16:24:26.921Z</time></trkpt><trkpt lat="44.36809311626907" lon="11.43042357243167"><ele>210.99999999999997</ele><time>2026-04-10T16:24:29.921Z</time></trkpt><trkpt lat="44.368147479759344" lon="11.430365126623848"><ele>211.0</ele><time>2026-04-10T16:24:31.921Z</time></trkpt><trkpt lat="44.36822403447086" lon="11.430289584364912"><ele>210.49999999999997</ele><time>2026-04-10T16:24:34.921Z</time></trkpt><trkpt lat="44.36828281100014" lon="11.430192186377454"><ele>210.0</ele><time>2026-04-10T16:24:37.921Z</time></trkpt><trkpt lat="44.3683291836823" lon="11.430130271179287"><ele>209.5</ele><time>2026-04-10T16:24:39.921Z</time></trkpt><trkpt lat="44.368387753639524" lon="11.430072116964128"><ele>209.0</ele><time>2026-04-10T16:24:41.921Z</time></trkpt><trkpt lat="44.3684669389946" lon="11.430088975657968"><ele>208.49999999999997</ele><time>2026-04-10T16:24:44.921Z</time></trkpt><trkpt lat="44.36851734546989" lon="11.43019096405466"><ele>208.0</ele><time>2026-04-10T16:24:47.921Z</time></trkpt><trkpt lat="44.36850507249548" lon="11.430277825963941"><ele>208.0</ele><time>2026-04-10T16:24:49.921Z</time></trkpt><trkpt lat="44.368465498146215" lon="11.43035209123517"><ele>208.0</ele><time>2026-04-10T16:24:51.921Z</time></trkpt><trkpt lat="44.36842856162123" lon="11.430431774333972"><ele>208.0</ele><time>2026-04-10T16:24:53.921Z</time></trkpt><trkpt lat="44.36839113717253" lon="11.430510442721424"><ele>208.0</ele><time>2026-04-10T16:24:55.921Z</time></trkpt><trkpt lat="44.36834732642062" lon="11.430574429416252"><ele>208.0</ele><time>2026-04-10T16:24:57.921Z</time></trkpt><trkpt lat="44.36829157382846" lon="11.43066537569655"><ele>208.0</ele><time>2026-04-10T16:25:00.921Z</time></trkpt><trkpt lat="44.3682463488149" lon="11.430727595655961"><ele>208.0</ele><time>2026-04-10T16:25:02.921Z</time></trkpt><trkpt lat="44.36820269807957" lon="11.430825648934865"><ele>210.66666666666666</ele><time>2026-04-10T16:25:05.921Z</time></trkpt><trkpt lat="44.36819246757994" lon="11.430952730141032"><ele>213.33333333333331</ele><time>2026-04-10T16:25:08.921Z</time></trkpt><trkpt lat="44.36820435690429" lon="11.431064644017141"><ele>216.0</ele><time>2026-04-10T16:25:11.921Z</time></trkpt><trkpt lat="44.368214839133444" lon="11.431172140888743"><ele>218.66666666666669</ele><time>2026-04-10T16:25:14.921Z</time></trkpt><trkpt lat="44.368247258399755" lon="11.431295860797063"><ele>221.33333333333334</ele><time>2026-04-10T16:25:17.921Z</time></trkpt><trkpt lat="44.36829066372346" lon="11.431363542076248"><ele>224.0</ele><time>2026-04-10T16:25:19.921Z</time></trkpt><trkpt lat="44.36833422116998" lon="11.43142963771101"><ele>225.33333333333334</ele><time>2026-04-10T16:25:21.921Z</time></trkpt><trkpt lat="44.36840228998084" lon="11.43151587148301"><ele>226.66666666666669</ele><time>2026-04-10T16:25:24.921Z</time></trkpt><trkpt lat="44.3684619607839" lon="11.431602714540599"><ele>228.0</ele><time>2026-04-10T16:25:27.921Z</time></trkpt><trkpt lat="44.36850048763206" lon="11.43167582155466"><ele>229.33333333333331</ele><time>2026-04-10T16:25:29.921Z</time></trkpt><trkpt lat="44.36854277075648" lon="11.431778867225637"><ele>230.66666666666666</ele><time>2026-04-10T16:25:32.921Z</time></trkpt><trkpt lat="44.36856807297668" lon="11.431865128174179"><ele>232.0</ele><time>2026-04-10T16:25:34.921Z</time></trkpt><trkpt lat="44.368575318424455" lon="11.431956735459277"><ele>232.00000000000003</ele><time>2026-04-10T16:25:36.921Z</time></trkpt><trkpt lat="44.368551430330925" lon="11.4320456273688"><ele>232.0</ele><time>2026-04-10T16:25:38.921Z</time></trkpt><trkpt lat="44.368525344844386" lon="11.432129090698513"><ele>232.00000000000003</ele><time>2026-04-10T16:25:40.921Z</time></trkpt><trkpt lat="44.36848814604033" lon="11.432204517905928"><ele>232.00000000000003</ele><time>2026-04-10T16:25:42.921Z</time></trkpt><trkpt lat="44.36844312259768" lon="11.43227835878862"><ele>232.0</ele><time>2026-04-10T16:25:44.921Z</time></trkpt><trkpt lat="44.36840907317261" lon="11.432362935392343"><ele>232.00000000000003</ele><time>2026-04-10T16:25:46.921Z</time></trkpt><trkpt lat="44.36838209841555" lon="11.432481612469584"><ele>232.00000000000003</ele><time>2026-04-10T16:25:49.922Z</time></trkpt><trkpt lat="44.36837509912812" lon="11.432590230263873"><ele>233.66666666666666</ele><time>2026-04-10T16:25:52.922Z</time></trkpt><trkpt lat="44.368356461827815" lon="11.43270330076998"><ele>235.33333333333331</ele><time>2026-04-10T16:25:55.921Z</time></trkpt><trkpt lat="44.368331178946484" lon="11.432814746052806"><ele>237.0</ele><time>2026-04-10T16:25:58.921Z</time></trkpt><trkpt lat="44.36828700101441" lon="11.432904444233818"><ele>238.66666666666669</ele><time>2026-04-10T16:26:01.921Z</time></trkpt><trkpt lat="44.36824631751113" lon="11.433010401147211"><ele>240.33333333333334</ele><time>2026-04-10T16:26:04.921Z</time></trkpt><trkpt lat="44.368207860752825" lon="11.433087914348123"><ele>242.0</ele><time>2026-04-10T16:26:06.921Z</time></trkpt><trkpt lat="44.36817726100073" lon="11.433206284715148"><ele>244.33333333333334</ele><time>2026-04-10T16:26:09.921Z</time></trkpt><trkpt lat="44.36816343238711" lon="11.433308209949264"><ele>246.66666666666669</ele><time>2026-04-10T16:26:12.921Z</time></trkpt><trkpt lat="44.368139424384296" lon="11.433435863932162"><ele>249.0</ele><time>2026-04-10T16:26:15.921Z</time></trkpt><trkpt lat="44.36814439750178" lon="11.43355255513042"><ele>251.33333333333331</ele><time>2026-04-10T16:26:18.921Z</time></trkpt><trkpt lat="44.36813194084527" lon="11.433641870927493"><ele>253.66666666666666</ele><time>2026-04-10T16:26:20.921Z</time></trkpt><trkpt lat="44.36811353071166" lon="11.433744666824362"><ele>256.0</ele><time>2026-04-10T16:26:22.921Z</time></trkpt><trkpt lat="44.3680910321058" lon="11.433839162609253"><ele>257.57142857142856</ele><time>2026-04-10T16:26:24.921Z</time></trkpt><trkpt lat="44.36806169929082" lon="11.433923566721475"><ele>259.1428571428571</ele><time>2026-04-10T16:26:26.921Z</time></trkpt><trkpt lat="44.36801943696301" lon="11.433990755841835"><ele>260.7142857142857</ele><time>2026-04-10T16:26:28.921Z</time></trkpt><trkpt lat="44.36794551168177" lon="11.434055966811119"><ele>262.2857142857143</ele><time>2026-04-10T16:26:31.921Z</time></trkpt><trkpt lat="44.367869284997305" lon="11.434094624462254"><ele>263.8571428571429</ele><time>2026-04-10T16:26:33.921Z</time></trkpt><trkpt lat="44.36780114719811" lon="11.434109551563001"><ele>265.42857142857144</ele><time>2026-04-10T16:26:35.921Z</time></trkpt><trkpt lat="44.36773214009977" lon="11.434122872436268"><ele>267.0</ele><time>2026-04-10T16:26:37.921Z</time></trkpt><trkpt lat="44.36764220676927" lon="11.434162387828033"><ele>267.0</ele><time>2026-04-10T16:26:40.921Z</time></trkpt><trkpt lat="44.36757564232919" lon="11.434181239109328"><ele>267.0</ele><time>2026-04-10T16:26:42.921Z</time></trkpt><trkpt lat="44.36749302288114" lon="11.434203514436064"><ele>267.0</ele><time>2026-04-10T16:26:45.921Z</time></trkpt><trkpt lat="44.367410897261145" lon="11.434220619084217"><ele>267.0</ele><time>2026-04-10T16:26:48.921Z</time></trkpt><trkpt lat="44.36732013404718" lon="11.434206217425405"><ele>267.0</ele><time>2026-04-10T16:26:51.921Z</time></trkpt><trkpt lat="44.36725622149712" lon="11.434192761533488"><ele>267.0</ele><time>2026-04-10T16:26:53.921Z</time></trkpt><trkpt lat="44.367187799085606" lon="11.434180037403205"><ele>265.8333333333333</ele><time>2026-04-10T16:26:55.921Z</time></trkpt><trkpt lat="44.36711048218803" lon="11.4341670710106"><ele>264.6666666666667</ele><time>2026-04-10T16:26:58.921Z</time></trkpt><trkpt lat="44.367029482075125" lon="11.434155375190722"><ele>263.5</ele><time>2026-04-10T16:27:03.921Z</time></trkpt><trkpt lat="44.36696293570517" lon="11.434185992625949"><ele>262.33333333333337</ele><time>2026-04-10T16:27:06.921Z</time></trkpt><trkpt lat="44.36690309244326" lon="11.434250559762958"><ele>261.1666666666667</ele><time>2026-04-10T16:27:09.921Z</time></trkpt><trkpt lat="44.366844887521346" lon="11.43432196623884"><ele>260.0</ele><time>2026-04-10T16:27:12.921Z</time></trkpt><trkpt lat="44.366797096493215" lon="11.434407551334662"><ele>260.00000000000006</ele><time>2026-04-10T16:27:15.921Z</time></trkpt><trkpt lat="44.366769927148916" lon="11.43450007193796"><ele>260.0</ele><time>2026-04-10T16:27:18.921Z</time></trkpt><trkpt lat="44.36675660568832" lon="11.434587451622999"><ele>260.0</ele><time>2026-04-10T16:27:21.921Z</time></trkpt><trkpt lat="44.36674225737213" lon="11.43469014247766"><ele>260.0</ele><time>2026-04-10T16:27:24.921Z</time></trkpt><trkpt lat="44.3667142708702" lon="11.434798588758344"><ele>260.0</ele><time>2026-04-10T16:27:27.921Z</time></trkpt><trkpt lat="44.366670941578576" lon="11.434867082034618"><ele>260.00000000000006</ele><time>2026-04-10T16:27:29.92Z</time></trkpt><trkpt lat="44.36661448804537" lon="11.434909228718436"><ele>260.0</ele><time>2026-04-10T16:27:32.92Z</time></trkpt><trkpt lat="44.366548284995744" lon="11.434968982782175"><ele>262.5</ele><time>2026-04-10T16:27:35.92Z</time></trkpt><trkpt lat="44.36649709986567" lon="11.435035254025353"><ele>265.0</ele><time>2026-04-10T16:27:38.92Z</time></trkpt><trkpt lat="44.36644616971769" lon="11.435096805951954"><ele>267.5</ele><time>2026-04-10T16:27:41.92Z</time></trkpt><trkpt lat="44.366413062276294" lon="11.43519616518504"><ele>270.0</ele><time>2026-04-10T16:27:44.92Z</time></trkpt><trkpt lat="44.36638789620945" lon="11.435294202002432"><ele>272.5</ele><time>2026-04-10T16:27:47.92Z</time></trkpt><trkpt lat="44.366352989566444" lon="11.435402849299827"><ele>275.0</ele><time>2026-04-10T16:27:50.92Z</time></trkpt><trkpt lat="44.36631032168141" lon="11.435498500665307"><ele>277.1666666666667</ele><time>2026-04-10T16:27:53.922Z</time></trkpt><trkpt lat="44.36630029841765" lon="11.435604430245009"><ele>279.33333333333337</ele><time>2026-04-10T16:27:56.921Z</time></trkpt><trkpt lat="44.36637387517971" lon="11.435668810438994"><ele>281.5</ele><time>2026-04-10T16:27:59.922Z</time></trkpt><trkpt lat="44.366447805665636" lon="11.435638675244912"><ele>283.6666666666667</ele><time>2026-04-10T16:28:02.922Z</time></trkpt><trkpt lat="44.36651454482229" lon="11.435597687404991"><ele>285.8333333333333</ele><time>2026-04-10T16:28:04.921Z</time></trkpt><trkpt lat="44.366592496712755" lon="11.435535018163296"><ele>288.0</ele><time>2026-04-10T16:28:07.921Z</time></trkpt><trkpt lat="44.366659475937766" lon="11.435472893473095"><ele>289.5</ele><time>2026-04-10T16:28:10.921Z</time></trkpt><trkpt lat="44.36673902005085" lon="11.435418674643522"><ele>291.0</ele><time>2026-04-10T16:28:13.921Z</time></trkpt><trkpt lat="44.36681339296005" lon="11.435359714121748"><ele>292.5</ele><time>2026-04-10T16:28:16.921Z</time></trkpt><trkpt lat="44.36688494340752" lon="11.435397318868178"><ele>294.0</ele><time>2026-04-10T16:28:20.915Z</time></trkpt><trkpt lat="44.36687727278615" lon="11.43550846523263"><ele>295.5</ele><time>2026-04-10T16:28:23.91Z</time></trkpt><trkpt lat="44.36685400434818" lon="11.4356086430269"><ele>297.0</ele><time>2026-04-10T16:28:26.906Z</time></trkpt><trkpt lat="44.366802382012054" lon="11.43568617031261"><ele>297.0</ele><time>2026-04-10T16:28:30.902Z</time></trkpt><trkpt lat="44.36674684762409" lon="11.4357328891737"><ele>297.0</ele><time>2026-04-10T16:28:33.899Z</time></trkpt><trkpt lat="44.366689557585005" lon="11.43580144129548"><ele>297.0</ele><time>2026-04-10T16:28:36.897Z</time></trkpt><trkpt lat="44.36661323309535" lon="11.435843385617014"><ele>297.0</ele><time>2026-04-10T16:28:40.895Z</time></trkpt><trkpt lat="44.36655753168493" lon="11.435901628782592"><ele>297.0</ele><time>2026-04-10T16:28:43.893Z</time></trkpt><trkpt lat="44.36649885638951" lon="11.43594742083449"><ele>297.0</ele><time>2026-04-10T16:28:46.892Z</time></trkpt><trkpt lat="44.3664340467938" lon="11.435983377673988"><ele>297.0</ele><time>2026-04-10T16:28:49.891Z</time></trkpt><trkpt lat="44.36636532233195" lon="11.43605141595067"><ele>295.5</ele><time>2026-04-10T16:28:53.89Z</time></trkpt><trkpt lat="44.366294051819025" lon="11.43611840081352"><ele>294.0</ele><time>2026-04-10T16:28:57.889Z</time></trkpt><trkpt lat="44.366228501575506" lon="11.436150619137276"><ele>292.5</ele><time>2026-04-10T16:29:00.889Z</time></trkpt><trkpt lat="44.366167953708285" lon="11.436182116890665"><ele>291.0</ele><time>2026-04-10T16:29:03.888Z</time></trkpt><trkpt lat="44.36609761193437" lon="11.436226523103382"><ele>289.5</ele><time>2026-04-10T16:29:06.888Z</time></trkpt><trkpt lat="44.36604407525308" lon="11.436294847987364"><ele>288.0</ele><time>2026-04-10T16:29:10.888Z</time></trkpt><trkpt lat="44.36597718358531" lon="11.436364793999497"><ele>291.00000000000006</ele><time>2026-04-10T16:29:14.887Z</time></trkpt><trkpt lat="44.3659148986228" lon="11.436414307125073"><ele>294.0</ele><time>2026-04-10T16:29:17.887Z</time></trkpt><trkpt lat="44.365844260623966" lon="11.436487693941821"><ele>297.0</ele><time>2026-04-10T16:29:21.887Z</time></trkpt><trkpt lat="44.36578727456835" lon="11.436533719819717"><ele>300.0</ele><time>2026-04-10T16:29:24.887Z</time></trkpt><trkpt lat="44.36572950508993" lon="11.43657032191917"><ele>303.0</ele><time>2026-04-10T16:29:27.887Z</time></trkpt><trkpt lat="44.36566924213946" lon="11.436622908299963"><ele>306.00000000000006</ele><time>2026-04-10T16:29:31.887Z</time></trkpt><trkpt lat="44.36561186609461" lon="11.436686157401242"><ele>309.0</ele><time>2026-04-10T16:29:35.886Z</time></trkpt><trkpt lat="44.36555659997764" lon="11.43678067948326"><ele>308.8333333333333</ele><time>2026-04-10T16:29:39.886Z</time></trkpt><trkpt lat="44.36550719749856" lon="11.43688387573362"><ele>308.6666666666667</ele><time>2026-04-10T16:29:43.886Z</time></trkpt><trkpt lat="44.36545458042652" lon="11.436956958597513"><ele>308.5</ele><time>2026-04-10T16:29:47.886Z</time></trkpt><trkpt lat="44.36538984752467" lon="11.437004706080202"><ele>308.33333333333337</ele><time>2026-04-10T16:29:50.886Z</time></trkpt><trkpt lat="44.36532426998715" lon="11.437061033785378"><ele>308.1666666666667</ele><time>2026-04-10T16:29:54.886Z</time></trkpt><trkpt lat="44.3652627716419" lon="11.437128894693558"><ele>308.0</ele><time>2026-04-10T16:29:59.887Z</time></trkpt><trkpt lat="44.36521284908597" lon="11.43719132109183"><ele>309.0</ele><time>2026-04-10T16:30:02.887Z</time></trkpt><trkpt lat="44.36516979206704" lon="11.437258423520468"><ele>310.0</ele><time>2026-04-10T16:30:05.888Z</time></trkpt><trkpt lat="44.36513944142002" lon="11.437337695932728"><ele>311.0</ele><time>2026-04-10T16:30:09.888Z</time></trkpt><trkpt lat="44.365092454802344" lon="11.437433438773418"><ele>312.0</ele><time>2026-04-10T16:30:13.887Z</time></trkpt><trkpt lat="44.365039227237496" lon="11.437515359911352"><ele>313.0</ele><time>2026-04-10T16:30:18.887Z</time></trkpt><trkpt lat="44.36498770307476" lon="11.437592039861427"><ele>314.0</ele><time>2026-04-10T16:30:23.887Z</time></trkpt><trkpt lat="44.364936206369165" lon="11.437667958920295"><ele>315.0</ele><time>2026-04-10T16:30:27.887Z</time></trkpt><trkpt lat="44.36489173090594" lon="11.43774065560626"><ele>315.0</ele><time>2026-04-10T16:30:32.887Z</time></trkpt><trkpt lat="44.36485331981303" lon="11.437833184266978"><ele>315.0</ele><time>2026-04-10T16:30:36.887Z</time></trkpt><trkpt lat="44.364827372720114" lon="11.437914844732074"><ele>315.0</ele><time>2026-04-10T16:30:40.887Z</time></trkpt><trkpt lat="44.364793413807746" lon="11.437993623016759"><ele>315.0</ele><time>2026-04-10T16:30:44.887Z</time></trkpt><trkpt lat="44.36476100525873" lon="11.438074465018227"><ele>315.0</ele><time>2026-04-10T16:30:47.887Z</time></trkpt><trkpt lat="44.36472690211392" lon="11.438157957485952"><ele>315.0</ele><time>2026-04-10T16:30:51.887Z</time></trkpt><trkpt lat="44.36467492230745" lon="11.438244240218502"><ele>315.0</ele><time>2026-04-10T16:30:55.887Z</time></trkpt><trkpt lat="44.364618789068885" lon="11.43831682178063"><ele>316.57142857142856</ele><time>2026-04-10T16:30:59.887Z</time></trkpt><trkpt lat="44.36458394755928" lon="11.4384031784143"><ele>318.1428571428571</ele><time>2026-04-10T16:31:03.887Z</time></trkpt><trkpt lat="44.36454741662742" lon="11.43848294394156"><ele>319.7142857142857</ele><time>2026-04-10T16:31:07.886Z</time></trkpt><trkpt lat="44.36451608954002" lon="11.438577062681434"><ele>321.2857142857143</ele><time>2026-04-10T16:31:11.886Z</time></trkpt><trkpt lat="44.36450159843788" lon="11.438668390946251"><ele>322.85714285714283</ele><time>2026-04-10T16:31:15.886Z</time></trkpt><trkpt lat="44.364497765336374" lon="11.438763330745642"><ele>324.42857142857144</ele><time>2026-04-10T16:31:19.886Z</time></trkpt><trkpt lat="44.364493285815776" lon="11.438879559523235"><ele>326.0</ele><time>2026-04-10T16:31:23.886Z</time></trkpt><trkpt lat="44.364565359779995" lon="11.438901552167108"><ele>326.0</ele><time>2026-04-10T16:31:28.886Z</time></trkpt><trkpt lat="44.36460508577205" lon="11.43881579184652"><ele>326.0</ele><time>2026-04-10T16:31:32.886Z</time></trkpt><trkpt lat="44.364660950544526" lon="11.438738233093172"><ele>326.0</ele><time>2026-04-10T16:31:39.886Z</time></trkpt><trkpt lat="44.36470025509987" lon="11.438652744982654"><ele>326.0</ele><time>2026-04-10T16:31:43.886Z</time></trkpt><trkpt lat="44.364759350416406" lon="11.43860202574005"><ele>326.0</ele><time>2026-04-10T16:31:46.886Z</time></trkpt><trkpt lat="44.36482034734924" lon="11.438551908896883"><ele>326.0</ele><time>2026-04-10T16:31:49.886Z</time></trkpt><trkpt lat="44.364862216488774" lon="11.438478579416145"><ele>326.0</ele><time>2026-04-10T16:31:52.886Z</time></trkpt><trkpt lat="44.36492107953989" lon="11.438407636971155"><ele>326.33333333333337</ele><time>2026-04-10T16:31:55.886Z</time></trkpt><trkpt lat="44.36498445056267" lon="11.438360664985344"><ele>326.6666666666667</ele><time>2026-04-10T16:31:58.886Z</time></trkpt><trkpt lat="44.3650556697593" lon="11.438313722113746"><ele>327.0</ele><time>2026-04-10T16:32:02.886Z</time></trkpt><trkpt lat="44.36513614583265" lon="11.438258345784227"><ele>327.3333333333333</ele><time>2026-04-10T16:32:06.887Z</time></trkpt><trkpt lat="44.365195380458644" lon="11.438211346317287"><ele>327.66666666666663</ele><time>2026-04-10T16:32:10.886Z</time></trkpt><trkpt lat="44.3652675299506" lon="11.438161291515689"><ele>328.0</ele><time>2026-04-10T16:32:14.886Z</time></trkpt><trkpt lat="44.365336830848065" lon="11.438130470560035"><ele>328.0</ele><time>2026-04-10T16:32:17.887Z</time></trkpt><trkpt lat="44.36541497935442" lon="11.438090658984972"><ele>328.0</ele><time>2026-04-10T16:32:21.886Z</time></trkpt><trkpt lat="44.36548081471387" lon="11.438050450064253"><ele>328.0</ele><time>2026-04-10T16:32:24.886Z</time></trkpt><trkpt lat="44.36555741731565" lon="11.438021271373957"><ele>328.0</ele><time>2026-04-10T16:32:27.886Z</time></trkpt><trkpt lat="44.365632500898705" lon="11.437960741562948"><ele>328.0</ele><time>2026-04-10T16:32:31.886Z</time></trkpt><trkpt lat="44.365690518426874" lon="11.437901025751017"><ele>328.0</ele><time>2026-04-10T16:32:35.886Z</time></trkpt><trkpt lat="44.36574039717659" lon="11.437827145298659"><ele>328.4285714285714</ele><time>2026-04-10T16:32:39.886Z</time></trkpt><trkpt lat="44.365785901885744" lon="11.437765565771835"><ele>328.85714285714283</ele><time>2026-04-10T16:32:42.886Z</time></trkpt><trkpt lat="44.36585047411562" lon="11.437720521305819"><ele>329.2857142857143</ele><time>2026-04-10T16:32:46.886Z</time></trkpt><trkpt lat="44.36591649532009" lon="11.437655440763422"><ele>329.71428571428567</ele><time>2026-04-10T16:32:50.886Z</time></trkpt><trkpt lat="44.3659723572351" lon="11.437597413415688"><ele>330.1428571428571</ele><time>2026-04-10T16:32:53.886Z</time></trkpt><trkpt lat="44.36604031460699" lon="11.437572249649945"><ele>330.57142857142856</ele><time>2026-04-10T16:32:56.886Z</time></trkpt><trkpt lat="44.366109035882886" lon="11.437549250645398"><ele>331.0</ele><time>2026-04-10T16:32:59.886Z</time></trkpt><trkpt lat="44.36617844801853" lon="11.437509420364448"><ele>331.0</ele><time>2026-04-10T16:33:04.886Z</time></trkpt><trkpt lat="44.36625595027941" lon="11.437457527053166"><ele>331.0</ele><time>2026-04-10T16:33:08.886Z</time></trkpt><trkpt lat="44.36632307969723" lon="11.437418312831596"><ele>331.0</ele><time>2026-04-10T16:33:12.886Z</time></trkpt><trkpt lat="44.366399276042046" lon="11.437388843530425"><ele>331.0</ele><time>2026-04-10T16:33:16.886Z</time></trkpt><trkpt lat="44.366459346027774" lon="11.437346898932113"><ele>331.0</ele><time>2026-04-10T16:33:20.886Z</time></trkpt><trkpt lat="44.366526228665506" lon="11.437329109648351"><ele>331.0</ele><time>2026-04-10T16:33:23.886Z</time></trkpt><trkpt lat="44.36659960078384" lon="11.437293548337363"><ele>333.8333333333333</ele><time>2026-04-10T16:33:26.885Z</time></trkpt><trkpt lat="44.366658296484616" lon="11.437250215148149"><ele>336.66666666666663</ele><time>2026-04-10T16:33:29.885Z</time></trkpt><trkpt lat="44.36671880280574" lon="11.43720963156924"><ele>339.5</ele><time>2026-04-10T16:33:33.885Z</time></trkpt><trkpt lat="44.36688461089177" lon="11.437225001228102"><ele>342.3333333333333</ele><time>2026-04-10T16:33:43.885Z</time></trkpt><trkpt lat="44.36693402306471" lon="11.437287846439373"><ele>345.1666666666667</ele><time>2026-04-10T16:33:47.885Z</time></trkpt><trkpt lat="44.366961800299485" lon="11.437387936636846"><ele>348.0</ele><time>2026-04-10T16:33:51.885Z</time></trkpt><trkpt lat="44.3669882321421" lon="11.43747582220991"><ele>348.0</ele><time>2026-04-10T16:33:55.885Z</time></trkpt><trkpt lat="44.367018904893776" lon="11.4375796865588"><ele>348.0</ele><time>2026-04-10T16:33:59.885Z</time></trkpt><trkpt lat="44.36705734226824" lon="11.43765910690476"><ele>348.0</ele><time>2026-04-10T16:34:02.885Z</time></trkpt><trkpt lat="44.36709359138993" lon="11.437732395112826"><ele>348.0</ele><time>2026-04-10T16:34:05.885Z</time></trkpt><trkpt lat="44.36712944231419" lon="11.437822836656338"><ele>348.0</ele><time>2026-04-10T16:34:09.886Z</time></trkpt><trkpt lat="44.36717632878214" lon="11.437908792181199"><ele>348.0</ele><time>2026-04-10T16:34:12.886Z</time></trkpt><trkpt lat="44.367219659647894" lon="11.437979957471823"><ele>348.0</ele><time>2026-04-10T16:34:15.886Z</time></trkpt><trkpt lat="44.36726164717466" lon="11.438048468310686"><ele>347.42857142857144</ele><time>2026-04-10T16:34:18.886Z</time></trkpt><trkpt lat="44.36729721351052" lon="11.43813047654345"><ele>346.8571428571429</ele><time>2026-04-10T16:34:21.886Z</time></trkpt><trkpt lat="44.36733863417555" lon="11.438211297522423"><ele>346.28571428571433</ele><time>2026-04-10T16:34:24.886Z</time></trkpt><trkpt lat="44.367338172838245" lon="11.438316433226417"><ele>345.7142857142857</ele><time>2026-04-10T16:34:28.886Z</time></trkpt><trkpt lat="44.367293960804965" lon="11.438393957848346"><ele>345.14285714285717</ele><time>2026-04-10T16:34:31.886Z</time></trkpt><trkpt lat="44.36724107454943" lon="11.438445576323204"><ele>344.5714285714286</ele><time>2026-04-10T16:34:34.886Z</time></trkpt><trkpt lat="44.36718042002667" lon="11.43851349508966"><ele>344.0</ele><time>2026-04-10T16:34:37.886Z</time></trkpt><trkpt lat="44.36713551661014" lon="11.438611846995702"><ele>344.00000000000006</ele><time>2026-04-10T16:34:41.886Z</time></trkpt><trkpt lat="44.36715584653839" lon="11.438716620262134"><ele>344.0</ele><time>2026-04-10T16:34:45.886Z</time></trkpt><trkpt lat="44.367214149632616" lon="11.438768357593688"><ele>344.0</ele><time>2026-04-10T16:34:49.886Z</time></trkpt><trkpt lat="44.36728601890083" lon="11.438816075425082"><ele>344.0</ele><time>2026-04-10T16:34:53.886Z</time></trkpt><trkpt lat="44.36732211716397" lon="11.438905510170372"><ele>344.0</ele><time>2026-04-10T16:34:57.886Z</time></trkpt><trkpt lat="44.36732468902965" lon="11.439001480280496"><ele>344.00000000000006</ele><time>2026-04-10T16:35:00.886Z</time></trkpt><trkpt lat="44.36726620953119" lon="11.43907102463775"><ele>344.0</ele><time>2026-04-10T16:35:04.886Z</time></trkpt><trkpt lat="44.3671966251136" lon="11.439096402088476"><ele>347.6666666666667</ele><time>2026-04-10T16:35:08.885Z</time></trkpt><trkpt lat="44.36713410712075" lon="11.439169563527788"><ele>351.33333333333337</ele><time>2026-04-10T16:35:19.885Z</time></trkpt><trkpt lat="44.36706086125489" lon="11.439215769785708"><ele>355.0</ele><time>2026-04-10T16:35:23.885Z</time></trkpt><trkpt lat="44.36699545091609" lon="11.43927091734025"><ele>358.6666666666667</ele><time>2026-04-10T16:35:27.885Z</time></trkpt><trkpt lat="44.36693495179552" lon="11.43934649921927"><ele>362.3333333333333</ele><time>2026-04-10T16:35:31.885Z</time></trkpt><trkpt lat="44.36687890033689" lon="11.439428224799943"><ele>366.0</ele><time>2026-04-10T16:35:35.885Z</time></trkpt><trkpt lat="44.366831141418814" lon="11.439499895871146"><ele>366.0</ele><time>2026-04-10T16:35:38.885Z</time></trkpt><trkpt lat="44.36678576279256" lon="11.439572678269867"><ele>366.0</ele><time>2026-04-10T16:35:41.885Z</time></trkpt><trkpt lat="44.366740523427715" lon="11.439637534927012"><ele>366.0</ele><time>2026-04-10T16:35:44.885Z</time></trkpt><trkpt lat="44.36669662135142" lon="11.439711491867103"><ele>366.0</ele><time>2026-04-10T16:35:47.885Z</time></trkpt><trkpt lat="44.36664488485237" lon="11.439797583008543"><ele>366.0</ele><time>2026-04-10T16:35:51.885Z</time></trkpt><trkpt lat="44.36659231454195" lon="11.439888700375697"><ele>366.0</ele><time>2026-04-10T16:35:55.885Z</time></trkpt><trkpt lat="44.36656554621292" lon="11.439987112933878"><ele>366.0</ele><time>2026-04-10T16:36:00.885Z</time></trkpt><trkpt lat="44.366503261756584" lon="11.440027786194245"><ele>366.57142857142856</ele><time>2026-04-10T16:36:03.885Z</time></trkpt><trkpt lat="44.366457156866275" lon="11.44010290565754"><ele>367.14285714285717</ele><time>2026-04-10T16:36:06.885Z</time></trkpt><trkpt lat="44.366416674507455" lon="11.440173386824805"><ele>367.71428571428567</ele><time>2026-04-10T16:36:09.885Z</time></trkpt><trkpt lat="44.366369806469514" lon="11.440244030680653"><ele>368.2857142857143</ele><time>2026-04-10T16:36:12.885Z</time></trkpt><trkpt lat="44.36632794892317" lon="11.440317131835858"><ele>368.85714285714283</ele><time>2026-04-10T16:36:15.885Z</time></trkpt><trkpt lat="44.36628240764078" lon="11.44038838669209"><ele>369.4285714285714</ele><time>2026-04-10T16:36:18.885Z</time></trkpt><trkpt lat="44.36624898652939" lon="11.440466237697803"><ele>370.0</ele><time>2026-04-10T16:36:21.885Z</time></trkpt><trkpt lat="44.36620945036163" lon="11.44054262699229"><ele>371.5</ele><time>2026-04-10T16:36:24.885Z</time></trkpt><trkpt lat="44.366175785916575" lon="11.440629466369057"><ele>373.0</ele><time>2026-04-10T16:36:27.885Z</time></trkpt><trkpt lat="44.36614250929588" lon="11.440720947284522"><ele>374.5</ele><time>2026-04-10T16:36:31.885Z</time></trkpt><trkpt lat="44.36614401992623" lon="11.44082400260698"><ele>376.0</ele><time>2026-04-10T16:36:43.885Z</time></trkpt><trkpt lat="44.366206433517036" lon="11.44080793197291"><ele>377.5</ele><time>2026-04-10T16:36:47.885Z</time></trkpt><trkpt lat="44.36626417319063" lon="11.440765868628722"><ele>379.0</ele><time>2026-04-10T16:36:51.885Z</time></trkpt><trkpt lat="44.36570744244375" lon="11.441718410576767"><ele>379.16666666666663</ele><time>2026-04-10T16:42:02.883Z</time></trkpt><trkpt lat="44.36565853122136" lon="11.441796529856228"><ele>379.3333333333333</ele><time>2026-04-10T16:42:06.883Z</time></trkpt><trkpt lat="44.36562441671964" lon="11.441887821887894"><ele>379.5</ele><time>2026-04-10T16:42:09.883Z</time></trkpt><trkpt lat="44.36557335746761" lon="11.441972672475774"><ele>379.6666666666667</ele><time>2026-04-10T16:42:12.883Z</time></trkpt><trkpt lat="44.36553851635068" lon="11.442073357173717"><ele>379.83333333333337</ele><time>2026-04-10T16:42:15.883Z</time></trkpt><trkpt lat="44.36549471393037" lon="11.442155483299821"><ele>380.0</ele><time>2026-04-10T16:42:18.883Z</time></trkpt><trkpt lat="44.36544222836874" lon="11.442238694004782"><ele>381.1666666666667</ele><time>2026-04-10T16:42:21.883Z</time></trkpt><trkpt lat="44.3653746945801" lon="11.442309152978419"><ele>382.33333333333337</ele><time>2026-04-10T16:42:24.883Z</time></trkpt><trkpt lat="44.36530893151354" lon="11.442375887317851"><ele>383.5</ele><time>2026-04-10T16:42:27.883Z</time></trkpt><trkpt lat="44.36523716882581" lon="11.442435587850296"><ele>384.6666666666667</ele><time>2026-04-10T16:42:30.883Z</time></trkpt><trkpt lat="44.36516807713816" lon="11.442500162372019"><ele>385.8333333333333</ele><time>2026-04-10T16:42:33.884Z</time></trkpt><trkpt lat="44.36509680109362" lon="11.442580355813195"><ele>387.0</ele><time>2026-04-10T16:42:36.884Z</time></trkpt><trkpt lat="44.36504065044599" lon="11.442626496014928"><ele>387.0</ele><time>2026-04-10T16:42:38.884Z</time></trkpt><trkpt lat="44.3649633517859" lon="11.442700124060993"><ele>387.0</ele><time>2026-04-10T16:42:41.884Z</time></trkpt><trkpt lat="44.3649036946669" lon="11.442740099098009"><ele>387.0</ele><time>2026-04-10T16:42:43.884Z</time></trkpt><trkpt lat="44.36483710023782" lon="11.442781706812374"><ele>387.0</ele><time>2026-04-10T16:42:45.884Z</time></trkpt><trkpt lat="44.364767168236696" lon="11.442817810945128"><ele>387.0</ele><time>2026-04-10T16:42:47.884Z</time></trkpt><trkpt lat="44.36470119915726" lon="11.442866874736595"><ele>387.0</ele><time>2026-04-10T16:42:49.884Z</time></trkpt><trkpt lat="44.36464441256137" lon="11.442929384206408"><ele>387.2857142857143</ele><time>2026-04-10T16:42:51.884Z</time></trkpt><trkpt lat="44.36458850190912" lon="11.44299608100659"><ele>387.57142857142856</ele><time>2026-04-10T16:42:53.884Z</time></trkpt><trkpt lat="44.3645487228016" lon="11.443074024879655"><ele>387.8571428571429</ele><time>2026-04-10T16:42:55.884Z</time></trkpt><trkpt lat="44.36451953772758" lon="11.443168102482394"><ele>388.1428571428571</ele><time>2026-04-10T16:42:57.884Z</time></trkpt><trkpt lat="44.36450640790744" lon="11.443263641559616"><ele>388.4285714285714</ele><time>2026-04-10T16:42:59.884Z</time></trkpt><trkpt lat="44.364515807984226" lon="11.443356278250212"><ele>388.7142857142857</ele><time>2026-04-10T16:43:01.884Z</time></trkpt><trkpt lat="44.36452914011755" lon="11.443445910445785"><ele>389.0</ele><time>2026-04-10T16:43:03.884Z</time></trkpt><trkpt lat="44.364544741900794" lon="11.443534439288936"><ele>388.99999999999994</ele><time>2026-04-10T16:43:05.884Z</time></trkpt><trkpt lat="44.36455474315484" lon="11.443622716473055"><ele>389.0</ele><time>2026-04-10T16:43:07.884Z</time></trkpt><trkpt lat="44.36455513982849" lon="11.443758182128612"><ele>389.0</ele><time>2026-04-10T16:43:10.884Z</time></trkpt><trkpt lat="44.36452254703901" lon="11.443887477803989"><ele>389.0</ele><time>2026-04-10T16:43:13.884Z</time></trkpt><trkpt lat="44.36450554659972" lon="11.44397675211464"><ele>388.99999999999994</ele><time>2026-04-10T16:43:15.884Z</time></trkpt><trkpt lat="44.36448623046326" lon="11.44406916185351"><ele>389.0</ele><time>2026-04-10T16:43:17.884Z</time></trkpt><trkpt lat="44.36445753094352" lon="11.444197679787603"><ele>388.8571428571429</ele><time>2026-04-10T16:43:20.884Z</time></trkpt><trkpt lat="44.36443919166266" lon="11.444288963488258"><ele>388.71428571428567</ele><time>2026-04-10T16:43:22.884Z</time></trkpt><trkpt lat="44.36441324042121" lon="11.444378593051022"><ele>388.57142857142856</ele><time>2026-04-10T16:43:24.884Z</time></trkpt><trkpt lat="44.364383685632056" lon="11.444466095015834"><ele>388.42857142857144</ele><time>2026-04-10T16:43:26.884Z</time></trkpt><trkpt lat="44.36434201155983" lon="11.444547243041297"><ele>388.28571428571433</ele><time>2026-04-10T16:43:28.884Z</time></trkpt><trkpt lat="44.364291976846026" lon="11.444612686471665"><ele>388.1428571428571</ele><time>2026-04-10T16:43:30.883Z</time></trkpt><trkpt lat="44.36422195225547" lon="11.444656381025352"><ele>388.0</ele><time>2026-04-10T16:43:32.883Z</time></trkpt><trkpt lat="44.36414920894455" lon="11.444700518930023"><ele>388.0</ele><time>2026-04-10T16:43:34.883Z</time></trkpt><trkpt lat="44.36407005171943" lon="11.444742143171773"><ele>388.0</ele><time>2026-04-10T16:43:36.883Z</time></trkpt><trkpt lat="44.3639949545206" lon="11.444800222051542"><ele>388.0</ele><time>2026-04-10T16:43:38.883Z</time></trkpt><trkpt lat="44.36392113376362" lon="11.444888516326866"><ele>388.0</ele><time>2026-04-10T16:43:40.883Z</time></trkpt><trkpt lat="44.36386646005817" lon="11.444989138453309"><ele>388.0</ele><time>2026-04-10T16:43:42.883Z</time></trkpt><trkpt lat="44.36380272300487" lon="11.445096646386547"><ele>387.59999999999997</ele><time>2026-04-10T16:43:44.883Z</time></trkpt><trkpt lat="44.363731312873036" lon="11.445183755362276"><ele>387.2</ele><time>2026-04-10T16:43:46.883Z</time></trkpt><trkpt lat="44.363667591806845" lon="11.445265222164034"><ele>386.8</ele><time>2026-04-10T16:43:48.883Z</time></trkpt><trkpt lat="44.36359669909033" lon="11.445352862934046"><ele>386.4</ele><time>2026-04-10T16:43:50.883Z</time></trkpt><trkpt lat="44.363524701121364" lon="11.445444417787645"><ele>386.0</ele><time>2026-04-10T16:43:52.883Z</time></trkpt><trkpt lat="44.36345224536529" lon="11.445536517447612"><ele>385.6</ele><time>2026-04-10T16:43:54.883Z</time></trkpt><trkpt lat="44.36337799475517" lon="11.445620591969504"><ele>385.20000000000005</ele><time>2026-04-10T16:43:56.883Z</time></trkpt><trkpt lat="44.363307530820606" lon="11.445706150390453"><ele>384.79999999999995</ele><time>2026-04-10T16:43:58.883Z</time></trkpt><trkpt lat="44.36323962427897" lon="11.445793293014749"><ele>384.4</ele><time>2026-04-10T16:44:00.883Z</time></trkpt><trkpt lat="44.363173461895386" lon="11.445876696014869"><ele>384.0</ele><time>2026-04-10T16:44:02.883Z</time></trkpt><trkpt lat="44.3631058303306" lon="11.445961957189363"><ele>383.4</ele><time>2026-04-10T16:44:04.883Z</time></trkpt><trkpt lat="44.36303017946834" lon="11.446045361337466"><ele>382.79999999999995</ele><time>2026-04-10T16:44:06.883Z</time></trkpt><trkpt lat="44.362954154251774" lon="11.44614064944848"><ele>382.20000000000005</ele><time>2026-04-10T16:44:08.883Z</time></trkpt><trkpt lat="44.36287452306422" lon="11.446225748501089"><ele>381.6</ele><time>2026-04-10T16:44:10.883Z</time></trkpt><trkpt lat="44.36279443636722" lon="11.446305950993048"><ele>381.0</ele><time>2026-04-10T16:44:12.883Z</time></trkpt><trkpt lat="44.36271275638169" lon="11.44637647532471"><ele>383.5</ele><time>2026-04-10T16:44:14.883Z</time></trkpt><trkpt lat="44.362624951604595" lon="11.446439046199574"><ele>386.0</ele><time>2026-04-10T16:44:16.883Z</time></trkpt><trkpt lat="44.36253760980424" lon="11.446474308518454"><ele>388.5</ele><time>2026-04-10T16:44:18.883Z</time></trkpt><trkpt lat="44.36245508324714" lon="11.446501243908527"><ele>391.0</ele><time>2026-04-10T16:44:20.883Z</time></trkpt><trkpt lat="44.36237574260157" lon="11.44652188977503"><ele>393.5</ele><time>2026-04-10T16:44:22.883Z</time></trkpt><trkpt lat="44.36230212879812" lon="11.446581699828275"><ele>396.0</ele><time>2026-04-10T16:44:24.883Z</time></trkpt><trkpt lat="44.36223860637925" lon="11.446664332370304"><ele>396.3333333333333</ele><time>2026-04-10T16:44:26.883Z</time></trkpt><trkpt lat="44.36217786368782" lon="11.446770587603055"><ele>396.66666666666663</ele><time>2026-04-10T16:44:28.883Z</time></trkpt><trkpt lat="44.36212594681043" lon="11.446867005028288"><ele>397.0</ele><time>2026-04-10T16:44:30.883Z</time></trkpt><trkpt lat="44.362070952643364" lon="11.446951795066806"><ele>397.3333333333333</ele><time>2026-04-10T16:44:32.883Z</time></trkpt><trkpt lat="44.36200599728932" lon="11.447038080774165"><ele>397.66666666666663</ele><time>2026-04-10T16:44:34.883Z</time></trkpt><trkpt lat="44.361926758972125" lon="11.447105674405206"><ele>398.0</ele><time>2026-04-10T16:44:36.883Z</time></trkpt><trkpt lat="44.36184167247173" lon="11.447174836469179"><ele>398.0</ele><time>2026-04-10T16:44:38.882Z</time></trkpt><trkpt lat="44.361762089001665" lon="11.447240782756722"><ele>398.0</ele><time>2026-04-10T16:44:40.883Z</time></trkpt><trkpt lat="44.36167417586161" lon="11.447306191500195"><ele>398.0</ele><time>2026-04-10T16:44:42.884Z</time></trkpt><trkpt lat="44.36159287521306" lon="11.447363463225912"><ele>398.0</ele><time>2026-04-10T16:44:44.884Z</time></trkpt><trkpt lat="44.361503907926476" lon="11.447432239083941"><ele>398.0</ele><time>2026-04-10T16:44:46.884Z</time></trkpt><trkpt lat="44.36142067129338" lon="11.447496793787943"><ele>397.0</ele><time>2026-04-10T16:44:48.884Z</time></trkpt><trkpt lat="44.36133000760107" lon="11.447551141734687"><ele>396.0</ele><time>2026-04-10T16:44:50.884Z</time></trkpt><trkpt lat="44.36123840828797" lon="11.447602209791286"><ele>395.0</ele><time>2026-04-10T16:44:52.884Z</time></trkpt><trkpt lat="44.361162196398" lon="11.447669636346824"><ele>394.0</ele><time>2026-04-10T16:44:54.884Z</time></trkpt><trkpt lat="44.36108677212867" lon="11.447724829614433"><ele>393.0</ele><time>2026-04-10T16:44:56.884Z</time></trkpt><trkpt lat="44.361006630879395" lon="11.447771424371535"><ele>393.0</ele><time>2026-04-10T16:44:58.884Z</time></trkpt><trkpt lat="44.360929824059454" lon="11.447818838064268"><ele>393.0</ele><time>2026-04-10T16:45:00.884Z</time></trkpt><trkpt lat="44.360851386763635" lon="11.447871377240677"><ele>393.0</ele><time>2026-04-10T16:45:02.884Z</time></trkpt><trkpt lat="44.36077849048588" lon="11.447935103006516"><ele>393.0</ele><time>2026-04-10T16:45:04.884Z</time></trkpt><trkpt lat="44.36069793699354" lon="11.44798492258414"><ele>393.0</ele><time>2026-04-10T16:45:06.884Z</time></trkpt><trkpt lat="44.360612752670086" lon="11.448045042923424"><ele>393.0</ele><time>2026-04-10T16:45:08.884Z</time></trkpt><trkpt lat="44.3605325688648" lon="11.448093635982186"><ele>394.5</ele><time>2026-04-10T16:45:10.884Z</time></trkpt><trkpt lat="44.36045404610751" lon="11.448145204258335"><ele>396.0</ele><time>2026-04-10T16:45:12.884Z</time></trkpt><trkpt lat="44.36037843100516" lon="11.44819423660381"><ele>397.5</ele><time>2026-04-10T16:45:14.884Z</time></trkpt><trkpt lat="44.36030164030696" lon="11.44825653625784"><ele>399.0</ele><time>2026-04-10T16:45:16.884Z</time></trkpt><trkpt lat="44.36023606693667" lon="11.448308013591735"><ele>400.5</ele><time>2026-04-10T16:45:18.884Z</time></trkpt><trkpt lat="44.36016620060699" lon="11.448367847937305"><ele>402.0</ele><time>2026-04-10T16:45:20.884Z</time></trkpt><trkpt lat="44.360101652539626" lon="11.448408946511684"><ele>402.0</ele><time>2026-04-10T16:45:22.884Z</time></trkpt><trkpt lat="44.36003277884376" lon="11.448485675545292"><ele>402.0</ele><time>2026-04-10T16:45:25.884Z</time></trkpt><trkpt lat="44.35997426137512" lon="11.448524686386987"><ele>402.0</ele><time>2026-04-10T16:45:27.883Z</time></trkpt><trkpt lat="44.35991896036614" lon="11.448568970495078"><ele>402.0</ele><time>2026-04-10T16:45:29.883Z</time></trkpt><trkpt lat="44.359841241082016" lon="11.448627139015715"><ele>402.0</ele><time>2026-04-10T16:45:32.883Z</time></trkpt><trkpt lat="44.35976886477117" lon="11.448669493359704"><ele>402.0</ele><time>2026-04-10T16:45:35.883Z</time></trkpt><trkpt lat="44.35968303871724" lon="11.448695183542553"><ele>402.1666666666667</ele><time>2026-04-10T16:45:38.883Z</time></trkpt><trkpt lat="44.35959593990074" lon="11.448702780284881"><ele>402.33333333333337</ele><time>2026-04-10T16:45:41.883Z</time></trkpt><trkpt lat="44.35950842786958" lon="11.448717552788828"><ele>402.5</ele><time>2026-04-10T16:45:44.883Z</time></trkpt><trkpt lat="44.3594244909397" lon="11.448721602367668"><ele>402.6666666666667</ele><time>2026-04-10T16:45:47.883Z</time></trkpt><trkpt lat="44.35934082144326" lon="11.448734731484421"><ele>402.83333333333337</ele><time>2026-04-10T16:45:50.883Z</time></trkpt><trkpt lat="44.35926818901783" lon="11.448766692680818"><ele>403.0</ele><time>2026-04-10T16:45:54.883Z</time></trkpt><trkpt lat="44.35924772781938" lon="11.448864311681822"><ele>404.8571428571429</ele><time>2026-04-10T16:45:58.883Z</time></trkpt><trkpt lat="44.359299686512735" lon="11.448926467118975"><ele>406.71428571428567</ele><time>2026-04-10T16:46:01.883Z</time></trkpt><trkpt lat="44.35934378603905" lon="11.44900872586095"><ele>408.57142857142856</ele><time>2026-04-10T16:46:05.883Z</time></trkpt><trkpt lat="44.359366430917596" lon="11.449095189271961"><ele>410.42857142857144</ele><time>2026-04-10T16:46:09.883Z</time></trkpt><trkpt lat="44.35939219064796" lon="11.44918161540919"><ele>412.28571428571433</ele><time>2026-04-10T16:46:12.883Z</time></trkpt><trkpt lat="44.35940185577469" lon="11.449279922849199"><ele>414.1428571428571</ele><time>2026-04-10T16:46:16.883Z</time></trkpt><trkpt lat="44.3594100403321" lon="11.449378109485373"><ele>416.0</ele><time>2026-04-10T16:46:21.883Z</time></trkpt><trkpt lat="44.35941440813269" lon="11.449472541384496"><ele>415.99999999999994</ele><time>2026-04-10T16:46:24.883Z</time></trkpt><trkpt lat="44.35942922900768" lon="11.44957256151058"><ele>416.0</ele><time>2026-04-10T16:46:27.883Z</time></trkpt><trkpt lat="44.35946320227878" lon="11.449678042867511"><ele>416.0</ele><time>2026-04-10T16:46:30.882Z</time></trkpt><trkpt lat="44.359524397008634" lon="11.449755582185633"><ele>416.0</ele><time>2026-04-10T16:46:33.882Z</time></trkpt><trkpt lat="44.35958144739202" lon="11.449812370691829"><ele>415.99999999999994</ele><time>2026-04-10T16:46:36.882Z</time></trkpt><trkpt lat="44.35966110632103" lon="11.449848712323483"><ele>416.0</ele><time>2026-04-10T16:46:40.882Z</time></trkpt><trkpt lat="44.359731545680184" lon="11.449921269523456"><ele>416.16666666666663</ele><time>2026-04-10T16:46:43.882Z</time></trkpt><trkpt lat="44.359783522912224" lon="11.450002045672207"><ele>416.3333333333333</ele><time>2026-04-10T16:46:46.884Z</time></trkpt><trkpt lat="44.35982920202544" lon="11.45008730286249"><ele>416.5</ele><time>2026-04-10T16:46:49.883Z</time></trkpt><trkpt lat="44.359886542185656" lon="11.450161171303382"><ele>416.66666666666663</ele><time>2026-04-10T16:46:52.883Z</time></trkpt><trkpt lat="44.359928152279814" lon="11.450256499885139"><ele>416.8333333333333</ele><time>2026-04-10T16:46:55.884Z</time></trkpt><trkpt lat="44.359983702062" lon="11.450319292711253"><ele>417.0</ele><time>2026-04-10T16:46:58.884Z</time></trkpt><trkpt lat="44.360046127255494" lon="11.450385217098631"><ele>417.0</ele><time>2026-04-10T16:47:02.884Z</time></trkpt><trkpt lat="44.36011914450631" lon="11.450433454979553"><ele>417.0</ele><time>2026-04-10T16:47:05.884Z</time></trkpt><trkpt lat="44.36018340315361" lon="11.450495462393972"><ele>417.0</ele><time>2026-04-10T16:47:07.884Z</time></trkpt><trkpt lat="44.360274227345826" lon="11.450540696533926"><ele>417.0</ele><time>2026-04-10T16:47:10.884Z</time></trkpt><trkpt lat="44.36033651914884" lon="11.45055616981718"><ele>417.0</ele><time>2026-04-10T16:47:12.883Z</time></trkpt><trkpt lat="44.360378674936634" lon="11.450658319737183"><ele>417.0</ele><time>2026-04-10T16:47:14.883Z</time></trkpt><trkpt lat="44.36042599010362" lon="11.450793611734749"><ele>418.0</ele><time>2026-04-10T16:47:16.883Z</time></trkpt><trkpt lat="44.36035619749918" lon="11.450974173634421"><ele>419.0</ele><time>2026-04-10T16:47:18.883Z</time></trkpt><trkpt lat="44.36033521011942" lon="11.451117101893555"><ele>420.0</ele><time>2026-04-10T16:47:20.883Z</time></trkpt><trkpt lat="44.36031135754319" lon="11.451220133453711"><ele>421.0</ele><time>2026-04-10T16:47:22.883Z</time></trkpt><trkpt lat="44.360268934886264" lon="11.451385384545327"><ele>418.6</ele><time>2026-04-10T16:47:24.883Z</time></trkpt><trkpt lat="44.36024217410905" lon="11.451483063344146"><ele>416.20000000000005</ele><time>2026-04-10T16:47:25.883Z</time></trkpt><trkpt lat="44.360211379123825" lon="11.451598437151432"><ele>413.79999999999995</ele><time>2026-04-10T16:47:26.883Z</time></trkpt><trkpt lat="44.36018316461895" lon="11.451720619517493"><ele>411.4</ele><time>2026-04-10T16:47:27.883Z</time></trkpt><trkpt lat="44.36015493227228" lon="11.451856994992061"><ele>409.0</ele><time>2026-04-10T16:47:28.883Z</time></trkpt><trkpt lat="44.36012743766368" lon="11.451993333719278"><ele>406.75</ele><time>2026-04-10T16:47:29.883Z</time></trkpt><trkpt lat="44.360104849340374" lon="11.452159690529042"><ele>404.5</ele><time>2026-04-10T16:47:30.883Z</time></trkpt><trkpt lat="44.36010500414123" lon="11.452328405652127"><ele>402.25</ele><time>2026-04-10T16:47:31.883Z</time></trkpt><trkpt lat="44.36012951347798" lon="11.452489397832027"><ele>400.0</ele><time>2026-04-10T16:47:32.883Z</time></trkpt><trkpt lat="44.360210100261774" lon="11.45263951051934"><ele>400.0</ele><time>2026-04-10T16:47:33.883Z</time></trkpt><trkpt lat="44.360316191255706" lon="11.452731660262781"><ele>400.0</ele><time>2026-04-10T16:47:34.883Z</time></trkpt><trkpt lat="44.360400897804624" lon="11.452800451117191"><ele>400.0</ele><time>2026-04-10T16:47:35.883Z</time></trkpt><trkpt lat="44.360503842343135" lon="11.452859666820256"><ele>400.0</ele><time>2026-04-10T16:47:37.883Z</time></trkpt><trkpt lat="44.36057703488175" lon="11.45290922832888"><ele>400.0</ele><time>2026-04-10T16:47:39.883Z</time></trkpt><trkpt lat="44.360656771445086" lon="11.452963550868022"><ele>397.00000000000006</ele><time>2026-04-10T16:47:41.883Z</time></trkpt><trkpt lat="44.36072158407863" lon="11.453008892629677"><ele>394.0</ele><time>2026-04-10T16:47:43.883Z</time></trkpt><trkpt lat="44.36078188454668" lon="11.453038033479466"><ele>391.0</ele><time>2026-04-10T16:47:45.883Z</time></trkpt><trkpt lat="44.36088065214726" lon="11.453070736014702"><ele>388.0</ele><time>2026-04-10T16:47:48.883Z</time></trkpt><trkpt lat="44.36096942957314" lon="11.45309736579909"><ele>385.0</ele><time>2026-04-10T16:47:51.883Z</time></trkpt><trkpt lat="44.36104063495701" lon="11.45312131569789"><ele>382.0</ele><time>2026-04-10T16:47:53.883Z</time></trkpt><trkpt lat="44.36112284263098" lon="11.453159151844002"><ele>382.0</ele><time>2026-04-10T16:47:56.883Z</time></trkpt><trkpt lat="44.361200863979725" lon="11.453197264176474"><ele>382.0</ele><time>2026-04-10T16:47:59.883Z</time></trkpt><trkpt lat="44.361287808243084" lon="11.453226110321374"><ele>382.0</ele><time>2026-04-10T16:48:01.883Z</time></trkpt><trkpt lat="44.36135691069979" lon="11.453249662183593"><ele>382.0</ele><time>2026-04-10T16:48:03.883Z</time></trkpt><trkpt lat="44.36142901368121" lon="11.453280792468862"><ele>382.0</ele><time>2026-04-10T16:48:05.883Z</time></trkpt><trkpt lat="44.361524869518504" lon="11.453302106957192"><ele>382.0</ele><time>2026-04-10T16:48:07.883Z</time></trkpt><trkpt lat="44.36162128906194" lon="11.453327829225659"><ele>379.3333333333333</ele><time>2026-04-10T16:48:09.883Z</time></trkpt><trkpt lat="44.361706262557966" lon="11.453360107777652"><ele>376.66666666666663</ele><time>2026-04-10T16:48:11.883Z</time></trkpt><trkpt lat="44.36179793840387" lon="11.453396480298432"><ele>374.0</ele><time>2026-04-10T16:48:14.883Z</time></trkpt><trkpt lat="44.36189493337607" lon="11.453418713762646"><ele>371.3333333333333</ele><time>2026-04-10T16:48:53.883Z</time></trkpt><trkpt lat="44.361973667320115" lon="11.453442425090019"><ele>368.6666666666667</ele><time>2026-04-10T16:48:56.883Z</time></trkpt><trkpt lat="44.36203505152275" lon="11.453466241396077"><ele>366.0</ele><time>2026-04-10T16:48:58.883Z</time></trkpt><trkpt lat="44.362109234697414" lon="11.453502542401113"><ele>361.3333333333333</ele><time>2026-04-10T16:49:01.883Z</time></trkpt><trkpt lat="44.36221593135845" lon="11.453535804580213"><ele>356.6666666666667</ele><time>2026-04-10T16:49:04.883Z</time></trkpt><trkpt lat="44.36228652630935" lon="11.453567711630146"><ele>352.0</ele><time>2026-04-10T16:49:06.883Z</time></trkpt><trkpt lat="44.36238387831168" lon="11.453609508518584"><ele>347.33333333333337</ele><time>2026-04-10T16:49:09.883Z</time></trkpt><trkpt lat="44.3624460508199" lon="11.453654708798181"><ele>342.6666666666667</ele><time>2026-04-10T16:49:11.883Z</time></trkpt><trkpt lat="44.36252547420395" lon="11.453696995116736"><ele>338.0</ele><time>2026-04-10T16:49:13.883Z</time></trkpt><trkpt lat="44.36259679953359" lon="11.45371966507906"><ele>338.0</ele><time>2026-04-10T16:49:15.883Z</time></trkpt><trkpt lat="44.362662087041045" lon="11.453735161812833"><ele>338.0</ele><time>2026-04-10T16:49:17.883Z</time></trkpt><trkpt lat="44.362738337704336" lon="11.453731058920742"><ele>338.0</ele><time>2026-04-10T16:49:19.883Z</time></trkpt><trkpt lat="44.36281498258905" lon="11.453671572414112"><ele>338.0</ele><time>2026-04-10T16:49:22.883Z</time></trkpt><trkpt lat="44.362874686738614" lon="11.453599500640214"><ele>338.0</ele><time>2026-04-10T16:49:26.883Z</time></trkpt><trkpt lat="44.36294130622963" lon="11.453541599948121"><ele>338.0</ele><time>2026-04-10T16:49:29.882Z</time></trkpt><trkpt lat="44.36304516313885" lon="11.453571986978652"><ele>335.7142857142857</ele><time>2026-04-10T16:49:31.882Z</time></trkpt><trkpt lat="44.36309524534359" lon="11.453630056462279"><ele>333.42857142857144</ele><time>2026-04-10T16:49:32.882Z</time></trkpt><trkpt lat="44.363144211890685" lon="11.453688807353817"><ele>331.1428571428571</ele><time>2026-04-10T16:49:33.882Z</time></trkpt><trkpt lat="44.363186467215726" lon="11.45377139904898"><ele>328.8571428571429</ele><time>2026-04-10T16:49:34.882Z</time></trkpt><trkpt lat="44.36325207260152" lon="11.453823705881561"><ele>326.57142857142856</ele><time>2026-04-10T16:49:35.882Z</time></trkpt><trkpt lat="44.363320875904485" lon="11.453873858048416"><ele>324.2857142857143</ele><time>2026-04-10T16:49:36.882Z</time></trkpt><trkpt lat="44.363390930210194" lon="11.453925043547047"><ele>322.0</ele><time>2026-04-10T16:49:37.882Z</time></trkpt><trkpt lat="44.3634635230928" lon="11.453984788252598"><ele>322.0</ele><time>2026-04-10T16:49:38.882Z</time></trkpt><trkpt lat="44.36352990174097" lon="11.454052456258019"><ele>322.0</ele><time>2026-04-10T16:49:39.882Z</time></trkpt><trkpt lat="44.36357546510357" lon="11.454146795332683"><ele>322.0</ele><time>2026-04-10T16:49:40.882Z</time></trkpt><trkpt lat="44.363625247721075" lon="11.454256133104852"><ele>322.0</ele><time>2026-04-10T16:49:41.882Z</time></trkpt><trkpt lat="44.36367449695733" lon="11.454356607088158"><ele>322.0</ele><time>2026-04-10T16:49:42.882Z</time></trkpt><trkpt lat="44.363754427971664" lon="11.454493510378507"><ele>322.0</ele><time>2026-04-10T16:49:44.882Z</time></trkpt><trkpt lat="44.36380387103344" lon="11.454550559303742"><ele>322.0</ele><time>2026-04-10T16:49:45.882Z</time></trkpt><trkpt lat="44.36391370124144" lon="11.454638920337285"><ele>322.0</ele><time>2026-04-10T16:49:47.882Z</time></trkpt><trkpt lat="44.36398558786495" lon="11.454671408832132"><ele>322.0</ele><time>2026-04-10T16:49:48.882Z</time></trkpt><trkpt lat="44.36405517617985" lon="11.454730004633218"><ele>322.0</ele><time>2026-04-10T16:49:49.882Z</time></trkpt><trkpt lat="44.3641318430123" lon="11.454794900547327"><ele>322.0</ele><time>2026-04-10T16:49:50.882Z</time></trkpt><trkpt lat="44.36420590446728" lon="11.454858611126829"><ele>320.8</ele><time>2026-04-10T16:49:51.882Z</time></trkpt><trkpt lat="44.36427537121032" lon="11.454945807084403"><ele>319.6</ele><time>2026-04-10T16:49:52.882Z</time></trkpt><trkpt lat="44.36435290783346" lon="11.455014918459835"><ele>318.40000000000003</ele><time>2026-04-10T16:49:53.882Z</time></trkpt><trkpt lat="44.36443746174296" lon="11.455064712374838"><ele>317.20000000000005</ele><time>2026-04-10T16:49:54.882Z</time></trkpt><trkpt lat="44.36450444039939" lon="11.455151994849707"><ele>316.0</ele><time>2026-04-10T16:49:55.882Z</time></trkpt><trkpt lat="44.36458362972275" lon="11.455224213405478"><ele>316.0</ele><time>2026-04-10T16:49:56.882Z</time></trkpt><trkpt lat="44.36465960873772" lon="11.455293874342555"><ele>316.0</ele><time>2026-04-10T16:49:57.882Z</time></trkpt><trkpt lat="44.36473360251016" lon="11.455363458416198"><ele>316.0</ele><time>2026-04-10T16:49:58.882Z</time></trkpt><trkpt lat="44.36480701605947" lon="11.455438308663359"><ele>316.0</ele><time>2026-04-10T16:49:59.882Z</time></trkpt><trkpt lat="44.36487160543165" lon="11.45551305513138"><ele>316.0</ele><time>2026-04-10T16:50:00.882Z</time></trkpt><trkpt lat="44.36493610123911" lon="11.455596196915916"><ele>316.0</ele><time>2026-04-10T16:50:01.882Z</time></trkpt><trkpt lat="44.36499373972863" lon="11.455687584315324"><ele>315.0</ele><time>2026-04-10T16:50:02.882Z</time></trkpt><trkpt lat="44.3650602592383" lon="11.455755168155374"><ele>314.0</ele><time>2026-04-10T16:50:03.882Z</time></trkpt><trkpt lat="44.365125383425394" lon="11.455813438171463"><ele>313.0</ele><time>2026-04-10T16:50:04.882Z</time></trkpt><trkpt lat="44.36518949873722" lon="11.455848445503811"><ele>312.0</ele><time>2026-04-10T16:50:05.882Z</time></trkpt><trkpt lat="44.36528317813767" lon="11.4559355396303"><ele>311.0</ele><time>2026-04-10T16:50:07.882Z</time></trkpt><trkpt lat="44.36534201210714" lon="11.45599812136973"><ele>310.0</ele><time>2026-04-10T16:50:09.882Z</time></trkpt><trkpt lat="44.36539944139709" lon="11.456037639925725"><ele>310.0</ele><time>2026-04-10T16:50:12.882Z</time></trkpt><trkpt lat="44.36547000046913" lon="11.456076469512986"><ele>310.0</ele><time>2026-04-10T16:50:16.882Z</time></trkpt><trkpt lat="44.36554256567834" lon="11.45610261056926"><ele>310.0</ele><time>2026-04-10T16:50:19.882Z</time></trkpt><trkpt lat="44.36561730827402" lon="11.456106657879582"><ele>310.0</ele><time>2026-04-10T16:50:22.882Z</time></trkpt><trkpt lat="44.36570163322717" lon="11.456117615612932"><ele>310.0</ele><time>2026-04-10T16:50:25.882Z</time></trkpt><trkpt lat="44.36577837830227" lon="11.45613364330096"><ele>310.0</ele><time>2026-04-10T16:50:28.882Z</time></trkpt><trkpt lat="44.36585948870127" lon="11.456151601751003"><ele>310.3333333333333</ele><time>2026-04-10T16:50:31.882Z</time></trkpt><trkpt lat="44.36594388893508" lon="11.456146384337302"><ele>310.66666666666663</ele><time>2026-04-10T16:50:34.881Z</time></trkpt><trkpt lat="44.36602484998063" lon="11.456156047078451"><ele>311.0</ele><time>2026-04-10T16:50:37.881Z</time></trkpt><trkpt lat="44.366105300239674" lon="11.456161481290332"><ele>311.3333333333333</ele><time>2026-04-10T16:50:40.881Z</time></trkpt><trkpt lat="44.366189455623456" lon="11.456159667261"><ele>311.6666666666667</ele><time>2026-04-10T16:50:43.881Z</time></trkpt><trkpt lat="44.36625381658093" lon="11.45615347680446"><ele>312.0</ele><time>2026-04-10T16:50:46.881Z</time></trkpt><trkpt lat="44.36631901211524" lon="11.456157568972865"><ele>313.5714285714286</ele><time>2026-04-10T16:50:49.881Z</time></trkpt><trkpt lat="44.36638219172506" lon="11.456155105965635"><ele>315.1428571428571</ele><time>2026-04-10T16:50:52.881Z</time></trkpt><trkpt lat="44.36645494952358" lon="11.456161581092013"><ele>316.7142857142857</ele><time>2026-04-10T16:50:56.882Z</time></trkpt><trkpt lat="44.36652681421692" lon="11.456156145799945"><ele>318.28571428571433</ele><time>2026-04-10T16:51:00.882Z</time></trkpt><trkpt lat="44.366602978788684" lon="11.456169274519093"><ele>319.8571428571429</ele><time>2026-04-10T16:51:05.882Z</time></trkpt><trkpt lat="44.36668333465531" lon="11.456172388323205"><ele>321.42857142857144</ele><time>2026-04-10T16:51:09.882Z</time></trkpt><trkpt lat="44.36675629072082" lon="11.4561739287178"><ele>323.0</ele><time>2026-04-10T16:51:13.882Z</time></trkpt><trkpt lat="44.36682517912591" lon="11.45617368033511"><ele>323.0</ele><time>2026-04-10T16:51:17.882Z</time></trkpt><trkpt lat="44.36689674579712" lon="11.456153372333056"><ele>323.0</ele><time>2026-04-10T16:51:21.882Z</time></trkpt><trkpt lat="44.366980265052284" lon="11.456145377228795"><ele>323.0</ele><time>2026-04-10T16:51:25.882Z</time></trkpt><trkpt lat="44.36705921972231" lon="11.456125761457953"><ele>323.0</ele><time>2026-04-10T16:51:29.882Z</time></trkpt><trkpt lat="44.36713915730983" lon="11.456097606020517"><ele>323.0</ele><time>2026-04-10T16:51:33.882Z</time></trkpt><trkpt lat="44.367216380616355" lon="11.456083571044015"><ele>323.0</ele><time>2026-04-10T16:51:37.882Z</time></trkpt><trkpt lat="44.36729671544417" lon="11.456082132366276"><ele>325.28571428571433</ele><time>2026-04-10T16:51:41.882Z</time></trkpt><trkpt lat="44.36736108511277" lon="11.456090276127384"><ele>327.57142857142856</ele><time>2026-04-10T16:51:45.882Z</time></trkpt><trkpt lat="44.367435115399736" lon="11.456104819963896"><ele>329.8571428571429</ele><time>2026-04-10T16:51:49.882Z</time></trkpt><trkpt lat="44.36750781502955" lon="11.456123415822479"><ele>332.14285714285717</ele><time>2026-04-10T16:51:53.882Z</time></trkpt><trkpt lat="44.367579063693725" lon="11.456126031870342"><ele>334.42857142857144</ele><time>2026-04-10T16:51:57.882Z</time></trkpt><trkpt lat="44.36765914917717" lon="11.456135731419824"><ele>336.7142857142857</ele><time>2026-04-10T16:52:01.882Z</time></trkpt><trkpt lat="44.36773581274467" lon="11.456140523561427"><ele>339.0</ele><time>2026-04-10T16:52:05.881Z</time></trkpt><trkpt lat="44.36779926322046" lon="11.45614621406227"><ele>339.0</ele><time>2026-04-10T16:52:08.881Z</time></trkpt><trkpt lat="44.367862647196986" lon="11.456148394151631"><ele>339.0</ele><time>2026-04-10T16:52:11.881Z</time></trkpt><trkpt lat="44.36792806273723" lon="11.456149588057933"><ele>339.0</ele><time>2026-04-10T16:52:14.881Z</time></trkpt><trkpt lat="44.367992461668884" lon="11.456137373258581"><ele>339.0</ele><time>2026-04-10T16:52:18.881Z</time></trkpt><trkpt lat="44.368069700362796" lon="11.45613616715458"><ele>339.0</ele><time>2026-04-10T16:52:22.881Z</time></trkpt><trkpt lat="44.368139229178674" lon="11.456140805482136"><ele>339.0</ele><time>2026-04-10T16:52:24.881Z</time></trkpt><trkpt lat="44.368255819413235" lon="11.456157126984895"><ele>339.2857142857143</ele><time>2026-04-10T16:52:26.881Z</time></trkpt><trkpt lat="44.368322592019155" lon="11.456158626949021"><ele>339.5714285714286</ele><time>2026-04-10T16:52:27.881Z</time></trkpt><trkpt lat="44.36839058007549" lon="11.456196207139005"><ele>339.8571428571429</ele><time>2026-04-10T16:52:28.881Z</time></trkpt><trkpt lat="44.368454618550004" lon="11.45619620714161"><ele>340.1428571428571</ele><time>2026-04-10T16:52:29.881Z</time></trkpt><trkpt lat="44.368517199047965" lon="11.456206368261158"><ele>340.42857142857144</ele><time>2026-04-10T16:52:30.881Z</time></trkpt><trkpt lat="44.36858021023979" lon="11.456217254468992"><ele>340.7142857142857</ele><time>2026-04-10T16:52:31.881Z</time></trkpt><trkpt lat="44.3686842487526" lon="11.456229435105927"><ele>341.0</ele><time>2026-04-10T16:52:33.881Z</time></trkpt><trkpt lat="44.36875786608396" lon="11.456208100883583"><ele>341.0</ele><time>2026-04-10T16:52:35.881Z</time></trkpt><trkpt lat="44.36882083423728" lon="11.456213823480287"><ele>341.0</ele><time>2026-04-10T16:52:37.881Z</time></trkpt><trkpt lat="44.36891230596287" lon="11.456245457692054"><ele>341.0</ele><time>2026-04-10T16:52:40.881Z</time></trkpt><trkpt lat="44.36900019965035" lon="11.456278207697252"><ele>341.0</ele><time>2026-04-10T16:52:43.881Z</time></trkpt><trkpt lat="44.36906179225977" lon="11.45631711969141"><ele>341.0</ele><time>2026-04-10T16:52:46.881Z</time></trkpt><trkpt lat="44.369125371741575" lon="11.456367014331262"><ele>341.0</ele><time>2026-04-10T16:52:50.881Z</time></trkpt><trkpt lat="44.36917792166569" lon="11.456421449277292"><ele>343.33333333333337</ele><time>2026-04-10T16:52:53.881Z</time></trkpt><trkpt lat="44.36924960830638" lon="11.456460272584428"><ele>345.6666666666667</ele><time>2026-04-10T16:52:56.881Z</time></trkpt><trkpt lat="44.36929863314259" lon="11.456550732579153"><ele>348.0</ele><time>2026-04-10T16:52:59.881Z</time></trkpt><trkpt lat="44.36933244534519" lon="11.45664352358001"><ele>350.3333333333333</ele><time>2026-04-10T16:53:02.882Z</time></trkpt><trkpt lat="44.36936178911461" lon="11.456748851239679"><ele>352.66666666666663</ele><time>2026-04-10T16:53:05.882Z</time></trkpt><trkpt lat="44.36939815056881" lon="11.456855439290687"><ele>355.0</ele><time>2026-04-10T16:53:08.883Z</time></trkpt><trkpt lat="44.36943577453587" lon="11.456950589497657"><ele>355.0</ele><time>2026-04-10T16:53:11.882Z</time></trkpt><trkpt lat="44.369483408020486" lon="11.457047155311637"><ele>355.0</ele><time>2026-04-10T16:53:14.882Z</time></trkpt><trkpt lat="44.36953226537251" lon="11.457135671830066"><ele>355.0</ele><time>2026-04-10T16:53:17.882Z</time></trkpt><trkpt lat="44.36958924087974" lon="11.45722076758058"><ele>355.0</ele><time>2026-04-10T16:53:20.882Z</time></trkpt><trkpt lat="44.369659622354234" lon="11.457287164365026"><ele>355.0</ele><time>2026-04-10T16:53:23.882Z</time></trkpt><trkpt lat="44.36973844581707" lon="11.45732927265775"><ele>355.0</ele><time>2026-04-10T16:53:26.882Z</time></trkpt><trkpt lat="44.36982106303673" lon="11.457371319306358"><ele>356.0</ele><time>2026-04-10T16:53:29.882Z</time></trkpt><trkpt lat="44.36990483705385" lon="11.457398103259006"><ele>357.0</ele><time>2026-04-10T16:53:32.882Z</time></trkpt><trkpt lat="44.36999273499212" lon="11.457434346555033"><ele>358.0</ele><time>2026-04-10T16:53:35.882Z</time></trkpt><trkpt lat="44.370058862524054" lon="11.45746444829504"><ele>359.0</ele><time>2026-04-10T16:53:37.882Z</time></trkpt><trkpt lat="44.37012685323411" lon="11.457501871032026"><ele>360.0</ele><time>2026-04-10T16:53:39.882Z</time></trkpt><trkpt lat="44.3701984970908" lon="11.457536482757531"><ele>361.0</ele><time>2026-04-10T16:53:41.882Z</time></trkpt><trkpt lat="44.3702761627659" lon="11.457567743334144"><ele>361.0</ele><time>2026-04-10T16:53:43.882Z</time></trkpt><trkpt lat="44.37035888567091" lon="11.457594853172427"><ele>361.0</ele><time>2026-04-10T16:53:45.882Z</time></trkpt><trkpt lat="44.37044385316278" lon="11.457599681964567"><ele>361.0</ele><time>2026-04-10T16:53:47.882Z</time></trkpt><trkpt lat="44.370533869989615" lon="11.457617332414628"><ele>361.0</ele><time>2026-04-10T16:53:49.882Z</time></trkpt><trkpt lat="44.370615995148995" lon="11.457638899660079"><ele>361.0</ele><time>2026-04-10T16:53:51.882Z</time></trkpt><trkpt lat="44.37069202823844" lon="11.457645849928939"><ele>361.0</ele><time>2026-04-10T16:53:53.882Z</time></trkpt><trkpt lat="44.37077297546734" lon="11.457643554956991"><ele>361.0</ele><time>2026-04-10T16:53:55.882Z</time></trkpt><trkpt lat="44.370855062867896" lon="11.457633761339883"><ele>361.0</ele><time>2026-04-10T16:53:57.882Z</time></trkpt><trkpt lat="44.370933627793654" lon="11.457617328800067"><ele>361.0</ele><time>2026-04-10T16:53:59.882Z</time></trkpt><trkpt lat="44.3710141956679" lon="11.457594958183995"><ele>361.0</ele><time>2026-04-10T16:54:01.882Z</time></trkpt><trkpt lat="44.37108272117408" lon="11.457582777964465"><ele>361.0</ele><time>2026-04-10T16:54:03.882Z</time></trkpt><trkpt lat="44.3711477601757" lon="11.457588290218535"><ele>361.0</ele><time>2026-04-10T16:54:06.882Z</time></trkpt><trkpt lat="44.371233487402336" lon="11.45758749389149"><ele>361.0</ele><time>2026-04-10T16:54:09.882Z</time></trkpt><trkpt lat="44.371300454359556" lon="11.457600596662223"><ele>361.0</ele><time>2026-04-10T16:54:11.882Z</time></trkpt><trkpt lat="44.371374354853884" lon="11.457597282180156"><ele>361.0</ele><time>2026-04-10T16:54:13.881Z</time></trkpt><trkpt lat="44.37145772024132" lon="11.457585505522651"><ele>361.0</ele><time>2026-04-10T16:54:15.881Z</time></trkpt><trkpt lat="44.37154592559684" lon="11.457575246033372"><ele>361.0</ele><time>2026-04-10T16:54:17.881Z</time></trkpt><trkpt lat="44.37162935547522" lon="11.457558105288468"><ele>361.0</ele><time>2026-04-10T16:54:19.881Z</time></trkpt><trkpt lat="44.371698914922035" lon="11.457541161428187"><ele>361.66666666666663</ele><time>2026-04-10T16:54:21.881Z</time></trkpt><trkpt lat="44.37178780559993" lon="11.457498305587718"><ele>362.3333333333333</ele><time>2026-04-10T16:54:24.881Z</time></trkpt><trkpt lat="44.37187058378373" lon="11.457471980742445"><ele>363.0</ele><time>2026-04-10T16:54:27.881Z</time></trkpt><trkpt lat="44.371935545278895" lon="11.457467810368735"><ele>363.6666666666667</ele><time>2026-04-10T16:54:29.881Z</time></trkpt><trkpt lat="44.372009441063355" lon="11.457480246718639"><ele>364.33333333333337</ele><time>2026-04-10T16:54:31.881Z</time></trkpt><trkpt lat="44.37208559820161" lon="11.457528655016633"><ele>365.0</ele><time>2026-04-10T16:54:33.881Z</time></trkpt><trkpt lat="44.37216604844244" lon="11.457584725619444"><ele>364.0</ele><time>2026-04-10T16:54:35.881Z</time></trkpt><trkpt lat="44.37226265340398" lon="11.457626276691402"><ele>363.0</ele><time>2026-04-10T16:54:37.881Z</time></trkpt><trkpt lat="44.37236231292963" lon="11.457671019852105"><ele>362.0</ele><time>2026-04-10T16:54:39.881Z</time></trkpt><trkpt lat="44.37245605204807" lon="11.457760784434129"><ele>361.0</ele><time>2026-04-10T16:54:41.881Z</time></trkpt><trkpt lat="44.37254447339821" lon="11.457825587172087"><ele>360.0</ele><time>2026-04-10T16:54:43.881Z</time></trkpt><trkpt lat="44.37261741830767" lon="11.457911250542766"><ele>360.0</ele><time>2026-04-10T16:54:45.881Z</time></trkpt><trkpt lat="44.372675474982834" lon="11.45802601205119"><ele>360.0</ele><time>2026-04-10T16:54:47.881Z</time></trkpt><trkpt lat="44.37272029069203" lon="11.458146115972506"><ele>360.0</ele><time>2026-04-10T16:54:49.881Z</time></trkpt><trkpt lat="44.3727704125545" lon="11.45825173364587"><ele>360.0</ele><time>2026-04-10T16:54:51.881Z</time></trkpt><trkpt lat="44.372861602059544" lon="11.458249148019913"><ele>360.0</ele><time>2026-04-10T16:54:53.881Z</time></trkpt><trkpt lat="44.37293072069933" lon="11.458222139008136"><ele>360.0</ele><time>2026-04-10T16:54:55.881Z</time></trkpt><trkpt lat="44.37301380909453" lon="11.458200842455225"><ele>360.0</ele><time>2026-04-10T16:54:57.881Z</time></trkpt><trkpt lat="44.373112555552744" lon="11.458197220899"><ele>360.0</ele><time>2026-04-10T16:54:59.881Z</time></trkpt><trkpt lat="44.373230184195904" lon="11.458152776638327"><ele>360.0</ele><time>2026-04-10T16:55:01.881Z</time></trkpt><trkpt lat="44.37328929058844" lon="11.458096944937166"><ele>360.0</ele><time>2026-04-10T16:55:02.881Z</time></trkpt><trkpt lat="44.37335050810228" lon="11.45801943577948"><ele>358.5</ele><time>2026-04-10T16:55:03.881Z</time></trkpt><trkpt lat="44.37340099376658" lon="11.457922085360957"><ele>357.0</ele><time>2026-04-10T16:55:04.881Z</time></trkpt><trkpt lat="44.3734789268321" lon="11.45785418266016"><ele>355.5</ele><time>2026-04-10T16:55:05.881Z</time></trkpt><trkpt lat="44.37354391389509" lon="11.457773111659428"><ele>354.0</ele><time>2026-04-10T16:55:06.881Z</time></trkpt><trkpt lat="44.37360681249787" lon="11.457711813140598"><ele>352.5</ele><time>2026-04-10T16:55:07.883Z</time></trkpt><trkpt lat="44.3736793381526" lon="11.457677603067616"><ele>351.0</ele><time>2026-04-10T16:55:08.883Z</time></trkpt><trkpt lat="44.373758107347534" lon="11.457630991385118"><ele>351.0</ele><time>2026-04-10T16:55:09.883Z</time></trkpt><trkpt lat="44.37384471308804" lon="11.457568087368779"><ele>351.0</ele><time>2026-04-10T16:55:10.882Z</time></trkpt><trkpt lat="44.373934609613535" lon="11.45749530513655"><ele>351.0</ele><time>2026-04-10T16:55:11.882Z</time></trkpt><trkpt lat="44.374032711511305" lon="11.457415879367902"><ele>351.0</ele><time>2026-04-10T16:55:12.882Z</time></trkpt><trkpt lat="44.37413044488681" lon="11.457336752423501"><ele>351.0</ele><time>2026-04-10T16:55:13.882Z</time></trkpt><trkpt lat="44.37423032278549" lon="11.457255888609225"><ele>348.8</ele><time>2026-04-10T16:55:14.882Z</time></trkpt><trkpt lat="44.37432230528645" lon="11.457178359091273"><ele>346.6</ele><time>2026-04-10T16:55:15.882Z</time></trkpt><trkpt lat="44.37440650319906" lon="11.45710640700085"><ele>344.4</ele><time>2026-04-10T16:55:16.882Z</time></trkpt><trkpt lat="44.374481828532865" lon="11.457054182365297"><ele>342.2</ele><time>2026-04-10T16:55:17.882Z</time></trkpt><trkpt lat="44.37455846280582" lon="11.457019278166063"><ele>340.0</ele><time>2026-04-10T16:55:18.882Z</time></trkpt><trkpt lat="44.37463716872827" lon="11.45700352971277"><ele>338.5</ele><time>2026-04-10T16:55:19.882Z</time></trkpt><trkpt lat="44.374715665516206" lon="11.457016131277017"><ele>337.0</ele><time>2026-04-10T16:55:20.882Z</time></trkpt><trkpt lat="44.374801807798484" lon="11.457038926736884"><ele>335.5</ele><time>2026-04-10T16:55:21.882Z</time></trkpt><trkpt lat="44.3748922214172" lon="11.457061920968309"><ele>334.0</ele><time>2026-04-10T16:55:22.882Z</time></trkpt><trkpt lat="44.37498219862816" lon="11.45708652502972"><ele>332.5</ele><time>2026-04-10T16:55:23.882Z</time></trkpt><trkpt lat="44.37507273286617" lon="11.457112900281034"><ele>331.0</ele><time>2026-04-10T16:55:24.882Z</time></trkpt><trkpt lat="44.37515545178252" lon="11.457145988204905"><ele>331.0</ele><time>2026-04-10T16:55:25.882Z</time></trkpt><trkpt lat="44.37524244491016" lon="11.457168097190953"><ele>331.0</ele><time>2026-04-10T16:55:26.882Z</time></trkpt><trkpt lat="44.37531963461767" lon="11.457150086068447"><ele>331.0</ele><time>2026-04-10T16:55:27.882Z</time></trkpt><trkpt lat="44.37540205884897" lon="11.45714557248738"><ele>331.0</ele><time>2026-04-10T16:55:28.882Z</time></trkpt><trkpt lat="44.37548029614672" lon="11.457156718921432"><ele>331.0</ele><time>2026-04-10T16:55:29.882Z</time></trkpt><trkpt lat="44.37556440343644" lon="11.45714329551122"><ele>331.0</ele><time>2026-04-10T16:55:30.882Z</time></trkpt><trkpt lat="44.37563617410863" lon="11.457109620691503"><ele>330.16666666666663</ele><time>2026-04-10T16:55:31.882Z</time></trkpt><trkpt lat="44.3757192850841" lon="11.457109533407648"><ele>329.3333333333333</ele><time>2026-04-10T16:55:32.882Z</time></trkpt><trkpt lat="44.37580177195609" lon="11.457093145021927"><ele>328.5</ele><time>2026-04-10T16:55:33.882Z</time></trkpt><trkpt lat="44.37587521319942" lon="11.457054424387527"><ele>327.6666666666667</ele><time>2026-04-10T16:55:34.882Z</time></trkpt><trkpt lat="44.37594617256788" lon="11.457035215847654"><ele>326.83333333333337</ele><time>2026-04-10T16:55:35.882Z</time></trkpt><trkpt lat="44.37600999809723" lon="11.456990825967495"><ele>326.0</ele><time>2026-04-10T16:55:36.882Z</time></trkpt><trkpt lat="44.37607525879207" lon="11.45697355878575"><ele>326.0</ele><time>2026-04-10T16:55:37.882Z</time></trkpt><trkpt lat="44.37618210559757" lon="11.456945288591669"><ele>326.0</ele><time>2026-04-10T16:55:39.882Z</time></trkpt><trkpt lat="44.37626194786097" lon="11.456913604888866"><ele>326.0</ele><time>2026-04-10T16:55:41.882Z</time></trkpt><trkpt lat="44.376349771554494" lon="11.456871851943898"><ele>326.0</ele><time>2026-04-10T16:55:43.882Z</time></trkpt><trkpt lat="44.37643500330181" lon="11.456853225453436"><ele>326.0</ele><time>2026-04-10T16:55:45.882Z</time></trkpt><trkpt lat="44.376497935689535" lon="11.456841165239961"><ele>326.0</ele><time>2026-04-10T16:55:47.882Z</time></trkpt><trkpt lat="44.37658326010032" lon="11.456814125983193"><ele>327.0</ele><time>2026-04-10T16:55:50.882Z</time></trkpt><trkpt lat="44.37667189627635" lon="11.456779445602038"><ele>328.0</ele><time>2026-04-10T16:55:53.882Z</time></trkpt><trkpt lat="44.37681116154215" lon="11.456735122167766"><ele>329.0</ele><time>2026-04-10T16:55:55.882Z</time></trkpt><trkpt lat="44.376888075899856" lon="11.456756099082977"><ele>330.0</ele><time>2026-04-10T16:55:58.882Z</time></trkpt><trkpt lat="44.376956208362905" lon="11.456785516712229"><ele>331.0</ele><time>2026-04-10T16:56:01.882Z</time></trkpt><trkpt lat="44.37704254539357" lon="11.456809196052012"><ele>331.0</ele><time>2026-04-10T16:56:05.882Z</time></trkpt><trkpt lat="44.377113551630984" lon="11.456811544875885"><ele>331.0</ele><time>2026-04-10T16:56:08.882Z</time></trkpt><trkpt lat="44.37712580862495" lon="11.45711646979475"><ele>331.0</ele><time>2026-04-10T16:56:09.882Z</time></trkpt><trkpt lat="44.37718635160871" lon="11.457168525064894"><ele>331.0</ele><time>2026-04-10T16:56:12.882Z</time></trkpt><trkpt lat="44.377235920531376" lon="11.457244507118384"><ele>331.0</ele><time>2026-04-10T16:56:15.881Z</time></trkpt><trkpt lat="44.3773115200491" lon="11.457290724725178"><ele>332.16666666666663</ele><time>2026-04-10T16:56:18.881Z</time></trkpt><trkpt lat="44.377397072691835" lon="11.45731984708697"><ele>333.3333333333333</ele><time>2026-04-10T16:56:21.881Z</time></trkpt><trkpt lat="44.37747695529866" lon="11.457288019586285"><ele>334.5</ele><time>2026-04-10T16:56:24.881Z</time></trkpt><trkpt lat="44.377566678209035" lon="11.457263698639432"><ele>335.6666666666667</ele><time>2026-04-10T16:56:27.881Z</time></trkpt><trkpt lat="44.37763534621031" lon="11.45723124809171"><ele>336.83333333333337</ele><time>2026-04-10T16:56:30.881Z</time></trkpt><trkpt lat="44.37769997253055" lon="11.457159639175421"><ele>338.0</ele><time>2026-04-10T16:56:34.881Z</time></trkpt><trkpt lat="44.37775423917639" lon="11.45708117606422"><ele>338.0</ele><time>2026-04-10T16:56:36.881Z</time></trkpt><trkpt lat="44.377835027353676" lon="11.456989006404642"><ele>338.0</ele><time>2026-04-10T16:56:38.881Z</time></trkpt><trkpt lat="44.37792083486972" lon="11.456902515868965"><ele>338.0</ele><time>2026-04-10T16:56:40.881Z</time></trkpt><trkpt lat="44.377994495066545" lon="11.456790994418922"><ele>338.0</ele><time>2026-04-10T16:56:42.881Z</time></trkpt><trkpt lat="44.37807086888132" lon="11.456681278615203"><ele>338.0</ele><time>2026-04-10T16:56:44.881Z</time></trkpt><trkpt lat="44.3781728729132" lon="11.456592100961181"><ele>338.75</ele><time>2026-04-10T16:56:46.881Z</time></trkpt><trkpt lat="44.378266620072885" lon="11.456501489334588"><ele>339.5</ele><time>2026-04-10T16:56:48.881Z</time></trkpt><trkpt lat="44.37837389295525" lon="11.456434763314952"><ele>340.25</ele><time>2026-04-10T16:56:50.881Z</time></trkpt><trkpt lat="44.37848828571039" lon="11.456394731877449"><ele>341.0</ele><time>2026-04-10T16:56:52.881Z</time></trkpt><trkpt lat="44.37859547267514" lon="11.456320761711046"><ele>341.0</ele><time>2026-04-10T16:56:54.881Z</time></trkpt><trkpt lat="44.37869298417247" lon="11.45622614999593"><ele>341.0</ele><time>2026-04-10T16:56:56.881Z</time></trkpt><trkpt lat="44.37877135264081" lon="11.456131486247699"><ele>341.0</ele><time>2026-04-10T16:56:58.881Z</time></trkpt><trkpt lat="44.378848128684915" lon="11.45607733151957"><ele>341.0</ele><time>2026-04-10T16:57:00.881Z</time></trkpt><trkpt lat="44.378920145683566" lon="11.456003991425932"><ele>341.0</ele><time>2026-04-10T16:57:02.881Z</time></trkpt><trkpt lat="44.378994062022535" lon="11.455916286511126"><ele>341.0</ele><time>2026-04-10T16:57:04.881Z</time></trkpt><trkpt lat="44.379069543429075" lon="11.455844870881203"><ele>341.0</ele><time>2026-04-10T16:57:06.881Z</time></trkpt><trkpt lat="44.37913117028898" lon="11.45575541089459"><ele>341.0</ele><time>2026-04-10T16:57:08.881Z</time></trkpt><trkpt lat="44.37919969944121" lon="11.45568164872201"><ele>341.0</ele><time>2026-04-10T16:57:10.881Z</time></trkpt><trkpt lat="44.37927187920121" lon="11.455603643881565"><ele>341.0</ele><time>2026-04-10T16:57:12.881Z</time></trkpt><trkpt lat="44.3793371567608" lon="11.455545914178096"><ele>341.0</ele><time>2026-04-10T16:57:14.882Z</time></trkpt><trkpt lat="44.379393686217625" lon="11.455483394237337"><ele>340.6666666666667</ele><time>2026-04-10T16:57:16.882Z</time></trkpt><trkpt lat="44.3794675453402" lon="11.455407626540744"><ele>340.33333333333337</ele><time>2026-04-10T16:57:19.882Z</time></trkpt><trkpt lat="44.37953860062337" lon="11.455362067598404"><ele>340.0</ele><time>2026-04-10T16:57:22.882Z</time></trkpt><trkpt lat="44.37961895660051" lon="11.455327392706614"><ele>339.6666666666667</ele><time>2026-04-10T16:57:25.882Z</time></trkpt><trkpt lat="44.379683397066856" lon="11.455282122952994"><ele>339.3333333333333</ele><time>2026-04-10T16:57:28.882Z</time></trkpt><trkpt lat="44.37974741842794" lon="11.455235159850327"><ele>339.0</ele><time>2026-04-10T16:57:31.882Z</time></trkpt><trkpt lat="44.379810590905265" lon="11.455189959163576"><ele>341.0</ele><time>2026-04-10T16:57:34.882Z</time></trkpt><trkpt lat="44.37988074097816" lon="11.455147539796465"><ele>343.0</ele><time>2026-04-10T16:57:37.882Z</time></trkpt><trkpt lat="44.3799435871421" lon="11.455099465970285"><ele>345.0</ele><time>2026-04-10T16:57:40.882Z</time></trkpt><trkpt lat="44.380002001670725" lon="11.455054531275579"><ele>347.0</ele><time>2026-04-10T16:57:43.882Z</time></trkpt><trkpt lat="44.38007583632128" lon="11.45500315696539"><ele>349.0</ele><time>2026-04-10T16:57:47.882Z</time></trkpt><trkpt lat="44.380138645368355" lon="11.454970321327684"><ele>351.0</ele><time>2026-04-10T16:57:50.882Z</time></trkpt><trkpt lat="44.380215872643674" lon="11.45495346943992"><ele>353.0</ele><time>2026-04-10T16:57:53.882Z</time></trkpt><trkpt lat="44.38030198100283" lon="11.45493361604678"><ele>353.0</ele><time>2026-04-10T16:57:56.882Z</time></trkpt><trkpt lat="44.380381615829485" lon="11.454904780114102"><ele>353.0</ele><time>2026-04-10T16:57:59.882Z</time></trkpt><trkpt lat="44.38046941846555" lon="11.454867765241481"><ele>353.0</ele><time>2026-04-10T16:58:02.882Z</time></trkpt><trkpt lat="44.38055974964416" lon="11.454827307692897"><ele>353.0</ele><time>2026-04-10T16:58:05.882Z</time></trkpt><trkpt lat="44.380623816859284" lon="11.454797486651579"><ele>353.0</ele><time>2026-04-10T16:58:07.882Z</time></trkpt><trkpt lat="44.38070823378314" lon="11.454762097544572"><ele>353.0</ele><time>2026-04-10T16:58:10.881Z</time></trkpt><trkpt lat="44.38076674614194" lon="11.454728698175927"><ele>353.1666666666667</ele><time>2026-04-10T16:58:12.881Z</time></trkpt><trkpt lat="44.38085118112841" lon="11.454688800428617"><ele>353.33333333333337</ele><time>2026-04-10T16:58:15.881Z</time></trkpt><trkpt lat="44.38091200239557" lon="11.454653209085963"><ele>353.5</ele><time>2026-04-10T16:58:17.881Z</time></trkpt><trkpt lat="44.381000275063485" lon="11.454615235006735"><ele>353.6666666666667</ele><time>2026-04-10T16:58:20.881Z</time></trkpt><trkpt lat="44.381085955284085" lon="11.454570699295832"><ele>353.8333333333333</ele><time>2026-04-10T16:58:23.881Z</time></trkpt><trkpt lat="44.38117298662999" lon="11.45451535607925"><ele>354.0</ele><time>2026-04-10T16:58:26.881Z</time></trkpt><trkpt lat="44.38123484256337" lon="11.45448980767052"><ele>354.8333333333333</ele><time>2026-04-10T16:58:28.881Z</time></trkpt><trkpt lat="44.381311666754165" lon="11.454427731795304"><ele>355.6666666666667</ele><time>2026-04-10T16:58:31.881Z</time></trkpt><trkpt lat="44.38136333398084" lon="11.454377364669245"><ele>356.5</ele><time>2026-04-10T16:58:33.881Z</time></trkpt><trkpt lat="44.381440411782876" lon="11.45431930923004"><ele>357.33333333333337</ele><time>2026-04-10T16:58:36.881Z</time></trkpt><trkpt lat="44.38151772349389" lon="11.454244635563553"><ele>358.1666666666667</ele><time>2026-04-10T16:58:39.881Z</time></trkpt><trkpt lat="44.381571798841584" lon="11.454196281814417"><ele>359.0</ele><time>2026-04-10T16:58:41.881Z</time></trkpt><trkpt lat="44.381653277850305" lon="11.45413583868698"><ele>359.0</ele><time>2026-04-10T16:58:44.881Z</time></trkpt><trkpt lat="44.38172612038985" lon="11.45406653423663"><ele>359.0</ele><time>2026-04-10T16:58:47.881Z</time></trkpt><trkpt lat="44.381777484706795" lon="11.454002628672107"><ele>359.0</ele><time>2026-04-10T16:58:50.881Z</time></trkpt><trkpt lat="44.381860148141634" lon="11.453954822386137"><ele>359.0</ele><time>2026-04-10T16:58:53.881Z</time></trkpt><trkpt lat="44.38193074572143" lon="11.4539117776569"><ele>359.0</ele><time>2026-04-10T16:58:56.881Z</time></trkpt><trkpt lat="44.38199681911917" lon="11.453877832973715"><ele>359.0</ele><time>2026-04-10T16:58:59.881Z</time></trkpt><trkpt lat="44.38206010864491" lon="11.4538269035567"><ele>358.57142857142856</ele><time>2026-04-10T16:59:02.881Z</time></trkpt><trkpt lat="44.38212510274351" lon="11.45377345249692"><ele>358.14285714285717</ele><time>2026-04-10T16:59:05.881Z</time></trkpt><trkpt lat="44.382184774424324" lon="11.45372554407956"><ele>357.71428571428567</ele><time>2026-04-10T16:59:08.881Z</time></trkpt><trkpt lat="44.382234972035526" lon="11.453667975394252"><ele>357.2857142857143</ele><time>2026-04-10T16:59:11.881Z</time></trkpt><trkpt lat="44.38230887331964" lon="11.453629041380763"><ele>356.85714285714283</ele><time>2026-04-10T16:59:15.88Z</time></trkpt><trkpt lat="44.38236591873811" lon="11.453577525279774"><ele>356.4285714285714</ele><time>2026-04-10T16:59:18.88Z</time></trkpt><trkpt lat="44.38242771813914" lon="11.453518300456803"><ele>356.0</ele><time>2026-04-10T16:59:22.882Z</time></trkpt><trkpt lat="44.38248019615812" lon="11.453463538727124"><ele>355.6</ele><time>2026-04-10T16:59:25.881Z</time></trkpt><trkpt lat="44.38250218201898" lon="11.453562351529474"><ele>355.20000000000005</ele><time>2026-04-10T17:00:21.889Z</time></trkpt><trkpt lat="44.38254584726208" lon="11.453664997146701"><ele>354.79999999999995</ele><time>2026-04-10T17:00:24.893Z</time></trkpt><trkpt lat="44.38262940129978" lon="11.453791299175936"><ele>354.4</ele><time>2026-04-10T17:00:26.896Z</time></trkpt><trkpt lat="44.38273966918648" lon="11.453891620460569"><ele>354.0</ele><time>2026-04-10T17:00:28.898Z</time></trkpt><trkpt lat="44.38280750905876" lon="11.454009321607977"><ele>354.0</ele><time>2026-04-10T17:00:30.9Z</time></trkpt><trkpt lat="44.3828723606428" lon="11.454104832037453"><ele>354.0</ele><time>2026-04-10T17:00:32.902Z</time></trkpt><trkpt lat="44.382936723351136" lon="11.454209487486485"><ele>354.0</ele><time>2026-04-10T17:00:34.903Z</time></trkpt><trkpt lat="44.38298708363026" lon="11.454290137445962"><ele>354.0</ele><time>2026-04-10T17:00:35.904Z</time></trkpt><trkpt lat="44.38304327748847" lon="11.454376552093352"><ele>354.0</ele><time>2026-04-10T17:00:37.905Z</time></trkpt><trkpt lat="44.38308700923235" lon="11.454477021376444"><ele>354.0</ele><time>2026-04-10T17:00:41.907Z</time></trkpt><trkpt lat="44.38312194215095" lon="11.454573583657506"><ele>349.3333333333333</ele><time>2026-04-10T17:00:43.908Z</time></trkpt><trkpt lat="44.3831706606231" lon="11.454663569331805"><ele>344.6666666666667</ele><time>2026-04-10T17:00:45.908Z</time></trkpt><trkpt lat="44.38320386329702" lon="11.454746092594236"><ele>340.0</ele><time>2026-04-10T17:00:47.909Z</time></trkpt><trkpt lat="44.3832458217508" lon="11.454831582991991"><ele>335.33333333333337</ele><time>2026-04-10T17:00:50.91Z</time></trkpt><trkpt lat="44.383223964632116" lon="11.454938352621795"><ele>330.6666666666667</ele><time>2026-04-10T17:00:53.911Z</time></trkpt><trkpt lat="44.38325946294004" lon="11.45504470880047"><ele>326.0</ele><time>2026-04-10T17:00:56.911Z</time></trkpt><trkpt lat="44.38330934918957" lon="11.455134637842239"><ele>326.0</ele><time>2026-04-10T17:00:58.911Z</time></trkpt><trkpt lat="44.38335975903617" lon="11.455211691516782"><ele>326.0</ele><time>2026-04-10T17:01:00.912Z</time></trkpt><trkpt lat="44.383425996658715" lon="11.455266518362606"><ele>326.0</ele><time>2026-04-10T17:01:02.912Z</time></trkpt><trkpt lat="44.38346714496121" lon="11.455358411460859"><ele>326.0</ele><time>2026-04-10T17:01:05.912Z</time></trkpt><trkpt lat="44.38349770251084" lon="11.455459068060625"><ele>326.0</ele><time>2026-04-10T17:01:08.912Z</time></trkpt><trkpt lat="44.38353947439276" lon="11.455541073730354"><ele>326.0</ele><time>2026-04-10T17:01:10.913Z</time></trkpt><trkpt lat="44.38361084920799" lon="11.455611160187258"><ele>322.0</ele><time>2026-04-10T17:01:13.913Z</time></trkpt><trkpt lat="44.38363535771001" lon="11.455806111109203"><ele>318.0</ele><time>2026-04-10T17:02:24.915Z</time></trkpt><trkpt lat="44.38366780075946" lon="11.455917795906316"><ele>314.0</ele><time>2026-04-10T17:02:28.915Z</time></trkpt><trkpt lat="44.38368550386899" lon="11.45600246953883"><ele>310.0</ele><time>2026-04-10T17:02:30.915Z</time></trkpt><trkpt lat="44.38370104440109" lon="11.456118411052028"><ele>306.0</ele><time>2026-04-10T17:02:32.915Z</time></trkpt><trkpt lat="44.383755072770775" lon="11.456203473202148"><ele>302.3333333333333</ele><time>2026-04-10T17:02:34.915Z</time></trkpt><trkpt lat="44.38377146471256" lon="11.456304089741355"><ele>298.6666666666667</ele><time>2026-04-10T17:02:36.915Z</time></trkpt><trkpt lat="44.38378751617656" lon="11.456407054273164"><ele>295.0</ele><time>2026-04-10T17:02:38.915Z</time></trkpt><trkpt lat="44.38381950662405" lon="11.456522596617532"><ele>291.33333333333337</ele><time>2026-04-10T17:02:40.915Z</time></trkpt><trkpt lat="44.383831950995834" lon="11.456616824177617"><ele>287.6666666666667</ele><time>2026-04-10T17:02:42.915Z</time></trkpt><trkpt lat="44.383868713574785" lon="11.456712871241177"><ele>284.0</ele><time>2026-04-10T17:02:45.915Z</time></trkpt><trkpt lat="44.383932937224344" lon="11.456798276860217"><ele>284.0</ele><time>2026-04-10T17:02:48.915Z</time></trkpt><trkpt lat="44.383986626786104" lon="11.456905826556769"><ele>284.0</ele><time>2026-04-10T17:02:50.915Z</time></trkpt><trkpt lat="44.384015938730066" lon="11.457043457137816"><ele>284.0</ele><time>2026-04-10T17:02:52.915Z</time></trkpt><trkpt lat="44.38401457777616" lon="11.457136838968367"><ele>284.0</ele><time>2026-04-10T17:02:55.915Z</time></trkpt><trkpt lat="44.38404562056891" lon="11.457266282506183"><ele>284.0</ele><time>2026-04-10T17:02:57.915Z</time></trkpt><trkpt lat="44.384038577927264" lon="11.457428122829317"><ele>282.6666666666667</ele><time>2026-04-10T17:02:59.915Z</time></trkpt><trkpt lat="44.38407234485348" lon="11.457554855621572"><ele>281.33333333333337</ele><time>2026-04-10T17:03:01.915Z</time></trkpt><trkpt lat="44.38406776411811" lon="11.45768001479247"><ele>280.0</ele><time>2026-04-10T17:03:03.915Z</time></trkpt><trkpt lat="44.384082032632236" lon="11.45778930137052"><ele>278.6666666666667</ele><time>2026-04-10T17:03:07.915Z</time></trkpt><trkpt lat="44.38409455039152" lon="11.457888451965252"><ele>277.3333333333333</ele><time>2026-04-10T17:03:09.915Z</time></trkpt><trkpt lat="44.384134552711004" lon="11.457973629837614"><ele>276.0</ele><time>2026-04-10T17:03:11.915Z</time></trkpt><trkpt lat="44.3841595592618" lon="11.458056773020623"><ele>275.3333333333333</ele><time>2026-04-10T17:03:13.914Z</time></trkpt><trkpt lat="44.38420683751456" lon="11.458170296499336"><ele>274.6666666666667</ele><time>2026-04-10T17:03:15.914Z</time></trkpt><trkpt lat="44.38427385963984" lon="11.458282145959851"><ele>274.0</ele><time>2026-04-10T17:03:17.914Z</time></trkpt><trkpt lat="44.384333639833514" lon="11.45835734103987"><ele>273.33333333333337</ele><time>2026-04-10T17:03:19.914Z</time></trkpt><trkpt lat="44.38435141835636" lon="11.45847334302364"><ele>272.6666666666667</ele><time>2026-04-10T17:03:21.914Z</time></trkpt><trkpt lat="44.38434971337574" lon="11.458572395580353"><ele>272.0</ele><time>2026-04-10T17:03:23.914Z</time></trkpt><trkpt lat="44.384398562263975" lon="11.458672479072675"><ele>272.0</ele><time>2026-04-10T17:03:26.914Z</time></trkpt><trkpt lat="44.38435122272674" lon="11.458746190044605"><ele>272.0</ele><time>2026-04-10T17:03:28.914Z</time></trkpt><trkpt lat="44.384372696540126" lon="11.458843589431801"><ele>272.0</ele><time>2026-04-10T17:03:30.914Z</time></trkpt><trkpt lat="44.384424025208816" lon="11.458976461509696"><ele>272.0</ele><time>2026-04-10T17:03:32.917Z</time></trkpt><trkpt lat="44.38446467219271" lon="11.459044994977395"><ele>272.0</ele><time>2026-04-10T17:03:33.917Z</time></trkpt><trkpt lat="44.38451982178135" lon="11.45912298957464"><ele>272.0</ele><time>2026-04-10T17:03:34.917Z</time></trkpt><trkpt lat="44.384564764195645" lon="11.459257181763745"><ele>269.2</ele><time>2026-04-10T17:03:36.917Z</time></trkpt><trkpt lat="44.38460883564864" lon="11.45938339887486"><ele>266.4</ele><time>2026-04-10T17:03:38.916Z</time></trkpt><trkpt lat="44.38466080970845" lon="11.459451752524915"><ele>263.6</ele><time>2026-04-10T17:03:39.916Z</time></trkpt><trkpt lat="44.38470036892511" lon="11.459546454338316"><ele>260.8</ele><time>2026-04-10T17:03:40.917Z</time></trkpt><trkpt lat="44.384730588746656" lon="11.45964260445432"><ele>258.0</ele><time>2026-04-10T17:03:41.917Z</time></trkpt><trkpt lat="44.38478829976887" lon="11.459808450150915"><ele>257.3333333333333</ele><time>2026-04-10T17:03:43.916Z</time></trkpt><trkpt lat="44.38481536669189" lon="11.459907202870937"><ele>256.6666666666667</ele><time>2026-04-10T17:03:44.916Z</time></trkpt><trkpt lat="44.38485946923666" lon="11.460032015928007"><ele>256.0</ele><time>2026-04-10T17:03:46.916Z</time></trkpt><trkpt lat="44.38491634461055" lon="11.460107837938265"><ele>255.33333333333334</ele><time>2026-04-10T17:03:48.916Z</time></trkpt><trkpt lat="44.384935911774775" lon="11.460231222907945"><ele>254.66666666666669</ele><time>2026-04-10T17:03:50.916Z</time></trkpt><trkpt lat="44.38495689662834" lon="11.46037271743209"><ele>254.0</ele><time>2026-04-10T17:03:52.916Z</time></trkpt><trkpt lat="44.38497307052066" lon="11.460500580996861"><ele>251.83333333333334</ele><time>2026-04-10T17:03:54.916Z</time></trkpt><trkpt lat="44.384949590854454" lon="11.460647404666728"><ele>249.66666666666669</ele><time>2026-04-10T17:03:56.916Z</time></trkpt><trkpt lat="44.38492684192452" lon="11.460736238125714"><ele>247.5</ele><time>2026-04-10T17:03:57.916Z</time></trkpt><trkpt lat="44.384928162020614" lon="11.460829099756534"><ele>245.33333333333331</ele><time>2026-04-10T17:03:58.916Z</time></trkpt><trkpt lat="44.384940543320035" lon="11.460917198320129"><ele>243.16666666666666</ele><time>2026-04-10T17:03:59.916Z</time></trkpt><trkpt lat="44.38495512890722" lon="11.461090586730199"><ele>241.0</ele><time>2026-04-10T17:04:01.916Z</time></trkpt><trkpt lat="44.38495138090271" lon="11.461182341829744"><ele>240.99999999999997</ele><time>2026-04-10T17:04:02.916Z</time></trkpt><trkpt lat="44.3849556968113" lon="11.461277367029913"><ele>241.0</ele><time>2026-04-10T17:04:03.916Z</time></trkpt><trkpt lat="44.384948404160866" lon="11.46137586458527"><ele>241.0</ele><time>2026-04-10T17:04:05.916Z</time></trkpt><trkpt lat="44.38499281553158" lon="11.461444010558225"><ele>241.0</ele><time>2026-04-10T17:04:10.916Z</time></trkpt><trkpt lat="44.38500480270619" lon="11.461614658129733"><ele>240.99999999999997</ele><time>2026-04-10T17:04:12.916Z</time></trkpt><trkpt lat="44.385021138063394" lon="11.46173056656963"><ele>241.0</ele><time>2026-04-10T17:04:13.916Z</time></trkpt><trkpt lat="44.385036694038774" lon="11.461828257596995"><ele>239.49999999999997</ele><time>2026-04-10T17:04:14.916Z</time></trkpt><trkpt lat="44.38504229396656" lon="11.461974785560308"><ele>238.0</ele><time>2026-04-10T17:04:16.916Z</time></trkpt><trkpt lat="44.384997531669256" lon="11.462116894790986"><ele>236.5</ele><time>2026-04-10T17:04:18.916Z</time></trkpt><trkpt lat="44.38497618409532" lon="11.462239909004342"><ele>235.0</ele><time>2026-04-10T17:04:20.916Z</time></trkpt><trkpt lat="44.384955440540544" lon="11.462334888664232"><ele>233.49999999999997</ele><time>2026-04-10T17:04:24.916Z</time></trkpt><trkpt lat="44.38494016657883" lon="11.462420987912859"><ele>232.0</ele><time>2026-04-10T17:04:28.916Z</time></trkpt><trkpt lat="44.38494363809653" lon="11.462527141200061"><ele>231.16666666666666</ele><time>2026-04-10T17:04:31.916Z</time></trkpt><trkpt lat="44.3849913681569" lon="11.46264192497087"><ele>230.33333333333331</ele><time>2026-04-10T17:04:33.916Z</time></trkpt><trkpt lat="44.38499121882074" lon="11.462777193383193"><ele>229.5</ele><time>2026-04-10T17:04:36.916Z</time></trkpt><trkpt lat="44.38500098935155" lon="11.462887577695923"><ele>228.66666666666669</ele><time>2026-04-10T17:04:38.916Z</time></trkpt><trkpt lat="44.384993213377925" lon="11.462979517804031"><ele>227.83333333333334</ele><time>2026-04-10T17:04:40.916Z</time></trkpt><trkpt lat="44.384985854316426" lon="11.463081111524899"><ele>227.0</ele><time>2026-04-10T17:04:42.916Z</time></trkpt><trkpt lat="44.38493957002158" lon="11.463226634685109"><ele>225.33333333333334</ele><time>2026-04-10T17:04:45.916Z</time></trkpt><trkpt lat="44.38489162558816" lon="11.463288203435468"><ele>223.66666666666669</ele><time>2026-04-10T17:04:46.916Z</time></trkpt><trkpt lat="44.38485353795665" lon="11.463368907073718"><ele>222.0</ele><time>2026-04-10T17:04:47.916Z</time></trkpt><trkpt lat="44.38483285961841" lon="11.463460213419568"><ele>220.33333333333331</ele><time>2026-04-10T17:04:48.916Z</time></trkpt><trkpt lat="44.384796254762" lon="11.463534334277563"><ele>218.66666666666666</ele><time>2026-04-10T17:04:49.916Z</time></trkpt><trkpt lat="44.38475257403851" lon="11.463700592253014"><ele>217.0</ele><time>2026-04-10T17:04:51.916Z</time></trkpt><trkpt lat="44.384745291757525" lon="11.46379188185251"><ele>216.39999999999998</ele><time>2026-04-10T17:04:52.916Z</time></trkpt><trkpt lat="44.3847338691368" lon="11.463909360273123"><ele>215.79999999999998</ele><time>2026-04-10T17:04:54.916Z</time></trkpt><trkpt lat="44.38470779061241" lon="11.464012125713529"><ele>215.2</ele><time>2026-04-10T17:04:56.916Z</time></trkpt><trkpt lat="44.38471430379892" lon="11.464135069321257"><ele>214.6</ele><time>2026-04-10T17:04:58.916Z</time></trkpt><trkpt lat="44.384766659238664" lon="11.464252275362156"><ele>214.0</ele><time>2026-04-10T17:05:00.916Z</time></trkpt><trkpt lat="44.38484434842641" lon="11.464384631368665"><ele>214.0</ele><time>2026-04-10T17:05:02.916Z</time></trkpt><trkpt lat="44.38488965704159" lon="11.464461567702944"><ele>213.99999999999997</ele><time>2026-04-10T17:05:03.916Z</time></trkpt><trkpt lat="44.38494390393925" lon="11.46451115490505"><ele>213.99999999999997</ele><time>2026-04-10T17:05:04.916Z</time></trkpt><trkpt lat="44.38503373241603" lon="11.464637024531498"><ele>214.0</ele><time>2026-04-10T17:05:06.916Z</time></trkpt><trkpt lat="44.38507342366629" lon="11.464755995816743"><ele>214.0</ele><time>2026-04-10T17:05:08.916Z</time></trkpt><trkpt lat="44.385158353133875" lon="11.464843575629343"><ele>213.66666666666666</ele><time>2026-04-10T17:05:10.916Z</time></trkpt><trkpt lat="44.38520742420841" lon="11.464920047784933"><ele>213.33333333333331</ele><time>2026-04-10T17:05:11.916Z</time></trkpt><trkpt lat="44.385260752868234" lon="11.46499574664057"><ele>213.0</ele><time>2026-04-10T17:05:12.916Z</time></trkpt><trkpt lat="44.38532134389458" lon="11.46510650491383"><ele>212.66666666666669</ele><time>2026-04-10T17:05:14.915Z</time></trkpt><trkpt lat="44.38537987134406" lon="11.465181648935378"><ele>212.33333333333334</ele><time>2026-04-10T17:05:19.915Z</time></trkpt><trkpt lat="44.385413273504575" lon="11.465271402698452"><ele>212.0</ele><time>2026-04-10T17:05:23.915Z</time></trkpt><trkpt lat="44.385438161946425" lon="11.465368847753005"><ele>212.00000000000003</ele><time>2026-04-10T17:05:26.915Z</time></trkpt><trkpt lat="44.38548166629836" lon="11.46543615772505"><ele>212.0</ele><time>2026-04-10T17:05:29.915Z</time></trkpt><trkpt lat="44.38554089752188" lon="11.465508440314462"><ele>212.0</ele><time>2026-04-10T17:05:33.915Z</time></trkpt><trkpt lat="44.38553655499738" lon="11.465600176170414"><ele>212.0</ele><time>2026-04-10T17:05:37.918Z</time></trkpt><trkpt lat="44.385526556901276" lon="11.465715075103192"><ele>212.00000000000003</ele><time>2026-04-10T17:05:41.917Z</time></trkpt><trkpt lat="44.38550978125388" lon="11.465822383231702"><ele>212.0</ele><time>2026-04-10T17:05:45.917Z</time></trkpt><trkpt lat="44.385449859519326" lon="11.46589807591251"><ele>212.00000000000003</ele><time>2026-04-10T17:05:49.917Z</time></trkpt><trkpt lat="44.38541488843054" lon="11.465993573137787"><ele>212.0</ele><time>2026-04-10T17:05:52.917Z</time></trkpt><trkpt lat="44.385407816268646" lon="11.46608184638387"><ele>212.0</ele><time>2026-04-10T17:05:55.917Z</time></trkpt><trkpt lat="44.385418211207565" lon="11.466188373338168"><ele>212.0</ele><time>2026-04-10T17:05:59.917Z</time></trkpt><trkpt lat="44.385460702133926" lon="11.466284232482021"><ele>212.00000000000003</ele><time>2026-04-10T17:06:02.917Z</time></trkpt><trkpt lat="44.38552103863325" lon="11.466316877337876"><ele>212.0</ele><time>2026-04-10T17:06:04.917Z</time></trkpt><trkpt lat="44.38558434857563" lon="11.46640906464481"><ele>213.8</ele><time>2026-04-10T17:06:06.917Z</time></trkpt><trkpt lat="44.38561150326047" lon="11.466501588574799"><ele>215.6</ele><time>2026-04-10T17:06:08.917Z</time></trkpt><trkpt lat="44.38568124579417" lon="11.466608758427878"><ele>217.40000000000003</ele><time>2026-04-10T17:06:10.917Z</time></trkpt><trkpt lat="44.38574726748948" lon="11.46668830228061"><ele>219.20000000000002</ele><time>2026-04-10T17:06:12.917Z</time></trkpt><trkpt lat="44.385812493019856" lon="11.466768214767695"><ele>221.0</ele><time>2026-04-10T17:06:14.917Z</time></trkpt><trkpt lat="44.38591146304993" lon="11.466835026314772"><ele>221.00000000000003</ele><time>2026-04-10T17:06:16.917Z</time></trkpt><trkpt lat="44.38599323032041" lon="11.466908181329694"><ele>221.0</ele><time>2026-04-10T17:06:18.917Z</time></trkpt><trkpt lat="44.38607579711773" lon="11.466970335259028"><ele>221.0</ele><time>2026-04-10T17:06:21.917Z</time></trkpt><trkpt lat="44.386104387534" lon="11.467062067756709"><ele>221.0</ele><time>2026-04-10T17:06:23.917Z</time></trkpt><trkpt lat="44.386123204690875" lon="11.467183680207745"><ele>221.00000000000003</ele><time>2026-04-10T17:06:25.917Z</time></trkpt><trkpt lat="44.38618781315188" lon="11.467255030056336"><ele>221.0</ele><time>2026-04-10T17:06:27.917Z</time></trkpt><trkpt lat="44.38626713060519" lon="11.46729739841923"><ele>217.00000000000003</ele><time>2026-04-10T17:06:29.917Z</time></trkpt><trkpt lat="44.38634920122112" lon="11.467351229050456"><ele>213.0</ele><time>2026-04-10T17:06:31.917Z</time></trkpt><trkpt lat="44.38640456358677" lon="11.467443865272742"><ele>209.0</ele><time>2026-04-10T17:06:33.917Z</time></trkpt><trkpt lat="44.386458093201924" lon="11.467517271775014"><ele>205.0</ele><time>2026-04-10T17:06:35.917Z</time></trkpt><trkpt lat="44.38651397274032" lon="11.467623859579575"><ele>201.00000000000003</ele><time>2026-04-10T17:06:38.917Z</time></trkpt><trkpt lat="44.38651581850158" lon="11.4677198364609"><ele>197.0</ele><time>2026-04-10T17:06:40.917Z</time></trkpt><trkpt lat="44.38654825530566" lon="11.467828079612167"><ele>195.66666666666669</ele><time>2026-04-10T17:06:42.917Z</time></trkpt><trkpt lat="44.38658789868135" lon="11.467964896932438"><ele>194.33333333333334</ele><time>2026-04-10T17:06:44.917Z</time></trkpt><trkpt lat="44.38662160975802" lon="11.468098548126969"><ele>193.0</ele><time>2026-04-10T17:06:46.917Z</time></trkpt><trkpt lat="44.3866410755859" lon="11.4681906498638"><ele>191.66666666666669</ele><time>2026-04-10T17:06:47.917Z</time></trkpt><trkpt lat="44.386679074187334" lon="11.468279721244397"><ele>190.33333333333334</ele><time>2026-04-10T17:06:48.917Z</time></trkpt><trkpt lat="44.386706147069305" lon="11.468365241916691"><ele>189.0</ele><time>2026-04-10T17:06:49.917Z</time></trkpt><trkpt lat="44.386705284934344" lon="11.468463657623051"><ele>189.0</ele><time>2026-04-10T17:06:50.917Z</time></trkpt><trkpt lat="44.38667571305474" lon="11.468561387801076"><ele>189.0</ele><time>2026-04-10T17:06:51.917Z</time></trkpt><trkpt lat="44.38665143570281" lon="11.468715709517674"><ele>189.0</ele><time>2026-04-10T17:06:53.917Z</time></trkpt><trkpt lat="44.386678815404686" lon="11.468798988962861"><ele>189.0</ele><time>2026-04-10T17:06:55.917Z</time></trkpt><trkpt lat="44.386667212629696" lon="11.468925859857015"><ele>189.0</ele><time>2026-04-10T17:06:57.917Z</time></trkpt><trkpt lat="44.38664921411057" lon="11.46901552046884"><ele>189.0</ele><time>2026-04-10T17:06:59.917Z</time></trkpt><trkpt lat="44.38665998936433" lon="11.469130907487376"><ele>186.71428571428572</ele><time>2026-04-10T17:07:01.917Z</time></trkpt><trkpt lat="44.38665211822265" lon="11.469240466588001"><ele>184.42857142857144</ele><time>2026-04-10T17:07:03.917Z</time></trkpt><trkpt lat="44.38664752324624" lon="11.469347821462351"><ele>182.14285714285714</ele><time>2026-04-10T17:07:05.917Z</time></trkpt><trkpt lat="44.38665147028326" lon="11.469440641666349"><ele>179.85714285714286</ele><time>2026-04-10T17:08:41.917Z</time></trkpt><trkpt lat="44.38665347043313" lon="11.469541576114073"><ele>177.57142857142858</ele><time>2026-04-10T17:08:45.917Z</time></trkpt><trkpt lat="44.38672112221714" lon="11.469555956736444"><ele>175.28571428571428</ele><time>2026-04-10T17:08:55.917Z</time></trkpt><trkpt lat="44.3867800362375" lon="11.469595082635921"><ele>173.0</ele><time>2026-04-10T17:09:04.917Z</time></trkpt><trkpt lat="44.3868353161035" lon="11.469640530179628"><ele>171.2</ele><time>2026-04-10T17:09:10.917Z</time></trkpt><trkpt lat="44.38687978196962" lon="11.469721394273064"><ele>169.4</ele><time>2026-04-10T17:09:17.917Z</time></trkpt><trkpt lat="44.38690245076764" lon="11.469821045098557"><ele>167.6</ele><time>2026-04-10T17:09:24.916Z</time></trkpt><trkpt lat="44.387088093530345" lon="11.469813210112644"><ele>165.79999999999998</ele><time>2026-04-10T17:09:46.917Z</time></trkpt><trkpt lat="44.38714646134699" lon="11.469847486479363"><ele>164.0</ele><time>2026-04-10T17:09:59.919Z</time></trkpt><trkpt lat="44.38717586463765" lon="11.46992555828221"><ele>164.85714285714283</ele><time>2026-04-10T17:10:04.92Z</time></trkpt><trkpt lat="44.3872176731727" lon="11.470001374900058"><ele>165.71428571428572</ele><time>2026-04-10T17:10:14.92Z</time></trkpt><trkpt lat="44.38726798650927" lon="11.46994439432558"><ele>166.57142857142856</ele><time>2026-04-10T17:10:25.92Z</time></trkpt><trkpt lat="44.387306584880044" lon="11.469854750209004"><ele>167.42857142857142</ele><time>2026-04-10T17:10:30.92Z</time></trkpt><trkpt lat="44.387354330643475" lon="11.469774100037244"><ele>168.28571428571428</ele><time>2026-04-10T17:10:34.92Z</time></trkpt><trkpt lat="44.3874087459357" lon="11.469692838490808"><ele>169.14285714285714</ele><time>2026-04-10T17:10:38.92Z</time></trkpt><trkpt lat="44.38745185927471" lon="11.469627307789889"><ele>170.0</ele><time>2026-04-10T17:10:41.92Z</time></trkpt><trkpt lat="44.38747383202157" lon="11.46951253749272"><ele>170.0</ele><time>2026-04-10T17:10:45.92Z</time></trkpt><trkpt lat="44.38749020890422" lon="11.469420924975868"><ele>170.0</ele><time>2026-04-10T17:10:48.92Z</time></trkpt><trkpt lat="44.38750986892792" lon="11.4693139898352"><ele>170.0</ele><time>2026-04-10T17:10:52.92Z</time></trkpt><trkpt lat="44.387529122254236" lon="11.469225032483642"><ele>170.0</ele><time>2026-04-10T17:10:55.92Z</time></trkpt><trkpt lat="44.38752754638328" lon="11.4691184032863"><ele>170.0</ele><time>2026-04-10T17:10:59.92Z</time></trkpt><trkpt lat="44.38753229117282" lon="11.469024281151972"><ele>170.0</ele><time>2026-04-10T17:11:02.92Z</time></trkpt><trkpt lat="44.38754282806788" lon="11.468924202170886"><ele>170.0</ele><time>2026-04-10T17:11:05.919Z</time></trkpt><trkpt lat="44.38757941438751" lon="11.468842477717281"><ele>170.42857142857144</ele><time>2026-04-10T17:11:08.919Z</time></trkpt><trkpt lat="44.38761805793579" lon="11.468770135094639"><ele>170.85714285714283</ele><time>2026-04-10T17:11:12.919Z</time></trkpt><trkpt lat="44.38761561555479" lon="11.468671698277005"><ele>171.28571428571428</ele><time>2026-04-10T17:11:16.919Z</time></trkpt><trkpt lat="44.387592271751615" lon="11.468586910157903"><ele>171.71428571428572</ele><time>2026-04-10T17:11:19.919Z</time></trkpt><trkpt lat="44.38756996655183" lon="11.468499447908869"><ele>172.14285714285717</ele><time>2026-04-10T17:11:23.919Z</time></trkpt><trkpt lat="44.38754993454777" lon="11.468413100971159"><ele>172.57142857142856</ele><time>2026-04-10T17:11:27.919Z</time></trkpt><trkpt lat="44.38755062470736" lon="11.468317503073221"><ele>173.0</ele><time>2026-04-10T17:11:31.919Z</time></trkpt><trkpt lat="44.387566292344026" lon="11.468228031964085"><ele>173.0</ele><time>2026-04-10T17:11:35.919Z</time></trkpt><trkpt lat="44.38758225737809" lon="11.468141268708749"><ele>173.0</ele><time>2026-04-10T17:11:38.919Z</time></trkpt><trkpt lat="44.38759865670822" lon="11.468048972639634"><ele>173.0</ele><time>2026-04-10T17:11:41.919Z</time></trkpt><trkpt lat="44.387629510653085" lon="11.467962668597513"><ele>173.0</ele><time>2026-04-10T17:11:44.919Z</time></trkpt><trkpt lat="44.38762983073884" lon="11.46786962331706"><ele>173.0</ele><time>2026-04-10T17:11:47.919Z</time></trkpt><trkpt lat="44.387645485081684" lon="11.467767223579756"><ele>173.0</ele><time>2026-04-10T17:11:50.919Z</time></trkpt><trkpt lat="44.387669893664615" lon="11.467657660401223"><ele>173.0</ele><time>2026-04-10T17:11:54.919Z</time></trkpt><trkpt lat="44.38766663627651" lon="11.467747509017936"><ele>173.0</ele><time>2026-04-10T17:12:07.92Z</time></trkpt><trkpt lat="44.38764029194818" lon="11.467867492106585"><ele>173.0</ele><time>2026-04-10T17:12:11.92Z</time></trkpt><trkpt lat="44.38762883931684" lon="11.467986125017257"><ele>173.0</ele><time>2026-04-10T17:12:14.92Z</time></trkpt><trkpt lat="44.38761104374487" lon="11.468103904595282"><ele>173.0</ele><time>2026-04-10T17:12:17.92Z</time></trkpt><trkpt lat="44.38758112264072" lon="11.468188472682275"><ele>173.0</ele><time>2026-04-10T17:12:19.92Z</time></trkpt><trkpt lat="44.3875615350186" lon="11.468272309909056"><ele>173.0</ele><time>2026-04-10T17:12:21.92Z</time></trkpt><trkpt lat="44.38756115943754" lon="11.468365145890367"><ele>173.0</ele><time>2026-04-10T17:12:23.92Z</time></trkpt><trkpt lat="44.38757290942533" lon="11.468472082930116"><ele>173.0</ele><time>2026-04-10T17:12:26.92Z</time></trkpt><trkpt lat="44.3876156172221" lon="11.468614006337786"><ele>173.0</ele><time>2026-04-10T17:12:30.92Z</time></trkpt><trkpt lat="44.38762238626188" lon="11.468720458498096"><ele>173.0</ele><time>2026-04-10T17:12:33.919Z</time></trkpt><trkpt lat="44.38763093917582" lon="11.46881243920717"><ele>173.0</ele><time>2026-04-10T17:12:36.919Z</time></trkpt><trkpt lat="44.38769599595079" lon="11.468843910347077"><ele>173.0</ele><time>2026-04-10T17:12:43.919Z</time></trkpt><trkpt lat="44.38777280259498" lon="11.468877196834054"><ele>172.57142857142856</ele><time>2026-04-10T17:12:47.919Z</time></trkpt><trkpt lat="44.38782464871669" lon="11.468930266204056"><ele>172.14285714285717</ele><time>2026-04-10T17:12:50.919Z</time></trkpt><trkpt lat="44.38787481105906" lon="11.468984428476052"><ele>171.71428571428572</ele><time>2026-04-10T17:12:53.919Z</time></trkpt><trkpt lat="44.38794073808709" lon="11.469039939297431"><ele>171.28571428571428</ele><time>2026-04-10T17:12:57.919Z</time></trkpt><trkpt lat="44.388021871941994" lon="11.4690481472772"><ele>170.85714285714283</ele><time>2026-04-10T17:13:01.919Z</time></trkpt><trkpt lat="44.38807592205249" lon="11.46898817000036"><ele>170.42857142857144</ele><time>2026-04-10T17:13:04.919Z</time></trkpt><trkpt lat="44.38810273279324" lon="11.468907575174402"><ele>170.0</ele><time>2026-04-10T17:13:07.919Z</time></trkpt><trkpt lat="44.38813330155017" lon="11.468815916608934"><ele>170.0</ele><time>2026-04-10T17:13:11.919Z</time></trkpt><trkpt lat="44.38817131393054" lon="11.468732263783853"><ele>170.0</ele><time>2026-04-10T17:13:15.919Z</time></trkpt><trkpt lat="44.38814017343887" lon="11.46881546325356"><ele>170.0</ele><time>2026-04-10T17:13:47.919Z</time></trkpt><trkpt lat="44.38811043069253" lon="11.468904205753743"><ele>170.0</ele><time>2026-04-10T17:13:49.919Z</time></trkpt><trkpt lat="44.388076524708666" lon="11.46901075132723"><ele>170.0</ele><time>2026-04-10T17:13:51.919Z</time></trkpt><trkpt lat="44.38801630860432" lon="11.469074302637733"><ele>170.0</ele><time>2026-04-10T17:13:53.919Z</time></trkpt><trkpt lat="44.38793589141647" lon="11.469033616971243"><ele>170.0</ele><time>2026-04-10T17:13:55.919Z</time></trkpt><trkpt lat="44.38785354517875" lon="11.468970013919648"><ele>170.0</ele><time>2026-04-10T17:13:57.919Z</time></trkpt><trkpt lat="44.38779333659327" lon="11.468928599844444"><ele>170.0</ele><time>2026-04-10T17:13:58.919Z</time></trkpt><trkpt lat="44.387735704033275" lon="11.468882816219164"><ele>170.0</ele><time>2026-04-10T17:13:59.919Z</time></trkpt><trkpt lat="44.38765034228248" lon="11.46885203412128"><ele>170.0</ele><time>2026-04-10T17:14:02.92Z</time></trkpt><trkpt lat="44.387609281377635" lon="11.468758147177617"><ele>170.0</ele><time>2026-04-10T17:14:22.92Z</time></trkpt><trkpt lat="44.3875952008217" lon="11.468633730444258"><ele>170.42857142857144</ele><time>2026-04-10T17:14:26.92Z</time></trkpt><trkpt lat="44.38757841513009" lon="11.468533865311274"><ele>170.85714285714283</ele><time>2026-04-10T17:14:30.92Z</time></trkpt><trkpt lat="44.38759814794315" lon="11.468620235450821"><ele>171.28571428571428</ele><time>2026-04-10T17:14:44.92Z</time></trkpt><trkpt lat="44.38766483915249" lon="11.4685949304854"><ele>171.71428571428572</ele><time>2026-04-10T17:14:55.92Z</time></trkpt><trkpt lat="44.38770515004664" lon="11.468526934028363"><ele>172.14285714285717</ele><time>2026-04-10T17:15:02.92Z</time></trkpt><trkpt lat="44.38770888077" lon="11.468433240238836"><ele>172.57142857142856</ele><time>2026-04-10T17:15:11.92Z</time></trkpt><trkpt lat="44.38775717054728" lon="11.46834739721036"><ele>173.0</ele><time>2026-04-10T17:15:15.92Z</time></trkpt><trkpt lat="44.38779693007525" lon="11.468251837277197"><ele>173.0</ele><time>2026-04-10T17:15:20.92Z</time></trkpt><trkpt lat="44.387817797056194" lon="11.468150326630902"><ele>173.0</ele><time>2026-04-10T17:15:25.92Z</time></trkpt><trkpt lat="44.38780938964349" lon="11.468268236503821"><ele>173.0</ele><time>2026-04-10T17:15:45.92Z</time></trkpt><trkpt lat="44.38777826934527" lon="11.468369269544596"><ele>173.0</ele><time>2026-04-10T17:15:49.92Z</time></trkpt><trkpt lat="44.387727021503835" lon="11.468462403726361"><ele>173.0</ele><time>2026-04-10T17:15:52.92Z</time></trkpt><trkpt lat="44.387716067419895" lon="11.468594312433103"><ele>173.0</ele><time>2026-04-10T17:15:54.92Z</time></trkpt><trkpt lat="44.387655427270616" lon="11.468648805355397"><ele>173.0</ele><time>2026-04-10T17:15:56.92Z</time></trkpt><trkpt lat="44.38759723661833" lon="11.468602443136287"><ele>173.0</ele><time>2026-04-10T17:16:00.92Z</time></trkpt><trkpt lat="44.38756942472985" lon="11.468522332651839"><ele>173.0</ele><time>2026-04-10T17:16:04.92Z</time></trkpt><trkpt lat="44.387543650542455" lon="11.468429384725345"><ele>173.0</ele><time>2026-04-10T17:16:08.921Z</time></trkpt><trkpt lat="44.38755068410126" lon="11.468323214566329"><ele>173.0</ele><time>2026-04-10T17:16:12.921Z</time></trkpt><trkpt lat="44.38756512705499" lon="11.468230523250082"><ele>173.0</ele><time>2026-04-10T17:16:15.92Z</time></trkpt><trkpt lat="44.38758658539787" lon="11.468118662134748"><ele>173.0</ele><time>2026-04-10T17:16:19.915Z</time></trkpt><trkpt lat="44.38761732616744" lon="11.468028969177904"><ele>173.83333333333331</ele><time>2026-04-10T17:16:23.907Z</time></trkpt><trkpt lat="44.3876388702836" lon="11.467928346383916"><ele>174.66666666666666</ele><time>2026-04-10T17:16:26.902Z</time></trkpt><trkpt lat="44.38764516903087" lon="11.4678252339708"><ele>175.5</ele><time>2026-04-10T17:16:30.897Z</time></trkpt><trkpt lat="44.387652491676775" lon="11.467730771483696"><ele>176.33333333333334</ele><time>2026-04-10T17:16:33.894Z</time></trkpt><trkpt lat="44.38767925360372" lon="11.467631299620782"><ele>177.16666666666669</ele><time>2026-04-10T17:16:36.891Z</time></trkpt><trkpt lat="44.38770190741644" lon="11.46752471301024"><ele>178.0</ele><time>2026-04-10T17:16:40.888Z</time></trkpt><trkpt lat="44.387731880833755" lon="11.46742507478849"><ele>177.99999999999997</ele><time>2026-04-10T17:16:44.886Z</time></trkpt><trkpt lat="44.3877338813369" lon="11.467329356341997"><ele>178.0</ele><time>2026-04-10T17:16:48.884Z</time></trkpt><trkpt lat="44.38771269823363" lon="11.4672318654752"><ele>178.0</ele><time>2026-04-10T17:16:52.883Z</time></trkpt><trkpt lat="44.387686434277576" lon="11.467144700333543"><ele>178.0</ele><time>2026-04-10T17:16:55.882Z</time></trkpt><trkpt lat="44.38766814391668" lon="11.467054366653425"><ele>178.0</ele><time>2026-04-10T17:16:58.881Z</time></trkpt><trkpt lat="44.387656293453226" lon="11.466937000136507"><ele>177.99999999999997</ele><time>2026-04-10T17:17:02.881Z</time></trkpt><trkpt lat="44.38763264077619" lon="11.466831557731721"><ele>178.0</ele><time>2026-04-10T17:17:06.88Z</time></trkpt><trkpt lat="44.38762872917343" lon="11.466708797152698"><ele>178.16666666666669</ele><time>2026-04-10T17:17:10.88Z</time></trkpt><trkpt lat="44.38764165372276" lon="11.466582724189811"><ele>178.33333333333334</ele><time>2026-04-10T17:17:14.879Z</time></trkpt><trkpt lat="44.387646211746365" lon="11.46647000531031"><ele>178.5</ele><time>2026-04-10T17:17:17.879Z</time></trkpt><trkpt lat="44.38766010324534" lon="11.466375035572044"><ele>178.66666666666666</ele><time>2026-04-10T17:17:20.879Z</time></trkpt><trkpt lat="44.38767497997607" lon="11.466275606818272"><ele>178.83333333333331</ele><time>2026-04-10T17:17:23.879Z</time></trkpt><trkpt lat="44.38769091235604" lon="11.466174775374288"><ele>179.0</ele><time>2026-04-10T17:17:26.879Z</time></trkpt><trkpt lat="44.387714343345245" lon="11.466060438034068"><ele>179.2857142857143</ele><time>2026-04-10T17:17:30.878Z</time></trkpt><trkpt lat="44.387747228205484" lon="11.465957431019753"><ele>179.57142857142858</ele><time>2026-04-10T17:17:34.878Z</time></trkpt><trkpt lat="44.387755681169935" lon="11.465868340022707"><ele>179.85714285714286</ele><time>2026-04-10T17:17:37.878Z</time></trkpt><trkpt lat="44.38774829573844" lon="11.465761799042216"><ele>180.14285714285717</ele><time>2026-04-10T17:17:41.878Z</time></trkpt><trkpt lat="44.3876964137499" lon="11.465676879642274"><ele>180.42857142857142</ele><time>2026-04-10T17:17:45.878Z</time></trkpt><trkpt lat="44.38765703226258" lon="11.465598684753887"><ele>180.71428571428572</ele><time>2026-04-10T17:17:49.878Z</time></trkpt><trkpt lat="44.387591643747854" lon="11.465548458549831"><ele>181.0</ele><time>2026-04-10T17:17:54.878Z</time></trkpt><trkpt lat="44.38753202514119" lon="11.46549699027771"><ele>181.0</ele><time>2026-04-10T17:17:58.878Z</time></trkpt><trkpt lat="44.38746034399692" lon="11.4654541431622"><ele>181.0</ele><time>2026-04-10T17:18:02.877Z</time></trkpt><trkpt lat="44.387399595166436" lon="11.46542496467991"><ele>181.0</ele><time>2026-04-10T17:18:05.877Z</time></trkpt><trkpt lat="44.38732689354905" lon="11.465397698402013"><ele>181.0</ele><time>2026-04-10T17:18:08.877Z</time></trkpt><trkpt lat="44.38726832072474" lon="11.465311711473925"><ele>181.0</ele><time>2026-04-10T17:18:12.877Z</time></trkpt><trkpt lat="44.38725546968598" lon="11.465189937109985"><ele>181.0</ele><time>2026-04-10T17:18:16.879Z</time></trkpt><trkpt lat="44.38726348525288" lon="11.46508645782432"><ele>182.14285714285714</ele><time>2026-04-10T17:18:20.878Z</time></trkpt><trkpt lat="44.38727960050572" lon="11.464994452169943"><ele>183.28571428571428</ele><time>2026-04-10T17:18:23.879Z</time></trkpt><trkpt lat="44.387307023229745" lon="11.46489100119929"><ele>184.42857142857144</ele><time>2026-04-10T17:18:27.878Z</time></trkpt><trkpt lat="44.38732180587815" lon="11.46478814511379"><ele>185.57142857142856</ele><time>2026-04-10T17:18:31.878Z</time></trkpt><trkpt lat="44.38734790845217" lon="11.464674572693237"><ele>186.71428571428572</ele><time>2026-04-10T17:18:35.878Z</time></trkpt><trkpt lat="44.38734009577406" lon="11.464585885660153"><ele>187.85714285714286</ele><time>2026-04-10T17:18:38.878Z</time></trkpt><trkpt lat="44.38734254218588" lon="11.464494189349601"><ele>189.0</ele><time>2026-04-10T17:18:41.878Z</time></trkpt><trkpt lat="44.387334363501594" lon="11.464398502567223"><ele>190.28571428571428</ele><time>2026-04-10T17:18:44.878Z</time></trkpt><trkpt lat="44.387328806297404" lon="11.464309774393676"><ele>191.57142857142856</ele><time>2026-04-10T17:18:47.878Z</time></trkpt><trkpt lat="44.38732339626344" lon="11.464195080426956"><ele>192.85714285714286</ele><time>2026-04-10T17:18:51.878Z</time></trkpt><trkpt lat="44.387316037176724" lon="11.464078304460198"><ele>194.14285714285714</ele><time>2026-04-10T17:18:55.878Z</time></trkpt><trkpt lat="44.387313442228624" lon="11.463986735063369"><ele>195.42857142857142</ele><time>2026-04-10T17:18:58.878Z</time></trkpt><trkpt lat="44.387307955977285" lon="11.463880237567334"><ele>196.71428571428572</ele><time>2026-04-10T17:19:03.878Z</time></trkpt><trkpt lat="44.38730524185834" lon="11.463783300104291"><ele>198.0</ele><time>2026-04-10T17:19:07.878Z</time></trkpt><trkpt lat="44.38729858338589" lon="11.463674705739512"><ele>199.16666666666666</ele><time>2026-04-10T17:19:11.878Z</time></trkpt><trkpt lat="44.38729566389775" lon="11.463574550422006"><ele>200.33333333333331</ele><time>2026-04-10T17:19:15.877Z</time></trkpt><trkpt lat="44.38729527615692" lon="11.463463902162754"><ele>201.5</ele><time>2026-04-10T17:19:20.877Z</time></trkpt><trkpt lat="44.387299732810966" lon="11.463358115692014"><ele>202.66666666666666</ele><time>2026-04-10T17:19:24.877Z</time></trkpt><trkpt lat="44.38733644416257" lon="11.463258268313764"><ele>203.83333333333331</ele><time>2026-04-10T17:19:28.877Z</time></trkpt><trkpt lat="44.38738178777704" lon="11.463186817666621"><ele>205.0</ele><time>2026-04-10T17:19:32.877Z</time></trkpt><trkpt lat="44.38745393440232" lon="11.463152926469181"><ele>205.0</ele><time>2026-04-10T17:19:36.877Z</time></trkpt><trkpt lat="44.38751731026967" lon="11.463122064731525"><ele>205.0</ele><time>2026-04-10T17:19:40.877Z</time></trkpt><trkpt lat="44.38758220552484" lon="11.463093116643698"><ele>205.0</ele><time>2026-04-10T17:19:44.877Z</time></trkpt><trkpt lat="44.387639985218776" lon="11.46302684698723"><ele>205.0</ele><time>2026-04-10T17:19:49.877Z</time></trkpt><trkpt lat="44.387689768186746" lon="11.462954628043201"><ele>205.0</ele><time>2026-04-10T17:19:53.877Z</time></trkpt><trkpt lat="44.38773393466641" lon="11.462879428872714"><ele>205.0</ele><time>2026-04-10T17:19:57.877Z</time></trkpt><trkpt lat="44.387776476208785" lon="11.462802088802047"><ele>205.0</ele><time>2026-04-10T17:20:01.877Z</time></trkpt><trkpt lat="44.38782632237889" lon="11.462738424494347"><ele>205.57142857142858</ele><time>2026-04-10T17:20:12.877Z</time></trkpt><trkpt lat="44.3878756684026" lon="11.46268372493948"><ele>206.14285714285714</ele><time>2026-04-10T17:20:19.878Z</time></trkpt><trkpt lat="44.38794180954267" lon="11.46267756618817"><ele>206.71428571428572</ele><time>2026-04-10T17:20:32.878Z</time></trkpt><trkpt lat="44.387999838149526" lon="11.46263898463442"><ele>207.28571428571428</ele><time>2026-04-10T17:20:52.877Z</time></trkpt><trkpt lat="44.38806688852864" lon="11.462650911326271"><ele>207.85714285714283</ele><time>2026-04-10T17:20:57.877Z</time></trkpt><trkpt lat="44.38813573794177" lon="11.462630518146382"><ele>208.42857142857142</ele><time>2026-04-10T17:21:02.877Z</time></trkpt><trkpt lat="44.388213320442254" lon="11.462614509462371"><ele>209.0</ele><time>2026-04-10T17:21:07.877Z</time></trkpt><trkpt lat="44.38829259938716" lon="11.462603088700934"><ele>211.42857142857142</ele><time>2026-04-10T17:21:12.877Z</time></trkpt><trkpt lat="44.38836476418196" lon="11.462605476237252"><ele>213.85714285714283</ele><time>2026-04-10T17:21:17.877Z</time></trkpt><trkpt lat="44.38843401941966" lon="11.462603486133922"><ele>216.28571428571428</ele><time>2026-04-10T17:21:21.877Z</time></trkpt><trkpt lat="44.388501522273565" lon="11.462599388882358"><ele>218.71428571428572</ele><time>2026-04-10T17:21:25.877Z</time></trkpt><trkpt lat="44.38856995994769" lon="11.462590762723444"><ele>221.14285714285714</ele><time>2026-04-10T17:21:29.877Z</time></trkpt><trkpt lat="44.388635068168455" lon="11.46259614927872"><ele>223.57142857142858</ele><time>2026-04-10T17:21:33.877Z</time></trkpt><trkpt lat="44.38871600495112" lon="11.462594357968264"><ele>226.0</ele><time>2026-04-10T17:21:38.877Z</time></trkpt><trkpt lat="44.388780689909424" lon="11.462597983832431"><ele>229.14285714285717</ele><time>2026-04-10T17:21:42.877Z</time></trkpt><trkpt lat="44.38885580391975" lon="11.462599255843688"><ele>232.28571428571428</ele><time>2026-04-10T17:21:47.877Z</time></trkpt><trkpt lat="44.38892607849513" lon="11.46259259921277"><ele>235.42857142857144</ele><time>2026-04-10T17:21:51.877Z</time></trkpt><trkpt lat="44.38899533766019" lon="11.462584615694059"><ele>238.57142857142858</ele><time>2026-04-10T17:22:06.876Z</time></trkpt><trkpt lat="44.3890656698736" lon="11.46259085567204"><ele>241.71428571428572</ele><time>2026-04-10T17:22:16.876Z</time></trkpt><trkpt lat="44.38913115910723" lon="11.462585852287129"><ele>244.85714285714286</ele><time>2026-04-10T17:22:32.878Z</time></trkpt><trkpt lat="44.38919962386627" lon="11.462575902153425"><ele>248.0</ele><time>2026-04-10T17:22:42.878Z</time></trkpt><trkpt lat="44.389263163655" lon="11.462587658699777"><ele>248.0</ele><time>2026-04-10T17:23:39.877Z</time></trkpt><trkpt lat="44.389327580817536" lon="11.462587118353118"><ele>248.00000000000003</ele><time>2026-04-10T17:23:48.877Z</time></trkpt><trkpt lat="44.38939451555459" lon="11.462592629148615"><ele>248.0</ele><time>2026-04-10T17:23:57.876Z</time></trkpt><trkpt lat="44.38945833623259" lon="11.46260715024628"><ele>248.0</ele><time>2026-04-10T17:24:11.876Z</time></trkpt><trkpt lat="44.38952005959413" lon="11.46264505632122"><ele>248.00000000000003</ele><time>2026-04-10T17:24:20.876Z</time></trkpt><trkpt lat="44.38958277164627" lon="11.462683759526387"><ele>248.0</ele><time>2026-04-10T17:24:33.876Z</time></trkpt><trkpt lat="44.38965665641316" lon="11.46267970313903"><ele>248.0</ele><time>2026-04-10T17:24:48.877Z</time></trkpt><trkpt lat="44.38970137117624" lon="11.462612181305737"><ele>250.8</ele><time>2026-04-10T17:26:07.876Z</time></trkpt><trkpt lat="44.389762840022954" lon="11.462591207441376"><ele>253.60000000000002</ele><time>2026-04-10T17:26:11.875Z</time></trkpt><trkpt lat="44.38984938334279" lon="11.462570905592187"><ele>256.4</ele><time>2026-04-10T17:26:13.875Z</time></trkpt><trkpt lat="44.38995570092929" lon="11.462596825497435"><ele>259.2</ele><time>2026-04-10T17:26:15.875Z</time></trkpt><trkpt lat="44.390064550592555" lon="11.462646008044786"><ele>262.0</ele><time>2026-04-10T17:26:17.875Z</time></trkpt><trkpt lat="44.39014043904965" lon="11.462699538387206"><ele>262.0</ele><time>2026-04-10T17:26:19.875Z</time></trkpt><trkpt lat="44.390213721498554" lon="11.462741794992393"><ele>262.0</ele><time>2026-04-10T17:26:23.875Z</time></trkpt><trkpt lat="44.39028580849159" lon="11.46277684271393"><ele>262.0</ele><time>2026-04-10T17:26:27.875Z</time></trkpt><trkpt lat="44.39033854921495" lon="11.462843493375463"><ele>262.0</ele><time>2026-04-10T17:26:31.875Z</time></trkpt><trkpt lat="44.39039218981863" lon="11.462914243399622"><ele>262.0</ele><time>2026-04-10T17:26:35.875Z</time></trkpt><trkpt lat="44.39045806423243" lon="11.462964801794355"><ele>262.0</ele><time>2026-04-10T17:26:40.877Z</time></trkpt><trkpt lat="44.39052494497324" lon="11.462970462248771"><ele>262.0</ele><time>2026-04-10T17:27:04.877Z</time></trkpt><trkpt lat="44.39058748076659" lon="11.462993663926262"><ele>263.7142857142857</ele><time>2026-04-10T17:27:12.877Z</time></trkpt><trkpt lat="44.390658275416506" lon="11.462970479846616"><ele>265.42857142857144</ele><time>2026-04-10T17:27:20.876Z</time></trkpt><trkpt lat="44.390734605137844" lon="11.462969493165918"><ele>267.14285714285717</ele><time>2026-04-10T17:27:33.876Z</time></trkpt><trkpt lat="44.39080146200608" lon="11.462949458688888"><ele>268.8571428571429</ele><time>2026-04-10T17:27:41.876Z</time></trkpt><trkpt lat="44.390865057579376" lon="11.462912406023287"><ele>270.57142857142856</ele><time>2026-04-10T17:27:49.876Z</time></trkpt><trkpt lat="44.390941296147254" lon="11.462886307215085"><ele>272.28571428571433</ele><time>2026-04-10T17:28:00.876Z</time></trkpt><trkpt lat="44.3909977318442" lon="11.462837775292709"><ele>274.0</ele><time>2026-04-10T17:28:09.876Z</time></trkpt><trkpt lat="44.391056675163085" lon="11.462765381080672"><ele>274.28571428571433</ele><time>2026-04-10T17:28:14.876Z</time></trkpt><trkpt lat="44.391102371248444" lon="11.462680207715987"><ele>274.57142857142856</ele><time>2026-04-10T17:28:19.876Z</time></trkpt><trkpt lat="44.39114656916276" lon="11.46260972031887"><ele>274.8571428571429</ele><time>2026-04-10T17:28:23.875Z</time></trkpt><trkpt lat="44.39118493801498" lon="11.462524271543757"><ele>275.14285714285717</ele><time>2026-04-10T17:28:27.875Z</time></trkpt><trkpt lat="44.391233479914575" lon="11.46242988668236"><ele>275.42857142857144</ele><time>2026-04-10T17:28:33.875Z</time></trkpt><trkpt lat="44.391298798090446" lon="11.462376338819713"><ele>275.7142857142857</ele><time>2026-04-10T17:28:37.875Z</time></trkpt><trkpt lat="44.391366134526436" lon="11.462336705316453"><ele>276.0</ele><time>2026-04-10T17:28:41.875Z</time></trkpt><trkpt lat="44.39142288627455" lon="11.462267384025699"><ele>276.2857142857143</ele><time>2026-04-10T17:28:45.876Z</time></trkpt><trkpt lat="44.39146689868664" lon="11.462179724912948"><ele>276.5714285714286</ele><time>2026-04-10T17:29:06.876Z</time></trkpt><trkpt lat="44.39150493164454" lon="11.46209759595944"><ele>276.8571428571429</ele><time>2026-04-10T17:29:11.876Z</time></trkpt><trkpt lat="44.39155039619557" lon="11.462005588750253"><ele>277.14285714285717</ele><time>2026-04-10T17:29:16.876Z</time></trkpt><trkpt lat="44.391596433391065" lon="11.461938306882187"><ele>277.42857142857144</ele><time>2026-04-10T17:29:20.876Z</time></trkpt><trkpt lat="44.39163413542552" lon="11.46185819515095"><ele>277.7142857142857</ele><time>2026-04-10T17:29:24.876Z</time></trkpt><trkpt lat="44.39166989815351" lon="11.46177815383309"><ele>278.0</ele><time>2026-04-10T17:29:29.876Z</time></trkpt><trkpt lat="44.39170431958651" lon="11.46170264132541"><ele>279.5</ele><time>2026-04-10T17:29:33.876Z</time></trkpt><trkpt lat="44.391751028025" lon="11.461607782951145"><ele>281.0</ele><time>2026-04-10T17:29:38.876Z</time></trkpt><trkpt lat="44.39179544293158" lon="11.461518548139358"><ele>282.5</ele><time>2026-04-10T17:29:43.876Z</time></trkpt><trkpt lat="44.39184399296545" lon="11.461426347018246"><ele>284.0</ele><time>2026-04-10T17:29:48.876Z</time></trkpt><trkpt lat="44.391883026779354" lon="11.461345793546624"><ele>285.5</ele><time>2026-04-10T17:29:52.876Z</time></trkpt><trkpt lat="44.39193032681009" lon="11.46127233699802"><ele>287.0</ele><time>2026-04-10T17:29:56.876Z</time></trkpt><trkpt lat="44.3919703563183" lon="11.461182109306584"><ele>287.57142857142856</ele><time>2026-04-10T17:30:00.875Z</time></trkpt><trkpt lat="44.39200399107308" lon="11.461105496192783"><ele>288.1428571428571</ele><time>2026-04-10T17:30:04.875Z</time></trkpt><trkpt lat="44.392059651146475" lon="11.461020306447148"><ele>288.7142857142857</ele><time>2026-04-10T17:30:09.875Z</time></trkpt><trkpt lat="44.39208360455951" lon="11.460936367351017"><ele>289.2857142857143</ele><time>2026-04-10T17:30:28.875Z</time></trkpt><trkpt lat="44.39212649193637" lon="11.460856410993332"><ele>289.85714285714283</ele><time>2026-04-10T17:30:40.875Z</time></trkpt><trkpt lat="44.392164614044376" lon="11.460777247849068"><ele>290.42857142857144</ele><time>2026-04-10T17:30:53.876Z</time></trkpt><trkpt lat="44.39220363247729" lon="11.460702289541166"><ele>291.0</ele><time>2026-04-10T17:31:35.876Z</time></trkpt><trkpt lat="44.39226461607487" lon="11.460661722059655"><ele>294.7142857142857</ele><time>2026-04-10T17:31:45.876Z</time></trkpt><trkpt lat="44.39232957809805" lon="11.460638953929745"><ele>298.4285714285714</ele><time>2026-04-10T17:31:54.876Z</time></trkpt><trkpt lat="44.392391211216996" lon="11.460602202075501"><ele>302.1428571428571</ele><time>2026-04-10T17:32:05.876Z</time></trkpt><trkpt lat="44.39244410117145" lon="11.460548402400843"><ele>305.85714285714283</ele><time>2026-04-10T17:32:32.928Z</time></trkpt><trkpt lat="44.392510432184515" lon="11.460536131032285"><ele>309.57142857142856</ele><time>2026-04-10T17:32:45.928Z</time></trkpt><trkpt lat="44.392561656079856" lon="11.46047297597923"><ele>313.2857142857143</ele><time>2026-04-10T17:33:48.928Z</time></trkpt><trkpt lat="44.39261390616975" lon="11.460408422178533"><ele>317.0</ele><time>2026-04-10T17:34:25.928Z</time></trkpt><trkpt lat="44.39267451156245" lon="11.460367196904276"><ele>317.8571428571429</ele><time>2026-04-10T17:34:29.928Z</time></trkpt><trkpt lat="44.39274919722634" lon="11.460336180275954"><ele>318.7142857142857</ele><time>2026-04-10T17:34:33.928Z</time></trkpt><trkpt lat="44.3928090156896" lon="11.460292273424916"><ele>319.57142857142856</ele><time>2026-04-10T17:34:37.928Z</time></trkpt><trkpt lat="44.39286993284233" lon="11.460236363839252"><ele>320.42857142857144</ele><time>2026-04-10T17:34:41.928Z</time></trkpt><trkpt lat="44.3929292007051" lon="11.46017587848555"><ele>321.2857142857143</ele><time>2026-04-10T17:34:45.928Z</time></trkpt><trkpt lat="44.39298047526495" lon="11.460108499239801"><ele>322.14285714285717</ele><time>2026-04-10T17:34:49.928Z</time></trkpt><trkpt lat="44.39303035228921" lon="11.460047110679136"><ele>323.0</ele><time>2026-04-10T17:34:53.928Z</time></trkpt><trkpt lat="44.3930793870461" lon="11.459977956530976"><ele>325.7142857142857</ele><time>2026-04-10T17:34:57.928Z</time></trkpt><trkpt lat="44.39313657827165" lon="11.459914226522864"><ele>328.42857142857144</ele><time>2026-04-10T17:35:01.93Z</time></trkpt><trkpt lat="44.39319705988298" lon="11.459865256966479"><ele>331.1428571428571</ele><time>2026-04-10T17:35:05.93Z</time></trkpt><trkpt lat="44.39326154378665" lon="11.459857430790723"><ele>333.8571428571429</ele><time>2026-04-10T17:35:09.93Z</time></trkpt><trkpt lat="44.39332349926734" lon="11.459877808049773"><ele>336.57142857142856</ele><time>2026-04-10T17:35:13.929Z</time></trkpt><trkpt lat="44.39339663311585" lon="11.45990640685741"><ele>339.2857142857143</ele><time>2026-04-10T17:35:17.929Z</time></trkpt><trkpt lat="44.39346105768654" lon="11.459871945133736"><ele>342.0</ele><time>2026-04-10T17:35:24.929Z</time></trkpt><trkpt lat="44.39351650573377" lon="11.45993596927399"><ele>341.99999999999994</ele><time>2026-04-10T17:35:30.929Z</time></trkpt><trkpt lat="44.39357821426216" lon="11.459997395716252"><ele>342.0</ele><time>2026-04-10T17:35:35.929Z</time></trkpt><trkpt lat="44.39364050308672" lon="11.460034429910529"><ele>342.0</ele><time>2026-04-10T17:35:40.929Z</time></trkpt><trkpt lat="44.393720144444984" lon="11.460060191261926"><ele>342.0</ele><time>2026-04-10T17:35:45.929Z</time></trkpt><trkpt lat="44.393775138839366" lon="11.46010468718267"><ele>342.0</ele><time>2026-04-10T17:35:48.929Z</time></trkpt><trkpt lat="44.39384690250995" lon="11.460154509425436"><ele>341.99999999999994</ele><time>2026-04-10T17:35:51.929Z</time></trkpt><trkpt lat="44.39390094752661" lon="11.460202025642134"><ele>342.0</ele><time>2026-04-10T17:35:53.929Z</time></trkpt><trkpt lat="44.39396520225822" lon="11.460268863017184"><ele>341.6666666666667</ele><time>2026-04-10T17:35:56.929Z</time></trkpt><trkpt lat="44.39402775348256" lon="11.460355884235062"><ele>341.3333333333333</ele><time>2026-04-10T17:35:59.929Z</time></trkpt><trkpt lat="44.394074280849516" lon="11.460427588713488"><ele>341.0</ele><time>2026-04-10T17:36:02.929Z</time></trkpt><trkpt lat="44.39412130003872" lon="11.460508648696779"><ele>340.66666666666663</ele><time>2026-04-10T17:36:05.929Z</time></trkpt><trkpt lat="44.394170974380685" lon="11.460598808855387"><ele>340.3333333333333</ele><time>2026-04-10T17:36:09.929Z</time></trkpt><trkpt lat="44.39421356199988" lon="11.460666683983858"><ele>340.0</ele><time>2026-04-10T17:36:12.929Z</time></trkpt><trkpt lat="44.39426616808042" lon="11.460749806048092"><ele>340.8333333333333</ele><time>2026-04-10T17:36:15.929Z</time></trkpt><trkpt lat="44.394316729262236" lon="11.460843790119263"><ele>341.66666666666663</ele><time>2026-04-10T17:36:18.929Z</time></trkpt><trkpt lat="44.394354620851516" lon="11.460920418163608"><ele>342.5</ele><time>2026-04-10T17:36:20.929Z</time></trkpt><trkpt lat="44.39439377010717" lon="11.461010731678519"><ele>343.3333333333333</ele><time>2026-04-10T17:36:22.929Z</time></trkpt><trkpt lat="44.394438920957185" lon="11.461121951167202"><ele>344.1666666666667</ele><time>2026-04-10T17:36:24.929Z</time></trkpt><trkpt lat="44.39447669509831" lon="11.461245793581803"><ele>345.0</ele><time>2026-04-10T17:36:26.929Z</time></trkpt><trkpt lat="44.39452600910765" lon="11.461400855838775"><ele>345.0</ele><time>2026-04-10T17:36:28.929Z</time></trkpt><trkpt lat="44.394554861165545" lon="11.461484531360599"><ele>345.0</ele><time>2026-04-10T17:36:29.929Z</time></trkpt><trkpt lat="44.39459842128542" lon="11.461568335597063"><ele>345.0</ele><time>2026-04-10T17:36:30.929Z</time></trkpt><trkpt lat="44.39464548100122" lon="11.461651294391377"><ele>345.0</ele><time>2026-04-10T17:36:31.929Z</time></trkpt><trkpt lat="44.39472970881394" lon="11.461718567433119"><ele>345.0</ele><time>2026-04-10T17:36:32.929Z</time></trkpt><trkpt lat="44.39482376706098" lon="11.46177492703361"><ele>345.0</ele><time>2026-04-10T17:36:33.929Z</time></trkpt><trkpt lat="44.39491170334613" lon="11.46182182882283"><ele>344.1666666666667</ele><time>2026-04-10T17:36:34.929Z</time></trkpt><trkpt lat="44.39500658463096" lon="11.461843606116176"><ele>343.3333333333333</ele><time>2026-04-10T17:36:35.929Z</time></trkpt><trkpt lat="44.395091603153794" lon="11.461842701082569"><ele>342.5</ele><time>2026-04-10T17:36:36.929Z</time></trkpt><trkpt lat="44.39515753812891" lon="11.461847570872882"><ele>341.66666666666663</ele><time>2026-04-10T17:36:37.929Z</time></trkpt><trkpt lat="44.395227358528096" lon="11.461865312853904"><ele>340.8333333333333</ele><time>2026-04-10T17:36:38.929Z</time></trkpt><trkpt lat="44.39529358219195" lon="11.461885981737106"><ele>340.0</ele><time>2026-04-10T17:36:39.929Z</time></trkpt><trkpt lat="44.395417459810496" lon="11.461886287400594"><ele>340.0</ele><time>2026-04-10T17:36:41.929Z</time></trkpt><trkpt lat="44.39547720475219" lon="11.461852191823477"><ele>340.0</ele><time>2026-04-10T17:36:42.929Z</time></trkpt><trkpt lat="44.39557914083055" lon="11.461828877939778"><ele>340.0</ele><time>2026-04-10T17:36:44.929Z</time></trkpt><trkpt lat="44.39565861897097" lon="11.461813076811655"><ele>340.0</ele><time>2026-04-10T17:36:46.929Z</time></trkpt><trkpt lat="44.39573554160842" lon="11.461785648636292"><ele>340.0</ele><time>2026-04-10T17:36:48.929Z</time></trkpt><trkpt lat="44.39579591551651" lon="11.4617398426424"><ele>340.0</ele><time>2026-04-10T17:36:50.929Z</time></trkpt><trkpt lat="44.39586409196178" lon="11.461680524970983"><ele>339.3333333333333</ele><time>2026-04-10T17:36:52.929Z</time></trkpt><trkpt lat="44.39592081547412" lon="11.461626528675918"><ele>338.66666666666663</ele><time>2026-04-10T17:36:54.929Z</time></trkpt><trkpt lat="44.39597726216765" lon="11.461544046744628"><ele>338.0</ele><time>2026-04-10T17:36:57.929Z</time></trkpt><trkpt lat="44.3960047275255" lon="11.461459485827476"><ele>337.3333333333333</ele><time>2026-04-10T17:36:59.929Z</time></trkpt><trkpt lat="44.39603614277857" lon="11.461375329651263"><ele>336.6666666666667</ele><time>2026-04-10T17:37:01.929Z</time></trkpt><trkpt lat="44.39608120403198" lon="11.461277226897549"><ele>336.0</ele><time>2026-04-10T17:37:03.929Z</time></trkpt><trkpt lat="44.39612174186144" lon="11.46116177133856"><ele>336.0</ele><time>2026-04-10T17:37:05.929Z</time></trkpt><trkpt lat="44.39618619682966" lon="11.461031938967981"><ele>336.0</ele><time>2026-04-10T17:37:07.93Z</time></trkpt><trkpt lat="44.396242015469745" lon="11.460910502515226"><ele>336.0</ele><time>2026-04-10T17:37:09.931Z</time></trkpt><trkpt lat="44.39630031895035" lon="11.460777451342029"><ele>336.0</ele><time>2026-04-10T17:37:11.931Z</time></trkpt><trkpt lat="44.39635642318206" lon="11.46062911706046"><ele>336.0</ele><time>2026-04-10T17:37:13.93Z</time></trkpt><trkpt lat="44.39639154598766" lon="11.460546237918429"><ele>336.3333333333333</ele><time>2026-04-10T17:37:14.93Z</time></trkpt><trkpt lat="44.39643097840411" lon="11.460461226273708"><ele>336.6666666666667</ele><time>2026-04-10T17:37:15.931Z</time></trkpt><trkpt lat="44.39647339362442" lon="11.46036587531426"><ele>337.0</ele><time>2026-04-10T17:37:16.93Z</time></trkpt><trkpt lat="44.39651741627416" lon="11.460262225508096"><ele>337.33333333333337</ele><time>2026-04-10T17:37:17.93Z</time></trkpt><trkpt lat="44.39656491729802" lon="11.460153809393601"><ele>337.6666666666667</ele><time>2026-04-10T17:37:18.931Z</time></trkpt><trkpt lat="44.396613362833776" lon="11.460039309720122"><ele>338.0</ele><time>2026-04-10T17:37:19.931Z</time></trkpt><trkpt lat="44.39666069064325" lon="11.459923434845782"><ele>338.0</ele><time>2026-04-10T17:37:20.931Z</time></trkpt><trkpt lat="44.39670885867862" lon="11.459812635334176"><ele>338.0</ele><time>2026-04-10T17:37:21.931Z</time></trkpt><trkpt lat="44.396761809642314" lon="11.459714134744015"><ele>338.0</ele><time>2026-04-10T17:37:22.931Z</time></trkpt><trkpt lat="44.39680515522933" lon="11.4596401393175"><ele>338.0</ele><time>2026-04-10T17:37:23.931Z</time></trkpt><trkpt lat="44.39688426108975" lon="11.45961171691688"><ele>338.0</ele><time>2026-04-10T17:37:24.931Z</time></trkpt><trkpt lat="44.39696982463389" lon="11.459640728149523"><ele>338.0</ele><time>2026-04-10T17:37:25.931Z</time></trkpt><trkpt lat="44.39704322824511" lon="11.459639425352483"><ele>338.0</ele><time>2026-04-10T17:37:26.931Z</time></trkpt><trkpt lat="44.39711999525932" lon="11.459640679088738"><ele>338.0</ele><time>2026-04-10T17:37:27.931Z</time></trkpt><trkpt lat="44.39720573235376" lon="11.459644880577947"><ele>338.0</ele><time>2026-04-10T17:37:28.931Z</time></trkpt><trkpt lat="44.397289622549465" lon="11.459648870072943"><ele>338.0</ele><time>2026-04-10T17:37:29.931Z</time></trkpt><trkpt lat="44.3973734918017" lon="11.459652572573903"><ele>338.0</ele><time>2026-04-10T17:37:30.931Z</time></trkpt><trkpt lat="44.397460836080064" lon="11.459655907386939"><ele>338.0</ele><time>2026-04-10T17:37:31.931Z</time></trkpt><trkpt lat="44.397547509549476" lon="11.459659216590621"><ele>336.1666666666667</ele><time>2026-04-10T17:37:32.931Z</time></trkpt><trkpt lat="44.39763251430532" lon="11.45966246208105"><ele>334.33333333333337</ele><time>2026-04-10T17:37:33.931Z</time></trkpt><trkpt lat="44.39771809583773" lon="11.459656323339571"><ele>332.5</ele><time>2026-04-10T17:37:34.931Z</time></trkpt><trkpt lat="44.39780336393067" lon="11.45965910619979"><ele>330.6666666666667</ele><time>2026-04-10T17:37:35.931Z</time></trkpt><trkpt lat="44.397888873612324" lon="11.45966177151793"><ele>328.8333333333333</ele><time>2026-04-10T17:37:36.931Z</time></trkpt><trkpt lat="44.39797692149708" lon="11.4596635172969"><ele>327.0</ele><time>2026-04-10T17:37:37.93Z</time></trkpt><trkpt lat="44.398063568462405" lon="11.459666666787639"><ele>326.6</ele><time>2026-04-10T17:37:38.93Z</time></trkpt><trkpt lat="44.39814858670042" lon="11.459671404668402"><ele>326.20000000000005</ele><time>2026-04-10T17:37:39.93Z</time></trkpt><trkpt lat="44.39822570055927" lon="11.459675281151643"><ele>325.8</ele><time>2026-04-10T17:37:40.93Z</time></trkpt><trkpt lat="44.3982992655866" lon="11.459683028880294"><ele>325.4</ele><time>2026-04-10T17:37:41.93Z</time></trkpt><trkpt lat="44.398418269557695" lon="11.459698170219323"><ele>325.0</ele><time>2026-04-10T17:37:43.93Z</time></trkpt><trkpt lat="44.398522581909056" lon="11.459712553481465"><ele>325.0</ele><time>2026-04-10T17:37:45.93Z</time></trkpt><trkpt lat="44.39861307445857" lon="11.4597229632817"><ele>325.0</ele><time>2026-04-10T17:37:47.93Z</time></trkpt><trkpt lat="44.398682048460756" lon="11.459726203736327"><ele>325.0</ele><time>2026-04-10T17:37:49.93Z</time></trkpt><trkpt lat="44.39875791677735" lon="11.45972068137372"><ele>325.0</ele><time>2026-04-10T17:37:51.93Z</time></trkpt><trkpt lat="44.3988244258234" lon="11.459720131772743"><ele>325.0</ele><time>2026-04-10T17:37:53.93Z</time></trkpt><trkpt lat="44.39889227632827" lon="11.459726862660135"><ele>325.0</ele><time>2026-04-10T17:37:55.93Z</time></trkpt><trkpt lat="44.39895747953201" lon="11.45972138106694"><ele>325.0</ele><time>2026-04-10T17:37:57.93Z</time></trkpt><trkpt lat="44.39902667597391" lon="11.45970623595827"><ele>325.16666666666663</ele><time>2026-04-10T17:37:59.93Z</time></trkpt><trkpt lat="44.39910946657483" lon="11.459699185827407"><ele>325.3333333333333</ele><time>2026-04-10T17:38:01.93Z</time></trkpt><trkpt lat="44.3991825742205" lon="11.45967962682677"><ele>325.5</ele><time>2026-04-10T17:38:03.93Z</time></trkpt><trkpt lat="44.39925782169429" lon="11.459658472037184"><ele>325.6666666666667</ele><time>2026-04-10T17:38:05.93Z</time></trkpt><trkpt lat="44.39933465002845" lon="11.459628870819012"><ele>325.83333333333337</ele><time>2026-04-10T17:38:07.93Z</time></trkpt><trkpt lat="44.3994113699252" lon="11.459583299745534"><ele>326.0</ele><time>2026-04-10T17:38:09.93Z</time></trkpt><trkpt lat="44.39948709015878" lon="11.459540751193316"><ele>326.33333333333337</ele><time>2026-04-10T17:38:11.93Z</time></trkpt><trkpt lat="44.39956384671956" lon="11.4594830016887"><ele>326.6666666666667</ele><time>2026-04-10T17:38:13.93Z</time></trkpt><trkpt lat="44.399636275990495" lon="11.459429714581274"><ele>327.0</ele><time>2026-04-10T17:38:15.93Z</time></trkpt><trkpt lat="44.399711831889476" lon="11.459370706277706"><ele>327.3333333333333</ele><time>2026-04-10T17:38:17.93Z</time></trkpt><trkpt lat="44.39978568965681" lon="11.459327829615665"><ele>327.66666666666663</ele><time>2026-04-10T17:38:19.93Z</time></trkpt><trkpt lat="44.399859804742256" lon="11.459306267199233"><ele>328.0</ele><time>2026-04-10T17:38:21.93Z</time></trkpt><trkpt lat="44.39993900339285" lon="11.459280935269433"><ele>328.4285714285714</ele><time>2026-04-10T17:38:23.93Z</time></trkpt><trkpt lat="44.40001157981286" lon="11.459277721255589"><ele>328.85714285714283</ele><time>2026-04-10T17:38:25.93Z</time></trkpt><trkpt lat="44.400084002798145" lon="11.459268562961196"><ele>329.2857142857143</ele><time>2026-04-10T17:38:27.93Z</time></trkpt><trkpt lat="44.40015019748012" lon="11.459274373010706"><ele>329.71428571428567</ele><time>2026-04-10T17:38:29.93Z</time></trkpt><trkpt lat="44.40022045801283" lon="11.45928357309853"><ele>330.1428571428571</ele><time>2026-04-10T17:38:31.93Z</time></trkpt><trkpt lat="44.40028583963718" lon="11.459273095346207"><ele>330.57142857142856</ele><time>2026-04-10T17:38:33.93Z</time></trkpt><trkpt lat="44.40035683162907" lon="11.459274526949981"><ele>331.0</ele><time>2026-04-10T17:38:35.93Z</time></trkpt><trkpt lat="44.40043729574024" lon="11.459285579155985"><ele>330.8</ele><time>2026-04-10T17:38:37.93Z</time></trkpt><trkpt lat="44.40051857929598" lon="11.459283615657798"><ele>330.6</ele><time>2026-04-10T17:38:39.93Z</time></trkpt><trkpt lat="44.400608858456614" lon="11.45928668924344"><ele>330.4</ele><time>2026-04-10T17:38:41.93Z</time></trkpt><trkpt lat="44.40070002105012" lon="11.459293467152982"><ele>330.2</ele><time>2026-04-10T17:38:43.93Z</time></trkpt><trkpt lat="44.40080014749891" lon="11.459292646461888"><ele>330.0</ele><time>2026-04-10T17:38:45.93Z</time></trkpt><trkpt lat="44.40090747354171" lon="11.459294367814023"><ele>330.00000000000006</ele><time>2026-04-10T17:38:47.93Z</time></trkpt><trkpt lat="44.40102654674046" lon="11.459295233011252"><ele>330.0</ele><time>2026-04-10T17:38:49.93Z</time></trkpt><trkpt lat="44.40109135251176" lon="11.459294314991231"><ele>330.0</ele><time>2026-04-10T17:38:50.93Z</time></trkpt><trkpt lat="44.40115580008509" lon="11.459295361017864"><ele>330.0</ele><time>2026-04-10T17:38:51.93Z</time></trkpt><trkpt lat="44.40122120691579" lon="11.459287572535882"><ele>330.0</ele><time>2026-04-10T17:38:52.93Z</time></trkpt><trkpt lat="44.401285957504875" lon="11.459294301003911"><ele>330.00000000000006</ele><time>2026-04-10T17:38:53.93Z</time></trkpt><trkpt lat="44.40135125818252" lon="11.459297384977486"><ele>330.0</ele><time>2026-04-10T17:38:54.93Z</time></trkpt><trkpt lat="44.40142721911391" lon="11.459331491355416"><ele>330.5</ele><time>2026-04-10T17:38:55.93Z</time></trkpt><trkpt lat="44.4014919380788" lon="11.4593692525932"><ele>331.0</ele><time>2026-04-10T17:38:56.93Z</time></trkpt><trkpt lat="44.40156319932217" lon="11.459387404592672"><ele>331.5</ele><time>2026-04-10T17:38:57.93Z</time></trkpt><trkpt lat="44.40162182081332" lon="11.459439436269788"><ele>332.0</ele><time>2026-04-10T17:38:58.93Z</time></trkpt><trkpt lat="44.401676136646174" lon="11.459484300331738"><ele>332.5</ele><time>2026-04-10T17:38:59.93Z</time></trkpt><trkpt lat="44.401735406138066" lon="11.459523792846136"><ele>333.0</ele><time>2026-04-10T17:39:00.93Z</time></trkpt><trkpt lat="44.401843529931206" lon="11.45959796583713"><ele>332.0</ele><time>2026-04-10T17:39:02.93Z</time></trkpt><trkpt lat="44.401950553396794" lon="11.459668921501242"><ele>331.0</ele><time>2026-04-10T17:39:04.93Z</time></trkpt><trkpt lat="44.40204591596368" lon="11.459730228048228"><ele>330.0</ele><time>2026-04-10T17:39:06.93Z</time></trkpt><trkpt lat="44.40212086680833" lon="11.459780246341746"><ele>329.0</ele><time>2026-04-10T17:40:29.932Z</time></trkpt><trkpt lat="44.402198005439146" lon="11.459835307819795"><ele>328.0</ele><time>2026-04-10T17:40:32.932Z</time></trkpt><trkpt lat="44.402271541410826" lon="11.45986113875412"><ele>328.0</ele><time>2026-04-10T17:40:34.932Z</time></trkpt><trkpt lat="44.40233593389438" lon="11.459910095881805"><ele>328.0</ele><time>2026-04-10T17:40:36.932Z</time></trkpt><trkpt lat="44.40241475230405" lon="11.459967173567346"><ele>328.0</ele><time>2026-04-10T17:40:38.932Z</time></trkpt><trkpt lat="44.402493277130745" lon="11.460033434982106"><ele>328.0</ele><time>2026-04-10T17:40:40.932Z</time></trkpt><trkpt lat="44.40256873804752" lon="11.460100050901563"><ele>328.0</ele><time>2026-04-10T17:40:42.932Z</time></trkpt><trkpt lat="44.402622938576634" lon="11.460153829544486"><ele>328.0</ele><time>2026-04-10T17:40:44.932Z</time></trkpt><trkpt lat="44.402679943579564" lon="11.460246001310944"><ele>328.0</ele><time>2026-04-10T17:40:46.932Z</time></trkpt><trkpt lat="44.40276383987455" lon="11.460316611637529"><ele>328.0</ele><time>2026-04-10T17:40:48.932Z</time></trkpt><trkpt lat="44.402838281489096" lon="11.46038428833419"><ele>328.0</ele><time>2026-04-10T17:40:50.932Z</time></trkpt><trkpt lat="44.40291870151198" lon="11.460441674914883"><ele>328.0</ele><time>2026-04-10T17:40:52.932Z</time></trkpt><trkpt lat="44.403008114158176" lon="11.460517410574337"><ele>328.0</ele><time>2026-04-10T17:40:54.932Z</time></trkpt><trkpt lat="44.403109061876215" lon="11.460592756008953"><ele>327.59999999999997</ele><time>2026-04-10T17:40:56.932Z</time></trkpt><trkpt lat="44.403208892811456" lon="11.460693275373538"><ele>327.2</ele><time>2026-04-10T17:40:58.932Z</time></trkpt><trkpt lat="44.403262681641586" lon="11.460757546736538"><ele>326.8</ele><time>2026-04-10T17:40:59.932Z</time></trkpt><trkpt lat="44.40328640992268" lon="11.460870246174624"><ele>326.4</ele><time>2026-04-10T17:41:00.932Z</time></trkpt><trkpt lat="44.40332833292613" lon="11.460979263737679"><ele>326.0</ele><time>2026-04-10T17:41:01.932Z</time></trkpt><trkpt lat="44.403388182229186" lon="11.461095720765236"><ele>326.0</ele><time>2026-04-10T17:41:02.932Z</time></trkpt><trkpt lat="44.403423991421924" lon="11.461235066407317"><ele>326.0</ele><time>2026-04-10T17:41:03.932Z</time></trkpt><trkpt lat="44.40347959249808" lon="11.461372458341238"><ele>326.0</ele><time>2026-04-10T17:41:04.932Z</time></trkpt><trkpt lat="44.4035427692359" lon="11.461501928620743"><ele>326.0</ele><time>2026-04-10T17:41:05.932Z</time></trkpt><trkpt lat="44.40360314826201" lon="11.461630055538832"><ele>326.0</ele><time>2026-04-10T17:41:06.932Z</time></trkpt><trkpt lat="44.40366853046988" lon="11.461758515018186"><ele>325.0</ele><time>2026-04-10T17:41:07.932Z</time></trkpt><trkpt lat="44.40373663433558" lon="11.461883679345155"><ele>324.0</ele><time>2026-04-10T17:41:08.932Z</time></trkpt><trkpt lat="44.40380101134228" lon="11.462004096436493"><ele>323.0</ele><time>2026-04-10T17:41:09.932Z</time></trkpt><trkpt lat="44.403861723910794" lon="11.462128149450262"><ele>322.0</ele><time>2026-04-10T17:41:10.932Z</time></trkpt><trkpt lat="44.40392988529987" lon="11.462250874965306"><ele>321.0</ele><time>2026-04-10T17:41:11.932Z</time></trkpt><trkpt lat="44.403992317688456" lon="11.462379612660282"><ele>317.8</ele><time>2026-04-10T17:41:12.932Z</time></trkpt><trkpt lat="44.40404754857737" lon="11.46251662767606"><ele>314.6</ele><time>2026-04-10T17:41:13.932Z</time></trkpt><trkpt lat="44.40409227635948" lon="11.462655895490157"><ele>311.4</ele><time>2026-04-10T17:41:14.932Z</time></trkpt><trkpt lat="44.404120406992334" lon="11.46280336783752"><ele>308.2</ele><time>2026-04-10T17:41:15.932Z</time></trkpt><trkpt lat="44.404154461423424" lon="11.462942738766579"><ele>305.0</ele><time>2026-04-10T17:41:16.932Z</time></trkpt><trkpt lat="44.40418633693832" lon="11.463093212503683"><ele>304.2</ele><time>2026-04-10T17:41:17.932Z</time></trkpt><trkpt lat="44.404226421874334" lon="11.463256200003961"><ele>303.4</ele><time>2026-04-10T17:41:18.933Z</time></trkpt><trkpt lat="44.40425373076616" lon="11.463417912656451"><ele>302.6</ele><time>2026-04-10T17:41:19.933Z</time></trkpt><trkpt lat="44.40429005489362" lon="11.463561143455834"><ele>301.8</ele><time>2026-04-10T17:41:20.933Z</time></trkpt><trkpt lat="44.40433371917036" lon="11.463683812502492"><ele>301.0</ele><time>2026-04-10T17:41:21.933Z</time></trkpt><trkpt lat="44.4043841487283" lon="11.463808881009099"><ele>299.0</ele><time>2026-04-10T17:41:22.933Z</time></trkpt><trkpt lat="44.404440592610115" lon="11.463921198688423"><ele>297.0</ele><time>2026-04-10T17:41:23.933Z</time></trkpt><trkpt lat="44.40449776642162" lon="11.464028566370231"><ele>295.0</ele><time>2026-04-10T17:41:24.933Z</time></trkpt><trkpt lat="44.404561949587944" lon="11.464114472294417"><ele>293.0</ele><time>2026-04-10T17:41:25.933Z</time></trkpt><trkpt lat="44.40462287739309" lon="11.46421095635798"><ele>291.0</ele><time>2026-04-10T17:41:26.933Z</time></trkpt><trkpt lat="44.40468950452723" lon="11.464306544090425"><ele>289.3333333333333</ele><time>2026-04-10T17:41:27.933Z</time></trkpt><trkpt lat="44.404740773913424" lon="11.464393008142245"><ele>287.6666666666667</ele><time>2026-04-10T17:41:28.933Z</time></trkpt><trkpt lat="44.40478756174853" lon="11.464479150172641"><ele>286.0</ele><time>2026-04-10T17:41:29.933Z</time></trkpt><trkpt lat="44.40484799517904" lon="11.464564527129653"><ele>284.33333333333337</ele><time>2026-04-10T17:41:30.933Z</time></trkpt><trkpt lat="44.40493226599606" lon="11.464621074415916"><ele>282.6666666666667</ele><time>2026-04-10T17:41:31.933Z</time></trkpt><trkpt lat="44.40503297489157" lon="11.464663112470262"><ele>281.0</ele><time>2026-04-10T17:41:32.933Z</time></trkpt><trkpt lat="44.4051395061881" lon="11.464702185769264"><ele>280.0</ele><time>2026-04-10T17:41:33.933Z</time></trkpt><trkpt lat="44.40525636232631" lon="11.46473835038222"><ele>279.0</ele><time>2026-04-10T17:41:34.933Z</time></trkpt><trkpt lat="44.40536565467468" lon="11.464798550674598"><ele>278.0</ele><time>2026-04-10T17:41:35.933Z</time></trkpt><trkpt lat="44.405462740506024" lon="11.46487152375238"><ele>277.0</ele><time>2026-04-10T17:41:36.933Z</time></trkpt><trkpt lat="44.40554865609399" lon="11.46496035894104"><ele>275.2</ele><time>2026-04-10T17:41:37.933Z</time></trkpt><trkpt lat="44.40560258447252" lon="11.465108000370044"><ele>273.4</ele><time>2026-04-10T17:41:38.933Z</time></trkpt><trkpt lat="44.405670436831905" lon="11.465236507255065"><ele>271.6</ele><time>2026-04-10T17:41:39.933Z</time></trkpt><trkpt lat="44.40573419726978" lon="11.465358707134296"><ele>269.8</ele><time>2026-04-10T17:41:40.933Z</time></trkpt><trkpt lat="44.40579323784548" lon="11.46547253266202"><ele>268.0</ele><time>2026-04-10T17:41:41.933Z</time></trkpt><trkpt lat="44.40585131764916" lon="11.465584505901047"><ele>267.66666666666663</ele><time>2026-04-10T17:41:42.933Z</time></trkpt><trkpt lat="44.40590714960502" lon="11.465692145462786"><ele>267.3333333333333</ele><time>2026-04-10T17:41:43.933Z</time></trkpt><trkpt lat="44.4059616657861" lon="11.46579396270894"><ele>267.0</ele><time>2026-04-10T17:41:44.933Z</time></trkpt><trkpt lat="44.40601367509738" lon="11.46588776955475"><ele>266.6666666666667</ele><time>2026-04-10T17:41:45.933Z</time></trkpt><trkpt lat="44.40606934929901" lon="11.465974062398502"><ele>266.33333333333337</ele><time>2026-04-10T17:41:46.933Z</time></trkpt><trkpt lat="44.4061144403666" lon="11.466058077797442"><ele>266.0</ele><time>2026-04-10T17:41:47.933Z</time></trkpt><trkpt lat="44.40616388832525" lon="11.466138048631908"><ele>266.0</ele><time>2026-04-10T17:41:48.933Z</time></trkpt><trkpt lat="44.40620678530583" lon="11.46620801134706"><ele>266.0</ele><time>2026-04-10T17:41:49.933Z</time></trkpt><trkpt lat="44.40624993685389" lon="11.466278902446607"><ele>266.0</ele><time>2026-04-10T17:41:50.933Z</time></trkpt><trkpt lat="44.40632733378477" lon="11.466406608204784"><ele>266.0</ele><time>2026-04-10T17:41:52.933Z</time></trkpt><trkpt lat="44.406395225976866" lon="11.466525174856386"><ele>266.0</ele><time>2026-04-10T17:41:54.933Z</time></trkpt><trkpt lat="44.40646727365162" lon="11.466636637527438"><ele>266.25</ele><time>2026-04-10T17:41:56.933Z</time></trkpt><trkpt lat="44.40653799835418" lon="11.466745271147081"><ele>266.5</ele><time>2026-04-10T17:41:58.933Z</time></trkpt><trkpt lat="44.40661525812378" lon="11.466863425006997"><ele>266.75</ele><time>2026-04-10T17:42:00.932Z</time></trkpt><trkpt lat="44.406689403541954" lon="11.466986760254905"><ele>267.0</ele><time>2026-04-10T17:42:02.932Z</time></trkpt><trkpt lat="44.40676563451126" lon="11.467114075610416"><ele>266.5</ele><time>2026-04-10T17:42:04.932Z</time></trkpt><trkpt lat="44.40684175062367" lon="11.467235547041668"><ele>266.0</ele><time>2026-04-10T17:42:06.932Z</time></trkpt><trkpt lat="44.406921747045466" lon="11.467360269983455"><ele>265.5</ele><time>2026-04-10T17:42:08.932Z</time></trkpt><trkpt lat="44.40699641869156" lon="11.467482149821237"><ele>265.0</ele><time>2026-04-10T17:42:10.932Z</time></trkpt><trkpt lat="44.407062506168074" lon="11.467591096350414"><ele>265.0</ele><time>2026-04-10T17:42:12.932Z</time></trkpt><trkpt lat="44.40711922595626" lon="11.467693853290776"><ele>265.0</ele><time>2026-04-10T17:42:14.932Z</time></trkpt><trkpt lat="44.40716498103766" lon="11.46780752338806"><ele>265.0</ele><time>2026-04-10T17:42:16.932Z</time></trkpt><trkpt lat="44.40722069688415" lon="11.467932526598856"><ele>265.0</ele><time>2026-04-10T17:42:18.932Z</time></trkpt><trkpt lat="44.40725505369511" lon="11.468070790564642"><ele>265.0</ele><time>2026-04-10T17:42:20.932Z</time></trkpt><trkpt lat="44.40729045318107" lon="11.468188070620196"><ele>265.66666666666663</ele><time>2026-04-10T17:42:22.932Z</time></trkpt><trkpt lat="44.407326635292826" lon="11.468298411733652"><ele>266.3333333333333</ele><time>2026-04-10T17:42:24.932Z</time></trkpt><trkpt lat="44.407344308454725" lon="11.468395555418846"><ele>267.0</ele><time>2026-04-10T17:42:26.932Z</time></trkpt><trkpt lat="44.40736701363281" lon="11.468514376763125"><ele>267.6666666666667</ele><time>2026-04-10T17:42:29.932Z</time></trkpt><trkpt lat="44.407383233958534" lon="11.468620849723806"><ele>268.33333333333337</ele><time>2026-04-10T17:42:32.932Z</time></trkpt><trkpt lat="44.407399382955994" lon="11.46874882512616"><ele>269.0</ele><time>2026-04-10T17:42:35.932Z</time></trkpt><trkpt lat="44.407397160527935" lon="11.468862768828348"><ele>269.0</ele><time>2026-04-10T17:42:37.932Z</time></trkpt><trkpt lat="44.40739763895754" lon="11.468970969272572"><ele>269.0</ele><time>2026-04-10T17:42:39.932Z</time></trkpt><trkpt lat="44.407393289282716" lon="11.469064367519413"><ele>269.0</ele><time>2026-04-10T17:42:41.932Z</time></trkpt><trkpt lat="44.40738652323845" lon="11.469160412331766"><ele>269.0</ele><time>2026-04-10T17:42:43.932Z</time></trkpt><trkpt lat="44.40737381049055" lon="11.469264447133519"><ele>269.0</ele><time>2026-04-10T17:42:46.932Z</time></trkpt><trkpt lat="44.407362208871824" lon="11.469370570642948"><ele>269.0</ele><time>2026-04-10T17:42:49.932Z</time></trkpt><trkpt lat="44.40735975715812" lon="11.469487994364624"><ele>269.0</ele><time>2026-04-10T17:42:52.932Z</time></trkpt><trkpt lat="44.40735346850125" lon="11.46959549140335"><ele>268.33333333333337</ele><time>2026-04-10T17:42:55.932Z</time></trkpt><trkpt lat="44.407344111044246" lon="11.469722085363319"><ele>267.6666666666667</ele><time>2026-04-10T17:42:58.932Z</time></trkpt><trkpt lat="44.407342841117696" lon="11.469836445374511"><ele>267.0</ele><time>2026-04-10T17:43:01.932Z</time></trkpt><trkpt lat="44.40734380796233" lon="11.469927445210885"><ele>266.3333333333333</ele><time>2026-04-10T17:43:05.932Z</time></trkpt><trkpt lat="44.40735443930108" lon="11.470031723816884"><ele>265.66666666666663</ele><time>2026-04-10T17:43:25.933Z</time></trkpt><trkpt lat="44.40736330616142" lon="11.47012849206028"><ele>265.0</ele><time>2026-04-10T17:43:27.933Z</time></trkpt><trkpt lat="44.407386618262684" lon="11.470246939291636"><ele>265.0</ele><time>2026-04-10T17:43:29.934Z</time></trkpt><trkpt lat="44.40743576046877" lon="11.470385695669867"><ele>265.0</ele><time>2026-04-10T17:43:31.934Z</time></trkpt><trkpt lat="44.4074697941824" lon="11.470462357920136"><ele>265.0</ele><time>2026-04-10T17:43:32.934Z</time></trkpt><trkpt lat="44.407497288556" lon="11.470547979644241"><ele>265.0</ele><time>2026-04-10T17:43:33.934Z</time></trkpt><trkpt lat="44.4075239904782" lon="11.470651927347134"><ele>265.0</ele><time>2026-04-10T17:43:34.934Z</time></trkpt><trkpt lat="44.40753640278029" lon="11.470765898978561"><ele>265.0</ele><time>2026-04-10T17:43:35.934Z</time></trkpt><trkpt lat="44.40751293700513" lon="11.470883637058815"><ele>265.2</ele><time>2026-04-10T17:43:36.934Z</time></trkpt><trkpt lat="44.40749247400438" lon="11.471006766820587"><ele>265.4</ele><time>2026-04-10T17:43:37.934Z</time></trkpt><trkpt lat="44.4074593136029" lon="11.47112894503425"><ele>265.6</ele><time>2026-04-10T17:43:38.934Z</time></trkpt><trkpt lat="44.40742667836929" lon="11.47126146173048"><ele>265.8</ele><time>2026-04-10T17:43:39.934Z</time></trkpt><trkpt lat="44.407392212595695" lon="11.471397482943798"><ele>266.0</ele><time>2026-04-10T17:43:40.934Z</time></trkpt><trkpt lat="44.4073565099372" lon="11.471535864473427"><ele>264.2</ele><time>2026-04-10T17:43:41.934Z</time></trkpt><trkpt lat="44.40732889526262" lon="11.471673169882248"><ele>262.40000000000003</ele><time>2026-04-10T17:43:42.934Z</time></trkpt><trkpt lat="44.40728488440383" lon="11.4718142544497"><ele>260.6</ele><time>2026-04-10T17:43:43.934Z</time></trkpt><trkpt lat="44.40722958351483" lon="11.471951100635694"><ele>258.8</ele><time>2026-04-10T17:43:44.934Z</time></trkpt><trkpt lat="44.40715381727794" lon="11.47206796374623"><ele>257.0</ele><time>2026-04-10T17:43:45.934Z</time></trkpt><trkpt lat="44.40707898758323" lon="11.472174404664155"><ele>255.66666666666669</ele><time>2026-04-10T17:43:46.934Z</time></trkpt><trkpt lat="44.407008082552224" lon="11.472255139349553"><ele>254.33333333333334</ele><time>2026-04-10T17:43:47.934Z</time></trkpt><trkpt lat="44.406944844228484" lon="11.472326137150459"><ele>253.0</ele><time>2026-04-10T17:43:48.934Z</time></trkpt><trkpt lat="44.40689095107214" lon="11.47238551093059"><ele>251.66666666666669</ele><time>2026-04-10T17:43:49.934Z</time></trkpt><trkpt lat="44.406854371718644" lon="11.472464158454867"><ele>250.33333333333334</ele><time>2026-04-10T17:43:50.934Z</time></trkpt><trkpt lat="44.406770826763" lon="11.4725911374611"><ele>249.0</ele><time>2026-04-10T17:43:52.934Z</time></trkpt><trkpt lat="44.40676815227938" lon="11.47275155363716"><ele>249.0</ele><time>2026-04-10T17:43:54.934Z</time></trkpt><trkpt lat="44.406809094625814" lon="11.472829360033987"><ele>249.0</ele><time>2026-04-10T17:43:55.934Z</time></trkpt><trkpt lat="44.40686802323286" lon="11.472893057904797"><ele>249.0</ele><time>2026-04-10T17:43:56.934Z</time></trkpt><trkpt lat="44.40692797635968" lon="11.47295414953722"><ele>249.0</ele><time>2026-04-10T17:43:57.934Z</time></trkpt><trkpt lat="44.407009135015876" lon="11.472983564725238"><ele>249.0</ele><time>2026-04-10T17:43:58.934Z</time></trkpt><trkpt lat="44.407116666000356" lon="11.47300178969356"><ele>249.0</ele><time>2026-04-10T17:43:59.934Z</time></trkpt><trkpt lat="44.40723337361913" lon="11.47302227218503"><ele>247.25</ele><time>2026-04-10T17:44:00.934Z</time></trkpt><trkpt lat="44.40734189274711" lon="11.47304472970978"><ele>245.5</ele><time>2026-04-10T17:44:01.934Z</time></trkpt><trkpt lat="44.4074642276392" lon="11.473058922233696"><ele>243.75</ele><time>2026-04-10T17:44:02.934Z</time></trkpt><trkpt lat="44.4075884056351" lon="11.473082732370589"><ele>242.0</ele><time>2026-04-10T17:44:03.934Z</time></trkpt><trkpt lat="44.4077088008772" lon="11.473106248205676"><ele>242.0</ele><time>2026-04-10T17:44:04.933Z</time></trkpt><trkpt lat="44.40782680205609" lon="11.473147206411934"><ele>242.0</ele><time>2026-04-10T17:44:05.933Z</time></trkpt><trkpt lat="44.407948488640045" lon="11.473167010431679"><ele>242.0</ele><time>2026-04-10T17:44:06.933Z</time></trkpt><trkpt lat="44.40807378323066" lon="11.473191872698626"><ele>242.0</ele><time>2026-04-10T17:44:07.933Z</time></trkpt><trkpt lat="44.408201174477405" lon="11.473205995491853"><ele>240.5</ele><time>2026-04-10T17:44:08.933Z</time></trkpt><trkpt lat="44.408327608662475" lon="11.473224210502552"><ele>239.0</ele><time>2026-04-10T17:44:09.933Z</time></trkpt><trkpt lat="44.408455527874615" lon="11.473241608187559"><ele>237.5</ele><time>2026-04-10T17:44:10.933Z</time></trkpt><trkpt lat="44.40858711976135" lon="11.473257143319433"><ele>236.0</ele><time>2026-04-10T17:44:11.933Z</time></trkpt><trkpt lat="44.4087171993173" lon="11.473275925990414"><ele>234.0</ele><time>2026-04-10T17:44:12.933Z</time></trkpt><trkpt lat="44.40884887114854" lon="11.473287705304791"><ele>232.0</ele><time>2026-04-10T17:44:13.933Z</time></trkpt><trkpt lat="44.40897947520604" lon="11.473285656528509"><ele>230.0</ele><time>2026-04-10T17:44:14.933Z</time></trkpt><trkpt lat="44.40911790708613" lon="11.473273793859413"><ele>228.0</ele><time>2026-04-10T17:44:15.933Z</time></trkpt><trkpt lat="44.409241282021924" lon="11.473267277136282"><ele>228.0</ele><time>2026-04-10T17:44:16.933Z</time></trkpt><trkpt lat="44.40934911761433" lon="11.47326862996205"><ele>228.0</ele><time>2026-04-10T17:44:17.933Z</time></trkpt><trkpt lat="44.40943618522747" lon="11.473246239366132"><ele>228.0</ele><time>2026-04-10T17:44:18.933Z</time></trkpt><trkpt lat="44.409521130365874" lon="11.473207924202665"><ele>228.0</ele><time>2026-04-10T17:44:19.933Z</time></trkpt><trkpt lat="44.409612707587684" lon="11.473167830561271"><ele>228.0</ele><time>2026-04-10T17:44:20.933Z</time></trkpt><trkpt lat="44.40970303368302" lon="11.473128782277529"><ele>227.83333333333334</ele><time>2026-04-10T17:44:21.933Z</time></trkpt><trkpt lat="44.40979435165967" lon="11.473095898572003"><ele>227.66666666666669</ele><time>2026-04-10T17:44:22.933Z</time></trkpt><trkpt lat="44.40988069248473" lon="11.473063456420684"><ele>227.5</ele><time>2026-04-10T17:44:23.933Z</time></trkpt><trkpt lat="44.4099673814865" lon="11.473040504589894"><ele>227.33333333333334</ele><time>2026-04-10T17:44:24.933Z</time></trkpt><trkpt lat="44.41005922938078" lon="11.473020930157016"><ele>227.16666666666669</ele><time>2026-04-10T17:44:25.933Z</time></trkpt><trkpt lat="44.41013412397553" lon="11.473022760058685"><ele>227.0</ele><time>2026-04-10T17:44:26.933Z</time></trkpt><trkpt lat="44.410213557050675" lon="11.473019165737742"><ele>227.00000000000003</ele><time>2026-04-10T17:44:27.933Z</time></trkpt><trkpt lat="44.41029257667828" lon="11.473041865560852"><ele>227.0</ele><time>2026-04-10T17:44:28.933Z</time></trkpt><trkpt lat="44.410364895096" lon="11.473101557228935"><ele>227.0</ele><time>2026-04-10T17:44:29.933Z</time></trkpt><trkpt lat="44.41044482984347" lon="11.473145258969035"><ele>227.0</ele><time>2026-04-10T17:44:30.933Z</time></trkpt><trkpt lat="44.410525760737386" lon="11.473195842711002"><ele>227.00000000000003</ele><time>2026-04-10T17:44:31.933Z</time></trkpt><trkpt lat="44.41061290912504" lon="11.473252622292563"><ele>227.0</ele><time>2026-04-10T17:44:32.933Z</time></trkpt><trkpt lat="44.410698498732415" lon="11.473310417616007"><ele>225.2</ele><time>2026-04-10T17:44:33.933Z</time></trkpt><trkpt lat="44.41078669898772" lon="11.473367833061724"><ele>223.39999999999998</ele><time>2026-04-10T17:44:34.933Z</time></trkpt><trkpt lat="44.41087884758947" lon="11.473423697626853"><ele>221.60000000000002</ele><time>2026-04-10T17:44:35.933Z</time></trkpt><trkpt lat="44.410975648957454" lon="11.473474162091007"><ele>219.8</ele><time>2026-04-10T17:44:36.933Z</time></trkpt><trkpt lat="44.411072597331334" lon="11.473535348990083"><ele>218.0</ele><time>2026-04-10T17:44:37.933Z</time></trkpt><trkpt lat="44.41117260364985" lon="11.473603669549336"><ele>218.0</ele><time>2026-04-10T17:44:38.933Z</time></trkpt><trkpt lat="44.411269693799376" lon="11.473674201083378"><ele>218.0</ele><time>2026-04-10T17:44:39.933Z</time></trkpt><trkpt lat="44.41136709095989" lon="11.47373971042"><ele>218.0</ele><time>2026-04-10T17:44:40.933Z</time></trkpt><trkpt lat="44.411466222306935" lon="11.473809984278068"><ele>218.0</ele><time>2026-04-10T17:44:41.933Z</time></trkpt><trkpt lat="44.41155234838729" lon="11.47387357383296"><ele>218.0</ele><time>2026-04-10T17:44:42.933Z</time></trkpt><trkpt lat="44.41164263975783" lon="11.473944490649599"><ele>216.2</ele><time>2026-04-10T17:44:43.933Z</time></trkpt><trkpt lat="44.41173424079011" lon="11.474010347335366"><ele>214.4</ele><time>2026-04-10T17:44:44.933Z</time></trkpt><trkpt lat="44.41183156627026" lon="11.474071826281437"><ele>212.6</ele><time>2026-04-10T17:44:45.933Z</time></trkpt><trkpt lat="44.411927176605424" lon="11.474139230919613"><ele>210.79999999999998</ele><time>2026-04-10T17:44:46.933Z</time></trkpt><trkpt lat="44.412023111707654" lon="11.474211453984756"><ele>209.0</ele><time>2026-04-10T17:44:47.933Z</time></trkpt><trkpt lat="44.4121206906037" lon="11.474285190421842"><ele>206.25</ele><time>2026-04-10T17:44:48.933Z</time></trkpt><trkpt lat="44.41221771253531" lon="11.474366789577875"><ele>203.5</ele><time>2026-04-10T17:44:49.933Z</time></trkpt><trkpt lat="44.41232101319155" lon="11.474448029764014"><ele>200.75</ele><time>2026-04-10T17:44:50.933Z</time></trkpt><trkpt lat="44.41242052170499" lon="11.474530093898908"><ele>198.0</ele><time>2026-04-10T17:44:51.933Z</time></trkpt><trkpt lat="44.41252976636407" lon="11.474614384303953"><ele>197.0</ele><time>2026-04-10T17:44:52.933Z</time></trkpt><trkpt lat="44.41263090994308" lon="11.474688303861788"><ele>196.0</ele><time>2026-04-10T17:44:53.933Z</time></trkpt><trkpt lat="44.41274304510496" lon="11.474760024097225"><ele>195.0</ele><time>2026-04-10T17:44:54.933Z</time></trkpt><trkpt lat="44.41285701998463" lon="11.474837866240232"><ele>194.0</ele><time>2026-04-10T17:44:55.933Z</time></trkpt><trkpt lat="44.41296767846361" lon="11.474903745442951"><ele>193.0</ele><time>2026-04-10T17:44:56.933Z</time></trkpt><trkpt lat="44.413089104279535" lon="11.474975780499808"><ele>192.0</ele><time>2026-04-10T17:44:57.933Z</time></trkpt><trkpt lat="44.413196150670565" lon="11.47503379938718"><ele>191.0</ele><time>2026-04-10T17:44:58.933Z</time></trkpt><trkpt lat="44.41331698971815" lon="11.475095743302939"><ele>190.0</ele><time>2026-04-10T17:44:59.933Z</time></trkpt><trkpt lat="44.41342357052607" lon="11.47516730079329"><ele>190.0</ele><time>2026-04-10T17:45:00.933Z</time></trkpt><trkpt lat="44.41353163711963" lon="11.47522987529937"><ele>190.0</ele><time>2026-04-10T17:45:01.933Z</time></trkpt><trkpt lat="44.41363392712607" lon="11.475288394025956"><ele>190.0</ele><time>2026-04-10T17:45:02.933Z</time></trkpt><trkpt lat="44.41374041472298" lon="11.475348229696344"><ele>190.0</ele><time>2026-04-10T17:45:03.933Z</time></trkpt><trkpt lat="44.41383018012859" lon="11.475402331845995"><ele>190.0</ele><time>2026-04-10T17:45:04.933Z</time></trkpt><trkpt lat="44.413932727785244" lon="11.475457745764704"><ele>188.2</ele><time>2026-04-10T17:45:05.933Z</time></trkpt><trkpt lat="44.414029714949834" lon="11.475508830929405"><ele>186.4</ele><time>2026-04-10T17:45:06.933Z</time></trkpt><trkpt lat="44.4141208773227" lon="11.475561421771811"><ele>184.60000000000002</ele><time>2026-04-10T17:45:07.933Z</time></trkpt><trkpt lat="44.41420720884841" lon="11.475611158604266"><ele>182.8</ele><time>2026-04-10T17:45:08.933Z</time></trkpt><trkpt lat="44.4142901565393" lon="11.475659288499948"><ele>181.0</ele><time>2026-04-10T17:45:09.933Z</time></trkpt><trkpt lat="44.414363076218606" lon="11.475703327744116"><ele>181.0</ele><time>2026-04-10T17:45:10.933Z</time></trkpt><trkpt lat="44.41443382847371" lon="11.47573886056793"><ele>181.0</ele><time>2026-04-10T17:45:11.933Z</time></trkpt><trkpt lat="44.414504201620375" lon="11.475773550979108"><ele>181.0</ele><time>2026-04-10T17:45:12.933Z</time></trkpt><trkpt lat="44.414576189202364" lon="11.47581887913109"><ele>181.0</ele><time>2026-04-10T17:45:13.933Z</time></trkpt><trkpt lat="44.414641187429524" lon="11.475852909979286"><ele>181.0</ele><time>2026-04-10T17:45:14.933Z</time></trkpt><trkpt lat="44.414700964080424" lon="11.47588486135938"><ele>181.0</ele><time>2026-04-10T17:45:15.933Z</time></trkpt><trkpt lat="44.414809796363734" lon="11.47593981076708"><ele>181.5</ele><time>2026-04-10T17:45:17.933Z</time></trkpt><trkpt lat="44.41489943020918" lon="11.475980442103467"><ele>182.0</ele><time>2026-04-10T17:45:19.933Z</time></trkpt><trkpt lat="44.414995292659924" lon="11.47601144601485"><ele>182.5</ele><time>2026-04-10T17:45:21.933Z</time></trkpt><trkpt lat="44.41509783800031" lon="11.476034217775277"><ele>183.0</ele><time>2026-04-10T17:45:23.933Z</time></trkpt><trkpt lat="44.41595782809133" lon="11.47610660510493"><ele>181.60000000000002</ele><time>2026-04-10T17:45:33.955Z</time></trkpt><trkpt lat="44.41607567443268" lon="11.476169734090227"><ele>180.20000000000002</ele><time>2026-04-10T17:45:34.955Z</time></trkpt><trkpt lat="44.416140043121636" lon="11.476236427678193"><ele>178.8</ele><time>2026-04-10T17:45:35.955Z</time></trkpt><trkpt lat="44.41625612863357" lon="11.476260063290676"><ele>177.4</ele><time>2026-04-10T17:45:36.955Z</time></trkpt><trkpt lat="44.41633713048475" lon="11.47628754085106"><ele>176.0</ele><time>2026-04-10T17:45:37.955Z</time></trkpt><trkpt lat="44.416416586566896" lon="11.476290220929798"><ele>175.0</ele><time>2026-04-10T17:45:38.935Z</time></trkpt><trkpt lat="44.41649388720507" lon="11.47630820051421"><ele>174.0</ele><time>2026-04-10T17:45:40Z</time></trkpt><trkpt lat="44.416567929091784" lon="11.476318532040462"><ele>173.0</ele><time>2026-04-10T17:45:41Z</time></trkpt><trkpt lat="44.416692691914534" lon="11.476290972124112"><ele>172.0</ele><time>2026-04-10T17:45:43Z</time></trkpt><trkpt lat="44.41675498275358" lon="11.476257803833485"><ele>171.0</ele><time>2026-04-10T17:45:44Z</time></trkpt><trkpt lat="44.41681206463257" lon="11.476197491344443"><ele>170.0</ele><time>2026-04-10T17:45:45Z</time></trkpt><trkpt lat="44.41687049055442" lon="11.47612447215543"><ele>169.66666666666666</ele><time>2026-04-10T17:45:46Z</time></trkpt><trkpt lat="44.41692566225932" lon="11.476050621437171"><ele>169.33333333333331</ele><time>2026-04-10T17:45:47Z</time></trkpt><trkpt lat="44.41698523508054" lon="11.475962534498091"><ele>169.0</ele><time>2026-04-10T17:45:48Z</time></trkpt><trkpt lat="44.41704623576851" lon="11.475864005330907"><ele>168.66666666666666</ele><time>2026-04-10T17:45:49Z</time></trkpt><trkpt lat="44.41709321441765" lon="11.475748319726955"><ele>168.33333333333334</ele><time>2026-04-10T17:45:50Z</time></trkpt><trkpt lat="44.417155940956505" lon="11.475644056983493"><ele>168.0</ele><time>2026-04-10T17:45:51Z</time></trkpt><trkpt lat="44.417244032920806" lon="11.475559040575341"><ele>166.20000000000002</ele><time>2026-04-10T17:45:52Z</time></trkpt><trkpt lat="44.41733000079582" lon="11.475482299596354"><ele>164.4</ele><time>2026-04-10T17:45:53Z</time></trkpt><trkpt lat="44.417434700393486" lon="11.4754502321859"><ele>162.60000000000002</ele><time>2026-04-10T17:45:54Z</time></trkpt><trkpt lat="44.41753274060139" lon="11.47544258700379"><ele>160.8</ele><time>2026-04-10T17:45:55Z</time></trkpt><trkpt lat="44.41762747510088" lon="11.475426489722816"><ele>159.0</ele><time>2026-04-10T17:45:56Z</time></trkpt><trkpt lat="44.417728917492404" lon="11.475438984347836"><ele>159.0</ele><time>2026-04-10T17:45:57Z</time></trkpt><trkpt lat="44.41783221658348" lon="11.475460280206134"><ele>159.0</ele><time>2026-04-10T17:45:58Z</time></trkpt><trkpt lat="44.41793200240183" lon="11.4754782104658"><ele>159.0</ele><time>2026-04-10T17:45:59Z</time></trkpt><trkpt lat="44.41803428977733" lon="11.475491252026618"><ele>159.0</ele><time>2026-04-10T17:46:00Z</time></trkpt><trkpt lat="44.41812768474184" lon="11.475475478234948"><ele>159.0</ele><time>2026-04-10T17:46:01Z</time></trkpt><trkpt lat="44.4182246726703" lon="11.47545182850918"><ele>157.2</ele><time>2026-04-10T17:46:02Z</time></trkpt><trkpt lat="44.41832024775817" lon="11.475415239853001"><ele>155.4</ele><time>2026-04-10T17:46:03Z</time></trkpt><trkpt lat="44.41841948462471" lon="11.475381579824667"><ele>153.6</ele><time>2026-04-10T17:46:04Z</time></trkpt><trkpt lat="44.418518096901444" lon="11.475362991030645"><ele>151.8</ele><time>2026-04-10T17:46:05Z</time></trkpt><trkpt lat="44.418615509190694" lon="11.475361759773199"><ele>150.0</ele><time>2026-04-10T17:46:06Z</time></trkpt><trkpt lat="44.418722013313015" lon="11.47535558243518"><ele>148.75</ele><time>2026-04-10T17:46:07Z</time></trkpt><trkpt lat="44.418908297811186" lon="11.475365679054839"><ele>147.5</ele><time>2026-04-10T17:46:09Z</time></trkpt><trkpt lat="44.41899913138098" lon="11.475372859194938"><ele>146.25</ele><time>2026-04-10T17:46:10Z</time></trkpt><trkpt lat="44.41909155667666" lon="11.475377946608845"><ele>145.0</ele><time>2026-04-10T17:46:11Z</time></trkpt><trkpt lat="44.41918442687742" lon="11.475383019381761"><ele>145.0</ele><time>2026-04-10T17:46:12Z</time></trkpt><trkpt lat="44.41927569893752" lon="11.4753834932098"><ele>145.0</ele><time>2026-04-10T17:46:13Z</time></trkpt><trkpt lat="44.419366521284516" lon="11.475387254157322"><ele>145.0</ele><time>2026-04-10T17:46:14Z</time></trkpt><trkpt lat="44.41945969977779" lon="11.475394558587526"><ele>145.0</ele><time>2026-04-10T17:46:15Z</time></trkpt><trkpt lat="44.419551593955696" lon="11.475406572529343"><ele>145.0</ele><time>2026-04-10T17:46:16Z</time></trkpt><trkpt lat="44.41964636606689" lon="11.475410677830112"><ele>144.8</ele><time>2026-04-10T17:46:17Z</time></trkpt><trkpt lat="44.41974095379493" lon="11.47541390248344"><ele>144.6</ele><time>2026-04-10T17:46:18Z</time></trkpt><trkpt lat="44.41983204430115" lon="11.475418982513371"><ele>144.4</ele><time>2026-04-10T17:46:19Z</time></trkpt><trkpt lat="44.41992309142252" lon="11.475435567821437"><ele>144.2</ele><time>2026-04-10T17:46:20Z</time></trkpt><trkpt lat="44.420015389995875" lon="11.475455260111103"><ele>144.0</ele><time>2026-04-10T17:46:21Z</time></trkpt><trkpt lat="44.42010421650698" lon="11.475483987241693"><ele>144.0</ele><time>2026-04-10T17:46:22Z</time></trkpt><trkpt lat="44.420179147197494" lon="11.475548978938711"><ele>144.0</ele><time>2026-04-10T17:46:23Z</time></trkpt><trkpt lat="44.42025701643775" lon="11.475609379033964"><ele>144.0</ele><time>2026-04-10T17:46:24Z</time></trkpt><trkpt lat="44.42033903853799" lon="11.475663396109374"><ele>144.0</ele><time>2026-04-10T17:46:25Z</time></trkpt><trkpt lat="44.420407172410854" lon="11.475727153548466"><ele>144.0</ele><time>2026-04-10T17:46:26.001Z</time></trkpt><trkpt lat="44.42048111160665" lon="11.47579010540048"><ele>144.0</ele><time>2026-04-10T17:46:27.001Z</time></trkpt><trkpt lat="44.42055456837209" lon="11.475856968365026"><ele>143.66666666666666</ele><time>2026-04-10T17:46:28.001Z</time></trkpt><trkpt lat="44.42062744300877" lon="11.475920829292857"><ele>143.33333333333334</ele><time>2026-04-10T17:46:29.001Z</time></trkpt><trkpt lat="44.42070025830141" lon="11.475984599947997"><ele>143.0</ele><time>2026-04-10T17:46:30.001Z</time></trkpt><trkpt lat="44.42076761009276" lon="11.476047173080051"><ele>142.66666666666669</ele><time>2026-04-10T17:46:31.001Z</time></trkpt><trkpt lat="44.420838560674746" lon="11.476113435564907"><ele>142.33333333333334</ele><time>2026-04-10T17:46:32.001Z</time></trkpt><trkpt lat="44.420912276239875" lon="11.47617852765608"><ele>142.0</ele><time>2026-04-10T17:46:33.001Z</time></trkpt><trkpt lat="44.420980874666505" lon="11.476244115426033"><ele>141.0</ele><time>2026-04-10T17:46:34.001Z</time></trkpt><trkpt lat="44.42105495884466" lon="11.47631216140456"><ele>140.0</ele><time>2026-04-10T17:46:35.001Z</time></trkpt><trkpt lat="44.421132237273746" lon="11.476384179725095"><ele>139.0</ele><time>2026-04-10T17:46:36.001Z</time></trkpt><trkpt lat="44.421206919179724" lon="11.476452041757153"><ele>138.0</ele><time>2026-04-10T17:46:37.001Z</time></trkpt><trkpt lat="44.42128243871917" lon="11.476526518224526"><ele>137.0</ele><time>2026-04-10T17:46:38.001Z</time></trkpt><trkpt lat="44.42136874599715" lon="11.476596611261716"><ele>137.0</ele><time>2026-04-10T17:46:39.001Z</time></trkpt><trkpt lat="44.42144488427882" lon="11.476668889572963"><ele>137.0</ele><time>2026-04-10T17:46:40.001Z</time></trkpt><trkpt lat="44.42152515007606" lon="11.47675541324591"><ele>137.0</ele><time>2026-04-10T17:46:41.001Z</time></trkpt><trkpt lat="44.42159984704712" lon="11.47684447081203"><ele>137.0</ele><time>2026-04-10T17:46:42.001Z</time></trkpt><trkpt lat="44.42167639462572" lon="11.476939321071178"><ele>137.0</ele><time>2026-04-10T17:46:43.001Z</time></trkpt><trkpt lat="44.421750420761136" lon="11.477027846861205"><ele>136.2</ele><time>2026-04-10T17:46:44.001Z</time></trkpt><trkpt lat="44.42182403976924" lon="11.47711324077694"><ele>135.39999999999998</ele><time>2026-04-10T17:46:45.001Z</time></trkpt><trkpt lat="44.42190314847741" lon="11.477208221768581"><ele>134.60000000000002</ele><time>2026-04-10T17:46:46.001Z</time></trkpt><trkpt lat="44.42198820034297" lon="11.477299300003185"><ele>133.8</ele><time>2026-04-10T17:46:47.001Z</time></trkpt><trkpt lat="44.422069004230096" lon="11.47739146343959"><ele>133.0</ele><time>2026-04-10T17:46:48.001Z</time></trkpt><trkpt lat="44.422161453571064" lon="11.477472973909093"><ele>131.6</ele><time>2026-04-10T17:46:49.001Z</time></trkpt><trkpt lat="44.422244305371414" lon="11.477551137926273"><ele>130.20000000000002</ele><time>2026-04-10T17:46:50.001Z</time></trkpt><trkpt lat="44.4223322535291" lon="11.477633744266154"><ele>128.8</ele><time>2026-04-10T17:46:51.001Z</time></trkpt><trkpt lat="44.422412785528266" lon="11.477723318821159"><ele>127.4</ele><time>2026-04-10T17:46:52.001Z</time></trkpt><trkpt lat="44.42250373597891" lon="11.477809432820445"><ele>126.0</ele><time>2026-04-10T17:46:53.001Z</time></trkpt><trkpt lat="44.42259754291594" lon="11.477896402601436"><ele>125.0</ele><time>2026-04-10T17:46:54.001Z</time></trkpt><trkpt lat="44.422696042329214" lon="11.47798238425475"><ele>124.0</ele><time>2026-04-10T17:46:55.001Z</time></trkpt><trkpt lat="44.42279457531573" lon="11.478064966985668"><ele>123.0</ele><time>2026-04-10T17:46:56.001Z</time></trkpt><trkpt lat="44.42289808053363" lon="11.478138650712179"><ele>122.0</ele><time>2026-04-10T17:46:57.001Z</time></trkpt><trkpt lat="44.42300282362726" lon="11.478215447589127"><ele>120.39999999999999</ele><time>2026-04-10T17:46:58.001Z</time></trkpt><trkpt lat="44.423102377466705" lon="11.478286788494794"><ele>118.79999999999998</ele><time>2026-04-10T17:46:59.001Z</time></trkpt><trkpt lat="44.423204126975946" lon="11.47835548236935"><ele>117.2</ele><time>2026-04-10T17:47:00.001Z</time></trkpt><trkpt lat="44.423302611665676" lon="11.478425881880357"><ele>115.6</ele><time>2026-04-10T17:47:01.001Z</time></trkpt><trkpt lat="44.42340443013776" lon="11.47849759240684"><ele>114.0</ele><time>2026-04-10T17:47:02.001Z</time></trkpt><trkpt lat="44.423503379180204" lon="11.478567243406863"><ele>114.0</ele><time>2026-04-10T17:47:03.001Z</time></trkpt><trkpt lat="44.42360274434493" lon="11.478639116674355"><ele>114.0</ele><time>2026-04-10T17:47:04.001Z</time></trkpt><trkpt lat="44.42370039260122" lon="11.478711895099497"><ele>114.0</ele><time>2026-04-10T17:47:05.001Z</time></trkpt><trkpt lat="44.42379608588794" lon="11.47877965911428"><ele>114.0</ele><time>2026-04-10T17:47:06.001Z</time></trkpt><trkpt lat="44.42388700979813" lon="11.478844811132772"><ele>114.0</ele><time>2026-04-10T17:47:07.001Z</time></trkpt><trkpt lat="44.42397683336777" lon="11.478908222566767"><ele>113.80000000000001</ele><time>2026-04-10T17:47:08.001Z</time></trkpt><trkpt lat="44.42406229339094" lon="11.478974376771221"><ele>113.60000000000001</ele><time>2026-04-10T17:47:09.001Z</time></trkpt><trkpt lat="44.424145890337016" lon="11.479033495852391"><ele>113.4</ele><time>2026-04-10T17:47:10.001Z</time></trkpt><trkpt lat="44.42422335473847" lon="11.479091479608604"><ele>113.2</ele><time>2026-04-10T17:47:11.001Z</time></trkpt><trkpt lat="44.42430256879083" lon="11.479147611017353"><ele>113.0</ele><time>2026-04-10T17:47:12.001Z</time></trkpt><trkpt lat="44.42438155778881" lon="11.47920568783357"><ele>112.99999999999999</ele><time>2026-04-10T17:47:13.001Z</time></trkpt><trkpt lat="44.42445596030214" lon="11.47925851952766"><ele>113.0</ele><time>2026-04-10T17:47:14.001Z</time></trkpt><trkpt lat="44.42453240018687" lon="11.479307655195266"><ele>113.0</ele><time>2026-04-10T17:47:15.001Z</time></trkpt><trkpt lat="44.424605305558856" lon="11.479351171747473"><ele>113.0</ele><time>2026-04-10T17:47:16.001Z</time></trkpt><trkpt lat="44.42467846311499" lon="11.47939096216843"><ele>112.99999999999999</ele><time>2026-04-10T17:47:17.001Z</time></trkpt><trkpt lat="44.42475107173018" lon="11.47943657401258"><ele>113.0</ele><time>2026-04-10T17:47:18.001Z</time></trkpt><trkpt lat="44.42482185442362" lon="11.479478127398526"><ele>112.33333333333333</ele><time>2026-04-10T17:47:19.001Z</time></trkpt><trkpt lat="44.42489876858015" lon="11.479525238513252"><ele>111.66666666666666</ele><time>2026-04-10T17:47:20.001Z</time></trkpt><trkpt lat="44.42497711202425" lon="11.479577538476999"><ele>111.0</ele><time>2026-04-10T17:47:21.001Z</time></trkpt><trkpt lat="44.42505187142093" lon="11.479630030559468"><ele>110.33333333333334</ele><time>2026-04-10T17:47:22.001Z</time></trkpt><trkpt lat="44.425129259875874" lon="11.4796774990249"><ele>109.66666666666667</ele><time>2026-04-10T17:47:23.001Z</time></trkpt><trkpt lat="44.42520454616326" lon="11.479727598197398"><ele>109.0</ele><time>2026-04-10T17:47:24.001Z</time></trkpt><trkpt lat="44.42527967291743" lon="11.479772766783201"><ele>109.00000000000001</ele><time>2026-04-10T17:47:25.001Z</time></trkpt><trkpt lat="44.42535820009104" lon="11.47982141725549"><ele>109.0</ele><time>2026-04-10T17:47:26.001Z</time></trkpt><trkpt lat="44.42543834396528" lon="11.479868054120015"><ele>109.0</ele><time>2026-04-10T17:47:27.001Z</time></trkpt><trkpt lat="44.42551534710838" lon="11.47991041901547"><ele>109.0</ele><time>2026-04-10T17:47:28.001Z</time></trkpt><trkpt lat="44.42559483490712" lon="11.479951086599439"><ele>109.00000000000001</ele><time>2026-04-10T17:47:29.001Z</time></trkpt><trkpt lat="44.42567084574602" lon="11.47998884008889"><ele>109.0</ele><time>2026-04-10T17:47:30.001Z</time></trkpt><trkpt lat="44.42575019445948" lon="11.480036527201241"><ele>108.33333333333334</ele><time>2026-04-10T17:47:31.001Z</time></trkpt><trkpt lat="44.42582882436906" lon="11.480081216101006"><ele>107.66666666666667</ele><time>2026-04-10T17:47:32.001Z</time></trkpt><trkpt lat="44.42590597963494" lon="11.480128696555942"><ele>107.0</ele><time>2026-04-10T17:47:33.001Z</time></trkpt><trkpt lat="44.425985462533056" lon="11.48017447237273"><ele>106.33333333333334</ele><time>2026-04-10T17:47:34.001Z</time></trkpt><trkpt lat="44.42606232876885" lon="11.480216231369427"><ele>105.66666666666667</ele><time>2026-04-10T17:47:35.001Z</time></trkpt><trkpt lat="44.426136335594734" lon="11.480258230956155"><ele>105.0</ele><time>2026-04-10T17:47:36.001Z</time></trkpt><trkpt lat="44.42620879735607" lon="11.480302949894497"><ele>105.0</ele><time>2026-04-10T17:47:37.001Z</time></trkpt><trkpt lat="44.42628008333921" lon="11.480355676498249"><ele>105.0</ele><time>2026-04-10T17:47:38.001Z</time></trkpt><trkpt lat="44.42635208941322" lon="11.480403065943001"><ele>105.0</ele><time>2026-04-10T17:47:39.001Z</time></trkpt><trkpt lat="44.42642765167089" lon="11.480447853247302"><ele>105.0</ele><time>2026-04-10T17:47:40.001Z</time></trkpt><trkpt lat="44.426503172478505" lon="11.480493610724059"><ele>105.0</ele><time>2026-04-10T17:47:41.001Z</time></trkpt><trkpt lat="44.426581211457766" lon="11.48054069354712"><ele>105.0</ele><time>2026-04-10T17:47:42.001Z</time></trkpt><trkpt lat="44.426656383679294" lon="11.480587191006913"><ele>104.33333333333333</ele><time>2026-04-10T17:47:43.001Z</time></trkpt><trkpt lat="44.42673351606275" lon="11.480632983842249"><ele>103.66666666666666</ele><time>2026-04-10T17:47:44.001Z</time></trkpt><trkpt lat="44.42680665945918" lon="11.480681890108878"><ele>103.0</ele><time>2026-04-10T17:47:45.001Z</time></trkpt><trkpt lat="44.426883577564055" lon="11.48073614464995"><ele>102.33333333333333</ele><time>2026-04-10T17:47:46.001Z</time></trkpt><trkpt lat="44.42695843450082" lon="11.480786465712981"><ele>101.66666666666666</ele><time>2026-04-10T17:47:47.001Z</time></trkpt><trkpt lat="44.42702966387095" lon="11.480839345758609"><ele>101.0</ele><time>2026-04-10T17:47:48.001Z</time></trkpt><trkpt lat="44.427099759009714" lon="11.48089062233595"><ele>100.99999999999999</ele><time>2026-04-10T17:47:49.001Z</time></trkpt><trkpt lat="44.42716589822435" lon="11.480940265333825"><ele>101.0</ele><time>2026-04-10T17:47:50.001Z</time></trkpt><trkpt lat="44.427234724162254" lon="11.480990097227616"><ele>101.0</ele><time>2026-04-10T17:47:51.001Z</time></trkpt><trkpt lat="44.4273047807786" lon="11.481039174182122"><ele>101.0</ele><time>2026-04-10T17:47:52.001Z</time></trkpt><trkpt lat="44.427372968934996" lon="11.481083570019715"><ele>100.99999999999999</ele><time>2026-04-10T17:47:53.001Z</time></trkpt><trkpt lat="44.42744129746185" lon="11.481129894072794"><ele>101.0</ele><time>2026-04-10T17:47:54.001Z</time></trkpt><trkpt lat="44.427506999842464" lon="11.481170967966547"><ele>101.0</ele><time>2026-04-10T17:47:55.001Z</time></trkpt><trkpt lat="44.427570212708595" lon="11.4812115743925"><ele>101.0</ele><time>2026-04-10T17:47:56.001Z</time></trkpt><trkpt lat="44.42763112947228" lon="11.481255992651288"><ele>101.0</ele><time>2026-04-10T17:47:57.001Z</time></trkpt><trkpt lat="44.427694320836466" lon="11.481296664222555"><ele>101.0</ele><time>2026-04-10T17:47:58.001Z</time></trkpt><trkpt lat="44.42775277535789" lon="11.481333872728861"><ele>101.0</ele><time>2026-04-10T17:47:59.001Z</time></trkpt><trkpt lat="44.42781495909208" lon="11.4813748468063"><ele>101.0</ele><time>2026-04-10T17:48:00.001Z</time></trkpt><trkpt lat="44.42787725828112" lon="11.48141259117163"><ele>101.0</ele><time>2026-04-10T17:48:01.001Z</time></trkpt><trkpt lat="44.42794186972337" lon="11.481448159485005"><ele>99.8</ele><time>2026-04-10T17:48:02.001Z</time></trkpt><trkpt lat="44.42800074113388" lon="11.48148245581674"><ele>98.6</ele><time>2026-04-10T17:48:03.001Z</time></trkpt><trkpt lat="44.42806651731414" lon="11.481508951342017"><ele>97.4</ele><time>2026-04-10T17:48:04.001Z</time></trkpt><trkpt lat="44.42818259917166" lon="11.481559422146683"><ele>96.2</ele><time>2026-04-10T17:48:06.001Z</time></trkpt><trkpt lat="44.428297855873275" lon="11.481581424526167"><ele>95.0</ele><time>2026-04-10T17:48:08.001Z</time></trkpt><trkpt lat="44.42841246331271" lon="11.481592936970586"><ele>95.0</ele><time>2026-04-10T17:48:10.001Z</time></trkpt><trkpt lat="44.428528625374135" lon="11.481614551813955"><ele>95.0</ele><time>2026-04-10T17:48:12.001Z</time></trkpt><trkpt lat="44.42864787686126" lon="11.481639243449159"><ele>95.0</ele><time>2026-04-10T17:48:14.001Z</time></trkpt><trkpt lat="44.42876508000875" lon="11.481667420153267"><ele>95.0</ele><time>2026-04-10T17:48:16.001Z</time></trkpt><trkpt lat="44.42887457854045" lon="11.48170164585438"><ele>95.25</ele><time>2026-04-10T17:48:18.001Z</time></trkpt><trkpt lat="44.42895143217982" lon="11.481745991764685"><ele>95.5</ele><time>2026-04-10T17:48:20.001Z</time></trkpt><trkpt lat="44.4290166132855" lon="11.481549869490918"><ele>95.75</ele><time>2026-04-10T17:48:21.001Z</time></trkpt><trkpt lat="44.42905336640527" lon="11.481397439033504"><ele>96.0</ele><time>2026-04-10T17:48:23.001Z</time></trkpt><trkpt lat="44.429099915847566" lon="11.481262697791495"><ele>95.4</ele><time>2026-04-10T17:48:25.001Z</time></trkpt><trkpt lat="44.42914820566082" lon="11.481106433765738"><ele>94.8</ele><time>2026-04-10T17:48:27.001Z</time></trkpt><trkpt lat="44.42919941464066" lon="11.480955082805943"><ele>94.2</ele><time>2026-04-10T17:48:29.001Z</time></trkpt><trkpt lat="44.42924879055691" lon="11.48079567915996"><ele>93.60000000000001</ele><time>2026-04-10T17:48:31.001Z</time></trkpt><trkpt lat="44.42927423550664" lon="11.480712948182463"><ele>93.0</ele><time>2026-04-10T17:48:32.001Z</time></trkpt><trkpt lat="44.42929704247183" lon="11.480628882966363"><ele>93.00000000000001</ele><time>2026-04-10T17:48:33.001Z</time></trkpt><trkpt lat="44.429325259613044" lon="11.480546250507315"><ele>93.0</ele><time>2026-04-10T17:48:34.001Z</time></trkpt><trkpt lat="44.42935051088754" lon="11.480459304466724"><ele>93.0</ele><time>2026-04-10T17:48:35.001Z</time></trkpt><trkpt lat="44.42937204019169" lon="11.48037312062261"><ele>93.0</ele><time>2026-04-10T17:48:36.001Z</time></trkpt><trkpt lat="44.42938710965829" lon="11.480285175204955"><ele>93.0</ele><time>2026-04-10T17:48:37.001Z</time></trkpt><trkpt lat="44.42941382325681" lon="11.480197927303381"><ele>93.00000000000001</ele><time>2026-04-10T17:48:38.001Z</time></trkpt><trkpt lat="44.42943269473158" lon="11.48010093690247"><ele>93.0</ele><time>2026-04-10T17:48:39.001Z</time></trkpt><trkpt lat="44.42949085756573" lon="11.479927598081341"><ele>92.66666666666667</ele><time>2026-04-10T17:48:41.001Z</time></trkpt><trkpt lat="44.42952049100453" lon="11.47984311292324"><ele>92.33333333333333</ele><time>2026-04-10T17:48:42.001Z</time></trkpt><trkpt lat="44.429547973290525" lon="11.479760035353513"><ele>92.0</ele><time>2026-04-10T17:48:43.001Z</time></trkpt><trkpt lat="44.429578263721474" lon="11.479675687582697"><ele>91.66666666666666</ele><time>2026-04-10T17:48:44.001Z</time></trkpt><trkpt lat="44.42960763678761" lon="11.479592870543101"><ele>91.33333333333333</ele><time>2026-04-10T17:48:45.001Z</time></trkpt><trkpt lat="44.42965659562027" lon="11.47941719889173"><ele>91.0</ele><time>2026-04-10T17:48:47.001Z</time></trkpt><trkpt lat="44.42969060132846" lon="11.479341795691106"><ele>90.28571428571429</ele><time>2026-04-10T17:48:48.001Z</time></trkpt><trkpt lat="44.42971605272959" lon="11.479256964925112"><ele>89.57142857142857</ele><time>2026-04-10T17:48:49.001Z</time></trkpt><trkpt lat="44.42974683093829" lon="11.47916255685964"><ele>88.85714285714286</ele><time>2026-04-10T17:48:50.001Z</time></trkpt><trkpt lat="44.429769614207025" lon="11.47907901612917"><ele>88.14285714285714</ele><time>2026-04-10T17:48:51.001Z</time></trkpt><trkpt lat="44.42980229305223" lon="11.478979961497027"><ele>87.42857142857143</ele><time>2026-04-10T17:48:52.001Z</time></trkpt><trkpt lat="44.429833041546544" lon="11.478887111590907"><ele>86.71428571428572</ele><time>2026-04-10T17:48:53.001Z</time></trkpt><trkpt lat="44.42986613803819" lon="11.478781004110054"><ele>86.0</ele><time>2026-04-10T17:48:54.001Z</time></trkpt><trkpt lat="44.42989685806262" lon="11.47867894013043"><ele>86.0</ele><time>2026-04-10T17:48:55.001Z</time></trkpt><trkpt lat="44.42992268294766" lon="11.478577255713798"><ele>86.0</ele><time>2026-04-10T17:48:56.001Z</time></trkpt><trkpt lat="44.42995944799202" lon="11.47847052660264"><ele>86.0</ele><time>2026-04-10T17:48:57.001Z</time></trkpt><trkpt lat="44.42999413315436" lon="11.478371472221573"><ele>86.0</ele><time>2026-04-10T17:48:58.001Z</time></trkpt><trkpt lat="44.43002906533425" lon="11.47826025150414"><ele>86.0</ele><time>2026-04-10T17:48:59.001Z</time></trkpt><trkpt lat="44.43005578518058" lon="11.478150395945491"><ele>86.0</ele><time>2026-04-10T17:49:00.001Z</time></trkpt><trkpt lat="44.43008701774403" lon="11.478045425412676"><ele>86.00000000000001</ele><time>2026-04-10T17:49:01.001Z</time></trkpt><trkpt lat="44.430114077441395" lon="11.477941530127167"><ele>86.0</ele><time>2026-04-10T17:49:02.001Z</time></trkpt><trkpt lat="44.4301429029539" lon="11.47783414941229"><ele>86.0</ele><time>2026-04-10T17:49:03.001Z</time></trkpt><trkpt lat="44.43016729843276" lon="11.477740422397972"><ele>86.0</ele><time>2026-04-10T17:49:04.001Z</time></trkpt><trkpt lat="44.43019272154592" lon="11.477649508865033"><ele>86.0</ele><time>2026-04-10T17:49:05.001Z</time></trkpt><trkpt lat="44.43020566068507" lon="11.47755501029601"><ele>86.00000000000001</ele><time>2026-04-10T17:49:06.001Z</time></trkpt><trkpt lat="44.43022238793353" lon="11.477459777592841"><ele>86.0</ele><time>2026-04-10T17:49:07.001Z</time></trkpt><trkpt lat="44.43023440086172" lon="11.477301547249537"><ele>85.83333333333334</ele><time>2026-04-10T17:49:09.001Z</time></trkpt><trkpt lat="44.43024850896067" lon="11.477158022847254"><ele>85.66666666666667</ele><time>2026-04-10T17:49:11.001Z</time></trkpt><trkpt lat="44.430265316507196" lon="11.477019233830644"><ele>85.5</ele><time>2026-04-10T17:49:13.002Z</time></trkpt><trkpt lat="44.43027267159396" lon="11.476921189862349"><ele>85.33333333333333</ele><time>2026-04-10T17:49:15.002Z</time></trkpt><trkpt lat="44.43028546866286" lon="11.476786700318742"><ele>85.16666666666666</ele><time>2026-04-10T17:49:18.002Z</time></trkpt><trkpt lat="44.430298878634886" lon="11.476682900874467"><ele>85.0</ele><time>2026-04-10T17:49:20.002Z</time></trkpt><trkpt lat="44.43030798098873" lon="11.476572219692297"><ele>85.57142857142857</ele><time>2026-04-10T17:49:22.002Z</time></trkpt><trkpt lat="44.43032011531202" lon="11.476469210711699"><ele>86.14285714285714</ele><time>2026-04-10T17:49:24.002Z</time></trkpt><trkpt lat="44.430331573554916" lon="11.476367331255235"><ele>86.71428571428571</ele><time>2026-04-10T17:49:26.002Z</time></trkpt><trkpt lat="44.4303469677192" lon="11.476248697728225"><ele>87.28571428571428</ele><time>2026-04-10T17:49:28.002Z</time></trkpt><trkpt lat="44.4303675014174" lon="11.47614980598653"><ele>87.85714285714286</ele><time>2026-04-10T17:49:30.002Z</time></trkpt><trkpt lat="44.430383683491804" lon="11.47606030143094"><ele>88.42857142857142</ele><time>2026-04-10T17:49:32.002Z</time></trkpt><trkpt lat="44.43040132186433" lon="11.475962230711989"><ele>89.0</ele><time>2026-04-10T17:49:34.002Z</time></trkpt><trkpt lat="44.4304266633976" lon="11.475867924614318"><ele>89.57142857142857</ele><time>2026-04-10T17:49:36.002Z</time></trkpt><trkpt lat="44.430450893378215" lon="11.475774700645665"><ele>90.14285714285714</ele><time>2026-04-10T17:49:38.002Z</time></trkpt><trkpt lat="44.430485283137905" lon="11.47568952370698"><ele>90.71428571428572</ele><time>2026-04-10T17:49:40.002Z</time></trkpt><trkpt lat="44.4305105195104" lon="11.475596567728063"><ele>91.28571428571428</ele><time>2026-04-10T17:49:42.002Z</time></trkpt><trkpt lat="44.430541214059" lon="11.475511635234692"><ele>91.85714285714286</ele><time>2026-04-10T17:49:44.002Z</time></trkpt><trkpt lat="44.43057403086084" lon="11.475428484122386"><ele>92.42857142857143</ele><time>2026-04-10T17:49:46.002Z</time></trkpt><trkpt lat="44.43061371839332" lon="11.475332074423854"><ele>93.0</ele><time>2026-04-10T17:49:48.002Z</time></trkpt><trkpt lat="44.43065514337648" lon="11.475237412185574"><ele>93.83333333333333</ele><time>2026-04-10T17:49:50.002Z</time></trkpt><trkpt lat="44.43070298320076" lon="11.475154291219436"><ele>94.66666666666666</ele><time>2026-04-10T17:49:52.002Z</time></trkpt><trkpt lat="44.430740747001764" lon="11.475069294527572"><ele>95.5</ele><time>2026-04-10T17:49:54.002Z</time></trkpt><trkpt lat="44.430787755034885" lon="11.474980746432303"><ele>96.33333333333333</ele><time>2026-04-10T17:49:56.002Z</time></trkpt><trkpt lat="44.4308413400673" lon="11.474894898025715"><ele>97.16666666666666</ele><time>2026-04-10T17:49:58.002Z</time></trkpt><trkpt lat="44.4308855142039" lon="11.474806908585288"><ele>98.0</ele><time>2026-04-10T17:50:00.002Z</time></trkpt><trkpt lat="44.43093603569589" lon="11.474717999132867"><ele>97.99999999999999</ele><time>2026-04-10T17:50:02.002Z</time></trkpt><trkpt lat="44.43098768225382" lon="11.47463277689769"><ele>98.0</ele><time>2026-04-10T17:50:04.002Z</time></trkpt><trkpt lat="44.43103482299872" lon="11.47454210450188"><ele>98.0</ele><time>2026-04-10T17:50:06.002Z</time></trkpt><trkpt lat="44.43107384422378" lon="11.474457620733785"><ele>98.0</ele><time>2026-04-10T17:50:08.002Z</time></trkpt><trkpt lat="44.431121838423195" lon="11.474383387392766"><ele>97.99999999999999</ele><time>2026-04-10T17:50:10.002Z</time></trkpt><trkpt lat="44.43117326963397" lon="11.47429735901157"><ele>98.0</ele><time>2026-04-10T17:50:12.002Z</time></trkpt><trkpt lat="44.431224871208364" lon="11.474208937686042"><ele>98.16666666666666</ele><time>2026-04-10T17:50:14.002Z</time></trkpt><trkpt lat="44.431271795768765" lon="11.474129329904487"><ele>98.33333333333333</ele><time>2026-04-10T17:50:16.002Z</time></trkpt><trkpt lat="44.4313158488829" lon="11.474038328911728"><ele>98.5</ele><time>2026-04-10T17:50:18.002Z</time></trkpt><trkpt lat="44.431361223239854" lon="11.473951555297651"><ele>98.66666666666666</ele><time>2026-04-10T17:50:20.002Z</time></trkpt><trkpt lat="44.43141533625349" lon="11.473867236702255"><ele>98.83333333333333</ele><time>2026-04-10T17:50:22.002Z</time></trkpt><trkpt lat="44.43148965262432" lon="11.473821947791759"><ele>99.0</ele><time>2026-04-10T17:50:24.002Z</time></trkpt><trkpt lat="44.43157366914879" lon="11.47389572791319"><ele>99.0</ele><time>2026-04-10T17:50:26.002Z</time></trkpt><trkpt lat="44.431651389432716" lon="11.473992228197169"><ele>99.0</ele><time>2026-04-10T17:50:28.002Z</time></trkpt><trkpt lat="44.43174784824424" lon="11.474084689297033"><ele>99.0</ele><time>2026-04-10T17:50:30.002Z</time></trkpt><trkpt lat="44.43185101562764" lon="11.474167748532071"><ele>99.0</ele><time>2026-04-10T17:50:32.002Z</time></trkpt><trkpt lat="44.43195324912538" lon="11.474252345134468"><ele>99.0</ele><time>2026-04-10T17:50:34.002Z</time></trkpt><trkpt lat="44.43205730278522" lon="11.474335904662265"><ele>99.0</ele><time>2026-04-10T17:50:36.002Z</time></trkpt><trkpt lat="44.43216264780428" lon="11.47442554157909"><ele>99.0</ele><time>2026-04-10T17:50:38.002Z</time></trkpt><trkpt lat="44.432263706680246" lon="11.474511586560991"><ele>99.0</ele><time>2026-04-10T17:50:40.002Z</time></trkpt><trkpt lat="44.432320321826175" lon="11.474553586330332"><ele>99.0</ele><time>2026-04-10T17:50:41.002Z</time></trkpt><trkpt lat="44.43242220565561" lon="11.474661219262718"><ele>98.85714285714286</ele><time>2026-04-10T17:50:43.002Z</time></trkpt><trkpt lat="44.432477023885745" lon="11.474706162408166"><ele>98.71428571428571</ele><time>2026-04-10T17:50:44.002Z</time></trkpt><trkpt lat="44.432536368566" lon="11.474762136461877"><ele>98.57142857142857</ele><time>2026-04-10T17:50:45.002Z</time></trkpt><trkpt lat="44.432600971942364" lon="11.47481861419454"><ele>98.42857142857143</ele><time>2026-04-10T17:50:46.002Z</time></trkpt><trkpt lat="44.432665321595024" lon="11.474865815920078"><ele>98.28571428571428</ele><time>2026-04-10T17:50:47.002Z</time></trkpt><trkpt lat="44.43272615495759" lon="11.474914974802724"><ele>98.14285714285714</ele><time>2026-04-10T17:50:48.002Z</time></trkpt><trkpt lat="44.43278735436363" lon="11.47496779991278"><ele>98.0</ele><time>2026-04-10T17:50:49.002Z</time></trkpt><trkpt lat="44.43285427072358" lon="11.475022198768169"><ele>97.99999999999999</ele><time>2026-04-10T17:50:50.002Z</time></trkpt><trkpt lat="44.43291751917582" lon="11.47507070109227"><ele>98.0</ele><time>2026-04-10T17:50:51.002Z</time></trkpt><trkpt lat="44.43298142969608" lon="11.475120607214416"><ele>98.0</ele><time>2026-04-10T17:50:52.002Z</time></trkpt><trkpt lat="44.433044704024965" lon="11.475176235513162"><ele>98.0</ele><time>2026-04-10T17:50:53.002Z</time></trkpt><trkpt lat="44.43310884604863" lon="11.475237471104425"><ele>97.99999999999999</ele><time>2026-04-10T17:50:54.002Z</time></trkpt><trkpt lat="44.43317640830164" lon="11.475293872784892"><ele>98.0</ele><time>2026-04-10T17:50:55.002Z</time></trkpt><trkpt lat="44.43324872132244" lon="11.475347266461663"><ele>96.49999999999999</ele><time>2026-04-10T17:50:56.002Z</time></trkpt><trkpt lat="44.433321668697786" lon="11.475406963466805"><ele>95.0</ele><time>2026-04-10T17:50:57.002Z</time></trkpt><trkpt lat="44.43339047303901" lon="11.475470473252665"><ele>93.5</ele><time>2026-04-10T17:50:58.002Z</time></trkpt><trkpt lat="44.43346285407049" lon="11.475532530054974"><ele>92.0</ele><time>2026-04-10T17:50:59.002Z</time></trkpt><trkpt lat="44.433535289044194" lon="11.475587985579589"><ele>90.5</ele><time>2026-04-10T17:51:00.002Z</time></trkpt><trkpt lat="44.43360956652101" lon="11.47564539316266"><ele>89.0</ele><time>2026-04-10T17:51:01.002Z</time></trkpt><trkpt lat="44.43368367432665" lon="11.475710485421807"><ele>88.66666666666667</ele><time>2026-04-10T17:51:02.002Z</time></trkpt><trkpt lat="44.43375477979349" lon="11.475772842436534"><ele>88.33333333333334</ele><time>2026-04-10T17:51:03.002Z</time></trkpt><trkpt lat="44.43382644970328" lon="11.475830778486372"><ele>88.0</ele><time>2026-04-10T17:51:04.002Z</time></trkpt><trkpt lat="44.43389729885564" lon="11.475890315813617"><ele>87.66666666666667</ele><time>2026-04-10T17:51:05.002Z</time></trkpt><trkpt lat="44.43397011924893" lon="11.475957220936584"><ele>87.33333333333333</ele><time>2026-04-10T17:51:06.002Z</time></trkpt><trkpt lat="44.43404174592118" lon="11.476022270607801"><ele>87.0</ele><time>2026-04-10T17:51:07.002Z</time></trkpt><trkpt lat="44.434116330853286" lon="11.476084257644427"><ele>86.33333333333333</ele><time>2026-04-10T17:51:08.002Z</time></trkpt><trkpt lat="44.434185857368966" lon="11.476145196970062"><ele>85.66666666666667</ele><time>2026-04-10T17:51:09.002Z</time></trkpt><trkpt lat="44.43425751694073" lon="11.47620250811925"><ele>85.0</ele><time>2026-04-10T17:51:10.002Z</time></trkpt><trkpt lat="44.434329736610756" lon="11.476263280674551"><ele>84.33333333333334</ele><time>2026-04-10T17:51:11.002Z</time></trkpt><trkpt lat="44.43439983248807" lon="11.476326554153903"><ele>83.66666666666667</ele><time>2026-04-10T17:51:12.002Z</time></trkpt><trkpt lat="44.43447033237404" lon="11.476383247166961"><ele>83.0</ele><time>2026-04-10T17:51:13.002Z</time></trkpt><trkpt lat="44.43453698416621" lon="11.476442229542918"><ele>83.0</ele><time>2026-04-10T17:51:14.002Z</time></trkpt><trkpt lat="44.43460351437691" lon="11.47650186251029"><ele>83.0</ele><time>2026-04-10T17:51:15.002Z</time></trkpt><trkpt lat="44.434667674444555" lon="11.476556099666013"><ele>83.0</ele><time>2026-04-10T17:51:16.002Z</time></trkpt><trkpt lat="44.43473172520152" lon="11.47661047393389"><ele>83.0</ele><time>2026-04-10T17:51:17.002Z</time></trkpt><trkpt lat="44.43479373427817" lon="11.476664548685788"><ele>83.0</ele><time>2026-04-10T17:51:18.002Z</time></trkpt><trkpt lat="44.43485693651639" lon="11.476717915877465"><ele>83.0</ele><time>2026-04-10T17:51:19.002Z</time></trkpt><trkpt lat="44.434918679223024" lon="11.476768796038344"><ele>83.0</ele><time>2026-04-10T17:51:20.002Z</time></trkpt><trkpt lat="44.4349787848779" lon="11.476818218806418"><ele>82.57142857142857</ele><time>2026-04-10T17:51:21.002Z</time></trkpt><trkpt lat="44.435036292695926" lon="11.476864593927806"><ele>82.14285714285715</ele><time>2026-04-10T17:51:22.002Z</time></trkpt><trkpt lat="44.43509560659402" lon="11.476907321104862"><ele>81.71428571428572</ele><time>2026-04-10T17:51:23.002Z</time></trkpt><trkpt lat="44.43515364185095" lon="11.476951108841828"><ele>81.28571428571428</ele><time>2026-04-10T17:51:24.002Z</time></trkpt><trkpt lat="44.435201641661834" lon="11.477018082450941"><ele>80.85714285714286</ele><time>2026-04-10T17:51:25.002Z</time></trkpt><trkpt lat="44.435265377966516" lon="11.47704503730923"><ele>80.42857142857143</ele><time>2026-04-10T17:51:26.002Z</time></trkpt><trkpt lat="44.43531172011483" lon="11.477107540171986"><ele>80.0</ele><time>2026-04-10T17:51:27.002Z</time></trkpt><trkpt lat="44.43537166338041" lon="11.477146643147314"><ele>79.5</ele><time>2026-04-10T17:51:28.002Z</time></trkpt><trkpt lat="44.435478632294526" lon="11.477181542464647"><ele>79.0</ele><time>2026-04-10T17:51:30.002Z</time></trkpt><trkpt lat="44.43560079594549" lon="11.477183336458191"><ele>78.5</ele><time>2026-04-10T17:51:32.002Z</time></trkpt><trkpt lat="44.4357158205941" lon="11.47716411129056"><ele>78.0</ele><time>2026-04-10T17:51:34.002Z</time></trkpt><trkpt lat="44.43583310366377" lon="11.477140668019"><ele>77.8</ele><time>2026-04-10T17:51:36.002Z</time></trkpt><trkpt lat="44.43593890290772" lon="11.477086226379077"><ele>77.6</ele><time>2026-04-10T17:51:38.002Z</time></trkpt><trkpt lat="44.43604281476631" lon="11.477043948606337"><ele>77.4</ele><time>2026-04-10T17:51:40.002Z</time></trkpt><trkpt lat="44.436146368071206" lon="11.476995832245986"><ele>77.2</ele><time>2026-04-10T17:51:42.002Z</time></trkpt><trkpt lat="44.43624950669278" lon="11.476923350582224"><ele>77.0</ele><time>2026-04-10T17:51:44.002Z</time></trkpt><trkpt lat="44.436355349615745" lon="11.476846374105905"><ele>76.8</ele><time>2026-04-10T17:51:46.002Z</time></trkpt><trkpt lat="44.43641122933853" lon="11.476801581345129"><ele>76.6</ele><time>2026-04-10T17:51:47.002Z</time></trkpt><trkpt lat="44.436507979951024" lon="11.476710379971118"><ele>76.39999999999999</ele><time>2026-04-10T17:51:49.002Z</time></trkpt><trkpt lat="44.43661019040057" lon="11.476623391684795"><ele>76.2</ele><time>2026-04-10T17:51:51.002Z</time></trkpt><trkpt lat="44.436718984345475" lon="11.47655140236602"><ele>76.0</ele><time>2026-04-10T17:51:53.002Z</time></trkpt><trkpt lat="44.4368291975898" lon="11.476494928668924"><ele>76.0</ele><time>2026-04-10T17:51:55.002Z</time></trkpt><trkpt lat="44.436946198641365" lon="11.476457238166972"><ele>76.0</ele><time>2026-04-10T17:51:57.002Z</time></trkpt><trkpt lat="44.43706521075578" lon="11.476433442971084"><ele>76.0</ele><time>2026-04-10T17:51:59.002Z</time></trkpt><trkpt lat="44.43712983930057" lon="11.476432962718206"><ele>76.0</ele><time>2026-04-10T17:52:00.003Z</time></trkpt><trkpt lat="44.43724902510957" lon="11.476414334796923"><ele>76.0</ele><time>2026-04-10T17:52:02.003Z</time></trkpt><trkpt lat="44.43736593042122" lon="11.47640027479692"><ele>75.6</ele><time>2026-04-10T17:52:04.003Z</time></trkpt><trkpt lat="44.43748921488974" lon="11.476394619514453"><ele>75.19999999999999</ele><time>2026-04-10T17:52:06.003Z</time></trkpt><trkpt lat="44.43761003156331" lon="11.476383629288598"><ele>74.80000000000001</ele><time>2026-04-10T17:52:08.003Z</time></trkpt><trkpt lat="44.437738288480716" lon="11.476381859833241"><ele>74.4</ele><time>2026-04-10T17:52:10.003Z</time></trkpt><trkpt lat="44.43780187278878" lon="11.476365932407871"><ele>74.0</ele><time>2026-04-10T17:52:11.003Z</time></trkpt><trkpt lat="44.43786493320447" lon="11.476343319495443"><ele>74.0</ele><time>2026-04-10T17:52:12.003Z</time></trkpt><trkpt lat="44.43798496920336" lon="11.476316358818043"><ele>74.0</ele><time>2026-04-10T17:52:14.003Z</time></trkpt><trkpt lat="44.438102025879" lon="11.476285463866203"><ele>74.0</ele><time>2026-04-10T17:52:16.003Z</time></trkpt><trkpt lat="44.438221408071286" lon="11.476240211142544"><ele>74.0</ele><time>2026-04-10T17:52:18.003Z</time></trkpt><trkpt lat="44.43828376235986" lon="11.476220328206757"><ele>74.0</ele><time>2026-04-10T17:52:19.003Z</time></trkpt><trkpt lat="44.43834548080058" lon="11.476197744257059"><ele>73.8</ele><time>2026-04-10T17:52:20.003Z</time></trkpt><trkpt lat="44.43846130258121" lon="11.476154114329606"><ele>73.60000000000001</ele><time>2026-04-10T17:52:22.003Z</time></trkpt><trkpt lat="44.438575082320426" lon="11.47610460309043"><ele>73.4</ele><time>2026-04-10T17:52:24.003Z</time></trkpt><trkpt lat="44.43863788464635" lon="11.47607827096248"><ele>73.2</ele><time>2026-04-10T17:52:25.003Z</time></trkpt><trkpt lat="44.43875476802897" lon="11.476027229198365"><ele>73.0</ele><time>2026-04-10T17:52:27.003Z</time></trkpt><trkpt lat="44.438873544001325" lon="11.475999103797319"><ele>73.0</ele><time>2026-04-10T17:52:29.003Z</time></trkpt><trkpt lat="44.43898459406907" lon="11.4759429496039"><ele>73.0</ele><time>2026-04-10T17:52:31.003Z</time></trkpt><trkpt lat="44.439046449300484" lon="11.475924400171536"><ele>73.0</ele><time>2026-04-10T17:52:32.003Z</time></trkpt><trkpt lat="44.4391613041801" lon="11.475881854463745"><ele>73.0</ele><time>2026-04-10T17:52:34.003Z</time></trkpt><trkpt lat="44.43922464919594" lon="11.475883125030482"><ele>73.0</ele><time>2026-04-10T17:52:35.003Z</time></trkpt><trkpt lat="44.439337174825255" lon="11.475933978917679"><ele>73.0</ele><time>2026-04-10T17:52:37.003Z</time></trkpt><trkpt lat="44.43944894385499" lon="11.475988227423647"><ele>73.0</ele><time>2026-04-10T17:52:39.003Z</time></trkpt><trkpt lat="44.43955941644408" lon="11.476049955076968"><ele>73.0</ele><time>2026-04-10T17:52:41.003Z</time></trkpt><trkpt lat="44.43967127073236" lon="11.47611893647222"><ele>73.0</ele><time>2026-04-10T17:52:43.003Z</time></trkpt><trkpt lat="44.43972996933268" lon="11.476154484817805"><ele>73.0</ele><time>2026-04-10T17:52:44.003Z</time></trkpt><trkpt lat="44.43983855318555" lon="11.476215934574164"><ele>72.6</ele><time>2026-04-10T17:52:46.003Z</time></trkpt><trkpt lat="44.439952240658194" lon="11.476270863195559"><ele>72.19999999999999</ele><time>2026-04-10T17:52:48.003Z</time></trkpt><trkpt lat="44.440062381895835" lon="11.476349023348803"><ele>71.8</ele><time>2026-04-10T17:52:50.003Z</time></trkpt><trkpt lat="44.44017632827245" lon="11.476414503984655"><ele>71.39999999999999</ele><time>2026-04-10T17:52:52.003Z</time></trkpt><trkpt lat="44.44024039762761" lon="11.476429062309084"><ele>71.0</ele><time>2026-04-10T17:52:53.003Z</time></trkpt><trkpt lat="44.4402969654803" lon="11.47647177848381"><ele>71.0</ele><time>2026-04-10T17:52:54.003Z</time></trkpt><trkpt lat="44.44039879812416" lon="11.476545807381248"><ele>71.0</ele><time>2026-04-10T17:52:56.003Z</time></trkpt><trkpt lat="44.44051103765428" lon="11.476589851462075"><ele>71.0</ele><time>2026-04-10T17:52:58.003Z</time></trkpt><trkpt lat="44.440599444744635" lon="11.476682151739723"><ele>71.0</ele><time>2026-04-10T17:53:00.003Z</time></trkpt><trkpt lat="44.44060318558356" lon="11.476858554007334"><ele>70.5</ele><time>2026-04-10T17:53:02.003Z</time></trkpt><trkpt lat="44.44063344344117" lon="11.477001181111582"><ele>70.0</ele><time>2026-04-10T17:53:04.003Z</time></trkpt><trkpt lat="44.44072566321489" lon="11.477079648424237"><ele>69.5</ele><time>2026-04-10T17:53:06.003Z</time></trkpt><trkpt lat="44.44082009676501" lon="11.476930029372506"><ele>69.0</ele><time>2026-04-10T17:53:08.003Z</time></trkpt><trkpt lat="44.44084265479514" lon="11.47678669342332"><ele>69.0</ele><time>2026-04-10T17:53:10.003Z</time></trkpt><trkpt lat="44.44083012844624" lon="11.476697790034667"><ele>69.0</ele><time>2026-04-10T17:53:11.003Z</time></trkpt><trkpt lat="44.44087848223167" lon="11.47655694676476"><ele>69.0</ele><time>2026-04-10T17:53:13.003Z</time></trkpt><trkpt lat="44.44092904735372" lon="11.476418068617871"><ele>69.0</ele><time>2026-04-10T17:53:15.003Z</time></trkpt><trkpt lat="44.44097064239847" lon="11.476349647016084"><ele>69.0</ele><time>2026-04-10T17:53:16.003Z</time></trkpt><trkpt lat="44.441030204197325" lon="11.476191458961086"><ele>68.60000000000001</ele><time>2026-04-10T17:53:18.003Z</time></trkpt><trkpt lat="44.44109064925951" lon="11.476029784536898"><ele>68.2</ele><time>2026-04-10T17:53:20.003Z</time></trkpt><trkpt lat="44.44114179135913" lon="11.475874615865024"><ele>67.80000000000001</ele><time>2026-04-10T17:53:22.003Z</time></trkpt><trkpt lat="44.44116457619435" lon="11.475791800937749"><ele>67.4</ele><time>2026-04-10T17:53:23.003Z</time></trkpt><trkpt lat="44.4412309087601" lon="11.475638396253732"><ele>67.0</ele><time>2026-04-10T17:53:25.003Z</time></trkpt><trkpt lat="44.441259407153034" lon="11.475554025834127"><ele>67.0</ele><time>2026-04-10T17:53:26.003Z</time></trkpt><trkpt lat="44.441311286687345" lon="11.475403136481862"><ele>67.0</ele><time>2026-04-10T17:53:28.003Z</time></trkpt><trkpt lat="44.44137248353385" lon="11.475245068369144"><ele>67.0</ele><time>2026-04-10T17:53:30.003Z</time></trkpt><trkpt lat="44.44143729585947" lon="11.475101452168454"><ele>67.0</ele><time>2026-04-10T17:53:32.003Z</time></trkpt><trkpt lat="44.44146553447824" lon="11.475021742181344"><ele>67.0</ele><time>2026-04-10T17:53:33.003Z</time></trkpt><trkpt lat="44.44149186757842" lon="11.474939635642514"><ele>67.0</ele><time>2026-04-10T17:53:34.003Z</time></trkpt><trkpt lat="44.44155554522429" lon="11.474799781143933"><ele>67.0</ele><time>2026-04-10T17:53:36.003Z</time></trkpt><trkpt lat="44.441612207139734" lon="11.47464732966181"><ele>67.0</ele><time>2026-04-10T17:53:38.003Z</time></trkpt><trkpt lat="44.44166847466859" lon="11.474496194094202"><ele>67.0</ele><time>2026-04-10T17:53:40.003Z</time></trkpt><trkpt lat="44.441700848099465" lon="11.474419503693598"><ele>67.0</ele><time>2026-04-10T17:53:41.003Z</time></trkpt><trkpt lat="44.44175829981413" lon="11.474267614680965"><ele>66.83333333333333</ele><time>2026-04-10T17:53:43.003Z</time></trkpt><trkpt lat="44.44178944502277" lon="11.474189488417252"><ele>66.66666666666666</ele><time>2026-04-10T17:53:44.003Z</time></trkpt><trkpt lat="44.441822309748176" lon="11.474112146540548"><ele>66.5</ele><time>2026-04-10T17:53:45.003Z</time></trkpt><trkpt lat="44.44185146822234" lon="11.474033016933095"><ele>66.33333333333333</ele><time>2026-04-10T17:53:46.003Z</time></trkpt><trkpt lat="44.44189324842318" lon="11.473882289669287"><ele>66.16666666666667</ele><time>2026-04-10T17:53:48.003Z</time></trkpt><trkpt lat="44.44194814127199" lon="11.473736431902037"><ele>66.0</ele><time>2026-04-10T17:53:50.003Z</time></trkpt><trkpt lat="44.44201035155149" lon="11.473605832406715"><ele>65.0</ele><time>2026-04-10T17:53:52.003Z</time></trkpt><trkpt lat="44.44205485368204" lon="11.473463842989476"><ele>65.0</ele><time>2026-04-10T17:53:54.003Z</time></trkpt><trkpt lat="44.4420955603708" lon="11.473329644296197"><ele>65.0</ele><time>2026-04-10T17:53:56.003Z</time></trkpt></trkseg></trk></gpx>